<?xml version="1.0" encoding="UTF-8" standalone="no" ?>
<gpx xmlns="http://www.topografix.com/GPX/1/1" xmlns:xsi="http://www.w3.org/2001/XMLSchema-instance" xsi:schemaLocation="http://www.topografix.com/GPX/1/1 http://www.topografix.com/GPX/1/1/gpx.xsd" version="1.1" creator="VisuGPX - https://www.visugpx.com">
  <metadata>
    <name>170524HR3ROBJeunes</name>
    <desc><![CDATA[ce fut une excellente sortie avec beaucoup de soleil]]></desc>
  </metadata>
  <trk>
    <name><![CDATA[170524HR3ROBJeunes]]></name>
    <trkseg>
      <trkpt lat="43.41584" lon="6.07044">
        <ele>236.60000610352</ele>
        <time>2017-05-24T12:03:05Z</time>
      </trkpt>
      <trkpt lat="43.41583" lon="6.07044">
        <ele>237.39999389648</ele>
        <time>2017-05-24T12:03:06Z</time>
      </trkpt>
      <trkpt lat="43.41582" lon="6.07042">
        <ele>237</ele>
        <time>2017-05-24T12:03:11Z</time>
      </trkpt>
      <trkpt lat="43.41581" lon="6.0704">
        <ele>237.19999694824</ele>
        <time>2017-05-24T12:03:21Z</time>
      </trkpt>
      <trkpt lat="43.4158" lon="6.07039">
        <ele>237.19999694824</ele>
        <time>2017-05-24T12:03:31Z</time>
      </trkpt>
      <trkpt lat="43.41579" lon="6.0704">
        <ele>237.19999694824</ele>
        <time>2017-05-24T12:03:41Z</time>
      </trkpt>
      <trkpt lat="43.41578" lon="6.07041">
        <ele>237.39999389648</ele>
        <time>2017-05-24T12:03:51Z</time>
      </trkpt>
      <trkpt lat="43.41581" lon="6.07034">
        <ele>237</ele>
        <time>2017-05-24T12:04:01Z</time>
      </trkpt>
      <trkpt lat="43.41581" lon="6.07033">
        <ele>236.80000305176</ele>
        <time>2017-05-24T12:04:11Z</time>
      </trkpt>
      <trkpt lat="43.41582" lon="6.07033">
        <ele>236.80000305176</ele>
        <time>2017-05-24T12:04:31Z</time>
      </trkpt>
      <trkpt lat="43.41582" lon="6.07033">
        <ele>236.80000305176</ele>
        <time>2017-05-24T12:04:34Z</time>
      </trkpt>
      <trkpt lat="43.41583" lon="6.07033">
        <ele>236.80000305176</ele>
        <time>2017-05-24T12:04:40Z</time>
      </trkpt>
      <trkpt lat="43.41583" lon="6.07033">
        <ele>236.80000305176</ele>
        <time>2017-05-24T12:04:41Z</time>
      </trkpt>
      <trkpt lat="43.41584" lon="6.07033">
        <ele>236.80000305176</ele>
        <time>2017-05-24T12:04:44Z</time>
      </trkpt>
      <trkpt lat="43.41583" lon="6.07032">
        <ele>236.80000305176</ele>
        <time>2017-05-24T12:04:46Z</time>
      </trkpt>
      <trkpt lat="43.41583" lon="6.07032">
        <ele>236.80000305176</ele>
        <time>2017-05-24T12:04:51Z</time>
      </trkpt>
      <trkpt lat="43.41583" lon="6.07033">
        <ele>236.80000305176</ele>
        <time>2017-05-24T12:05:01Z</time>
      </trkpt>
      <trkpt lat="43.41581" lon="6.07034">
        <ele>236.80000305176</ele>
        <time>2017-05-24T12:05:11Z</time>
      </trkpt>
      <trkpt lat="43.41581" lon="6.07035">
        <ele>236.80000305176</ele>
        <time>2017-05-24T12:05:21Z</time>
      </trkpt>
      <trkpt lat="43.41582" lon="6.07038">
        <ele>236.80000305176</ele>
        <time>2017-05-24T12:05:31Z</time>
      </trkpt>
      <trkpt lat="43.41581" lon="6.07037">
        <ele>236.80000305176</ele>
        <time>2017-05-24T12:05:51Z</time>
      </trkpt>
      <trkpt lat="43.41581" lon="6.07037">
        <ele>236.80000305176</ele>
        <time>2017-05-24T12:06:01Z</time>
      </trkpt>
      <trkpt lat="43.41581" lon="6.07037">
        <ele>236.80000305176</ele>
        <time>2017-05-24T12:06:11Z</time>
      </trkpt>
      <trkpt lat="43.41581" lon="6.07037">
        <ele>236.80000305176</ele>
        <time>2017-05-24T12:06:21Z</time>
      </trkpt>
      <trkpt lat="43.41581" lon="6.0704">
        <ele>236.80000305176</ele>
        <time>2017-05-24T12:06:23Z</time>
      </trkpt>
      <trkpt lat="43.41581" lon="6.07046">
        <ele>237</ele>
        <time>2017-05-24T12:06:25Z</time>
      </trkpt>
      <trkpt lat="43.41583" lon="6.07072">
        <ele>237.19999694824</ele>
        <time>2017-05-24T12:06:31Z</time>
      </trkpt>
      <trkpt lat="43.41581" lon="6.07106">
        <ele>237.39999389648</ele>
        <time>2017-05-24T12:06:39Z</time>
      </trkpt>
      <trkpt lat="43.41576" lon="6.07111">
        <ele>237.19999694824</ele>
        <time>2017-05-24T12:06:41Z</time>
      </trkpt>
      <trkpt lat="43.41548" lon="6.07111">
        <ele>237</ele>
        <time>2017-05-24T12:06:50Z</time>
      </trkpt>
      <trkpt lat="43.41547" lon="6.07106">
        <ele>237</ele>
        <time>2017-05-24T12:06:51Z</time>
      </trkpt>
      <trkpt lat="43.41539" lon="6.07079">
        <ele>236.80000305176</ele>
        <time>2017-05-24T12:06:57Z</time>
      </trkpt>
      <trkpt lat="43.41531" lon="6.07077">
        <ele>236.80000305176</ele>
        <time>2017-05-24T12:06:59Z</time>
      </trkpt>
      <trkpt lat="43.41521" lon="6.07079">
        <ele>236.80000305176</ele>
        <time>2017-05-24T12:07:01Z</time>
      </trkpt>
      <trkpt lat="43.41499" lon="6.07083">
        <ele>235.60000610352</ele>
        <time>2017-05-24T12:07:06Z</time>
      </trkpt>
      <trkpt lat="43.41495" lon="6.07082">
        <ele>235.60000610352</ele>
        <time>2017-05-24T12:07:07Z</time>
      </trkpt>
      <trkpt lat="43.41491" lon="6.0708">
        <ele>235.39999389648</ele>
        <time>2017-05-24T12:07:08Z</time>
      </trkpt>
      <trkpt lat="43.41481" lon="6.07075">
        <ele>235.19999694824</ele>
        <time>2017-05-24T12:07:11Z</time>
      </trkpt>
      <trkpt lat="43.41475" lon="6.07075">
        <ele>235.39999389648</ele>
        <time>2017-05-24T12:07:16Z</time>
      </trkpt>
      <trkpt lat="43.41473" lon="6.07077">
        <ele>235.60000610352</ele>
        <time>2017-05-24T12:07:18Z</time>
      </trkpt>
      <trkpt lat="43.41469" lon="6.07073">
        <ele>235.39999389648</ele>
        <time>2017-05-24T12:07:21Z</time>
      </trkpt>
      <trkpt lat="43.41468" lon="6.07073">
        <ele>235.39999389648</ele>
        <time>2017-05-24T12:07:22Z</time>
      </trkpt>
      <trkpt lat="43.41465" lon="6.07074">
        <ele>235.19999694824</ele>
        <time>2017-05-24T12:07:25Z</time>
      </trkpt>
      <trkpt lat="43.41463" lon="6.07072">
        <ele>235</ele>
        <time>2017-05-24T12:07:31Z</time>
      </trkpt>
      <trkpt lat="43.41463" lon="6.0707">
        <ele>235</ele>
        <time>2017-05-24T12:07:33Z</time>
      </trkpt>
      <trkpt lat="43.41466" lon="6.07062">
        <ele>235.19999694824</ele>
        <time>2017-05-24T12:07:36Z</time>
      </trkpt>
      <trkpt lat="43.41474" lon="6.07047">
        <ele>235.19999694824</ele>
        <time>2017-05-24T12:07:40Z</time>
      </trkpt>
      <trkpt lat="43.41476" lon="6.07042">
        <ele>235.19999694824</ele>
        <time>2017-05-24T12:07:41Z</time>
      </trkpt>
      <trkpt lat="43.41484" lon="6.07024">
        <ele>235</ele>
        <time>2017-05-24T12:07:45Z</time>
      </trkpt>
      <trkpt lat="43.41492" lon="6.06996">
        <ele>235.39999389648</ele>
        <time>2017-05-24T12:07:51Z</time>
      </trkpt>
      <trkpt lat="43.4148" lon="6.06954">
        <ele>236.19999694824</ele>
        <time>2017-05-24T12:08:00Z</time>
      </trkpt>
      <trkpt lat="43.41478" lon="6.0695">
        <ele>236.19999694824</ele>
        <time>2017-05-24T12:08:01Z</time>
      </trkpt>
      <trkpt lat="43.41466" lon="6.06931">
        <ele>236.60000610352</ele>
        <time>2017-05-24T12:08:06Z</time>
      </trkpt>
      <trkpt lat="43.4146" lon="6.0692">
        <ele>237</ele>
        <time>2017-05-24T12:08:11Z</time>
      </trkpt>
      <trkpt lat="43.41459" lon="6.06917">
        <ele>237.19999694824</ele>
        <time>2017-05-24T12:08:19Z</time>
      </trkpt>
      <trkpt lat="43.4146" lon="6.06914">
        <ele>237.19999694824</ele>
        <time>2017-05-24T12:08:21Z</time>
      </trkpt>
      <trkpt lat="43.4146" lon="6.06911">
        <ele>237.19999694824</ele>
        <time>2017-05-24T12:08:22Z</time>
      </trkpt>
      <trkpt lat="43.41459" lon="6.06877">
        <ele>237.60000610352</ele>
        <time>2017-05-24T12:08:31Z</time>
      </trkpt>
      <trkpt lat="43.41457" lon="6.06872">
        <ele>237.60000610352</ele>
        <time>2017-05-24T12:08:32Z</time>
      </trkpt>
      <trkpt lat="43.41444" lon="6.06861">
        <ele>237.80000305176</ele>
        <time>2017-05-24T12:08:36Z</time>
      </trkpt>
      <trkpt lat="43.41421" lon="6.0686">
        <ele>237.80000305176</ele>
        <time>2017-05-24T12:08:41Z</time>
      </trkpt>
      <trkpt lat="43.41411" lon="6.06856">
        <ele>237.60000610352</ele>
        <time>2017-05-24T12:08:43Z</time>
      </trkpt>
      <trkpt lat="43.4138" lon="6.0683">
        <ele>237.80000305176</ele>
        <time>2017-05-24T12:08:51Z</time>
      </trkpt>
      <trkpt lat="43.41338" lon="6.06809">
        <ele>237.80000305176</ele>
        <time>2017-05-24T12:09:01Z</time>
      </trkpt>
      <trkpt lat="43.41319" lon="6.06797">
        <ele>237.19999694824</ele>
        <time>2017-05-24T12:09:05Z</time>
      </trkpt>
      <trkpt lat="43.41304" lon="6.06785">
        <ele>236.39999389648</ele>
        <time>2017-05-24T12:09:08Z</time>
      </trkpt>
      <trkpt lat="43.41291" lon="6.06771">
        <ele>236</ele>
        <time>2017-05-24T12:09:11Z</time>
      </trkpt>
      <trkpt lat="43.41286" lon="6.06765">
        <ele>235.80000305176</ele>
        <time>2017-05-24T12:09:12Z</time>
      </trkpt>
      <trkpt lat="43.41277" lon="6.06745">
        <ele>235.60000610352</ele>
        <time>2017-05-24T12:09:15Z</time>
      </trkpt>
      <trkpt lat="43.41273" lon="6.06731">
        <ele>235.80000305176</ele>
        <time>2017-05-24T12:09:17Z</time>
      </trkpt>
      <trkpt lat="43.4127" lon="6.06705">
        <ele>236</ele>
        <time>2017-05-24T12:09:21Z</time>
      </trkpt>
      <trkpt lat="43.41263" lon="6.06683">
        <ele>236</ele>
        <time>2017-05-24T12:09:26Z</time>
      </trkpt>
      <trkpt lat="43.41246" lon="6.0669">
        <ele>235.60000610352</ele>
        <time>2017-05-24T12:09:31Z</time>
      </trkpt>
      <trkpt lat="43.41245" lon="6.06692">
        <ele>235.19999694824</ele>
        <time>2017-05-24T12:09:32Z</time>
      </trkpt>
      <trkpt lat="43.41242" lon="6.06698">
        <ele>234.39999389648</ele>
        <time>2017-05-24T12:09:38Z</time>
      </trkpt>
      <trkpt lat="43.41242" lon="6.06702">
        <ele>234.39999389648</ele>
        <time>2017-05-24T12:09:40Z</time>
      </trkpt>
      <trkpt lat="43.41243" lon="6.06705">
        <ele>234.39999389648</ele>
        <time>2017-05-24T12:09:41Z</time>
      </trkpt>
      <trkpt lat="43.41246" lon="6.0671">
        <ele>234.39999389648</ele>
        <time>2017-05-24T12:09:43Z</time>
      </trkpt>
      <trkpt lat="43.41245" lon="6.06712">
        <ele>234.39999389648</ele>
        <time>2017-05-24T12:09:45Z</time>
      </trkpt>
      <trkpt lat="43.41238" lon="6.06713">
        <ele>234.19999694824</ele>
        <time>2017-05-24T12:09:48Z</time>
      </trkpt>
      <trkpt lat="43.41224" lon="6.06716">
        <ele>233.80000305176</ele>
        <time>2017-05-24T12:09:51Z</time>
      </trkpt>
      <trkpt lat="43.41214" lon="6.06717">
        <ele>233.39999389648</ele>
        <time>2017-05-24T12:09:53Z</time>
      </trkpt>
      <trkpt lat="43.41201" lon="6.06719">
        <ele>233.19999694824</ele>
        <time>2017-05-24T12:09:56Z</time>
      </trkpt>
      <trkpt lat="43.41177" lon="6.06717">
        <ele>232.80000305176</ele>
        <time>2017-05-24T12:10:01Z</time>
      </trkpt>
      <trkpt lat="43.41173" lon="6.06716">
        <ele>232.80000305176</ele>
        <time>2017-05-24T12:10:02Z</time>
      </trkpt>
      <trkpt lat="43.41159" lon="6.06716">
        <ele>232.39999389648</ele>
        <time>2017-05-24T12:10:05Z</time>
      </trkpt>
      <trkpt lat="43.41146" lon="6.06717">
        <ele>232.19999694824</ele>
        <time>2017-05-24T12:10:08Z</time>
      </trkpt>
      <trkpt lat="43.41137" lon="6.0672">
        <ele>232</ele>
        <time>2017-05-24T12:10:10Z</time>
      </trkpt>
      <trkpt lat="43.41133" lon="6.06722">
        <ele>232</ele>
        <time>2017-05-24T12:10:11Z</time>
      </trkpt>
      <trkpt lat="43.41094" lon="6.06746">
        <ele>232</ele>
        <time>2017-05-24T12:10:21Z</time>
      </trkpt>
      <trkpt lat="43.41079" lon="6.06786">
        <ele>231.80000305176</ele>
        <time>2017-05-24T12:10:31Z</time>
      </trkpt>
      <trkpt lat="43.41077" lon="6.06804">
        <ele>231.80000305176</ele>
        <time>2017-05-24T12:10:34Z</time>
      </trkpt>
      <trkpt lat="43.41067" lon="6.06844">
        <ele>231.80000305176</ele>
        <time>2017-05-24T12:10:41Z</time>
      </trkpt>
      <trkpt lat="43.41063" lon="6.0687">
        <ele>232.60000610352</ele>
        <time>2017-05-24T12:10:47Z</time>
      </trkpt>
      <trkpt lat="43.41059" lon="6.06872">
        <ele>233.19999694824</ele>
        <time>2017-05-24T12:10:49Z</time>
      </trkpt>
      <trkpt lat="43.41052" lon="6.06875">
        <ele>233.60000610352</ele>
        <time>2017-05-24T12:10:51Z</time>
      </trkpt>
      <trkpt lat="43.41017" lon="6.06893">
        <ele>232.19999694824</ele>
        <time>2017-05-24T12:11:00Z</time>
      </trkpt>
      <trkpt lat="43.41016" lon="6.06895">
        <ele>232</ele>
        <time>2017-05-24T12:11:01Z</time>
      </trkpt>
      <trkpt lat="43.41012" lon="6.06907">
        <ele>232.39999389648</ele>
        <time>2017-05-24T12:11:11Z</time>
      </trkpt>
      <trkpt lat="43.40977" lon="6.06929">
        <ele>231.60000610352</ele>
        <time>2017-05-24T12:11:21Z</time>
      </trkpt>
      <trkpt lat="43.40934" lon="6.06945">
        <ele>231.39999389648</ele>
        <time>2017-05-24T12:11:31Z</time>
      </trkpt>
      <trkpt lat="43.40913" lon="6.06951">
        <ele>231.39999389648</ele>
        <time>2017-05-24T12:11:36Z</time>
      </trkpt>
      <trkpt lat="43.40905" lon="6.06962">
        <ele>231.80000305176</ele>
        <time>2017-05-24T12:11:39Z</time>
      </trkpt>
      <trkpt lat="43.40903" lon="6.06973">
        <ele>232.19999694824</ele>
        <time>2017-05-24T12:11:41Z</time>
      </trkpt>
      <trkpt lat="43.40901" lon="6.06985">
        <ele>232.39999389648</ele>
        <time>2017-05-24T12:11:43Z</time>
      </trkpt>
      <trkpt lat="43.40895" lon="6.06994">
        <ele>232.39999389648</ele>
        <time>2017-05-24T12:11:45Z</time>
      </trkpt>
      <trkpt lat="43.4087" lon="6.07002">
        <ele>232.19999694824</ele>
        <time>2017-05-24T12:11:51Z</time>
      </trkpt>
      <trkpt lat="43.40859" lon="6.07005">
        <ele>232.39999389648</ele>
        <time>2017-05-24T12:11:54Z</time>
      </trkpt>
      <trkpt lat="43.40844" lon="6.0701">
        <ele>232.60000610352</ele>
        <time>2017-05-24T12:12:00Z</time>
      </trkpt>
      <trkpt lat="43.40843" lon="6.07011">
        <ele>232.60000610352</ele>
        <time>2017-05-24T12:12:01Z</time>
      </trkpt>
      <trkpt lat="43.40842" lon="6.07014">
        <ele>232.60000610352</ele>
        <time>2017-05-24T12:12:02Z</time>
      </trkpt>
      <trkpt lat="43.40844" lon="6.0708">
        <ele>232.39999389648</ele>
        <time>2017-05-24T12:12:14Z</time>
      </trkpt>
      <trkpt lat="43.40841" lon="6.07117">
        <ele>232.19999694824</ele>
        <time>2017-05-24T12:12:19Z</time>
      </trkpt>
      <trkpt lat="43.40839" lon="6.07131">
        <ele>232.19999694824</ele>
        <time>2017-05-24T12:12:21Z</time>
      </trkpt>
      <trkpt lat="43.40824" lon="6.07177">
        <ele>232.19999694824</ele>
        <time>2017-05-24T12:12:28Z</time>
      </trkpt>
      <trkpt lat="43.40815" lon="6.07195">
        <ele>232.60000610352</ele>
        <time>2017-05-24T12:12:31Z</time>
      </trkpt>
      <trkpt lat="43.40803" lon="6.07214">
        <ele>232.80000305176</ele>
        <time>2017-05-24T12:12:35Z</time>
      </trkpt>
      <trkpt lat="43.40781" lon="6.07238">
        <ele>232.80000305176</ele>
        <time>2017-05-24T12:12:41Z</time>
      </trkpt>
      <trkpt lat="43.40741" lon="6.07262">
        <ele>233.19999694824</ele>
        <time>2017-05-24T12:12:51Z</time>
      </trkpt>
      <trkpt lat="43.40724" lon="6.07271">
        <ele>233.39999389648</ele>
        <time>2017-05-24T12:12:55Z</time>
      </trkpt>
      <trkpt lat="43.40704" lon="6.07282">
        <ele>234.19999694824</ele>
        <time>2017-05-24T12:13:00Z</time>
      </trkpt>
      <trkpt lat="43.40683" lon="6.07293">
        <ele>234.60000610352</ele>
        <time>2017-05-24T12:13:05Z</time>
      </trkpt>
      <trkpt lat="43.40667" lon="6.07303">
        <ele>235.19999694824</ele>
        <time>2017-05-24T12:13:09Z</time>
      </trkpt>
      <trkpt lat="43.40659" lon="6.07308">
        <ele>235.39999389648</ele>
        <time>2017-05-24T12:13:11Z</time>
      </trkpt>
      <trkpt lat="43.40627" lon="6.07323">
        <ele>236.60000610352</ele>
        <time>2017-05-24T12:13:20Z</time>
      </trkpt>
      <trkpt lat="43.40625" lon="6.07321">
        <ele>236.80000305176</ele>
        <time>2017-05-24T12:13:21Z</time>
      </trkpt>
      <trkpt lat="43.40605" lon="6.07304">
        <ele>237</ele>
        <time>2017-05-24T12:13:28Z</time>
      </trkpt>
      <trkpt lat="43.40599" lon="6.07296">
        <ele>237.39999389648</ele>
        <time>2017-05-24T12:13:31Z</time>
      </trkpt>
      <trkpt lat="43.40598" lon="6.07294">
        <ele>237.60000610352</ele>
        <time>2017-05-24T12:13:33Z</time>
      </trkpt>
      <trkpt lat="43.40598" lon="6.07294">
        <ele>237.80000305176</ele>
        <time>2017-05-24T12:13:35Z</time>
      </trkpt>
      <trkpt lat="43.40598" lon="6.07294">
        <ele>238.19999694824</ele>
        <time>2017-05-24T12:13:41Z</time>
      </trkpt>
      <trkpt lat="43.40598" lon="6.07294">
        <ele>238</ele>
        <time>2017-05-24T12:13:46Z</time>
      </trkpt>
      <trkpt lat="43.40597" lon="6.07293">
        <ele>238</ele>
        <time>2017-05-24T12:13:57Z</time>
      </trkpt>
      <trkpt lat="43.40598" lon="6.07293">
        <ele>238</ele>
        <time>2017-05-24T12:14:01Z</time>
      </trkpt>
      <trkpt lat="43.40598" lon="6.07293">
        <ele>238</ele>
        <time>2017-05-24T12:14:05Z</time>
      </trkpt>
      <trkpt lat="43.40598" lon="6.07293">
        <ele>237.80000305176</ele>
        <time>2017-05-24T12:14:21Z</time>
      </trkpt>
      <trkpt lat="43.40596" lon="6.07292">
        <ele>237.80000305176</ele>
        <time>2017-05-24T12:14:38Z</time>
      </trkpt>
      <trkpt lat="43.40592" lon="6.07291">
        <ele>237.80000305176</ele>
        <time>2017-05-24T12:14:40Z</time>
      </trkpt>
      <trkpt lat="43.40589" lon="6.07293">
        <ele>238</ele>
        <time>2017-05-24T12:14:41Z</time>
      </trkpt>
      <trkpt lat="43.40578" lon="6.07299">
        <ele>238.19999694824</ele>
        <time>2017-05-24T12:14:44Z</time>
      </trkpt>
      <trkpt lat="43.40574" lon="6.073">
        <ele>238.39999389648</ele>
        <time>2017-05-24T12:14:45Z</time>
      </trkpt>
      <trkpt lat="43.40566" lon="6.07301">
        <ele>238.19999694824</ele>
        <time>2017-05-24T12:14:47Z</time>
      </trkpt>
      <trkpt lat="43.40557" lon="6.07299">
        <ele>238.39999389648</ele>
        <time>2017-05-24T12:14:49Z</time>
      </trkpt>
      <trkpt lat="43.40548" lon="6.07297">
        <ele>238.60000610352</ele>
        <time>2017-05-24T12:14:51Z</time>
      </trkpt>
      <trkpt lat="43.40538" lon="6.07295">
        <ele>238.60000610352</ele>
        <time>2017-05-24T12:14:53Z</time>
      </trkpt>
      <trkpt lat="43.40529" lon="6.07292">
        <ele>238.80000305176</ele>
        <time>2017-05-24T12:14:55Z</time>
      </trkpt>
      <trkpt lat="43.40512" lon="6.07282">
        <ele>238.80000305176</ele>
        <time>2017-05-24T12:14:59Z</time>
      </trkpt>
      <trkpt lat="43.40508" lon="6.0728">
        <ele>239</ele>
        <time>2017-05-24T12:15:00Z</time>
      </trkpt>
      <trkpt lat="43.40496" lon="6.07275">
        <ele>239.19999694824</ele>
        <time>2017-05-24T12:15:03Z</time>
      </trkpt>
      <trkpt lat="43.40483" lon="6.07273">
        <ele>239.39999389648</ele>
        <time>2017-05-24T12:15:06Z</time>
      </trkpt>
      <trkpt lat="43.40462" lon="6.07274">
        <ele>239.80000305176</ele>
        <time>2017-05-24T12:15:11Z</time>
      </trkpt>
      <trkpt lat="43.40446" lon="6.07276">
        <ele>240.80000305176</ele>
        <time>2017-05-24T12:15:15Z</time>
      </trkpt>
      <trkpt lat="43.40419" lon="6.07279">
        <ele>242</ele>
        <time>2017-05-24T12:15:22Z</time>
      </trkpt>
      <trkpt lat="43.40399" lon="6.07274">
        <ele>243</ele>
        <time>2017-05-24T12:15:28Z</time>
      </trkpt>
      <trkpt lat="43.40392" lon="6.07264">
        <ele>243.19999694824</ele>
        <time>2017-05-24T12:15:31Z</time>
      </trkpt>
      <trkpt lat="43.4036" lon="6.07239">
        <ele>243.80000305176</ele>
        <time>2017-05-24T12:15:41Z</time>
      </trkpt>
      <trkpt lat="43.40341" lon="6.07225">
        <ele>244.19999694824</ele>
        <time>2017-05-24T12:15:47Z</time>
      </trkpt>
      <trkpt lat="43.4031" lon="6.0721">
        <ele>245.19999694824</ele>
        <time>2017-05-24T12:15:56Z</time>
      </trkpt>
      <trkpt lat="43.40295" lon="6.07199">
        <ele>246</ele>
        <time>2017-05-24T12:16:01Z</time>
      </trkpt>
      <trkpt lat="43.40289" lon="6.07193">
        <ele>246.19999694824</ele>
        <time>2017-05-24T12:16:03Z</time>
      </trkpt>
      <trkpt lat="43.40274" lon="6.07174">
        <ele>246.39999389648</ele>
        <time>2017-05-24T12:16:08Z</time>
      </trkpt>
      <trkpt lat="43.40267" lon="6.07168">
        <ele>246.39999389648</ele>
        <time>2017-05-24T12:16:10Z</time>
      </trkpt>
      <trkpt lat="43.40263" lon="6.07166">
        <ele>246.39999389648</ele>
        <time>2017-05-24T12:16:11Z</time>
      </trkpt>
      <trkpt lat="43.40259" lon="6.07165">
        <ele>246.39999389648</ele>
        <time>2017-05-24T12:16:12Z</time>
      </trkpt>
      <trkpt lat="43.40224" lon="6.07169">
        <ele>247.39999389648</ele>
        <time>2017-05-24T12:16:21Z</time>
      </trkpt>
      <trkpt lat="43.40211" lon="6.07174">
        <ele>248.39999389648</ele>
        <time>2017-05-24T12:16:25Z</time>
      </trkpt>
      <trkpt lat="43.40203" lon="6.07178">
        <ele>249</ele>
        <time>2017-05-24T12:16:28Z</time>
      </trkpt>
      <trkpt lat="43.40197" lon="6.07181">
        <ele>249.39999389648</ele>
        <time>2017-05-24T12:16:30Z</time>
      </trkpt>
      <trkpt lat="43.40186" lon="6.07189">
        <ele>250.60000610352</ele>
        <time>2017-05-24T12:16:34Z</time>
      </trkpt>
      <trkpt lat="43.40177" lon="6.07195">
        <ele>251.60000610352</ele>
        <time>2017-05-24T12:16:37Z</time>
      </trkpt>
      <trkpt lat="43.40166" lon="6.07204">
        <ele>252.80000305176</ele>
        <time>2017-05-24T12:16:41Z</time>
      </trkpt>
      <trkpt lat="43.40157" lon="6.07213">
        <ele>253.80000305176</ele>
        <time>2017-05-24T12:16:45Z</time>
      </trkpt>
      <trkpt lat="43.40145" lon="6.07227">
        <ele>254.80000305176</ele>
        <time>2017-05-24T12:16:51Z</time>
      </trkpt>
      <trkpt lat="43.4014" lon="6.07243">
        <ele>255.60000610352</ele>
        <time>2017-05-24T12:16:58Z</time>
      </trkpt>
      <trkpt lat="43.4014" lon="6.07249">
        <ele>255.60000610352</ele>
        <time>2017-05-24T12:17:01Z</time>
      </trkpt>
      <trkpt lat="43.40142" lon="6.07271">
        <ele>255.80000305176</ele>
        <time>2017-05-24T12:17:07Z</time>
      </trkpt>
      <trkpt lat="43.40142" lon="6.07288">
        <ele>255.60000610352</ele>
        <time>2017-05-24T12:17:11Z</time>
      </trkpt>
      <trkpt lat="43.40141" lon="6.07307">
        <ele>255.80000305176</ele>
        <time>2017-05-24T12:17:16Z</time>
      </trkpt>
      <trkpt lat="43.40139" lon="6.07328">
        <ele>256.20001220703</ele>
        <time>2017-05-24T12:17:21Z</time>
      </trkpt>
      <trkpt lat="43.40135" lon="6.07375">
        <ele>256.79998779297</ele>
        <time>2017-05-24T12:17:31Z</time>
      </trkpt>
      <trkpt lat="43.4014" lon="6.07423">
        <ele>257.20001220703</ele>
        <time>2017-05-24T12:17:41Z</time>
      </trkpt>
      <trkpt lat="43.40142" lon="6.07456">
        <ele>258</ele>
        <time>2017-05-24T12:17:48Z</time>
      </trkpt>
      <trkpt lat="43.40141" lon="6.0747">
        <ele>258.20001220703</ele>
        <time>2017-05-24T12:17:51Z</time>
      </trkpt>
      <trkpt lat="43.40137" lon="6.07496">
        <ele>259</ele>
        <time>2017-05-24T12:17:57Z</time>
      </trkpt>
      <trkpt lat="43.40134" lon="6.07508">
        <ele>259.79998779297</ele>
        <time>2017-05-24T12:18:00Z</time>
      </trkpt>
      <trkpt lat="43.40133" lon="6.07512">
        <ele>260</ele>
        <time>2017-05-24T12:18:01Z</time>
      </trkpt>
      <trkpt lat="43.40132" lon="6.07515">
        <ele>260.39999389648</ele>
        <time>2017-05-24T12:18:02Z</time>
      </trkpt>
      <trkpt lat="43.40126" lon="6.07529">
        <ele>261.39999389648</ele>
        <time>2017-05-24T12:18:06Z</time>
      </trkpt>
      <trkpt lat="43.40118" lon="6.07546">
        <ele>261.79998779297</ele>
        <time>2017-05-24T12:18:11Z</time>
      </trkpt>
      <trkpt lat="43.40103" lon="6.07571">
        <ele>262.20001220703</ele>
        <time>2017-05-24T12:18:19Z</time>
      </trkpt>
      <trkpt lat="43.40095" lon="6.07584">
        <ele>262.39999389648</ele>
        <time>2017-05-24T12:18:23Z</time>
      </trkpt>
      <trkpt lat="43.40088" lon="6.07618">
        <ele>263.39999389648</ele>
        <time>2017-05-24T12:18:31Z</time>
      </trkpt>
      <trkpt lat="43.40087" lon="6.07639">
        <ele>264</ele>
        <time>2017-05-24T12:18:36Z</time>
      </trkpt>
      <trkpt lat="43.40085" lon="6.07652">
        <ele>264.60000610352</ele>
        <time>2017-05-24T12:18:39Z</time>
      </trkpt>
      <trkpt lat="43.40079" lon="6.07674">
        <ele>266.60000610352</ele>
        <time>2017-05-24T12:18:45Z</time>
      </trkpt>
      <trkpt lat="43.40078" lon="6.07677">
        <ele>267</ele>
        <time>2017-05-24T12:18:46Z</time>
      </trkpt>
      <trkpt lat="43.40071" lon="6.07689">
        <ele>267.79998779297</ele>
        <time>2017-05-24T12:18:50Z</time>
      </trkpt>
      <trkpt lat="43.40068" lon="6.07694">
        <ele>268</ele>
        <time>2017-05-24T12:18:52Z</time>
      </trkpt>
      <trkpt lat="43.4005" lon="6.07717">
        <ele>269</ele>
        <time>2017-05-24T12:19:01Z</time>
      </trkpt>
      <trkpt lat="43.40042" lon="6.07729">
        <ele>269.20001220703</ele>
        <time>2017-05-24T12:19:05Z</time>
      </trkpt>
      <trkpt lat="43.40032" lon="6.0775">
        <ele>269.60000610352</ele>
        <time>2017-05-24T12:19:11Z</time>
      </trkpt>
      <trkpt lat="43.40023" lon="6.07781">
        <ele>270.20001220703</ele>
        <time>2017-05-24T12:19:19Z</time>
      </trkpt>
      <trkpt lat="43.4002" lon="6.07789">
        <ele>270.20001220703</ele>
        <time>2017-05-24T12:19:21Z</time>
      </trkpt>
      <trkpt lat="43.4001" lon="6.07823">
        <ele>270.39999389648</ele>
        <time>2017-05-24T12:19:29Z</time>
      </trkpt>
      <trkpt lat="43.40008" lon="6.07831">
        <ele>270.60000610352</ele>
        <time>2017-05-24T12:19:31Z</time>
      </trkpt>
      <trkpt lat="43.4" lon="6.07859">
        <ele>270.60000610352</ele>
        <time>2017-05-24T12:19:37Z</time>
      </trkpt>
      <trkpt lat="43.39995" lon="6.07878">
        <ele>270.79998779297</ele>
        <time>2017-05-24T12:19:41Z</time>
      </trkpt>
      <trkpt lat="43.39991" lon="6.07901">
        <ele>271.20001220703</ele>
        <time>2017-05-24T12:19:46Z</time>
      </trkpt>
      <trkpt lat="43.39985" lon="6.07926">
        <ele>272.20001220703</ele>
        <time>2017-05-24T12:19:52Z</time>
      </trkpt>
      <trkpt lat="43.3998" lon="6.07946">
        <ele>273.39999389648</ele>
        <time>2017-05-24T12:19:57Z</time>
      </trkpt>
      <trkpt lat="43.39975" lon="6.07961">
        <ele>274.20001220703</ele>
        <time>2017-05-24T12:20:01Z</time>
      </trkpt>
      <trkpt lat="43.39964" lon="6.07977">
        <ele>275.60000610352</ele>
        <time>2017-05-24T12:20:08Z</time>
      </trkpt>
      <trkpt lat="43.39957" lon="6.0798">
        <ele>276.20001220703</ele>
        <time>2017-05-24T12:20:11Z</time>
      </trkpt>
      <trkpt lat="43.3995" lon="6.07983">
        <ele>276.60000610352</ele>
        <time>2017-05-24T12:20:14Z</time>
      </trkpt>
      <trkpt lat="43.3993" lon="6.07993">
        <ele>277.79998779297</ele>
        <time>2017-05-24T12:20:21Z</time>
      </trkpt>
      <trkpt lat="43.39906" lon="6.08013">
        <ele>277.20001220703</ele>
        <time>2017-05-24T12:20:28Z</time>
      </trkpt>
      <trkpt lat="43.39897" lon="6.08024">
        <ele>276.60000610352</ele>
        <time>2017-05-24T12:20:31Z</time>
      </trkpt>
      <trkpt lat="43.39894" lon="6.08025">
        <ele>276.39999389648</ele>
        <time>2017-05-24T12:20:32Z</time>
      </trkpt>
      <trkpt lat="43.39883" lon="6.08026">
        <ele>276.20001220703</ele>
        <time>2017-05-24T12:20:35Z</time>
      </trkpt>
      <trkpt lat="43.3987" lon="6.08023">
        <ele>276.20001220703</ele>
        <time>2017-05-24T12:20:38Z</time>
      </trkpt>
      <trkpt lat="43.39865" lon="6.0802">
        <ele>276.20001220703</ele>
        <time>2017-05-24T12:20:39Z</time>
      </trkpt>
      <trkpt lat="43.39856" lon="6.08015">
        <ele>275.79998779297</ele>
        <time>2017-05-24T12:20:41Z</time>
      </trkpt>
      <trkpt lat="43.39846" lon="6.08009">
        <ele>275.39999389648</ele>
        <time>2017-05-24T12:20:43Z</time>
      </trkpt>
      <trkpt lat="43.39837" lon="6.08003">
        <ele>275.20001220703</ele>
        <time>2017-05-24T12:20:45Z</time>
      </trkpt>
      <trkpt lat="43.39815" lon="6.07992">
        <ele>275.20001220703</ele>
        <time>2017-05-24T12:20:49Z</time>
      </trkpt>
      <trkpt lat="43.39805" lon="6.07988">
        <ele>275.39999389648</ele>
        <time>2017-05-24T12:20:51Z</time>
      </trkpt>
      <trkpt lat="43.39775" lon="6.07973">
        <ele>276.79998779297</ele>
        <time>2017-05-24T12:20:58Z</time>
      </trkpt>
      <trkpt lat="43.39765" lon="6.07969">
        <ele>277.60000610352</ele>
        <time>2017-05-24T12:21:01Z</time>
      </trkpt>
      <trkpt lat="43.39758" lon="6.07967">
        <ele>277.79998779297</ele>
        <time>2017-05-24T12:21:03Z</time>
      </trkpt>
      <trkpt lat="43.39745" lon="6.0796">
        <ele>279</ele>
        <time>2017-05-24T12:21:07Z</time>
      </trkpt>
      <trkpt lat="43.39732" lon="6.07952">
        <ele>280</ele>
        <time>2017-05-24T12:21:11Z</time>
      </trkpt>
      <trkpt lat="43.39729" lon="6.07949">
        <ele>280</ele>
        <time>2017-05-24T12:21:12Z</time>
      </trkpt>
      <trkpt lat="43.39711" lon="6.07927">
        <ele>281.39999389648</ele>
        <time>2017-05-24T12:21:20Z</time>
      </trkpt>
      <trkpt lat="43.39709" lon="6.07925">
        <ele>281.79998779297</ele>
        <time>2017-05-24T12:21:21Z</time>
      </trkpt>
      <trkpt lat="43.39703" lon="6.07917">
        <ele>282.39999389648</ele>
        <time>2017-05-24T12:21:24Z</time>
      </trkpt>
      <trkpt lat="43.39698" lon="6.0791">
        <ele>283.39999389648</ele>
        <time>2017-05-24T12:21:27Z</time>
      </trkpt>
      <trkpt lat="43.39692" lon="6.07903">
        <ele>284.39999389648</ele>
        <time>2017-05-24T12:21:30Z</time>
      </trkpt>
      <trkpt lat="43.3969" lon="6.079">
        <ele>284.60000610352</ele>
        <time>2017-05-24T12:21:31Z</time>
      </trkpt>
      <trkpt lat="43.39684" lon="6.07895">
        <ele>285.39999389648</ele>
        <time>2017-05-24T12:21:34Z</time>
      </trkpt>
      <trkpt lat="43.39676" lon="6.07888">
        <ele>286.39999389648</ele>
        <time>2017-05-24T12:21:39Z</time>
      </trkpt>
      <trkpt lat="43.39671" lon="6.07887">
        <ele>286.60000610352</ele>
        <time>2017-05-24T12:21:41Z</time>
      </trkpt>
      <trkpt lat="43.3965" lon="6.07887">
        <ele>287.39999389648</ele>
        <time>2017-05-24T12:21:50Z</time>
      </trkpt>
      <trkpt lat="43.39648" lon="6.07888">
        <ele>287.60000610352</ele>
        <time>2017-05-24T12:21:51Z</time>
      </trkpt>
      <trkpt lat="43.39633" lon="6.07892">
        <ele>288.20001220703</ele>
        <time>2017-05-24T12:21:58Z</time>
      </trkpt>
      <trkpt lat="43.39617" lon="6.07897">
        <ele>288.60000610352</ele>
        <time>2017-05-24T12:22:05Z</time>
      </trkpt>
      <trkpt lat="43.39604" lon="6.07902">
        <ele>289</ele>
        <time>2017-05-24T12:22:11Z</time>
      </trkpt>
      <trkpt lat="43.39594" lon="6.07905">
        <ele>289.79998779297</ele>
        <time>2017-05-24T12:22:15Z</time>
      </trkpt>
      <trkpt lat="43.39586" lon="6.07905">
        <ele>290.79998779297</ele>
        <time>2017-05-24T12:22:19Z</time>
      </trkpt>
      <trkpt lat="43.39583" lon="6.07906">
        <ele>291.79998779297</ele>
        <time>2017-05-24T12:22:21Z</time>
      </trkpt>
      <trkpt lat="43.39581" lon="6.07907">
        <ele>292</ele>
        <time>2017-05-24T12:22:22Z</time>
      </trkpt>
      <trkpt lat="43.39575" lon="6.07925">
        <ele>293</ele>
        <time>2017-05-24T12:22:31Z</time>
      </trkpt>
      <trkpt lat="43.39573" lon="6.07931">
        <ele>293.20001220703</ele>
        <time>2017-05-24T12:22:35Z</time>
      </trkpt>
      <trkpt lat="43.39567" lon="6.07933">
        <ele>294.20001220703</ele>
        <time>2017-05-24T12:22:40Z</time>
      </trkpt>
      <trkpt lat="43.39565" lon="6.07934">
        <ele>294.39999389648</ele>
        <time>2017-05-24T12:22:41Z</time>
      </trkpt>
      <trkpt lat="43.39551" lon="6.07938">
        <ele>296</ele>
        <time>2017-05-24T12:22:51Z</time>
      </trkpt>
      <trkpt lat="43.39549" lon="6.07939">
        <ele>296.39999389648</ele>
        <time>2017-05-24T12:22:52Z</time>
      </trkpt>
      <trkpt lat="43.39528" lon="6.07949">
        <ele>298.39999389648</ele>
        <time>2017-05-24T12:23:07Z</time>
      </trkpt>
      <trkpt lat="43.39522" lon="6.07952">
        <ele>299</ele>
        <time>2017-05-24T12:23:11Z</time>
      </trkpt>
      <trkpt lat="43.39516" lon="6.07954">
        <ele>299.39999389648</ele>
        <time>2017-05-24T12:23:15Z</time>
      </trkpt>
      <trkpt lat="43.39507" lon="6.07957">
        <ele>300.20001220703</ele>
        <time>2017-05-24T12:23:21Z</time>
      </trkpt>
      <trkpt lat="43.39503" lon="6.07959">
        <ele>300.60000610352</ele>
        <time>2017-05-24T12:23:23Z</time>
      </trkpt>
      <trkpt lat="43.39491" lon="6.07965">
        <ele>301.20001220703</ele>
        <time>2017-05-24T12:23:31Z</time>
      </trkpt>
      <trkpt lat="43.3948" lon="6.07968">
        <ele>301.60000610352</ele>
        <time>2017-05-24T12:23:37Z</time>
      </trkpt>
      <trkpt lat="43.39474" lon="6.07971">
        <ele>301.79998779297</ele>
        <time>2017-05-24T12:23:41Z</time>
      </trkpt>
      <trkpt lat="43.39455" lon="6.07979">
        <ele>302.60000610352</ele>
        <time>2017-05-24T12:23:51Z</time>
      </trkpt>
      <trkpt lat="43.39437" lon="6.07986">
        <ele>303.39999389648</ele>
        <time>2017-05-24T12:24:00Z</time>
      </trkpt>
      <trkpt lat="43.39417" lon="6.07993">
        <ele>304.39999389648</ele>
        <time>2017-05-24T12:24:11Z</time>
      </trkpt>
      <trkpt lat="43.39412" lon="6.07996">
        <ele>304.60000610352</ele>
        <time>2017-05-24T12:24:14Z</time>
      </trkpt>
      <trkpt lat="43.39399" lon="6.08002">
        <ele>305.79998779297</ele>
        <time>2017-05-24T12:24:21Z</time>
      </trkpt>
      <trkpt lat="43.3939" lon="6.08007">
        <ele>307</ele>
        <time>2017-05-24T12:24:27Z</time>
      </trkpt>
      <trkpt lat="43.39384" lon="6.08012">
        <ele>308</ele>
        <time>2017-05-24T12:24:31Z</time>
      </trkpt>
      <trkpt lat="43.39377" lon="6.08025">
        <ele>309</ele>
        <time>2017-05-24T12:24:38Z</time>
      </trkpt>
      <trkpt lat="43.3937" lon="6.08039">
        <ele>310.20001220703</ele>
        <time>2017-05-24T12:24:45Z</time>
      </trkpt>
      <trkpt lat="43.39362" lon="6.08051">
        <ele>310.79998779297</ele>
        <time>2017-05-24T12:24:51Z</time>
      </trkpt>
      <trkpt lat="43.39349" lon="6.08069">
        <ele>311.39999389648</ele>
        <time>2017-05-24T12:25:01Z</time>
      </trkpt>
      <trkpt lat="43.39339" lon="6.08086">
        <ele>312.60000610352</ele>
        <time>2017-05-24T12:25:11Z</time>
      </trkpt>
      <trkpt lat="43.39333" lon="6.08096">
        <ele>313.39999389648</ele>
        <time>2017-05-24T12:25:17Z</time>
      </trkpt>
      <trkpt lat="43.39328" lon="6.08103">
        <ele>313.79998779297</ele>
        <time>2017-05-24T12:25:21Z</time>
      </trkpt>
      <trkpt lat="43.39321" lon="6.08112">
        <ele>314.39999389648</ele>
        <time>2017-05-24T12:25:27Z</time>
      </trkpt>
      <trkpt lat="43.39318" lon="6.08119">
        <ele>315</ele>
        <time>2017-05-24T12:25:31Z</time>
      </trkpt>
      <trkpt lat="43.39313" lon="6.08131">
        <ele>315.60000610352</ele>
        <time>2017-05-24T12:25:37Z</time>
      </trkpt>
      <trkpt lat="43.3931" lon="6.08139">
        <ele>316.39999389648</ele>
        <time>2017-05-24T12:25:41Z</time>
      </trkpt>
      <trkpt lat="43.39309" lon="6.08141">
        <ele>316.60000610352</ele>
        <time>2017-05-24T12:25:42Z</time>
      </trkpt>
      <trkpt lat="43.39304" lon="6.0816">
        <ele>317.79998779297</ele>
        <time>2017-05-24T12:25:51Z</time>
      </trkpt>
      <trkpt lat="43.39297" lon="6.0818">
        <ele>318.79998779297</ele>
        <time>2017-05-24T12:26:01Z</time>
      </trkpt>
      <trkpt lat="43.39295" lon="6.08188">
        <ele>319.79998779297</ele>
        <time>2017-05-24T12:26:05Z</time>
      </trkpt>
      <trkpt lat="43.3929" lon="6.08201">
        <ele>320.20001220703</ele>
        <time>2017-05-24T12:26:11Z</time>
      </trkpt>
      <trkpt lat="43.39288" lon="6.0821">
        <ele>321</ele>
        <time>2017-05-24T12:26:15Z</time>
      </trkpt>
      <trkpt lat="43.39286" lon="6.08224">
        <ele>321.20001220703</ele>
        <time>2017-05-24T12:26:21Z</time>
      </trkpt>
      <trkpt lat="43.39284" lon="6.08231">
        <ele>322</ele>
        <time>2017-05-24T12:26:24Z</time>
      </trkpt>
      <trkpt lat="43.3928" lon="6.08245">
        <ele>322.79998779297</ele>
        <time>2017-05-24T12:26:31Z</time>
      </trkpt>
      <trkpt lat="43.39277" lon="6.08252">
        <ele>323.20001220703</ele>
        <time>2017-05-24T12:26:35Z</time>
      </trkpt>
      <trkpt lat="43.39268" lon="6.08268">
        <ele>324.20001220703</ele>
        <time>2017-05-24T12:26:44Z</time>
      </trkpt>
      <trkpt lat="43.39262" lon="6.0828">
        <ele>325.20001220703</ele>
        <time>2017-05-24T12:26:51Z</time>
      </trkpt>
      <trkpt lat="43.39256" lon="6.08297">
        <ele>326.20001220703</ele>
        <time>2017-05-24T12:27:01Z</time>
      </trkpt>
      <trkpt lat="43.39253" lon="6.08307">
        <ele>326.79998779297</ele>
        <time>2017-05-24T12:27:06Z</time>
      </trkpt>
      <trkpt lat="43.39251" lon="6.08316">
        <ele>327.79998779297</ele>
        <time>2017-05-24T12:27:11Z</time>
      </trkpt>
      <trkpt lat="43.39248" lon="6.0833">
        <ele>328.79998779297</ele>
        <time>2017-05-24T12:27:18Z</time>
      </trkpt>
      <trkpt lat="43.39247" lon="6.08337">
        <ele>329.39999389648</ele>
        <time>2017-05-24T12:27:22Z</time>
      </trkpt>
      <trkpt lat="43.39245" lon="6.08343">
        <ele>329.79998779297</ele>
        <time>2017-05-24T12:27:26Z</time>
      </trkpt>
      <trkpt lat="43.39242" lon="6.08353">
        <ele>330.39999389648</ele>
        <time>2017-05-24T12:27:31Z</time>
      </trkpt>
      <trkpt lat="43.3924" lon="6.08361">
        <ele>330.79998779297</ele>
        <time>2017-05-24T12:27:36Z</time>
      </trkpt>
      <trkpt lat="43.39237" lon="6.08369">
        <ele>331.39999389648</ele>
        <time>2017-05-24T12:27:41Z</time>
      </trkpt>
      <trkpt lat="43.39234" lon="6.08378">
        <ele>332</ele>
        <time>2017-05-24T12:27:46Z</time>
      </trkpt>
      <trkpt lat="43.39231" lon="6.08386">
        <ele>332.39999389648</ele>
        <time>2017-05-24T12:27:51Z</time>
      </trkpt>
      <trkpt lat="43.3923" lon="6.08393">
        <ele>333</ele>
        <time>2017-05-24T12:27:55Z</time>
      </trkpt>
      <trkpt lat="43.39228" lon="6.08402">
        <ele>334</ele>
        <time>2017-05-24T12:28:00Z</time>
      </trkpt>
      <trkpt lat="43.39228" lon="6.08403">
        <ele>334</ele>
        <time>2017-05-24T12:28:01Z</time>
      </trkpt>
      <trkpt lat="43.39226" lon="6.0842">
        <ele>335.39999389648</ele>
        <time>2017-05-24T12:28:11Z</time>
      </trkpt>
      <trkpt lat="43.39223" lon="6.08433">
        <ele>336.39999389648</ele>
        <time>2017-05-24T12:28:19Z</time>
      </trkpt>
      <trkpt lat="43.39222" lon="6.08437">
        <ele>336.60000610352</ele>
        <time>2017-05-24T12:28:21Z</time>
      </trkpt>
      <trkpt lat="43.39219" lon="6.08448">
        <ele>337.39999389648</ele>
        <time>2017-05-24T12:28:28Z</time>
      </trkpt>
      <trkpt lat="43.39218" lon="6.08453">
        <ele>337.79998779297</ele>
        <time>2017-05-24T12:28:31Z</time>
      </trkpt>
      <trkpt lat="43.39216" lon="6.0846">
        <ele>338.60000610352</ele>
        <time>2017-05-24T12:28:35Z</time>
      </trkpt>
      <trkpt lat="43.39213" lon="6.08469">
        <ele>339.20001220703</ele>
        <time>2017-05-24T12:28:41Z</time>
      </trkpt>
      <trkpt lat="43.39211" lon="6.08479">
        <ele>340.60000610352</ele>
        <time>2017-05-24T12:28:48Z</time>
      </trkpt>
      <trkpt lat="43.39209" lon="6.08482">
        <ele>341</ele>
        <time>2017-05-24T12:28:51Z</time>
      </trkpt>
      <trkpt lat="43.39206" lon="6.08487">
        <ele>341.20001220703</ele>
        <time>2017-05-24T12:28:55Z</time>
      </trkpt>
      <trkpt lat="43.39205" lon="6.08493">
        <ele>341.39999389648</ele>
        <time>2017-05-24T12:29:00Z</time>
      </trkpt>
      <trkpt lat="43.39205" lon="6.08493">
        <ele>341.39999389648</ele>
        <time>2017-05-24T12:29:01Z</time>
      </trkpt>
      <trkpt lat="43.39206" lon="6.08493">
        <ele>341.39999389648</ele>
        <time>2017-05-24T12:29:06Z</time>
      </trkpt>
      <trkpt lat="43.39206" lon="6.08493">
        <ele>341.39999389648</ele>
        <time>2017-05-24T12:29:11Z</time>
      </trkpt>
      <trkpt lat="43.39206" lon="6.08492">
        <ele>341.39999389648</ele>
        <time>2017-05-24T12:29:19Z</time>
      </trkpt>
      <trkpt lat="43.39206" lon="6.08492">
        <ele>341.20001220703</ele>
        <time>2017-05-24T12:29:21Z</time>
      </trkpt>
      <trkpt lat="43.39206" lon="6.08492">
        <ele>341.20001220703</ele>
        <time>2017-05-24T12:29:24Z</time>
      </trkpt>
      <trkpt lat="43.39206" lon="6.08492">
        <ele>341.20001220703</ele>
        <time>2017-05-24T12:29:31Z</time>
      </trkpt>
      <trkpt lat="43.39206" lon="6.08493">
        <ele>341</ele>
        <time>2017-05-24T12:30:01Z</time>
      </trkpt>
      <trkpt lat="43.39206" lon="6.08493">
        <ele>341</ele>
        <time>2017-05-24T12:30:16Z</time>
      </trkpt>
      <trkpt lat="43.39206" lon="6.08493">
        <ele>341</ele>
        <time>2017-05-24T12:30:21Z</time>
      </trkpt>
      <trkpt lat="43.39205" lon="6.08493">
        <ele>341</ele>
        <time>2017-05-24T12:30:25Z</time>
      </trkpt>
      <trkpt lat="43.39201" lon="6.08499">
        <ele>341.20001220703</ele>
        <time>2017-05-24T12:30:30Z</time>
      </trkpt>
      <trkpt lat="43.392" lon="6.08501">
        <ele>341.39999389648</ele>
        <time>2017-05-24T12:30:31Z</time>
      </trkpt>
      <trkpt lat="43.39198" lon="6.08505">
        <ele>341.60000610352</ele>
        <time>2017-05-24T12:30:33Z</time>
      </trkpt>
      <trkpt lat="43.39194" lon="6.08511">
        <ele>341.20001220703</ele>
        <time>2017-05-24T12:30:36Z</time>
      </trkpt>
      <trkpt lat="43.39186" lon="6.08523">
        <ele>341.39999389648</ele>
        <time>2017-05-24T12:30:41Z</time>
      </trkpt>
      <trkpt lat="43.39172" lon="6.08566">
        <ele>340.79998779297</ele>
        <time>2017-05-24T12:30:49Z</time>
      </trkpt>
      <trkpt lat="43.3917" lon="6.08573">
        <ele>340.20001220703</ele>
        <time>2017-05-24T12:30:50Z</time>
      </trkpt>
      <trkpt lat="43.39169" lon="6.08579">
        <ele>340</ele>
        <time>2017-05-24T12:30:51Z</time>
      </trkpt>
      <trkpt lat="43.39167" lon="6.08593">
        <ele>339.60000610352</ele>
        <time>2017-05-24T12:30:53Z</time>
      </trkpt>
      <trkpt lat="43.39164" lon="6.08608">
        <ele>339.60000610352</ele>
        <time>2017-05-24T12:30:55Z</time>
      </trkpt>
      <trkpt lat="43.39156" lon="6.08641">
        <ele>339.39999389648</ele>
        <time>2017-05-24T12:31:00Z</time>
      </trkpt>
      <trkpt lat="43.39154" lon="6.08648">
        <ele>339.20001220703</ele>
        <time>2017-05-24T12:31:01Z</time>
      </trkpt>
      <trkpt lat="43.39153" lon="6.08662">
        <ele>339</ele>
        <time>2017-05-24T12:31:03Z</time>
      </trkpt>
      <trkpt lat="43.39149" lon="6.08675">
        <ele>338.79998779297</ele>
        <time>2017-05-24T12:31:05Z</time>
      </trkpt>
      <trkpt lat="43.39146" lon="6.08695">
        <ele>339</ele>
        <time>2017-05-24T12:31:08Z</time>
      </trkpt>
      <trkpt lat="43.39145" lon="6.08711">
        <ele>338.79998779297</ele>
        <time>2017-05-24T12:31:11Z</time>
      </trkpt>
      <trkpt lat="43.39143" lon="6.08717">
        <ele>339.20001220703</ele>
        <time>2017-05-24T12:31:12Z</time>
      </trkpt>
      <trkpt lat="43.39138" lon="6.08748">
        <ele>339.79998779297</ele>
        <time>2017-05-24T12:31:18Z</time>
      </trkpt>
      <trkpt lat="43.39133" lon="6.08764">
        <ele>340.39999389648</ele>
        <time>2017-05-24T12:31:21Z</time>
      </trkpt>
      <trkpt lat="43.39125" lon="6.08796">
        <ele>340.79998779297</ele>
        <time>2017-05-24T12:31:28Z</time>
      </trkpt>
      <trkpt lat="43.39124" lon="6.08804">
        <ele>341.20001220703</ele>
        <time>2017-05-24T12:31:30Z</time>
      </trkpt>
      <trkpt lat="43.39122" lon="6.08809">
        <ele>341.39999389648</ele>
        <time>2017-05-24T12:31:31Z</time>
      </trkpt>
      <trkpt lat="43.39112" lon="6.08853">
        <ele>341.79998779297</ele>
        <time>2017-05-24T12:31:40Z</time>
      </trkpt>
      <trkpt lat="43.39111" lon="6.08858">
        <ele>341.79998779297</ele>
        <time>2017-05-24T12:31:41Z</time>
      </trkpt>
      <trkpt lat="43.39109" lon="6.08872">
        <ele>342.39999389648</ele>
        <time>2017-05-24T12:31:44Z</time>
      </trkpt>
      <trkpt lat="43.39103" lon="6.08901">
        <ele>343.39999389648</ele>
        <time>2017-05-24T12:31:51Z</time>
      </trkpt>
      <trkpt lat="43.39103" lon="6.08906">
        <ele>343.39999389648</ele>
        <time>2017-05-24T12:31:52Z</time>
      </trkpt>
      <trkpt lat="43.39094" lon="6.08947">
        <ele>343.60000610352</ele>
        <time>2017-05-24T12:32:01Z</time>
      </trkpt>
      <trkpt lat="43.39082" lon="6.08979">
        <ele>344.60000610352</ele>
        <time>2017-05-24T12:32:10Z</time>
      </trkpt>
      <trkpt lat="43.39081" lon="6.08982">
        <ele>344.60000610352</ele>
        <time>2017-05-24T12:32:11Z</time>
      </trkpt>
      <trkpt lat="43.39066" lon="6.09016">
        <ele>345.20001220703</ele>
        <time>2017-05-24T12:32:21Z</time>
      </trkpt>
      <trkpt lat="43.39058" lon="6.09031">
        <ele>345.60000610352</ele>
        <time>2017-05-24T12:32:25Z</time>
      </trkpt>
      <trkpt lat="43.39033" lon="6.09087">
        <ele>346.39999389648</ele>
        <time>2017-05-24T12:32:41Z</time>
      </trkpt>
      <trkpt lat="43.39025" lon="6.09104">
        <ele>346.79998779297</ele>
        <time>2017-05-24T12:32:47Z</time>
      </trkpt>
      <trkpt lat="43.39021" lon="6.09116">
        <ele>347.39999389648</ele>
        <time>2017-05-24T12:32:51Z</time>
      </trkpt>
      <trkpt lat="43.39012" lon="6.09155">
        <ele>347.60000610352</ele>
        <time>2017-05-24T12:33:01Z</time>
      </trkpt>
      <trkpt lat="43.39009" lon="6.09167">
        <ele>347.79998779297</ele>
        <time>2017-05-24T12:33:04Z</time>
      </trkpt>
      <trkpt lat="43.39005" lon="6.09194">
        <ele>348</ele>
        <time>2017-05-24T12:33:11Z</time>
      </trkpt>
      <trkpt lat="43.38999" lon="6.09239">
        <ele>348.79998779297</ele>
        <time>2017-05-24T12:33:21Z</time>
      </trkpt>
      <trkpt lat="43.38998" lon="6.09243">
        <ele>349</ele>
        <time>2017-05-24T12:33:22Z</time>
      </trkpt>
      <trkpt lat="43.38987" lon="6.09277">
        <ele>349.20001220703</ele>
        <time>2017-05-24T12:33:31Z</time>
      </trkpt>
      <trkpt lat="43.3898" lon="6.09292">
        <ele>350.20001220703</ele>
        <time>2017-05-24T12:33:36Z</time>
      </trkpt>
      <trkpt lat="43.3897" lon="6.09307">
        <ele>351.20001220703</ele>
        <time>2017-05-24T12:33:41Z</time>
      </trkpt>
      <trkpt lat="43.38968" lon="6.0931">
        <ele>351.39999389648</ele>
        <time>2017-05-24T12:33:42Z</time>
      </trkpt>
      <trkpt lat="43.38957" lon="6.09331">
        <ele>352</ele>
        <time>2017-05-24T12:33:49Z</time>
      </trkpt>
      <trkpt lat="43.38955" lon="6.09337">
        <ele>352.20001220703</ele>
        <time>2017-05-24T12:33:51Z</time>
      </trkpt>
      <trkpt lat="43.38947" lon="6.09346">
        <ele>352.39999389648</ele>
        <time>2017-05-24T12:33:55Z</time>
      </trkpt>
      <trkpt lat="43.38934" lon="6.09361">
        <ele>352.79998779297</ele>
        <time>2017-05-24T12:34:01Z</time>
      </trkpt>
      <trkpt lat="43.38913" lon="6.09382">
        <ele>353.60000610352</ele>
        <time>2017-05-24T12:34:11Z</time>
      </trkpt>
      <trkpt lat="43.38907" lon="6.09389">
        <ele>354.60000610352</ele>
        <time>2017-05-24T12:34:15Z</time>
      </trkpt>
      <trkpt lat="43.38898" lon="6.094">
        <ele>355.79998779297</ele>
        <time>2017-05-24T12:34:21Z</time>
      </trkpt>
      <trkpt lat="43.38894" lon="6.09404">
        <ele>356.79998779297</ele>
        <time>2017-05-24T12:34:25Z</time>
      </trkpt>
      <trkpt lat="43.38892" lon="6.09408">
        <ele>357.39999389648</ele>
        <time>2017-05-24T12:34:31Z</time>
      </trkpt>
      <trkpt lat="43.38892" lon="6.09411">
        <ele>357.60000610352</ele>
        <time>2017-05-24T12:34:38Z</time>
      </trkpt>
      <trkpt lat="43.38892" lon="6.09411">
        <ele>357.39999389648</ele>
        <time>2017-05-24T12:34:41Z</time>
      </trkpt>
      <trkpt lat="43.38889" lon="6.0942">
        <ele>357.39999389648</ele>
        <time>2017-05-24T12:34:51Z</time>
      </trkpt>
      <trkpt lat="43.38887" lon="6.09421">
        <ele>358</ele>
        <time>2017-05-24T12:34:57Z</time>
      </trkpt>
      <trkpt lat="43.38885" lon="6.09422">
        <ele>359</ele>
        <time>2017-05-24T12:35:04Z</time>
      </trkpt>
      <trkpt lat="43.38884" lon="6.09423">
        <ele>359.20001220703</ele>
        <time>2017-05-24T12:35:11Z</time>
      </trkpt>
      <trkpt lat="43.38882" lon="6.09424">
        <ele>359</ele>
        <time>2017-05-24T12:35:21Z</time>
      </trkpt>
      <trkpt lat="43.38879" lon="6.09427">
        <ele>359.20001220703</ele>
        <time>2017-05-24T12:35:31Z</time>
      </trkpt>
      <trkpt lat="43.38878" lon="6.09429">
        <ele>359.79998779297</ele>
        <time>2017-05-24T12:35:35Z</time>
      </trkpt>
      <trkpt lat="43.38877" lon="6.09431">
        <ele>359.79998779297</ele>
        <time>2017-05-24T12:35:41Z</time>
      </trkpt>
      <trkpt lat="43.38876" lon="6.09433">
        <ele>360</ele>
        <time>2017-05-24T12:35:46Z</time>
      </trkpt>
      <trkpt lat="43.38876" lon="6.09433">
        <ele>360</ele>
        <time>2017-05-24T12:35:51Z</time>
      </trkpt>
      <trkpt lat="43.38876" lon="6.09433">
        <ele>360</ele>
        <time>2017-05-24T12:36:01Z</time>
      </trkpt>
      <trkpt lat="43.38876" lon="6.09433">
        <ele>359.79998779297</ele>
        <time>2017-05-24T12:36:09Z</time>
      </trkpt>
      <trkpt lat="43.38876" lon="6.09433">
        <ele>359.79998779297</ele>
        <time>2017-05-24T12:36:11Z</time>
      </trkpt>
      <trkpt lat="43.38877" lon="6.09433">
        <ele>360</ele>
        <time>2017-05-24T12:36:21Z</time>
      </trkpt>
      <trkpt lat="43.38878" lon="6.09433">
        <ele>360.20001220703</ele>
        <time>2017-05-24T12:36:25Z</time>
      </trkpt>
      <trkpt lat="43.38877" lon="6.09432">
        <ele>360.20001220703</ele>
        <time>2017-05-24T12:36:31Z</time>
      </trkpt>
      <trkpt lat="43.38877" lon="6.09434">
        <ele>359.79998779297</ele>
        <time>2017-05-24T12:36:48Z</time>
      </trkpt>
      <trkpt lat="43.38877" lon="6.09434">
        <ele>359.79998779297</ele>
        <time>2017-05-24T12:36:51Z</time>
      </trkpt>
      <trkpt lat="43.38876" lon="6.09434">
        <ele>359.79998779297</ele>
        <time>2017-05-24T12:36:53Z</time>
      </trkpt>
      <trkpt lat="43.38874" lon="6.09436">
        <ele>359.60000610352</ele>
        <time>2017-05-24T12:36:55Z</time>
      </trkpt>
      <trkpt lat="43.38873" lon="6.0944">
        <ele>359.60000610352</ele>
        <time>2017-05-24T12:37:01Z</time>
      </trkpt>
      <trkpt lat="43.38875" lon="6.09433">
        <ele>359.60000610352</ele>
        <time>2017-05-24T12:37:11Z</time>
      </trkpt>
      <trkpt lat="43.38875" lon="6.09434">
        <ele>359.79998779297</ele>
        <time>2017-05-24T12:37:18Z</time>
      </trkpt>
      <trkpt lat="43.38874" lon="6.09436">
        <ele>359.79998779297</ele>
        <time>2017-05-24T12:37:21Z</time>
      </trkpt>
      <trkpt lat="43.38873" lon="6.09441">
        <ele>360</ele>
        <time>2017-05-24T12:37:30Z</time>
      </trkpt>
      <trkpt lat="43.38873" lon="6.09441">
        <ele>360.20001220703</ele>
        <time>2017-05-24T12:37:31Z</time>
      </trkpt>
      <trkpt lat="43.38873" lon="6.09448">
        <ele>360.20001220703</ele>
        <time>2017-05-24T12:37:42Z</time>
      </trkpt>
      <trkpt lat="43.38871" lon="6.09482">
        <ele>359.79998779297</ele>
        <time>2017-05-24T12:37:51Z</time>
      </trkpt>
      <trkpt lat="43.38873" lon="6.09515">
        <ele>359.20001220703</ele>
        <time>2017-05-24T12:38:01Z</time>
      </trkpt>
      <trkpt lat="43.38874" lon="6.09548">
        <ele>359.20001220703</ele>
        <time>2017-05-24T12:38:11Z</time>
      </trkpt>
      <trkpt lat="43.38875" lon="6.09569">
        <ele>359.39999389648</ele>
        <time>2017-05-24T12:38:17Z</time>
      </trkpt>
      <trkpt lat="43.38876" lon="6.09582">
        <ele>359</ele>
        <time>2017-05-24T12:38:20Z</time>
      </trkpt>
      <trkpt lat="43.38877" lon="6.09587">
        <ele>358.79998779297</ele>
        <time>2017-05-24T12:38:21Z</time>
      </trkpt>
      <trkpt lat="43.38879" lon="6.09603">
        <ele>358.39999389648</ele>
        <time>2017-05-24T12:38:24Z</time>
      </trkpt>
      <trkpt lat="43.38882" lon="6.09613">
        <ele>358.20001220703</ele>
        <time>2017-05-24T12:38:26Z</time>
      </trkpt>
      <trkpt lat="43.38885" lon="6.09618">
        <ele>358</ele>
        <time>2017-05-24T12:38:27Z</time>
      </trkpt>
      <trkpt lat="43.38894" lon="6.0963">
        <ele>357.79998779297</ele>
        <time>2017-05-24T12:38:31Z</time>
      </trkpt>
      <trkpt lat="43.38897" lon="6.09649">
        <ele>357.60000610352</ele>
        <time>2017-05-24T12:38:35Z</time>
      </trkpt>
      <trkpt lat="43.38898" lon="6.09668">
        <ele>357</ele>
        <time>2017-05-24T12:38:38Z</time>
      </trkpt>
      <trkpt lat="43.38898" lon="6.09689">
        <ele>356.20001220703</ele>
        <time>2017-05-24T12:38:41Z</time>
      </trkpt>
      <trkpt lat="43.389" lon="6.09705">
        <ele>355.79998779297</ele>
        <time>2017-05-24T12:38:43Z</time>
      </trkpt>
      <trkpt lat="43.38902" lon="6.0973">
        <ele>355.20001220703</ele>
        <time>2017-05-24T12:38:46Z</time>
      </trkpt>
      <trkpt lat="43.38902" lon="6.09739">
        <ele>354.79998779297</ele>
        <time>2017-05-24T12:38:47Z</time>
      </trkpt>
      <trkpt lat="43.38901" lon="6.09757">
        <ele>353.60000610352</ele>
        <time>2017-05-24T12:38:49Z</time>
      </trkpt>
      <trkpt lat="43.38894" lon="6.09798">
        <ele>351.39999389648</ele>
        <time>2017-05-24T12:38:53Z</time>
      </trkpt>
      <trkpt lat="43.3889" lon="6.09819">
        <ele>350.39999389648</ele>
        <time>2017-05-24T12:38:55Z</time>
      </trkpt>
      <trkpt lat="43.38887" lon="6.09842">
        <ele>349</ele>
        <time>2017-05-24T12:38:57Z</time>
      </trkpt>
      <trkpt lat="43.38884" lon="6.09867">
        <ele>347.39999389648</ele>
        <time>2017-05-24T12:38:59Z</time>
      </trkpt>
      <trkpt lat="43.38882" lon="6.09879">
        <ele>345.79998779297</ele>
        <time>2017-05-24T12:39:00Z</time>
      </trkpt>
      <trkpt lat="43.38881" lon="6.0989">
        <ele>344.20001220703</ele>
        <time>2017-05-24T12:39:01Z</time>
      </trkpt>
      <trkpt lat="43.38878" lon="6.09903">
        <ele>342.79998779297</ele>
        <time>2017-05-24T12:39:02Z</time>
      </trkpt>
      <trkpt lat="43.38872" lon="6.09927">
        <ele>341</ele>
        <time>2017-05-24T12:39:04Z</time>
      </trkpt>
      <trkpt lat="43.38869" lon="6.09939">
        <ele>340</ele>
        <time>2017-05-24T12:39:05Z</time>
      </trkpt>
      <trkpt lat="43.38867" lon="6.09951">
        <ele>339</ele>
        <time>2017-05-24T12:39:06Z</time>
      </trkpt>
      <trkpt lat="43.38864" lon="6.09976">
        <ele>337.39999389648</ele>
        <time>2017-05-24T12:39:08Z</time>
      </trkpt>
      <trkpt lat="43.38861" lon="6.10001">
        <ele>336.39999389648</ele>
        <time>2017-05-24T12:39:10Z</time>
      </trkpt>
      <trkpt lat="43.38856" lon="6.10026">
        <ele>334.79998779297</ele>
        <time>2017-05-24T12:39:12Z</time>
      </trkpt>
      <trkpt lat="43.38853" lon="6.10038">
        <ele>334.20001220703</ele>
        <time>2017-05-24T12:39:13Z</time>
      </trkpt>
      <trkpt lat="43.38849" lon="6.10051">
        <ele>333.60000610352</ele>
        <time>2017-05-24T12:39:14Z</time>
      </trkpt>
      <trkpt lat="43.38842" lon="6.10076">
        <ele>332</ele>
        <time>2017-05-24T12:39:16Z</time>
      </trkpt>
      <trkpt lat="43.38838" lon="6.10088">
        <ele>331.20001220703</ele>
        <time>2017-05-24T12:39:17Z</time>
      </trkpt>
      <trkpt lat="43.38835" lon="6.10101">
        <ele>330.60000610352</ele>
        <time>2017-05-24T12:39:18Z</time>
      </trkpt>
      <trkpt lat="43.38832" lon="6.10112">
        <ele>330.20001220703</ele>
        <time>2017-05-24T12:39:19Z</time>
      </trkpt>
      <trkpt lat="43.3883" lon="6.10122">
        <ele>329.39999389648</ele>
        <time>2017-05-24T12:39:20Z</time>
      </trkpt>
      <trkpt lat="43.38827" lon="6.10131">
        <ele>328.79998779297</ele>
        <time>2017-05-24T12:39:21Z</time>
      </trkpt>
      <trkpt lat="43.38824" lon="6.10138">
        <ele>328.20001220703</ele>
        <time>2017-05-24T12:39:22Z</time>
      </trkpt>
      <trkpt lat="43.38821" lon="6.10149">
        <ele>327.20001220703</ele>
        <time>2017-05-24T12:39:25Z</time>
      </trkpt>
      <trkpt lat="43.38821" lon="6.10151">
        <ele>326.79998779297</ele>
        <time>2017-05-24T12:39:26Z</time>
      </trkpt>
      <trkpt lat="43.38822" lon="6.10151">
        <ele>326</ele>
        <time>2017-05-24T12:39:31Z</time>
      </trkpt>
      <trkpt lat="43.38825" lon="6.10159">
        <ele>326</ele>
        <time>2017-05-24T12:39:37Z</time>
      </trkpt>
      <trkpt lat="43.38826" lon="6.1016">
        <ele>326</ele>
        <time>2017-05-24T12:39:41Z</time>
      </trkpt>
      <trkpt lat="43.38826" lon="6.10161">
        <ele>326.39999389648</ele>
        <time>2017-05-24T12:39:45Z</time>
      </trkpt>
      <trkpt lat="43.38825" lon="6.10166">
        <ele>326.39999389648</ele>
        <time>2017-05-24T12:39:47Z</time>
      </trkpt>
      <trkpt lat="43.38826" lon="6.10173">
        <ele>326.20001220703</ele>
        <time>2017-05-24T12:39:49Z</time>
      </trkpt>
      <trkpt lat="43.38824" lon="6.10183">
        <ele>325.79998779297</ele>
        <time>2017-05-24T12:39:51Z</time>
      </trkpt>
      <trkpt lat="43.38823" lon="6.10187">
        <ele>325.60000610352</ele>
        <time>2017-05-24T12:39:52Z</time>
      </trkpt>
      <trkpt lat="43.38818" lon="6.10197">
        <ele>325.79998779297</ele>
        <time>2017-05-24T12:39:55Z</time>
      </trkpt>
      <trkpt lat="43.38817" lon="6.10206">
        <ele>326.39999389648</ele>
        <time>2017-05-24T12:39:58Z</time>
      </trkpt>
      <trkpt lat="43.38816" lon="6.1021">
        <ele>326.79998779297</ele>
        <time>2017-05-24T12:39:59Z</time>
      </trkpt>
      <trkpt lat="43.38816" lon="6.10222">
        <ele>327.79998779297</ele>
        <time>2017-05-24T12:40:02Z</time>
      </trkpt>
      <trkpt lat="43.38822" lon="6.10244">
        <ele>327.79998779297</ele>
        <time>2017-05-24T12:40:08Z</time>
      </trkpt>
      <trkpt lat="43.38824" lon="6.10258">
        <ele>326.79998779297</ele>
        <time>2017-05-24T12:40:11Z</time>
      </trkpt>
      <trkpt lat="43.38825" lon="6.10264">
        <ele>326.60000610352</ele>
        <time>2017-05-24T12:40:12Z</time>
      </trkpt>
      <trkpt lat="43.38828" lon="6.10286">
        <ele>326</ele>
        <time>2017-05-24T12:40:15Z</time>
      </trkpt>
      <trkpt lat="43.38829" lon="6.10302">
        <ele>325.60000610352</ele>
        <time>2017-05-24T12:40:17Z</time>
      </trkpt>
      <trkpt lat="43.38829" lon="6.1031">
        <ele>325.39999389648</ele>
        <time>2017-05-24T12:40:18Z</time>
      </trkpt>
      <trkpt lat="43.38829" lon="6.10335">
        <ele>324.20001220703</ele>
        <time>2017-05-24T12:40:21Z</time>
      </trkpt>
      <trkpt lat="43.38829" lon="6.10406">
        <ele>323</ele>
        <time>2017-05-24T12:40:29Z</time>
      </trkpt>
      <trkpt lat="43.38829" lon="6.10415">
        <ele>322.60000610352</ele>
        <time>2017-05-24T12:40:30Z</time>
      </trkpt>
      <trkpt lat="43.38826" lon="6.10433">
        <ele>322</ele>
        <time>2017-05-24T12:40:32Z</time>
      </trkpt>
      <trkpt lat="43.38824" lon="6.10449">
        <ele>321.79998779297</ele>
        <time>2017-05-24T12:40:34Z</time>
      </trkpt>
      <trkpt lat="43.38823" lon="6.10476">
        <ele>320.79998779297</ele>
        <time>2017-05-24T12:40:37Z</time>
      </trkpt>
      <trkpt lat="43.38818" lon="6.10502">
        <ele>319.39999389648</ele>
        <time>2017-05-24T12:40:40Z</time>
      </trkpt>
      <trkpt lat="43.38816" lon="6.1051">
        <ele>319.20001220703</ele>
        <time>2017-05-24T12:40:41Z</time>
      </trkpt>
      <trkpt lat="43.38811" lon="6.10524">
        <ele>319</ele>
        <time>2017-05-24T12:40:43Z</time>
      </trkpt>
      <trkpt lat="43.3881" lon="6.10538">
        <ele>318.60000610352</ele>
        <time>2017-05-24T12:40:45Z</time>
      </trkpt>
      <trkpt lat="43.38808" lon="6.1055">
        <ele>318.39999389648</ele>
        <time>2017-05-24T12:40:47Z</time>
      </trkpt>
      <trkpt lat="43.38806" lon="6.10556">
        <ele>318.20001220703</ele>
        <time>2017-05-24T12:40:48Z</time>
      </trkpt>
      <trkpt lat="43.38803" lon="6.10566">
        <ele>317.79998779297</ele>
        <time>2017-05-24T12:40:50Z</time>
      </trkpt>
      <trkpt lat="43.38802" lon="6.1057">
        <ele>317.60000610352</ele>
        <time>2017-05-24T12:40:51Z</time>
      </trkpt>
      <trkpt lat="43.38802" lon="6.10575">
        <ele>317.20001220703</ele>
        <time>2017-05-24T12:40:52Z</time>
      </trkpt>
      <trkpt lat="43.38802" lon="6.10581">
        <ele>317</ele>
        <time>2017-05-24T12:40:53Z</time>
      </trkpt>
      <trkpt lat="43.388" lon="6.10595">
        <ele>316.39999389648</ele>
        <time>2017-05-24T12:40:55Z</time>
      </trkpt>
      <trkpt lat="43.38794" lon="6.10617">
        <ele>315.39999389648</ele>
        <time>2017-05-24T12:40:58Z</time>
      </trkpt>
      <trkpt lat="43.38793" lon="6.10625">
        <ele>315</ele>
        <time>2017-05-24T12:40:59Z</time>
      </trkpt>
      <trkpt lat="43.38792" lon="6.10637">
        <ele>314.39999389648</ele>
        <time>2017-05-24T12:41:01Z</time>
      </trkpt>
      <trkpt lat="43.38789" lon="6.10658">
        <ele>313.20001220703</ele>
        <time>2017-05-24T12:41:06Z</time>
      </trkpt>
      <trkpt lat="43.38784" lon="6.10677">
        <ele>312.60000610352</ele>
        <time>2017-05-24T12:41:10Z</time>
      </trkpt>
      <trkpt lat="43.38783" lon="6.10683">
        <ele>312.60000610352</ele>
        <time>2017-05-24T12:41:11Z</time>
      </trkpt>
      <trkpt lat="43.38778" lon="6.10703">
        <ele>312</ele>
        <time>2017-05-24T12:41:14Z</time>
      </trkpt>
      <trkpt lat="43.3877" lon="6.10746">
        <ele>311.79998779297</ele>
        <time>2017-05-24T12:41:20Z</time>
      </trkpt>
      <trkpt lat="43.3877" lon="6.10751">
        <ele>311.79998779297</ele>
        <time>2017-05-24T12:41:21Z</time>
      </trkpt>
      <trkpt lat="43.38768" lon="6.10759">
        <ele>311</ele>
        <time>2017-05-24T12:41:23Z</time>
      </trkpt>
      <trkpt lat="43.38767" lon="6.10759">
        <ele>310.39999389648</ele>
        <time>2017-05-24T12:41:31Z</time>
      </trkpt>
      <trkpt lat="43.38767" lon="6.10759">
        <ele>310</ele>
        <time>2017-05-24T12:41:44Z</time>
      </trkpt>
      <trkpt lat="43.38767" lon="6.10759">
        <ele>309.79998779297</ele>
        <time>2017-05-24T12:41:51Z</time>
      </trkpt>
      <trkpt lat="43.38763" lon="6.10761">
        <ele>310</ele>
        <time>2017-05-24T12:41:57Z</time>
      </trkpt>
      <trkpt lat="43.38759" lon="6.10765">
        <ele>310.20001220703</ele>
        <time>2017-05-24T12:42:00Z</time>
      </trkpt>
      <trkpt lat="43.38758" lon="6.10765">
        <ele>310.20001220703</ele>
        <time>2017-05-24T12:42:01Z</time>
      </trkpt>
      <trkpt lat="43.38744" lon="6.10768">
        <ele>311.20001220703</ele>
        <time>2017-05-24T12:42:06Z</time>
      </trkpt>
      <trkpt lat="43.38734" lon="6.10779">
        <ele>312.20001220703</ele>
        <time>2017-05-24T12:42:11Z</time>
      </trkpt>
      <trkpt lat="43.38726" lon="6.10798">
        <ele>312</ele>
        <time>2017-05-24T12:42:15Z</time>
      </trkpt>
      <trkpt lat="43.3871" lon="6.10808">
        <ele>312.20001220703</ele>
        <time>2017-05-24T12:42:21Z</time>
      </trkpt>
      <trkpt lat="43.38707" lon="6.1081">
        <ele>312.39999389648</ele>
        <time>2017-05-24T12:42:22Z</time>
      </trkpt>
      <trkpt lat="43.38697" lon="6.10822">
        <ele>313</ele>
        <time>2017-05-24T12:42:27Z</time>
      </trkpt>
      <trkpt lat="43.3869" lon="6.10837">
        <ele>313.39999389648</ele>
        <time>2017-05-24T12:42:31Z</time>
      </trkpt>
      <trkpt lat="43.38689" lon="6.10841">
        <ele>313.39999389648</ele>
        <time>2017-05-24T12:42:32Z</time>
      </trkpt>
      <trkpt lat="43.38689" lon="6.10846">
        <ele>313.39999389648</ele>
        <time>2017-05-24T12:42:33Z</time>
      </trkpt>
      <trkpt lat="43.38688" lon="6.10851">
        <ele>313.39999389648</ele>
        <time>2017-05-24T12:42:34Z</time>
      </trkpt>
      <trkpt lat="43.38683" lon="6.10877">
        <ele>312.39999389648</ele>
        <time>2017-05-24T12:42:39Z</time>
      </trkpt>
      <trkpt lat="43.3868" lon="6.10887">
        <ele>312.20001220703</ele>
        <time>2017-05-24T12:42:41Z</time>
      </trkpt>
      <trkpt lat="43.3867" lon="6.10919">
        <ele>312</ele>
        <time>2017-05-24T12:42:47Z</time>
      </trkpt>
      <trkpt lat="43.38665" lon="6.1094">
        <ele>312.39999389648</ele>
        <time>2017-05-24T12:42:51Z</time>
      </trkpt>
      <trkpt lat="43.38658" lon="6.10995">
        <ele>313</ele>
        <time>2017-05-24T12:43:01Z</time>
      </trkpt>
      <trkpt lat="43.38656" lon="6.11003">
        <ele>313</ele>
        <time>2017-05-24T12:43:03Z</time>
      </trkpt>
      <trkpt lat="43.38648" lon="6.11002">
        <ele>313.60000610352</ele>
        <time>2017-05-24T12:43:07Z</time>
      </trkpt>
      <trkpt lat="43.38643" lon="6.11004">
        <ele>314.60000610352</ele>
        <time>2017-05-24T12:43:10Z</time>
      </trkpt>
      <trkpt lat="43.38641" lon="6.11005">
        <ele>314.79998779297</ele>
        <time>2017-05-24T12:43:11Z</time>
      </trkpt>
      <trkpt lat="43.38636" lon="6.1101">
        <ele>315.20001220703</ele>
        <time>2017-05-24T12:43:15Z</time>
      </trkpt>
      <trkpt lat="43.38634" lon="6.11009">
        <ele>315.39999389648</ele>
        <time>2017-05-24T12:43:17Z</time>
      </trkpt>
      <trkpt lat="43.38629" lon="6.11005">
        <ele>315.60000610352</ele>
        <time>2017-05-24T12:43:20Z</time>
      </trkpt>
      <trkpt lat="43.38628" lon="6.11004">
        <ele>315.79998779297</ele>
        <time>2017-05-24T12:43:21Z</time>
      </trkpt>
      <trkpt lat="43.38627" lon="6.11002">
        <ele>316</ele>
        <time>2017-05-24T12:43:22Z</time>
      </trkpt>
      <trkpt lat="43.38613" lon="6.10993">
        <ele>317</ele>
        <time>2017-05-24T12:43:29Z</time>
      </trkpt>
      <trkpt lat="43.38608" lon="6.1099">
        <ele>317</ele>
        <time>2017-05-24T12:43:31Z</time>
      </trkpt>
      <trkpt lat="43.38595" lon="6.10987">
        <ele>316.39999389648</ele>
        <time>2017-05-24T12:43:38Z</time>
      </trkpt>
      <trkpt lat="43.38592" lon="6.10987">
        <ele>316</ele>
        <time>2017-05-24T12:43:41Z</time>
      </trkpt>
      <trkpt lat="43.3859" lon="6.10988">
        <ele>315.79998779297</ele>
        <time>2017-05-24T12:43:48Z</time>
      </trkpt>
      <trkpt lat="43.38585" lon="6.10989">
        <ele>315.79998779297</ele>
        <time>2017-05-24T12:43:50Z</time>
      </trkpt>
      <trkpt lat="43.38583" lon="6.10989">
        <ele>315.79998779297</ele>
        <time>2017-05-24T12:43:51Z</time>
      </trkpt>
      <trkpt lat="43.38563" lon="6.10988">
        <ele>315</ele>
        <time>2017-05-24T12:43:56Z</time>
      </trkpt>
      <trkpt lat="43.38553" lon="6.10984">
        <ele>314.20001220703</ele>
        <time>2017-05-24T12:43:58Z</time>
      </trkpt>
      <trkpt lat="43.38543" lon="6.10979">
        <ele>313.60000610352</ele>
        <time>2017-05-24T12:44:00Z</time>
      </trkpt>
      <trkpt lat="43.38538" lon="6.10976">
        <ele>313.60000610352</ele>
        <time>2017-05-24T12:44:01Z</time>
      </trkpt>
      <trkpt lat="43.3852" lon="6.1097">
        <ele>312.60000610352</ele>
        <time>2017-05-24T12:44:04Z</time>
      </trkpt>
      <trkpt lat="43.38506" lon="6.10965">
        <ele>311.60000610352</ele>
        <time>2017-05-24T12:44:06Z</time>
      </trkpt>
      <trkpt lat="43.38492" lon="6.10961">
        <ele>310</ele>
        <time>2017-05-24T12:44:08Z</time>
      </trkpt>
      <trkpt lat="43.38483" lon="6.1096">
        <ele>308.20001220703</ele>
        <time>2017-05-24T12:44:10Z</time>
      </trkpt>
      <trkpt lat="43.38481" lon="6.10959">
        <ele>307.79998779297</ele>
        <time>2017-05-24T12:44:11Z</time>
      </trkpt>
      <trkpt lat="43.38477" lon="6.10958">
        <ele>307.39999389648</ele>
        <time>2017-05-24T12:44:13Z</time>
      </trkpt>
      <trkpt lat="43.38461" lon="6.10957">
        <ele>307.79998779297</ele>
        <time>2017-05-24T12:44:21Z</time>
      </trkpt>
      <trkpt lat="43.3844" lon="6.10956">
        <ele>307.20001220703</ele>
        <time>2017-05-24T12:44:26Z</time>
      </trkpt>
      <trkpt lat="43.38435" lon="6.10955">
        <ele>307</ele>
        <time>2017-05-24T12:44:27Z</time>
      </trkpt>
      <trkpt lat="43.38417" lon="6.1095">
        <ele>306.60000610352</ele>
        <time>2017-05-24T12:44:31Z</time>
      </trkpt>
      <trkpt lat="43.38397" lon="6.10945">
        <ele>306</ele>
        <time>2017-05-24T12:44:35Z</time>
      </trkpt>
      <trkpt lat="43.38379" lon="6.10938">
        <ele>305</ele>
        <time>2017-05-24T12:44:39Z</time>
      </trkpt>
      <trkpt lat="43.3837" lon="6.10935">
        <ele>304.79998779297</ele>
        <time>2017-05-24T12:44:41Z</time>
      </trkpt>
      <trkpt lat="43.3835" lon="6.10931">
        <ele>304.39999389648</ele>
        <time>2017-05-24T12:44:45Z</time>
      </trkpt>
      <trkpt lat="43.38337" lon="6.10927">
        <ele>304.20001220703</ele>
        <time>2017-05-24T12:44:48Z</time>
      </trkpt>
      <trkpt lat="43.38323" lon="6.10924">
        <ele>304</ele>
        <time>2017-05-24T12:44:51Z</time>
      </trkpt>
      <trkpt lat="43.38319" lon="6.10922">
        <ele>304</ele>
        <time>2017-05-24T12:44:52Z</time>
      </trkpt>
      <trkpt lat="43.38276" lon="6.10907">
        <ele>303.39999389648</ele>
        <time>2017-05-24T12:45:01Z</time>
      </trkpt>
      <trkpt lat="43.38229" lon="6.10894">
        <ele>303.60000610352</ele>
        <time>2017-05-24T12:45:11Z</time>
      </trkpt>
      <trkpt lat="43.38197" lon="6.1089">
        <ele>304.39999389648</ele>
        <time>2017-05-24T12:45:21Z</time>
      </trkpt>
      <trkpt lat="43.38194" lon="6.10895">
        <ele>304.39999389648</ele>
        <time>2017-05-24T12:45:23Z</time>
      </trkpt>
      <trkpt lat="43.38189" lon="6.10925">
        <ele>304.79998779297</ele>
        <time>2017-05-24T12:45:31Z</time>
      </trkpt>
      <trkpt lat="43.38188" lon="6.10934">
        <ele>305</ele>
        <time>2017-05-24T12:45:33Z</time>
      </trkpt>
      <trkpt lat="43.38181" lon="6.10969">
        <ele>305.79998779297</ele>
        <time>2017-05-24T12:45:41Z</time>
      </trkpt>
      <trkpt lat="43.38178" lon="6.10988">
        <ele>306</ele>
        <time>2017-05-24T12:45:45Z</time>
      </trkpt>
      <trkpt lat="43.38173" lon="6.11014">
        <ele>306.79998779297</ele>
        <time>2017-05-24T12:45:51Z</time>
      </trkpt>
      <trkpt lat="43.38171" lon="6.11025">
        <ele>307.20001220703</ele>
        <time>2017-05-24T12:45:54Z</time>
      </trkpt>
      <trkpt lat="43.38166" lon="6.11055">
        <ele>307.60000610352</ele>
        <time>2017-05-24T12:46:01Z</time>
      </trkpt>
      <trkpt lat="43.38161" lon="6.1107">
        <ele>308.20001220703</ele>
        <time>2017-05-24T12:46:05Z</time>
      </trkpt>
      <trkpt lat="43.38154" lon="6.11093">
        <ele>309.20001220703</ele>
        <time>2017-05-24T12:46:11Z</time>
      </trkpt>
      <trkpt lat="43.38152" lon="6.11096">
        <ele>309.20001220703</ele>
        <time>2017-05-24T12:46:12Z</time>
      </trkpt>
      <trkpt lat="43.38135" lon="6.11126">
        <ele>310</ele>
        <time>2017-05-24T12:46:21Z</time>
      </trkpt>
      <trkpt lat="43.38132" lon="6.11128">
        <ele>310.39999389648</ele>
        <time>2017-05-24T12:46:22Z</time>
      </trkpt>
      <trkpt lat="43.38115" lon="6.11145">
        <ele>311.39999389648</ele>
        <time>2017-05-24T12:46:29Z</time>
      </trkpt>
      <trkpt lat="43.38111" lon="6.1115">
        <ele>311.60000610352</ele>
        <time>2017-05-24T12:46:31Z</time>
      </trkpt>
      <trkpt lat="43.38099" lon="6.11163">
        <ele>312.39999389648</ele>
        <time>2017-05-24T12:46:37Z</time>
      </trkpt>
      <trkpt lat="43.38094" lon="6.11168">
        <ele>313</ele>
        <time>2017-05-24T12:46:41Z</time>
      </trkpt>
      <trkpt lat="43.38091" lon="6.11171">
        <ele>313.39999389648</ele>
        <time>2017-05-24T12:46:44Z</time>
      </trkpt>
      <trkpt lat="43.38081" lon="6.11181">
        <ele>314.20001220703</ele>
        <time>2017-05-24T12:46:51Z</time>
      </trkpt>
      <trkpt lat="43.38075" lon="6.11187">
        <ele>314.39999389648</ele>
        <time>2017-05-24T12:46:55Z</time>
      </trkpt>
      <trkpt lat="43.38065" lon="6.11198">
        <ele>314.60000610352</ele>
        <time>2017-05-24T12:47:01Z</time>
      </trkpt>
      <trkpt lat="43.38044" lon="6.11229">
        <ele>314</ele>
        <time>2017-05-24T12:47:11Z</time>
      </trkpt>
      <trkpt lat="43.3802" lon="6.11274">
        <ele>313.79998779297</ele>
        <time>2017-05-24T12:47:21Z</time>
      </trkpt>
      <trkpt lat="43.37998" lon="6.11321">
        <ele>313.79998779297</ele>
        <time>2017-05-24T12:47:31Z</time>
      </trkpt>
      <trkpt lat="43.37993" lon="6.11331">
        <ele>313.79998779297</ele>
        <time>2017-05-24T12:47:33Z</time>
      </trkpt>
      <trkpt lat="43.37983" lon="6.11349">
        <ele>313.39999389648</ele>
        <time>2017-05-24T12:47:37Z</time>
      </trkpt>
      <trkpt lat="43.37971" lon="6.11367">
        <ele>313.60000610352</ele>
        <time>2017-05-24T12:47:41Z</time>
      </trkpt>
      <trkpt lat="43.3794" lon="6.11405">
        <ele>314.20001220703</ele>
        <time>2017-05-24T12:47:51Z</time>
      </trkpt>
      <trkpt lat="43.37937" lon="6.11412">
        <ele>314.60000610352</ele>
        <time>2017-05-24T12:47:53Z</time>
      </trkpt>
      <trkpt lat="43.37931" lon="6.11437">
        <ele>315.39999389648</ele>
        <time>2017-05-24T12:47:59Z</time>
      </trkpt>
      <trkpt lat="43.37928" lon="6.11446">
        <ele>315.60000610352</ele>
        <time>2017-05-24T12:48:01Z</time>
      </trkpt>
      <trkpt lat="43.37921" lon="6.11468">
        <ele>315.79998779297</ele>
        <time>2017-05-24T12:48:06Z</time>
      </trkpt>
      <trkpt lat="43.37918" lon="6.11485">
        <ele>316.60000610352</ele>
        <time>2017-05-24T12:48:10Z</time>
      </trkpt>
      <trkpt lat="43.37916" lon="6.11495">
        <ele>316.60000610352</ele>
        <time>2017-05-24T12:48:12Z</time>
      </trkpt>
      <trkpt lat="43.37909" lon="6.11528">
        <ele>317.39999389648</ele>
        <time>2017-05-24T12:48:19Z</time>
      </trkpt>
      <trkpt lat="43.37906" lon="6.11537">
        <ele>317.39999389648</ele>
        <time>2017-05-24T12:48:21Z</time>
      </trkpt>
      <trkpt lat="43.37904" lon="6.11547">
        <ele>317.79998779297</ele>
        <time>2017-05-24T12:48:23Z</time>
      </trkpt>
      <trkpt lat="43.37901" lon="6.11566">
        <ele>319</ele>
        <time>2017-05-24T12:48:27Z</time>
      </trkpt>
      <trkpt lat="43.37897" lon="6.11585">
        <ele>319.39999389648</ele>
        <time>2017-05-24T12:48:31Z</time>
      </trkpt>
      <trkpt lat="43.37886" lon="6.11628">
        <ele>320.20001220703</ele>
        <time>2017-05-24T12:48:41Z</time>
      </trkpt>
      <trkpt lat="43.37878" lon="6.11668">
        <ele>321.20001220703</ele>
        <time>2017-05-24T12:48:50Z</time>
      </trkpt>
      <trkpt lat="43.37868" lon="6.11705">
        <ele>322.20001220703</ele>
        <time>2017-05-24T12:48:59Z</time>
      </trkpt>
      <trkpt lat="43.37866" lon="6.11714">
        <ele>322.79998779297</ele>
        <time>2017-05-24T12:49:01Z</time>
      </trkpt>
      <trkpt lat="43.37865" lon="6.11723">
        <ele>323.20001220703</ele>
        <time>2017-05-24T12:49:03Z</time>
      </trkpt>
      <trkpt lat="43.37863" lon="6.11742">
        <ele>324.39999389648</ele>
        <time>2017-05-24T12:49:09Z</time>
      </trkpt>
      <trkpt lat="43.37864" lon="6.11747">
        <ele>324.79998779297</ele>
        <time>2017-05-24T12:49:11Z</time>
      </trkpt>
      <trkpt lat="43.37861" lon="6.11761">
        <ele>325.20001220703</ele>
        <time>2017-05-24T12:49:18Z</time>
      </trkpt>
      <trkpt lat="43.37859" lon="6.11768">
        <ele>325</ele>
        <time>2017-05-24T12:49:21Z</time>
      </trkpt>
      <trkpt lat="43.37854" lon="6.11784">
        <ele>325.20001220703</ele>
        <time>2017-05-24T12:49:27Z</time>
      </trkpt>
      <trkpt lat="43.37848" lon="6.11796">
        <ele>325.79998779297</ele>
        <time>2017-05-24T12:49:31Z</time>
      </trkpt>
      <trkpt lat="43.37847" lon="6.11803">
        <ele>326</ele>
        <time>2017-05-24T12:49:33Z</time>
      </trkpt>
      <trkpt lat="43.37836" lon="6.11828">
        <ele>326</ele>
        <time>2017-05-24T12:49:41Z</time>
      </trkpt>
      <trkpt lat="43.37832" lon="6.11848">
        <ele>326.60000610352</ele>
        <time>2017-05-24T12:49:46Z</time>
      </trkpt>
      <trkpt lat="43.37837" lon="6.11867">
        <ele>327.39999389648</ele>
        <time>2017-05-24T12:49:51Z</time>
      </trkpt>
      <trkpt lat="43.37839" lon="6.11873">
        <ele>327.60000610352</ele>
        <time>2017-05-24T12:49:53Z</time>
      </trkpt>
      <trkpt lat="43.37844" lon="6.11902">
        <ele>328.39999389648</ele>
        <time>2017-05-24T12:50:01Z</time>
      </trkpt>
      <trkpt lat="43.37846" lon="6.11914">
        <ele>328.79998779297</ele>
        <time>2017-05-24T12:50:04Z</time>
      </trkpt>
      <trkpt lat="43.37846" lon="6.11934">
        <ele>330</ele>
        <time>2017-05-24T12:50:09Z</time>
      </trkpt>
      <trkpt lat="43.37846" lon="6.11941">
        <ele>330.39999389648</ele>
        <time>2017-05-24T12:50:11Z</time>
      </trkpt>
      <trkpt lat="43.37843" lon="6.1195">
        <ele>331</ele>
        <time>2017-05-24T12:50:14Z</time>
      </trkpt>
      <trkpt lat="43.37839" lon="6.11963">
        <ele>332</ele>
        <time>2017-05-24T12:50:19Z</time>
      </trkpt>
      <trkpt lat="43.37838" lon="6.11967">
        <ele>332.20001220703</ele>
        <time>2017-05-24T12:50:21Z</time>
      </trkpt>
      <trkpt lat="43.37835" lon="6.11976">
        <ele>333.20001220703</ele>
        <time>2017-05-24T12:50:25Z</time>
      </trkpt>
      <trkpt lat="43.3783" lon="6.1199">
        <ele>333.39999389648</ele>
        <time>2017-05-24T12:50:31Z</time>
      </trkpt>
      <trkpt lat="43.37825" lon="6.12011">
        <ele>334.20001220703</ele>
        <time>2017-05-24T12:50:41Z</time>
      </trkpt>
      <trkpt lat="43.37824" lon="6.12013">
        <ele>334.20001220703</ele>
        <time>2017-05-24T12:50:42Z</time>
      </trkpt>
      <trkpt lat="43.37823" lon="6.12015">
        <ele>334.60000610352</ele>
        <time>2017-05-24T12:50:47Z</time>
      </trkpt>
      <trkpt lat="43.37823" lon="6.12015">
        <ele>334.39999389648</ele>
        <time>2017-05-24T12:50:57Z</time>
      </trkpt>
      <trkpt lat="43.37823" lon="6.12015">
        <ele>334.39999389648</ele>
        <time>2017-05-24T12:51:21Z</time>
      </trkpt>
      <trkpt lat="43.37822" lon="6.12021">
        <ele>334.39999389648</ele>
        <time>2017-05-24T12:51:28Z</time>
      </trkpt>
      <trkpt lat="43.37821" lon="6.12029">
        <ele>334.60000610352</ele>
        <time>2017-05-24T12:51:31Z</time>
      </trkpt>
      <trkpt lat="43.37816" lon="6.12058">
        <ele>335.60000610352</ele>
        <time>2017-05-24T12:51:41Z</time>
      </trkpt>
      <trkpt lat="43.37811" lon="6.12079">
        <ele>335.39999389648</ele>
        <time>2017-05-24T12:51:48Z</time>
      </trkpt>
      <trkpt lat="43.3781" lon="6.12088">
        <ele>335.60000610352</ele>
        <time>2017-05-24T12:51:51Z</time>
      </trkpt>
      <trkpt lat="43.37807" lon="6.12102">
        <ele>336.20001220703</ele>
        <time>2017-05-24T12:51:55Z</time>
      </trkpt>
      <trkpt lat="43.37802" lon="6.1212">
        <ele>336.39999389648</ele>
        <time>2017-05-24T12:51:59Z</time>
      </trkpt>
      <trkpt lat="43.37799" lon="6.12128">
        <ele>336.60000610352</ele>
        <time>2017-05-24T12:52:01Z</time>
      </trkpt>
      <trkpt lat="43.37794" lon="6.12142">
        <ele>337.39999389648</ele>
        <time>2017-05-24T12:52:05Z</time>
      </trkpt>
      <trkpt lat="43.37788" lon="6.12163">
        <ele>338.20001220703</ele>
        <time>2017-05-24T12:52:11Z</time>
      </trkpt>
      <trkpt lat="43.37785" lon="6.12177">
        <ele>338.60000610352</ele>
        <time>2017-05-24T12:52:15Z</time>
      </trkpt>
      <trkpt lat="43.37777" lon="6.12199">
        <ele>339.20001220703</ele>
        <time>2017-05-24T12:52:21Z</time>
      </trkpt>
      <trkpt lat="43.37762" lon="6.12232">
        <ele>339.20001220703</ele>
        <time>2017-05-24T12:52:31Z</time>
      </trkpt>
      <trkpt lat="43.37749" lon="6.12251">
        <ele>339.79998779297</ele>
        <time>2017-05-24T12:52:38Z</time>
      </trkpt>
      <trkpt lat="43.37745" lon="6.12258">
        <ele>339.79998779297</ele>
        <time>2017-05-24T12:52:41Z</time>
      </trkpt>
      <trkpt lat="43.37737" lon="6.12272">
        <ele>340.79998779297</ele>
        <time>2017-05-24T12:52:47Z</time>
      </trkpt>
      <trkpt lat="43.3773" lon="6.12283">
        <ele>342</ele>
        <time>2017-05-24T12:52:51Z</time>
      </trkpt>
      <trkpt lat="43.37723" lon="6.12311">
        <ele>342.20001220703</ele>
        <time>2017-05-24T12:52:58Z</time>
      </trkpt>
      <trkpt lat="43.37727" lon="6.12321">
        <ele>342.20001220703</ele>
        <time>2017-05-24T12:53:01Z</time>
      </trkpt>
      <trkpt lat="43.37737" lon="6.12336">
        <ele>342.60000610352</ele>
        <time>2017-05-24T12:53:07Z</time>
      </trkpt>
      <trkpt lat="43.37738" lon="6.12342">
        <ele>343.20001220703</ele>
        <time>2017-05-24T12:53:09Z</time>
      </trkpt>
      <trkpt lat="43.37738" lon="6.12345">
        <ele>343.60000610352</ele>
        <time>2017-05-24T12:53:10Z</time>
      </trkpt>
      <trkpt lat="43.37737" lon="6.12348">
        <ele>344</ele>
        <time>2017-05-24T12:53:11Z</time>
      </trkpt>
      <trkpt lat="43.37731" lon="6.12381">
        <ele>345.20001220703</ele>
        <time>2017-05-24T12:53:21Z</time>
      </trkpt>
      <trkpt lat="43.3773" lon="6.12389">
        <ele>345.39999389648</ele>
        <time>2017-05-24T12:53:23Z</time>
      </trkpt>
      <trkpt lat="43.37728" lon="6.12415">
        <ele>346.20001220703</ele>
        <time>2017-05-24T12:53:31Z</time>
      </trkpt>
      <trkpt lat="43.37727" lon="6.12422">
        <ele>346.39999389648</ele>
        <time>2017-05-24T12:53:33Z</time>
      </trkpt>
      <trkpt lat="43.37728" lon="6.12428">
        <ele>346.39999389648</ele>
        <time>2017-05-24T12:53:35Z</time>
      </trkpt>
      <trkpt lat="43.37727" lon="6.12444">
        <ele>347.60000610352</ele>
        <time>2017-05-24T12:53:41Z</time>
      </trkpt>
      <trkpt lat="43.37719" lon="6.1247">
        <ele>348.20001220703</ele>
        <time>2017-05-24T12:53:51Z</time>
      </trkpt>
      <trkpt lat="43.37716" lon="6.12479">
        <ele>348.79998779297</ele>
        <time>2017-05-24T12:53:55Z</time>
      </trkpt>
      <trkpt lat="43.37714" lon="6.12496">
        <ele>349.20001220703</ele>
        <time>2017-05-24T12:54:01Z</time>
      </trkpt>
      <trkpt lat="43.37709" lon="6.12539">
        <ele>349.79998779297</ele>
        <time>2017-05-24T12:54:15Z</time>
      </trkpt>
      <trkpt lat="43.37708" lon="6.12559">
        <ele>350.20001220703</ele>
        <time>2017-05-24T12:54:21Z</time>
      </trkpt>
      <trkpt lat="43.37708" lon="6.1258">
        <ele>350.79998779297</ele>
        <time>2017-05-24T12:54:27Z</time>
      </trkpt>
      <trkpt lat="43.37707" lon="6.12594">
        <ele>351</ele>
        <time>2017-05-24T12:54:31Z</time>
      </trkpt>
      <trkpt lat="43.37709" lon="6.12631">
        <ele>351.39999389648</ele>
        <time>2017-05-24T12:54:41Z</time>
      </trkpt>
      <trkpt lat="43.37708" lon="6.12642">
        <ele>352</ele>
        <time>2017-05-24T12:54:44Z</time>
      </trkpt>
      <trkpt lat="43.37707" lon="6.12651">
        <ele>352.20001220703</ele>
        <time>2017-05-24T12:54:47Z</time>
      </trkpt>
      <trkpt lat="43.37706" lon="6.12657">
        <ele>352.39999389648</ele>
        <time>2017-05-24T12:54:49Z</time>
      </trkpt>
      <trkpt lat="43.37705" lon="6.12665">
        <ele>352.20001220703</ele>
        <time>2017-05-24T12:54:51Z</time>
      </trkpt>
      <trkpt lat="43.37703" lon="6.12699">
        <ele>352.60000610352</ele>
        <time>2017-05-24T12:55:01Z</time>
      </trkpt>
      <trkpt lat="43.37703" lon="6.12718">
        <ele>353</ele>
        <time>2017-05-24T12:55:06Z</time>
      </trkpt>
      <trkpt lat="43.37704" lon="6.12734">
        <ele>353.39999389648</ele>
        <time>2017-05-24T12:55:11Z</time>
      </trkpt>
      <trkpt lat="43.37708" lon="6.12754">
        <ele>354</ele>
        <time>2017-05-24T12:55:18Z</time>
      </trkpt>
      <trkpt lat="43.37708" lon="6.12766">
        <ele>354.79998779297</ele>
        <time>2017-05-24T12:55:22Z</time>
      </trkpt>
      <trkpt lat="43.37708" lon="6.12775">
        <ele>355.20001220703</ele>
        <time>2017-05-24T12:55:25Z</time>
      </trkpt>
      <trkpt lat="43.37709" lon="6.12789">
        <ele>356</ele>
        <time>2017-05-24T12:55:30Z</time>
      </trkpt>
      <trkpt lat="43.37711" lon="6.12817">
        <ele>357</ele>
        <time>2017-05-24T12:55:39Z</time>
      </trkpt>
      <trkpt lat="43.37712" lon="6.12827">
        <ele>357.39999389648</ele>
        <time>2017-05-24T12:55:42Z</time>
      </trkpt>
      <trkpt lat="43.37711" lon="6.12849">
        <ele>358.20001220703</ele>
        <time>2017-05-24T12:55:49Z</time>
      </trkpt>
      <trkpt lat="43.37709" lon="6.12857">
        <ele>358.39999389648</ele>
        <time>2017-05-24T12:55:51Z</time>
      </trkpt>
      <trkpt lat="43.37706" lon="6.12892">
        <ele>358.79998779297</ele>
        <time>2017-05-24T12:56:01Z</time>
      </trkpt>
      <trkpt lat="43.37696" lon="6.12927">
        <ele>359.20001220703</ele>
        <time>2017-05-24T12:56:11Z</time>
      </trkpt>
      <trkpt lat="43.37691" lon="6.12936">
        <ele>359.39999389648</ele>
        <time>2017-05-24T12:56:14Z</time>
      </trkpt>
      <trkpt lat="43.37684" lon="6.12959">
        <ele>359.60000610352</ele>
        <time>2017-05-24T12:56:21Z</time>
      </trkpt>
      <trkpt lat="43.37684" lon="6.12978">
        <ele>359.39999389648</ele>
        <time>2017-05-24T12:56:26Z</time>
      </trkpt>
      <trkpt lat="43.37685" lon="6.12984">
        <ele>359.20001220703</ele>
        <time>2017-05-24T12:56:28Z</time>
      </trkpt>
      <trkpt lat="43.37679" lon="6.12985">
        <ele>359.20001220703</ele>
        <time>2017-05-24T12:56:31Z</time>
      </trkpt>
      <trkpt lat="43.37672" lon="6.12981">
        <ele>359.20001220703</ele>
        <time>2017-05-24T12:56:41Z</time>
      </trkpt>
      <trkpt lat="43.37669" lon="6.12985">
        <ele>359.60000610352</ele>
        <time>2017-05-24T12:56:51Z</time>
      </trkpt>
      <trkpt lat="43.37669" lon="6.12991">
        <ele>360.20001220703</ele>
        <time>2017-05-24T12:56:57Z</time>
      </trkpt>
      <trkpt lat="43.37668" lon="6.12991">
        <ele>360.39999389648</ele>
        <time>2017-05-24T12:57:01Z</time>
      </trkpt>
      <trkpt lat="43.37667" lon="6.12992">
        <ele>360.79998779297</ele>
        <time>2017-05-24T12:57:11Z</time>
      </trkpt>
      <trkpt lat="43.37666" lon="6.12993">
        <ele>360.39999389648</ele>
        <time>2017-05-24T12:57:19Z</time>
      </trkpt>
      <trkpt lat="43.37666" lon="6.12993">
        <ele>360.39999389648</ele>
        <time>2017-05-24T12:57:27Z</time>
      </trkpt>
      <trkpt lat="43.37666" lon="6.12993">
        <ele>360</ele>
        <time>2017-05-24T12:57:41Z</time>
      </trkpt>
      <trkpt lat="43.37666" lon="6.12993">
        <ele>360</ele>
        <time>2017-05-24T12:57:44Z</time>
      </trkpt>
      <trkpt lat="43.37666" lon="6.12993">
        <ele>359.60000610352</ele>
        <time>2017-05-24T12:58:11Z</time>
      </trkpt>
      <trkpt lat="43.37666" lon="6.12993">
        <ele>359.60000610352</ele>
        <time>2017-05-24T12:58:21Z</time>
      </trkpt>
      <trkpt lat="43.37666" lon="6.12993">
        <ele>359.39999389648</ele>
        <time>2017-05-24T12:58:31Z</time>
      </trkpt>
      <trkpt lat="43.37667" lon="6.12993">
        <ele>359.60000610352</ele>
        <time>2017-05-24T12:58:56Z</time>
      </trkpt>
      <trkpt lat="43.37667" lon="6.12993">
        <ele>359.79998779297</ele>
        <time>2017-05-24T12:59:01Z</time>
      </trkpt>
      <trkpt lat="43.37667" lon="6.12994">
        <ele>359.39999389648</ele>
        <time>2017-05-24T12:59:11Z</time>
      </trkpt>
      <trkpt lat="43.3767" lon="6.13003">
        <ele>359.79998779297</ele>
        <time>2017-05-24T12:59:21Z</time>
      </trkpt>
      <trkpt lat="43.37671" lon="6.13006">
        <ele>359.79998779297</ele>
        <time>2017-05-24T12:59:22Z</time>
      </trkpt>
      <trkpt lat="43.37671" lon="6.1302">
        <ele>360.39999389648</ele>
        <time>2017-05-24T12:59:26Z</time>
      </trkpt>
      <trkpt lat="43.37671" lon="6.13024">
        <ele>360.39999389648</ele>
        <time>2017-05-24T12:59:27Z</time>
      </trkpt>
      <trkpt lat="43.37664" lon="6.1304">
        <ele>360.39999389648</ele>
        <time>2017-05-24T12:59:31Z</time>
      </trkpt>
      <trkpt lat="43.3765" lon="6.13063">
        <ele>361.39999389648</ele>
        <time>2017-05-24T12:59:39Z</time>
      </trkpt>
      <trkpt lat="43.37646" lon="6.13068">
        <ele>361.39999389648</ele>
        <time>2017-05-24T12:59:41Z</time>
      </trkpt>
      <trkpt lat="43.37626" lon="6.131">
        <ele>362.60000610352</ele>
        <time>2017-05-24T12:59:52Z</time>
      </trkpt>
      <trkpt lat="43.37616" lon="6.13114">
        <ele>363</ele>
        <time>2017-05-24T12:59:57Z</time>
      </trkpt>
      <trkpt lat="43.37609" lon="6.13125">
        <ele>363.39999389648</ele>
        <time>2017-05-24T13:00:01Z</time>
      </trkpt>
      <trkpt lat="43.37608" lon="6.13128">
        <ele>363.60000610352</ele>
        <time>2017-05-24T13:00:02Z</time>
      </trkpt>
      <trkpt lat="43.37598" lon="6.1315">
        <ele>364.60000610352</ele>
        <time>2017-05-24T13:00:10Z</time>
      </trkpt>
      <trkpt lat="43.37597" lon="6.13153">
        <ele>364.60000610352</ele>
        <time>2017-05-24T13:00:11Z</time>
      </trkpt>
      <trkpt lat="43.37585" lon="6.13183">
        <ele>365.79998779297</ele>
        <time>2017-05-24T13:00:21Z</time>
      </trkpt>
      <trkpt lat="43.37577" lon="6.13215">
        <ele>366.79998779297</ele>
        <time>2017-05-24T13:00:31Z</time>
      </trkpt>
      <trkpt lat="43.37576" lon="6.13235">
        <ele>367.79998779297</ele>
        <time>2017-05-24T13:00:38Z</time>
      </trkpt>
      <trkpt lat="43.37576" lon="6.13245">
        <ele>368</ele>
        <time>2017-05-24T13:00:41Z</time>
      </trkpt>
      <trkpt lat="43.37575" lon="6.1327">
        <ele>368.79998779297</ele>
        <time>2017-05-24T13:00:51Z</time>
      </trkpt>
      <trkpt lat="43.37574" lon="6.13272">
        <ele>368.79998779297</ele>
        <time>2017-05-24T13:00:52Z</time>
      </trkpt>
      <trkpt lat="43.37574" lon="6.13284">
        <ele>369.39999389648</ele>
        <time>2017-05-24T13:00:59Z</time>
      </trkpt>
      <trkpt lat="43.37574" lon="6.13288">
        <ele>369.39999389648</ele>
        <time>2017-05-24T13:01:01Z</time>
      </trkpt>
      <trkpt lat="43.37573" lon="6.13303">
        <ele>369.60000610352</ele>
        <time>2017-05-24T13:01:08Z</time>
      </trkpt>
      <trkpt lat="43.37573" lon="6.1331">
        <ele>369.79998779297</ele>
        <time>2017-05-24T13:01:11Z</time>
      </trkpt>
      <trkpt lat="43.37573" lon="6.13314">
        <ele>370</ele>
        <time>2017-05-24T13:01:13Z</time>
      </trkpt>
      <trkpt lat="43.37575" lon="6.13324">
        <ele>370.39999389648</ele>
        <time>2017-05-24T13:01:17Z</time>
      </trkpt>
      <trkpt lat="43.37575" lon="6.13325">
        <ele>370.39999389648</ele>
        <time>2017-05-24T13:01:18Z</time>
      </trkpt>
      <trkpt lat="43.37573" lon="6.13328">
        <ele>370.79998779297</ele>
        <time>2017-05-24T13:01:20Z</time>
      </trkpt>
      <trkpt lat="43.37572" lon="6.13329">
        <ele>371.20001220703</ele>
        <time>2017-05-24T13:01:21Z</time>
      </trkpt>
      <trkpt lat="43.37568" lon="6.13334">
        <ele>371.20001220703</ele>
        <time>2017-05-24T13:01:31Z</time>
      </trkpt>
      <trkpt lat="43.37566" lon="6.13337">
        <ele>371</ele>
        <time>2017-05-24T13:01:41Z</time>
      </trkpt>
      <trkpt lat="43.37562" lon="6.1334">
        <ele>370.79998779297</ele>
        <time>2017-05-24T13:01:43Z</time>
      </trkpt>
      <trkpt lat="43.3755" lon="6.13356">
        <ele>371</ele>
        <time>2017-05-24T13:01:51Z</time>
      </trkpt>
      <trkpt lat="43.37548" lon="6.13363">
        <ele>371.20001220703</ele>
        <time>2017-05-24T13:01:54Z</time>
      </trkpt>
      <trkpt lat="43.37542" lon="6.1337">
        <ele>371.79998779297</ele>
        <time>2017-05-24T13:01:58Z</time>
      </trkpt>
      <trkpt lat="43.37535" lon="6.13387">
        <ele>371.20001220703</ele>
        <time>2017-05-24T13:02:05Z</time>
      </trkpt>
      <trkpt lat="43.37532" lon="6.13402">
        <ele>371.39999389648</ele>
        <time>2017-05-24T13:02:11Z</time>
      </trkpt>
      <trkpt lat="43.3753" lon="6.13417">
        <ele>371.60000610352</ele>
        <time>2017-05-24T13:02:17Z</time>
      </trkpt>
      <trkpt lat="43.37529" lon="6.13421">
        <ele>372</ele>
        <time>2017-05-24T13:02:19Z</time>
      </trkpt>
      <trkpt lat="43.37527" lon="6.13425">
        <ele>372.60000610352</ele>
        <time>2017-05-24T13:02:21Z</time>
      </trkpt>
      <trkpt lat="43.37526" lon="6.13427">
        <ele>373</ele>
        <time>2017-05-24T13:02:22Z</time>
      </trkpt>
      <trkpt lat="43.37527" lon="6.1343">
        <ele>373.79998779297</ele>
        <time>2017-05-24T13:02:31Z</time>
      </trkpt>
      <trkpt lat="43.37527" lon="6.13429">
        <ele>373.60000610352</ele>
        <time>2017-05-24T13:02:41Z</time>
      </trkpt>
      <trkpt lat="43.37526" lon="6.1343">
        <ele>373.60000610352</ele>
        <time>2017-05-24T13:02:51Z</time>
      </trkpt>
      <trkpt lat="43.37526" lon="6.13431">
        <ele>373.39999389648</ele>
        <time>2017-05-24T13:03:01Z</time>
      </trkpt>
      <trkpt lat="43.37526" lon="6.1343">
        <ele>373.20001220703</ele>
        <time>2017-05-24T13:03:07Z</time>
      </trkpt>
      <trkpt lat="43.37525" lon="6.13429">
        <ele>373</ele>
        <time>2017-05-24T13:03:11Z</time>
      </trkpt>
      <trkpt lat="43.37525" lon="6.13428">
        <ele>373.20001220703</ele>
        <time>2017-05-24T13:03:15Z</time>
      </trkpt>
      <trkpt lat="43.37525" lon="6.13428">
        <ele>373.39999389648</ele>
        <time>2017-05-24T13:03:21Z</time>
      </trkpt>
      <trkpt lat="43.37524" lon="6.13434">
        <ele>373.60000610352</ele>
        <time>2017-05-24T13:03:25Z</time>
      </trkpt>
      <trkpt lat="43.37524" lon="6.13436">
        <ele>373.60000610352</ele>
        <time>2017-05-24T13:03:26Z</time>
      </trkpt>
      <trkpt lat="43.37524" lon="6.13449">
        <ele>374</ele>
        <time>2017-05-24T13:03:31Z</time>
      </trkpt>
      <trkpt lat="43.37525" lon="6.13452">
        <ele>374</ele>
        <time>2017-05-24T13:03:32Z</time>
      </trkpt>
      <trkpt lat="43.37526" lon="6.13475">
        <ele>375</ele>
        <time>2017-05-24T13:03:41Z</time>
      </trkpt>
      <trkpt lat="43.37526" lon="6.1348">
        <ele>375</ele>
        <time>2017-05-24T13:03:43Z</time>
      </trkpt>
      <trkpt lat="43.37526" lon="6.13493">
        <ele>375.39999389648</ele>
        <time>2017-05-24T13:03:48Z</time>
      </trkpt>
      <trkpt lat="43.37528" lon="6.13501">
        <ele>375.79998779297</ele>
        <time>2017-05-24T13:03:51Z</time>
      </trkpt>
      <trkpt lat="43.37529" lon="6.13509">
        <ele>376.20001220703</ele>
        <time>2017-05-24T13:03:54Z</time>
      </trkpt>
      <trkpt lat="43.37531" lon="6.13525">
        <ele>377</ele>
        <time>2017-05-24T13:04:00Z</time>
      </trkpt>
      <trkpt lat="43.37531" lon="6.13534">
        <ele>377.20001220703</ele>
        <time>2017-05-24T13:04:03Z</time>
      </trkpt>
      <trkpt lat="43.37531" lon="6.13558">
        <ele>377.79998779297</ele>
        <time>2017-05-24T13:04:11Z</time>
      </trkpt>
      <trkpt lat="43.37533" lon="6.13565">
        <ele>378.39999389648</ele>
        <time>2017-05-24T13:04:14Z</time>
      </trkpt>
      <trkpt lat="43.37537" lon="6.13579">
        <ele>379.20001220703</ele>
        <time>2017-05-24T13:04:19Z</time>
      </trkpt>
      <trkpt lat="43.37541" lon="6.13591">
        <ele>379.39999389648</ele>
        <time>2017-05-24T13:04:24Z</time>
      </trkpt>
      <trkpt lat="43.37546" lon="6.13609">
        <ele>380.20001220703</ele>
        <time>2017-05-24T13:04:31Z</time>
      </trkpt>
      <trkpt lat="43.37547" lon="6.13614">
        <ele>380.60000610352</ele>
        <time>2017-05-24T13:04:33Z</time>
      </trkpt>
      <trkpt lat="43.37553" lon="6.13634">
        <ele>381.39999389648</ele>
        <time>2017-05-24T13:04:41Z</time>
      </trkpt>
      <trkpt lat="43.37556" lon="6.13645">
        <ele>381.60000610352</ele>
        <time>2017-05-24T13:04:45Z</time>
      </trkpt>
      <trkpt lat="43.37558" lon="6.13653">
        <ele>382.20001220703</ele>
        <time>2017-05-24T13:04:49Z</time>
      </trkpt>
      <trkpt lat="43.37558" lon="6.13658">
        <ele>382.39999389648</ele>
        <time>2017-05-24T13:04:51Z</time>
      </trkpt>
      <trkpt lat="43.37558" lon="6.1367">
        <ele>382.39999389648</ele>
        <time>2017-05-24T13:04:56Z</time>
      </trkpt>
      <trkpt lat="43.37557" lon="6.13681">
        <ele>382.60000610352</ele>
        <time>2017-05-24T13:05:01Z</time>
      </trkpt>
      <trkpt lat="43.37557" lon="6.13682">
        <ele>382.60000610352</ele>
        <time>2017-05-24T13:05:03Z</time>
      </trkpt>
      <trkpt lat="43.37558" lon="6.13682">
        <ele>382.60000610352</ele>
        <time>2017-05-24T13:05:05Z</time>
      </trkpt>
      <trkpt lat="43.37558" lon="6.13683">
        <ele>382.60000610352</ele>
        <time>2017-05-24T13:05:09Z</time>
      </trkpt>
      <trkpt lat="43.37558" lon="6.13688">
        <ele>382.60000610352</ele>
        <time>2017-05-24T13:05:11Z</time>
      </trkpt>
      <trkpt lat="43.37558" lon="6.1369">
        <ele>382.60000610352</ele>
        <time>2017-05-24T13:05:12Z</time>
      </trkpt>
      <trkpt lat="43.37561" lon="6.13712">
        <ele>383</ele>
        <time>2017-05-24T13:05:21Z</time>
      </trkpt>
      <trkpt lat="43.37563" lon="6.13718">
        <ele>383.79998779297</ele>
        <time>2017-05-24T13:05:24Z</time>
      </trkpt>
      <trkpt lat="43.37566" lon="6.13733">
        <ele>384.79998779297</ele>
        <time>2017-05-24T13:05:30Z</time>
      </trkpt>
      <trkpt lat="43.37566" lon="6.13736">
        <ele>385</ele>
        <time>2017-05-24T13:05:31Z</time>
      </trkpt>
      <trkpt lat="43.37568" lon="6.13755">
        <ele>385.79998779297</ele>
        <time>2017-05-24T13:05:38Z</time>
      </trkpt>
      <trkpt lat="43.37571" lon="6.13787">
        <ele>386.79998779297</ele>
        <time>2017-05-24T13:05:49Z</time>
      </trkpt>
      <trkpt lat="43.37571" lon="6.13793">
        <ele>387.39999389648</ele>
        <time>2017-05-24T13:05:51Z</time>
      </trkpt>
      <trkpt lat="43.3757" lon="6.13823">
        <ele>387.60000610352</ele>
        <time>2017-05-24T13:06:01Z</time>
      </trkpt>
      <trkpt lat="43.37567" lon="6.13845">
        <ele>387.60000610352</ele>
        <time>2017-05-24T13:06:08Z</time>
      </trkpt>
      <trkpt lat="43.37566" lon="6.13855">
        <ele>387.60000610352</ele>
        <time>2017-05-24T13:06:11Z</time>
      </trkpt>
      <trkpt lat="43.37564" lon="6.13874">
        <ele>388</ele>
        <time>2017-05-24T13:06:17Z</time>
      </trkpt>
      <trkpt lat="43.37563" lon="6.13886">
        <ele>388</ele>
        <time>2017-05-24T13:06:21Z</time>
      </trkpt>
      <trkpt lat="43.37556" lon="6.13914">
        <ele>388.79998779297</ele>
        <time>2017-05-24T13:06:31Z</time>
      </trkpt>
      <trkpt lat="43.3755" lon="6.13943">
        <ele>390</ele>
        <time>2017-05-24T13:06:41Z</time>
      </trkpt>
      <trkpt lat="43.37549" lon="6.13945">
        <ele>390.20001220703</ele>
        <time>2017-05-24T13:06:42Z</time>
      </trkpt>
      <trkpt lat="43.37541" lon="6.13968">
        <ele>391.20001220703</ele>
        <time>2017-05-24T13:06:51Z</time>
      </trkpt>
      <trkpt lat="43.37539" lon="6.13983">
        <ele>392</ele>
        <time>2017-05-24T13:06:57Z</time>
      </trkpt>
      <trkpt lat="43.37539" lon="6.13999">
        <ele>392.39999389648</ele>
        <time>2017-05-24T13:07:03Z</time>
      </trkpt>
      <trkpt lat="43.37535" lon="6.14019">
        <ele>393.39999389648</ele>
        <time>2017-05-24T13:07:11Z</time>
      </trkpt>
      <trkpt lat="43.37534" lon="6.14021">
        <ele>393.39999389648</ele>
        <time>2017-05-24T13:07:12Z</time>
      </trkpt>
      <trkpt lat="43.37526" lon="6.14038">
        <ele>394.20001220703</ele>
        <time>2017-05-24T13:07:19Z</time>
      </trkpt>
      <trkpt lat="43.37524" lon="6.14041">
        <ele>394.39999389648</ele>
        <time>2017-05-24T13:07:21Z</time>
      </trkpt>
      <trkpt lat="43.37523" lon="6.14045">
        <ele>394.60000610352</ele>
        <time>2017-05-24T13:07:23Z</time>
      </trkpt>
      <trkpt lat="43.37518" lon="6.14064">
        <ele>395.39999389648</ele>
        <time>2017-05-24T13:07:31Z</time>
      </trkpt>
      <trkpt lat="43.37519" lon="6.14079">
        <ele>395.79998779297</ele>
        <time>2017-05-24T13:07:38Z</time>
      </trkpt>
      <trkpt lat="43.37518" lon="6.14085">
        <ele>396</ele>
        <time>2017-05-24T13:07:41Z</time>
      </trkpt>
      <trkpt lat="43.37516" lon="6.14098">
        <ele>396.79998779297</ele>
        <time>2017-05-24T13:07:47Z</time>
      </trkpt>
      <trkpt lat="43.37514" lon="6.14105">
        <ele>397</ele>
        <time>2017-05-24T13:07:51Z</time>
      </trkpt>
      <trkpt lat="43.3751" lon="6.14109">
        <ele>397.20001220703</ele>
        <time>2017-05-24T13:07:54Z</time>
      </trkpt>
      <trkpt lat="43.37509" lon="6.14112">
        <ele>397.20001220703</ele>
        <time>2017-05-24T13:07:56Z</time>
      </trkpt>
      <trkpt lat="43.37503" lon="6.14117">
        <ele>397.39999389648</ele>
        <time>2017-05-24T13:08:01Z</time>
      </trkpt>
      <trkpt lat="43.37501" lon="6.14121">
        <ele>398.20001220703</ele>
        <time>2017-05-24T13:08:06Z</time>
      </trkpt>
      <trkpt lat="43.375" lon="6.14124">
        <ele>398.39999389648</ele>
        <time>2017-05-24T13:08:08Z</time>
      </trkpt>
      <trkpt lat="43.37498" lon="6.14127">
        <ele>398.60000610352</ele>
        <time>2017-05-24T13:08:11Z</time>
      </trkpt>
      <trkpt lat="43.37493" lon="6.14132">
        <ele>398.79998779297</ele>
        <time>2017-05-24T13:08:15Z</time>
      </trkpt>
      <trkpt lat="43.37488" lon="6.14139">
        <ele>399.60000610352</ele>
        <time>2017-05-24T13:08:21Z</time>
      </trkpt>
      <trkpt lat="43.37481" lon="6.1415">
        <ele>400.60000610352</ele>
        <time>2017-05-24T13:08:29Z</time>
      </trkpt>
      <trkpt lat="43.37479" lon="6.14153">
        <ele>401</ele>
        <time>2017-05-24T13:08:31Z</time>
      </trkpt>
      <trkpt lat="43.37471" lon="6.14157">
        <ele>402.20001220703</ele>
        <time>2017-05-24T13:08:37Z</time>
      </trkpt>
      <trkpt lat="43.37466" lon="6.14156">
        <ele>402.60000610352</ele>
        <time>2017-05-24T13:08:41Z</time>
      </trkpt>
      <trkpt lat="43.37458" lon="6.14161">
        <ele>403.39999389648</ele>
        <time>2017-05-24T13:08:47Z</time>
      </trkpt>
      <trkpt lat="43.37456" lon="6.14164">
        <ele>403.79998779297</ele>
        <time>2017-05-24T13:08:49Z</time>
      </trkpt>
      <trkpt lat="43.37453" lon="6.14165">
        <ele>404.20001220703</ele>
        <time>2017-05-24T13:08:51Z</time>
      </trkpt>
      <trkpt lat="43.37446" lon="6.14169">
        <ele>404.39999389648</ele>
        <time>2017-05-24T13:08:56Z</time>
      </trkpt>
      <trkpt lat="43.37441" lon="6.14171">
        <ele>405.39999389648</ele>
        <time>2017-05-24T13:09:01Z</time>
      </trkpt>
      <trkpt lat="43.37437" lon="6.14173">
        <ele>405.60000610352</ele>
        <time>2017-05-24T13:09:04Z</time>
      </trkpt>
      <trkpt lat="43.37431" lon="6.14176">
        <ele>406.60000610352</ele>
        <time>2017-05-24T13:09:09Z</time>
      </trkpt>
      <trkpt lat="43.37429" lon="6.14178">
        <ele>407</ele>
        <time>2017-05-24T13:09:11Z</time>
      </trkpt>
      <trkpt lat="43.37426" lon="6.14179">
        <ele>407.79998779297</ele>
        <time>2017-05-24T13:09:14Z</time>
      </trkpt>
      <trkpt lat="43.37419" lon="6.1418">
        <ele>409</ele>
        <time>2017-05-24T13:09:20Z</time>
      </trkpt>
      <trkpt lat="43.37418" lon="6.14181">
        <ele>409.20001220703</ele>
        <time>2017-05-24T13:09:21Z</time>
      </trkpt>
      <trkpt lat="43.37415" lon="6.14184">
        <ele>409.39999389648</ele>
        <time>2017-05-24T13:09:25Z</time>
      </trkpt>
      <trkpt lat="43.37413" lon="6.14186">
        <ele>410.20001220703</ele>
        <time>2017-05-24T13:09:28Z</time>
      </trkpt>
      <trkpt lat="43.37413" lon="6.14186">
        <ele>410.39999389648</ele>
        <time>2017-05-24T13:09:31Z</time>
      </trkpt>
      <trkpt lat="43.37413" lon="6.14186">
        <ele>410.39999389648</ele>
        <time>2017-05-24T13:09:34Z</time>
      </trkpt>
      <trkpt lat="43.37413" lon="6.14186">
        <ele>410.20001220703</ele>
        <time>2017-05-24T13:09:39Z</time>
      </trkpt>
      <trkpt lat="43.37413" lon="6.14186">
        <ele>410.20001220703</ele>
        <time>2017-05-24T13:09:41Z</time>
      </trkpt>
      <trkpt lat="43.37413" lon="6.14186">
        <ele>410.39999389648</ele>
        <time>2017-05-24T13:09:51Z</time>
      </trkpt>
      <trkpt lat="43.37411" lon="6.14185">
        <ele>410.39999389648</ele>
        <time>2017-05-24T13:09:54Z</time>
      </trkpt>
      <trkpt lat="43.3741" lon="6.14187">
        <ele>410.39999389648</ele>
        <time>2017-05-24T13:10:01Z</time>
      </trkpt>
      <trkpt lat="43.37408" lon="6.14188">
        <ele>410.60000610352</ele>
        <time>2017-05-24T13:10:06Z</time>
      </trkpt>
      <trkpt lat="43.37407" lon="6.14188">
        <ele>410.60000610352</ele>
        <time>2017-05-24T13:10:11Z</time>
      </trkpt>
      <trkpt lat="43.37403" lon="6.14189">
        <ele>410.79998779297</ele>
        <time>2017-05-24T13:10:14Z</time>
      </trkpt>
      <trkpt lat="43.37401" lon="6.1419">
        <ele>411.20001220703</ele>
        <time>2017-05-24T13:10:16Z</time>
      </trkpt>
      <trkpt lat="43.37394" lon="6.1419">
        <ele>412</ele>
        <time>2017-05-24T13:10:21Z</time>
      </trkpt>
      <trkpt lat="43.3739" lon="6.14189">
        <ele>412.39999389648</ele>
        <time>2017-05-24T13:10:24Z</time>
      </trkpt>
      <trkpt lat="43.3738" lon="6.1419">
        <ele>412.79998779297</ele>
        <time>2017-05-24T13:10:31Z</time>
      </trkpt>
      <trkpt lat="43.37373" lon="6.14197">
        <ele>413.39999389648</ele>
        <time>2017-05-24T13:10:37Z</time>
      </trkpt>
      <trkpt lat="43.37369" lon="6.14204">
        <ele>413.60000610352</ele>
        <time>2017-05-24T13:10:41Z</time>
      </trkpt>
      <trkpt lat="43.37366" lon="6.14211">
        <ele>414.79998779297</ele>
        <time>2017-05-24T13:10:45Z</time>
      </trkpt>
      <trkpt lat="43.37363" lon="6.14223">
        <ele>415.39999389648</ele>
        <time>2017-05-24T13:10:51Z</time>
      </trkpt>
      <trkpt lat="43.37357" lon="6.14233">
        <ele>415.60000610352</ele>
        <time>2017-05-24T13:10:58Z</time>
      </trkpt>
      <trkpt lat="43.37355" lon="6.14234">
        <ele>415.60000610352</ele>
        <time>2017-05-24T13:11:01Z</time>
      </trkpt>
      <trkpt lat="43.37356" lon="6.14234">
        <ele>415.79998779297</ele>
        <time>2017-05-24T13:11:05Z</time>
      </trkpt>
      <trkpt lat="43.37356" lon="6.14234">
        <ele>416</ele>
        <time>2017-05-24T13:11:11Z</time>
      </trkpt>
      <trkpt lat="43.37357" lon="6.14234">
        <ele>415.20001220703</ele>
        <time>2017-05-24T13:11:21Z</time>
      </trkpt>
      <trkpt lat="43.37357" lon="6.14234">
        <ele>415.20001220703</ele>
        <time>2017-05-24T13:11:25Z</time>
      </trkpt>
      <trkpt lat="43.37357" lon="6.14234">
        <ele>415</ele>
        <time>2017-05-24T13:11:51Z</time>
      </trkpt>
      <trkpt lat="43.37356" lon="6.14234">
        <ele>415</ele>
        <time>2017-05-24T13:12:01Z</time>
      </trkpt>
      <trkpt lat="43.37356" lon="6.14234">
        <ele>415</ele>
        <time>2017-05-24T13:12:11Z</time>
      </trkpt>
      <trkpt lat="43.37356" lon="6.14234">
        <ele>415.20001220703</ele>
        <time>2017-05-24T13:12:31Z</time>
      </trkpt>
      <trkpt lat="43.37357" lon="6.14234">
        <ele>415.20001220703</ele>
        <time>2017-05-24T13:13:01Z</time>
      </trkpt>
      <trkpt lat="43.37356" lon="6.14234">
        <ele>414.79998779297</ele>
        <time>2017-05-24T13:13:10Z</time>
      </trkpt>
      <trkpt lat="43.37356" lon="6.14234">
        <ele>414.79998779297</ele>
        <time>2017-05-24T13:13:11Z</time>
      </trkpt>
      <trkpt lat="43.37356" lon="6.14234">
        <ele>414.60000610352</ele>
        <time>2017-05-24T13:13:21Z</time>
      </trkpt>
      <trkpt lat="43.37356" lon="6.14234">
        <ele>414.39999389648</ele>
        <time>2017-05-24T13:13:31Z</time>
      </trkpt>
      <trkpt lat="43.37356" lon="6.14234">
        <ele>414.39999389648</ele>
        <time>2017-05-24T13:13:41Z</time>
      </trkpt>
      <trkpt lat="43.37356" lon="6.14234">
        <ele>414.39999389648</ele>
        <time>2017-05-24T13:14:01Z</time>
      </trkpt>
      <trkpt lat="43.37356" lon="6.14234">
        <ele>414</ele>
        <time>2017-05-24T13:14:11Z</time>
      </trkpt>
      <trkpt lat="43.37355" lon="6.14236">
        <ele>414</ele>
        <time>2017-05-24T13:14:16Z</time>
      </trkpt>
      <trkpt lat="43.37352" lon="6.14239">
        <ele>414</ele>
        <time>2017-05-24T13:14:19Z</time>
      </trkpt>
      <trkpt lat="43.3735" lon="6.14242">
        <ele>414</ele>
        <time>2017-05-24T13:14:21Z</time>
      </trkpt>
      <trkpt lat="43.37337" lon="6.14254">
        <ele>413.60000610352</ele>
        <time>2017-05-24T13:14:26Z</time>
      </trkpt>
      <trkpt lat="43.37334" lon="6.14258">
        <ele>413.20001220703</ele>
        <time>2017-05-24T13:14:27Z</time>
      </trkpt>
      <trkpt lat="43.37326" lon="6.14268">
        <ele>412.60000610352</ele>
        <time>2017-05-24T13:14:29Z</time>
      </trkpt>
      <trkpt lat="43.37319" lon="6.14276">
        <ele>411.20001220703</ele>
        <time>2017-05-24T13:14:31Z</time>
      </trkpt>
      <trkpt lat="43.37315" lon="6.1428">
        <ele>410.60000610352</ele>
        <time>2017-05-24T13:14:32Z</time>
      </trkpt>
      <trkpt lat="43.37311" lon="6.14282">
        <ele>409.60000610352</ele>
        <time>2017-05-24T13:14:33Z</time>
      </trkpt>
      <trkpt lat="43.37301" lon="6.14288">
        <ele>407.60000610352</ele>
        <time>2017-05-24T13:14:35Z</time>
      </trkpt>
      <trkpt lat="43.37291" lon="6.14294">
        <ele>406</ele>
        <time>2017-05-24T13:14:37Z</time>
      </trkpt>
      <trkpt lat="43.37286" lon="6.14299">
        <ele>404.60000610352</ele>
        <time>2017-05-24T13:14:38Z</time>
      </trkpt>
      <trkpt lat="43.37281" lon="6.14304">
        <ele>403.20001220703</ele>
        <time>2017-05-24T13:14:39Z</time>
      </trkpt>
      <trkpt lat="43.37272" lon="6.14314">
        <ele>401.79998779297</ele>
        <time>2017-05-24T13:14:41Z</time>
      </trkpt>
      <trkpt lat="43.37263" lon="6.14319">
        <ele>401</ele>
        <time>2017-05-24T13:14:43Z</time>
      </trkpt>
      <trkpt lat="43.37255" lon="6.14316">
        <ele>400.79998779297</ele>
        <time>2017-05-24T13:14:45Z</time>
      </trkpt>
      <trkpt lat="43.37251" lon="6.14314">
        <ele>400.39999389648</ele>
        <time>2017-05-24T13:14:46Z</time>
      </trkpt>
      <trkpt lat="43.37247" lon="6.14314">
        <ele>400.20001220703</ele>
        <time>2017-05-24T13:14:47Z</time>
      </trkpt>
      <trkpt lat="43.37239" lon="6.14316">
        <ele>399.60000610352</ele>
        <time>2017-05-24T13:14:49Z</time>
      </trkpt>
      <trkpt lat="43.37231" lon="6.1432">
        <ele>399.20001220703</ele>
        <time>2017-05-24T13:14:51Z</time>
      </trkpt>
      <trkpt lat="43.37214" lon="6.14332">
        <ele>398</ele>
        <time>2017-05-24T13:14:56Z</time>
      </trkpt>
      <trkpt lat="43.3721" lon="6.14336">
        <ele>397.39999389648</ele>
        <time>2017-05-24T13:14:57Z</time>
      </trkpt>
      <trkpt lat="43.37202" lon="6.1434">
        <ele>397</ele>
        <time>2017-05-24T13:14:59Z</time>
      </trkpt>
      <trkpt lat="43.37198" lon="6.14342">
        <ele>396.60000610352</ele>
        <time>2017-05-24T13:15:00Z</time>
      </trkpt>
      <trkpt lat="43.37194" lon="6.14346">
        <ele>396.39999389648</ele>
        <time>2017-05-24T13:15:01Z</time>
      </trkpt>
      <trkpt lat="43.37191" lon="6.1435">
        <ele>396.39999389648</ele>
        <time>2017-05-24T13:15:02Z</time>
      </trkpt>
      <trkpt lat="43.37184" lon="6.14363">
        <ele>396</ele>
        <time>2017-05-24T13:15:05Z</time>
      </trkpt>
      <trkpt lat="43.37179" lon="6.14372">
        <ele>395.79998779297</ele>
        <time>2017-05-24T13:15:08Z</time>
      </trkpt>
      <trkpt lat="43.37172" lon="6.14371">
        <ele>396</ele>
        <time>2017-05-24T13:15:11Z</time>
      </trkpt>
      <trkpt lat="43.37154" lon="6.14369">
        <ele>396</ele>
        <time>2017-05-24T13:15:21Z</time>
      </trkpt>
      <trkpt lat="43.37147" lon="6.14368">
        <ele>396</ele>
        <time>2017-05-24T13:15:24Z</time>
      </trkpt>
      <trkpt lat="43.3713" lon="6.14366">
        <ele>396.79998779297</ele>
        <time>2017-05-24T13:15:31Z</time>
      </trkpt>
      <trkpt lat="43.37099" lon="6.14344">
        <ele>396</ele>
        <time>2017-05-24T13:15:41Z</time>
      </trkpt>
      <trkpt lat="43.37094" lon="6.14336">
        <ele>396</ele>
        <time>2017-05-24T13:15:43Z</time>
      </trkpt>
      <trkpt lat="43.37086" lon="6.14307">
        <ele>395.20001220703</ele>
        <time>2017-05-24T13:15:48Z</time>
      </trkpt>
      <trkpt lat="43.3708" lon="6.1429">
        <ele>393.79998779297</ele>
        <time>2017-05-24T13:15:51Z</time>
      </trkpt>
      <trkpt lat="43.37076" lon="6.14278">
        <ele>393.60000610352</ele>
        <time>2017-05-24T13:15:53Z</time>
      </trkpt>
      <trkpt lat="43.37072" lon="6.14266">
        <ele>393.60000610352</ele>
        <time>2017-05-24T13:15:55Z</time>
      </trkpt>
      <trkpt lat="43.37069" lon="6.14243">
        <ele>393.60000610352</ele>
        <time>2017-05-24T13:15:59Z</time>
      </trkpt>
      <trkpt lat="43.37067" lon="6.14231">
        <ele>393.39999389648</ele>
        <time>2017-05-24T13:16:01Z</time>
      </trkpt>
      <trkpt lat="43.37062" lon="6.14208">
        <ele>392.60000610352</ele>
        <time>2017-05-24T13:16:05Z</time>
      </trkpt>
      <trkpt lat="43.37049" lon="6.14185">
        <ele>392</ele>
        <time>2017-05-24T13:16:11Z</time>
      </trkpt>
      <trkpt lat="43.37042" lon="6.14175">
        <ele>391.60000610352</ele>
        <time>2017-05-24T13:16:14Z</time>
      </trkpt>
      <trkpt lat="43.37034" lon="6.1416">
        <ele>391.39999389648</ele>
        <time>2017-05-24T13:16:17Z</time>
      </trkpt>
      <trkpt lat="43.37032" lon="6.14154">
        <ele>391.20001220703</ele>
        <time>2017-05-24T13:16:18Z</time>
      </trkpt>
      <trkpt lat="43.37027" lon="6.14142">
        <ele>391.20001220703</ele>
        <time>2017-05-24T13:16:20Z</time>
      </trkpt>
      <trkpt lat="43.37024" lon="6.14136">
        <ele>391</ele>
        <time>2017-05-24T13:16:21Z</time>
      </trkpt>
      <trkpt lat="43.3702" lon="6.14131">
        <ele>391</ele>
        <time>2017-05-24T13:16:22Z</time>
      </trkpt>
      <trkpt lat="43.37013" lon="6.1412">
        <ele>390.39999389648</ele>
        <time>2017-05-24T13:16:24Z</time>
      </trkpt>
      <trkpt lat="43.37006" lon="6.14111">
        <ele>390.20001220703</ele>
        <time>2017-05-24T13:16:26Z</time>
      </trkpt>
      <trkpt lat="43.36997" lon="6.14102">
        <ele>389.60000610352</ele>
        <time>2017-05-24T13:16:28Z</time>
      </trkpt>
      <trkpt lat="43.36993" lon="6.14099">
        <ele>389</ele>
        <time>2017-05-24T13:16:29Z</time>
      </trkpt>
      <trkpt lat="43.36983" lon="6.14097">
        <ele>388.60000610352</ele>
        <time>2017-05-24T13:16:31Z</time>
      </trkpt>
      <trkpt lat="43.36968" lon="6.141">
        <ele>388.39999389648</ele>
        <time>2017-05-24T13:16:34Z</time>
      </trkpt>
      <trkpt lat="43.36954" lon="6.14106">
        <ele>388.79998779297</ele>
        <time>2017-05-24T13:16:37Z</time>
      </trkpt>
      <trkpt lat="43.36945" lon="6.14114">
        <ele>389.60000610352</ele>
        <time>2017-05-24T13:16:40Z</time>
      </trkpt>
      <trkpt lat="43.36942" lon="6.14116">
        <ele>390</ele>
        <time>2017-05-24T13:16:41Z</time>
      </trkpt>
      <trkpt lat="43.36939" lon="6.14117">
        <ele>390.20001220703</ele>
        <time>2017-05-24T13:16:42Z</time>
      </trkpt>
      <trkpt lat="43.36929" lon="6.14114">
        <ele>391.39999389648</ele>
        <time>2017-05-24T13:16:46Z</time>
      </trkpt>
      <trkpt lat="43.3692" lon="6.14109">
        <ele>392.20001220703</ele>
        <time>2017-05-24T13:16:51Z</time>
      </trkpt>
      <trkpt lat="43.36919" lon="6.14109">
        <ele>392.39999389648</ele>
        <time>2017-05-24T13:16:54Z</time>
      </trkpt>
      <trkpt lat="43.36919" lon="6.14109">
        <ele>392.20001220703</ele>
        <time>2017-05-24T13:17:01Z</time>
      </trkpt>
      <trkpt lat="43.36917" lon="6.14109">
        <ele>392.39999389648</ele>
        <time>2017-05-24T13:17:06Z</time>
      </trkpt>
      <trkpt lat="43.36909" lon="6.14113">
        <ele>392.39999389648</ele>
        <time>2017-05-24T13:17:10Z</time>
      </trkpt>
      <trkpt lat="43.36907" lon="6.14114">
        <ele>392.20001220703</ele>
        <time>2017-05-24T13:17:11Z</time>
      </trkpt>
      <trkpt lat="43.36896" lon="6.14116">
        <ele>391.39999389648</ele>
        <time>2017-05-24T13:17:14Z</time>
      </trkpt>
      <trkpt lat="43.36889" lon="6.14109">
        <ele>391</ele>
        <time>2017-05-24T13:17:16Z</time>
      </trkpt>
      <trkpt lat="43.36884" lon="6.14095">
        <ele>390.60000610352</ele>
        <time>2017-05-24T13:17:18Z</time>
      </trkpt>
      <trkpt lat="43.3688" lon="6.1408">
        <ele>389.79998779297</ele>
        <time>2017-05-24T13:17:20Z</time>
      </trkpt>
      <trkpt lat="43.36879" lon="6.14073">
        <ele>389.20001220703</ele>
        <time>2017-05-24T13:17:21Z</time>
      </trkpt>
      <trkpt lat="43.36878" lon="6.14066">
        <ele>388.39999389648</ele>
        <time>2017-05-24T13:17:22Z</time>
      </trkpt>
      <trkpt lat="43.36874" lon="6.14044">
        <ele>387</ele>
        <time>2017-05-24T13:17:25Z</time>
      </trkpt>
      <trkpt lat="43.36869" lon="6.1403">
        <ele>386.20001220703</ele>
        <time>2017-05-24T13:17:27Z</time>
      </trkpt>
      <trkpt lat="43.36868" lon="6.14023">
        <ele>385.20001220703</ele>
        <time>2017-05-24T13:17:28Z</time>
      </trkpt>
      <trkpt lat="43.36868" lon="6.14015">
        <ele>384.20001220703</ele>
        <time>2017-05-24T13:17:29Z</time>
      </trkpt>
      <trkpt lat="43.36868" lon="6.14007">
        <ele>383.39999389648</ele>
        <time>2017-05-24T13:17:30Z</time>
      </trkpt>
      <trkpt lat="43.36867" lon="6.14">
        <ele>382.39999389648</ele>
        <time>2017-05-24T13:17:31Z</time>
      </trkpt>
      <trkpt lat="43.36867" lon="6.13994">
        <ele>381.20001220703</ele>
        <time>2017-05-24T13:17:32Z</time>
      </trkpt>
      <trkpt lat="43.36866" lon="6.13984">
        <ele>379.79998779297</ele>
        <time>2017-05-24T13:17:34Z</time>
      </trkpt>
      <trkpt lat="43.36846" lon="6.13962">
        <ele>378.60000610352</ele>
        <time>2017-05-24T13:17:41Z</time>
      </trkpt>
      <trkpt lat="43.36838" lon="6.13954">
        <ele>378.60000610352</ele>
        <time>2017-05-24T13:17:44Z</time>
      </trkpt>
      <trkpt lat="43.36832" lon="6.13955">
        <ele>378.60000610352</ele>
        <time>2017-05-24T13:17:46Z</time>
      </trkpt>
      <trkpt lat="43.36828" lon="6.1397">
        <ele>379</ele>
        <time>2017-05-24T13:17:51Z</time>
      </trkpt>
      <trkpt lat="43.36827" lon="6.13973">
        <ele>379</ele>
        <time>2017-05-24T13:17:52Z</time>
      </trkpt>
      <trkpt lat="43.36824" lon="6.13977">
        <ele>379.60000610352</ele>
        <time>2017-05-24T13:17:54Z</time>
      </trkpt>
      <trkpt lat="43.36817" lon="6.13978">
        <ele>380.39999389648</ele>
        <time>2017-05-24T13:17:57Z</time>
      </trkpt>
      <trkpt lat="43.36813" lon="6.1398">
        <ele>381.20001220703</ele>
        <time>2017-05-24T13:17:59Z</time>
      </trkpt>
      <trkpt lat="43.36809" lon="6.13983">
        <ele>381.79998779297</ele>
        <time>2017-05-24T13:18:01Z</time>
      </trkpt>
      <trkpt lat="43.36795" lon="6.13991">
        <ele>382.20001220703</ele>
        <time>2017-05-24T13:18:09Z</time>
      </trkpt>
      <trkpt lat="43.36791" lon="6.13994">
        <ele>382.60000610352</ele>
        <time>2017-05-24T13:18:11Z</time>
      </trkpt>
      <trkpt lat="43.36779" lon="6.14007">
        <ele>383.39999389648</ele>
        <time>2017-05-24T13:18:19Z</time>
      </trkpt>
      <trkpt lat="43.36776" lon="6.14011">
        <ele>383.79998779297</ele>
        <time>2017-05-24T13:18:21Z</time>
      </trkpt>
      <trkpt lat="43.36773" lon="6.14013">
        <ele>384.60000610352</ele>
        <time>2017-05-24T13:18:23Z</time>
      </trkpt>
      <trkpt lat="43.3677" lon="6.14015">
        <ele>385.20001220703</ele>
        <time>2017-05-24T13:18:25Z</time>
      </trkpt>
      <trkpt lat="43.36768" lon="6.14016">
        <ele>385.79998779297</ele>
        <time>2017-05-24T13:18:28Z</time>
      </trkpt>
      <trkpt lat="43.36765" lon="6.14017">
        <ele>386.20001220703</ele>
        <time>2017-05-24T13:18:31Z</time>
      </trkpt>
      <trkpt lat="43.36762" lon="6.14018">
        <ele>386.20001220703</ele>
        <time>2017-05-24T13:18:35Z</time>
      </trkpt>
      <trkpt lat="43.3676" lon="6.14019">
        <ele>386.20001220703</ele>
        <time>2017-05-24T13:18:37Z</time>
      </trkpt>
      <trkpt lat="43.3676" lon="6.14019">
        <ele>386.39999389648</ele>
        <time>2017-05-24T13:18:41Z</time>
      </trkpt>
      <trkpt lat="43.3676" lon="6.14019">
        <ele>386.20001220703</ele>
        <time>2017-05-24T13:18:45Z</time>
      </trkpt>
      <trkpt lat="43.3676" lon="6.14019">
        <ele>386.20001220703</ele>
        <time>2017-05-24T13:19:11Z</time>
      </trkpt>
      <trkpt lat="43.3676" lon="6.14019">
        <ele>386.20001220703</ele>
        <time>2017-05-24T13:19:14Z</time>
      </trkpt>
      <trkpt lat="43.36762" lon="6.14017">
        <ele>386</ele>
        <time>2017-05-24T13:19:20Z</time>
      </trkpt>
      <trkpt lat="43.36763" lon="6.14016">
        <ele>386.20001220703</ele>
        <time>2017-05-24T13:19:21Z</time>
      </trkpt>
      <trkpt lat="43.36765" lon="6.14016">
        <ele>386.39999389648</ele>
        <time>2017-05-24T13:19:23Z</time>
      </trkpt>
      <trkpt lat="43.36768" lon="6.14016">
        <ele>386.39999389648</ele>
        <time>2017-05-24T13:19:26Z</time>
      </trkpt>
      <trkpt lat="43.36774" lon="6.1401">
        <ele>386.20001220703</ele>
        <time>2017-05-24T13:19:29Z</time>
      </trkpt>
      <trkpt lat="43.36782" lon="6.14001">
        <ele>385.79998779297</ele>
        <time>2017-05-24T13:19:31Z</time>
      </trkpt>
      <trkpt lat="43.36793" lon="6.13993">
        <ele>384.79998779297</ele>
        <time>2017-05-24T13:19:33Z</time>
      </trkpt>
      <trkpt lat="43.36803" lon="6.13988">
        <ele>383.39999389648</ele>
        <time>2017-05-24T13:19:35Z</time>
      </trkpt>
      <trkpt lat="43.36811" lon="6.13984">
        <ele>382.39999389648</ele>
        <time>2017-05-24T13:19:37Z</time>
      </trkpt>
      <trkpt lat="43.36814" lon="6.13983">
        <ele>382.20001220703</ele>
        <time>2017-05-24T13:19:38Z</time>
      </trkpt>
      <trkpt lat="43.36818" lon="6.13982">
        <ele>381.39999389648</ele>
        <time>2017-05-24T13:19:41Z</time>
      </trkpt>
      <trkpt lat="43.3682" lon="6.1398">
        <ele>381.20001220703</ele>
        <time>2017-05-24T13:19:46Z</time>
      </trkpt>
      <trkpt lat="43.3682" lon="6.1398">
        <ele>381.39999389648</ele>
        <time>2017-05-24T13:19:51Z</time>
      </trkpt>
      <trkpt lat="43.36818" lon="6.1398">
        <ele>381.39999389648</ele>
        <time>2017-05-24T13:19:54Z</time>
      </trkpt>
      <trkpt lat="43.36806" lon="6.13986">
        <ele>381.79998779297</ele>
        <time>2017-05-24T13:20:01Z</time>
      </trkpt>
      <trkpt lat="43.36789" lon="6.13999">
        <ele>382.20001220703</ele>
        <time>2017-05-24T13:20:09Z</time>
      </trkpt>
      <trkpt lat="43.36784" lon="6.14002">
        <ele>382.39999389648</ele>
        <time>2017-05-24T13:20:11Z</time>
      </trkpt>
      <trkpt lat="43.36777" lon="6.14008">
        <ele>383</ele>
        <time>2017-05-24T13:20:14Z</time>
      </trkpt>
      <trkpt lat="43.36776" lon="6.1401">
        <ele>383.39999389648</ele>
        <time>2017-05-24T13:20:15Z</time>
      </trkpt>
      <trkpt lat="43.36773" lon="6.14013">
        <ele>384.60000610352</ele>
        <time>2017-05-24T13:20:18Z</time>
      </trkpt>
      <trkpt lat="43.36773" lon="6.14013">
        <ele>385.20001220703</ele>
        <time>2017-05-24T13:20:21Z</time>
      </trkpt>
      <trkpt lat="43.36772" lon="6.14014">
        <ele>385.39999389648</ele>
        <time>2017-05-24T13:20:31Z</time>
      </trkpt>
      <trkpt lat="43.36772" lon="6.14013">
        <ele>385.79998779297</ele>
        <time>2017-05-24T13:20:39Z</time>
      </trkpt>
      <trkpt lat="43.36772" lon="6.14013">
        <ele>385.79998779297</ele>
        <time>2017-05-24T13:20:41Z</time>
      </trkpt>
      <trkpt lat="43.36772" lon="6.14013">
        <ele>384.79998779297</ele>
        <time>2017-05-24T13:20:51Z</time>
      </trkpt>
      <trkpt lat="43.36772" lon="6.14012">
        <ele>385.20001220703</ele>
        <time>2017-05-24T13:21:01Z</time>
      </trkpt>
      <trkpt lat="43.36772" lon="6.14012">
        <ele>385.20001220703</ele>
        <time>2017-05-24T13:21:03Z</time>
      </trkpt>
      <trkpt lat="43.36773" lon="6.14012">
        <ele>385</ele>
        <time>2017-05-24T13:21:09Z</time>
      </trkpt>
      <trkpt lat="43.36772" lon="6.14011">
        <ele>385</ele>
        <time>2017-05-24T13:21:11Z</time>
      </trkpt>
      <trkpt lat="43.36772" lon="6.14011">
        <ele>385.39999389648</ele>
        <time>2017-05-24T13:21:21Z</time>
      </trkpt>
      <trkpt lat="43.36772" lon="6.14011">
        <ele>385</ele>
        <time>2017-05-24T13:21:31Z</time>
      </trkpt>
      <trkpt lat="43.36772" lon="6.14011">
        <ele>385</ele>
        <time>2017-05-24T13:21:35Z</time>
      </trkpt>
      <trkpt lat="43.36772" lon="6.1401">
        <ele>385</ele>
        <time>2017-05-24T13:21:41Z</time>
      </trkpt>
      <trkpt lat="43.36772" lon="6.1401">
        <ele>385</ele>
        <time>2017-05-24T13:21:51Z</time>
      </trkpt>
      <trkpt lat="43.36769" lon="6.14012">
        <ele>385</ele>
        <time>2017-05-24T13:21:58Z</time>
      </trkpt>
      <trkpt lat="43.36769" lon="6.14013">
        <ele>385</ele>
        <time>2017-05-24T13:22:01Z</time>
      </trkpt>
      <trkpt lat="43.3677" lon="6.14013">
        <ele>385</ele>
        <time>2017-05-24T13:22:08Z</time>
      </trkpt>
      <trkpt lat="43.36771" lon="6.14013">
        <ele>385</ele>
        <time>2017-05-24T13:22:11Z</time>
      </trkpt>
      <trkpt lat="43.3677" lon="6.14014">
        <ele>385</ele>
        <time>2017-05-24T13:22:30Z</time>
      </trkpt>
      <trkpt lat="43.36771" lon="6.14015">
        <ele>385</ele>
        <time>2017-05-24T13:22:36Z</time>
      </trkpt>
      <trkpt lat="43.36771" lon="6.14015">
        <ele>385</ele>
        <time>2017-05-24T13:22:41Z</time>
      </trkpt>
      <trkpt lat="43.36771" lon="6.14017">
        <ele>385</ele>
        <time>2017-05-24T13:23:01Z</time>
      </trkpt>
      <trkpt lat="43.36771" lon="6.14016">
        <ele>385</ele>
        <time>2017-05-24T13:23:11Z</time>
      </trkpt>
      <trkpt lat="43.36771" lon="6.14016">
        <ele>385</ele>
        <time>2017-05-24T13:23:31Z</time>
      </trkpt>
      <trkpt lat="43.36769" lon="6.14016">
        <ele>385</ele>
        <time>2017-05-24T13:23:41Z</time>
      </trkpt>
      <trkpt lat="43.36767" lon="6.14015">
        <ele>385</ele>
        <time>2017-05-24T13:23:51Z</time>
      </trkpt>
      <trkpt lat="43.36765" lon="6.14015">
        <ele>385</ele>
        <time>2017-05-24T13:24:01Z</time>
      </trkpt>
      <trkpt lat="43.36764" lon="6.14016">
        <ele>385</ele>
        <time>2017-05-24T13:24:11Z</time>
      </trkpt>
      <trkpt lat="43.36762" lon="6.14017">
        <ele>385</ele>
        <time>2017-05-24T13:24:31Z</time>
      </trkpt>
      <trkpt lat="43.3676" lon="6.14018">
        <ele>385</ele>
        <time>2017-05-24T13:24:41Z</time>
      </trkpt>
      <trkpt lat="43.36759" lon="6.14018">
        <ele>385</ele>
        <time>2017-05-24T13:24:42Z</time>
      </trkpt>
      <trkpt lat="43.36754" lon="6.14017">
        <ele>385</ele>
        <time>2017-05-24T13:24:45Z</time>
      </trkpt>
      <trkpt lat="43.36741" lon="6.1401">
        <ele>385.20001220703</ele>
        <time>2017-05-24T13:24:51Z</time>
      </trkpt>
      <trkpt lat="43.3673" lon="6.14002">
        <ele>385.39999389648</ele>
        <time>2017-05-24T13:24:56Z</time>
      </trkpt>
      <trkpt lat="43.3672" lon="6.14002">
        <ele>385.79998779297</ele>
        <time>2017-05-24T13:25:01Z</time>
      </trkpt>
      <trkpt lat="43.36701" lon="6.14022">
        <ele>385.60000610352</ele>
        <time>2017-05-24T13:25:11Z</time>
      </trkpt>
      <trkpt lat="43.36694" lon="6.14032">
        <ele>385.79998779297</ele>
        <time>2017-05-24T13:25:15Z</time>
      </trkpt>
      <trkpt lat="43.36681" lon="6.14044">
        <ele>385.39999389648</ele>
        <time>2017-05-24T13:25:21Z</time>
      </trkpt>
      <trkpt lat="43.36667" lon="6.14076">
        <ele>385.79998779297</ele>
        <time>2017-05-24T13:25:31Z</time>
      </trkpt>
      <trkpt lat="43.36665" lon="6.1409">
        <ele>386</ele>
        <time>2017-05-24T13:25:35Z</time>
      </trkpt>
      <trkpt lat="43.36665" lon="6.14103">
        <ele>386.79998779297</ele>
        <time>2017-05-24T13:25:39Z</time>
      </trkpt>
      <trkpt lat="43.36666" lon="6.1411">
        <ele>387.20001220703</ele>
        <time>2017-05-24T13:25:41Z</time>
      </trkpt>
      <trkpt lat="43.36666" lon="6.14131">
        <ele>388</ele>
        <time>2017-05-24T13:25:47Z</time>
      </trkpt>
      <trkpt lat="43.36667" lon="6.14144">
        <ele>388.60000610352</ele>
        <time>2017-05-24T13:25:51Z</time>
      </trkpt>
      <trkpt lat="43.36668" lon="6.14152">
        <ele>389</ele>
        <time>2017-05-24T13:25:54Z</time>
      </trkpt>
      <trkpt lat="43.36671" lon="6.14168">
        <ele>389.79998779297</ele>
        <time>2017-05-24T13:26:00Z</time>
      </trkpt>
      <trkpt lat="43.36672" lon="6.14173">
        <ele>390.20001220703</ele>
        <time>2017-05-24T13:26:02Z</time>
      </trkpt>
      <trkpt lat="43.36676" lon="6.14189">
        <ele>391</ele>
        <time>2017-05-24T13:26:08Z</time>
      </trkpt>
      <trkpt lat="43.36678" lon="6.14196">
        <ele>391</ele>
        <time>2017-05-24T13:26:11Z</time>
      </trkpt>
      <trkpt lat="43.36679" lon="6.14198">
        <ele>391.20001220703</ele>
        <time>2017-05-24T13:26:12Z</time>
      </trkpt>
      <trkpt lat="43.36681" lon="6.14217">
        <ele>392.20001220703</ele>
        <time>2017-05-24T13:26:19Z</time>
      </trkpt>
      <trkpt lat="43.36682" lon="6.14222">
        <ele>392</ele>
        <time>2017-05-24T13:26:21Z</time>
      </trkpt>
      <trkpt lat="43.36683" lon="6.14247">
        <ele>392.39999389648</ele>
        <time>2017-05-24T13:26:31Z</time>
      </trkpt>
      <trkpt lat="43.36683" lon="6.14262">
        <ele>393.20001220703</ele>
        <time>2017-05-24T13:26:37Z</time>
      </trkpt>
      <trkpt lat="43.36683" lon="6.14273">
        <ele>393.39999389648</ele>
        <time>2017-05-24T13:26:41Z</time>
      </trkpt>
      <trkpt lat="43.36683" lon="6.14292">
        <ele>394.39999389648</ele>
        <time>2017-05-24T13:26:49Z</time>
      </trkpt>
      <trkpt lat="43.36682" lon="6.14297">
        <ele>395</ele>
        <time>2017-05-24T13:26:51Z</time>
      </trkpt>
      <trkpt lat="43.36679" lon="6.14318">
        <ele>395.60000610352</ele>
        <time>2017-05-24T13:26:58Z</time>
      </trkpt>
      <trkpt lat="43.36676" lon="6.14328">
        <ele>395.60000610352</ele>
        <time>2017-05-24T13:27:01Z</time>
      </trkpt>
      <trkpt lat="43.36664" lon="6.14355">
        <ele>395.79998779297</ele>
        <time>2017-05-24T13:27:11Z</time>
      </trkpt>
      <trkpt lat="43.3665" lon="6.14378">
        <ele>396.39999389648</ele>
        <time>2017-05-24T13:27:21Z</time>
      </trkpt>
      <trkpt lat="43.36643" lon="6.14384">
        <ele>396.60000610352</ele>
        <time>2017-05-24T13:27:25Z</time>
      </trkpt>
      <trkpt lat="43.36632" lon="6.14394">
        <ele>397.60000610352</ele>
        <time>2017-05-24T13:27:31Z</time>
      </trkpt>
      <trkpt lat="43.36624" lon="6.14407">
        <ele>398.60000610352</ele>
        <time>2017-05-24T13:27:37Z</time>
      </trkpt>
      <trkpt lat="43.36619" lon="6.14415">
        <ele>399.20001220703</ele>
        <time>2017-05-24T13:27:41Z</time>
      </trkpt>
      <trkpt lat="43.36614" lon="6.14423">
        <ele>399.60000610352</ele>
        <time>2017-05-24T13:27:45Z</time>
      </trkpt>
      <trkpt lat="43.36608" lon="6.14435">
        <ele>400.20001220703</ele>
        <time>2017-05-24T13:27:51Z</time>
      </trkpt>
      <trkpt lat="43.36604" lon="6.1445">
        <ele>400.60000610352</ele>
        <time>2017-05-24T13:27:58Z</time>
      </trkpt>
      <trkpt lat="43.36604" lon="6.14455">
        <ele>401</ele>
        <time>2017-05-24T13:28:01Z</time>
      </trkpt>
      <trkpt lat="43.36597" lon="6.1446">
        <ele>401.39999389648</ele>
        <time>2017-05-24T13:28:08Z</time>
      </trkpt>
      <trkpt lat="43.36593" lon="6.14455">
        <ele>401.20001220703</ele>
        <time>2017-05-24T13:28:10Z</time>
      </trkpt>
      <trkpt lat="43.36592" lon="6.14452">
        <ele>401.20001220703</ele>
        <time>2017-05-24T13:28:11Z</time>
      </trkpt>
      <trkpt lat="43.3659" lon="6.14432">
        <ele>401.39999389648</ele>
        <time>2017-05-24T13:28:18Z</time>
      </trkpt>
      <trkpt lat="43.36589" lon="6.14421">
        <ele>401.79998779297</ele>
        <time>2017-05-24T13:28:22Z</time>
      </trkpt>
      <trkpt lat="43.36586" lon="6.1441">
        <ele>402.79998779297</ele>
        <time>2017-05-24T13:28:28Z</time>
      </trkpt>
      <trkpt lat="43.36585" lon="6.14402">
        <ele>403.39999389648</ele>
        <time>2017-05-24T13:28:32Z</time>
      </trkpt>
      <trkpt lat="43.36582" lon="6.14399">
        <ele>403.79998779297</ele>
        <time>2017-05-24T13:28:35Z</time>
      </trkpt>
      <trkpt lat="43.3658" lon="6.14398">
        <ele>404.20001220703</ele>
        <time>2017-05-24T13:28:36Z</time>
      </trkpt>
      <trkpt lat="43.36578" lon="6.14394">
        <ele>405.20001220703</ele>
        <time>2017-05-24T13:28:39Z</time>
      </trkpt>
      <trkpt lat="43.36577" lon="6.14394">
        <ele>405.39999389648</ele>
        <time>2017-05-24T13:28:40Z</time>
      </trkpt>
      <trkpt lat="43.36576" lon="6.14392">
        <ele>405.60000610352</ele>
        <time>2017-05-24T13:28:41Z</time>
      </trkpt>
      <trkpt lat="43.36571" lon="6.14389">
        <ele>406</ele>
        <time>2017-05-24T13:28:45Z</time>
      </trkpt>
      <trkpt lat="43.36568" lon="6.14387">
        <ele>406.60000610352</ele>
        <time>2017-05-24T13:28:48Z</time>
      </trkpt>
      <trkpt lat="43.36565" lon="6.14385">
        <ele>407.20001220703</ele>
        <time>2017-05-24T13:28:51Z</time>
      </trkpt>
      <trkpt lat="43.36561" lon="6.14384">
        <ele>407.60000610352</ele>
        <time>2017-05-24T13:28:54Z</time>
      </trkpt>
      <trkpt lat="43.36553" lon="6.14384">
        <ele>409</ele>
        <time>2017-05-24T13:29:01Z</time>
      </trkpt>
      <trkpt lat="43.36545" lon="6.14382">
        <ele>409.79998779297</ele>
        <time>2017-05-24T13:29:07Z</time>
      </trkpt>
      <trkpt lat="43.36542" lon="6.14382">
        <ele>411</ele>
        <time>2017-05-24T13:29:10Z</time>
      </trkpt>
      <trkpt lat="43.3654" lon="6.1438">
        <ele>411.60000610352</ele>
        <time>2017-05-24T13:29:13Z</time>
      </trkpt>
      <trkpt lat="43.36539" lon="6.14378">
        <ele>412</ele>
        <time>2017-05-24T13:29:20Z</time>
      </trkpt>
      <trkpt lat="43.36539" lon="6.14378">
        <ele>411.39999389648</ele>
        <time>2017-05-24T13:29:29Z</time>
      </trkpt>
      <trkpt lat="43.36539" lon="6.14378">
        <ele>411.39999389648</ele>
        <time>2017-05-24T13:29:31Z</time>
      </trkpt>
      <trkpt lat="43.36538" lon="6.14378">
        <ele>411.39999389648</ele>
        <time>2017-05-24T13:29:39Z</time>
      </trkpt>
      <trkpt lat="43.36538" lon="6.14378">
        <ele>411.39999389648</ele>
        <time>2017-05-24T13:29:44Z</time>
      </trkpt>
      <trkpt lat="43.36538" lon="6.14378">
        <ele>411.60000610352</ele>
        <time>2017-05-24T13:29:57Z</time>
      </trkpt>
      <trkpt lat="43.36538" lon="6.14378">
        <ele>411.60000610352</ele>
        <time>2017-05-24T13:30:00Z</time>
      </trkpt>
      <trkpt lat="43.36538" lon="6.14378">
        <ele>411.39999389648</ele>
        <time>2017-05-24T13:30:04Z</time>
      </trkpt>
      <trkpt lat="43.36538" lon="6.14378">
        <ele>411.20001220703</ele>
        <time>2017-05-24T13:30:11Z</time>
      </trkpt>
      <trkpt lat="43.36537" lon="6.14376">
        <ele>411</ele>
        <time>2017-05-24T13:30:21Z</time>
      </trkpt>
      <trkpt lat="43.36537" lon="6.14376">
        <ele>411</ele>
        <time>2017-05-24T13:30:25Z</time>
      </trkpt>
      <trkpt lat="43.36537" lon="6.14376">
        <ele>410.79998779297</ele>
        <time>2017-05-24T13:30:31Z</time>
      </trkpt>
      <trkpt lat="43.36533" lon="6.14376">
        <ele>411.39999389648</ele>
        <time>2017-05-24T13:30:41Z</time>
      </trkpt>
      <trkpt lat="43.3653" lon="6.14375">
        <ele>411.79998779297</ele>
        <time>2017-05-24T13:30:51Z</time>
      </trkpt>
      <trkpt lat="43.36533" lon="6.14378">
        <ele>411.79998779297</ele>
        <time>2017-05-24T13:31:01Z</time>
      </trkpt>
      <trkpt lat="43.36536" lon="6.14379">
        <ele>411.60000610352</ele>
        <time>2017-05-24T13:31:08Z</time>
      </trkpt>
      <trkpt lat="43.36536" lon="6.14377">
        <ele>411.20001220703</ele>
        <time>2017-05-24T13:31:11Z</time>
      </trkpt>
      <trkpt lat="43.36533" lon="6.14374">
        <ele>411.60000610352</ele>
        <time>2017-05-24T13:31:16Z</time>
      </trkpt>
      <trkpt lat="43.36531" lon="6.14369">
        <ele>411.79998779297</ele>
        <time>2017-05-24T13:31:20Z</time>
      </trkpt>
      <trkpt lat="43.36531" lon="6.14368">
        <ele>411.60000610352</ele>
        <time>2017-05-24T13:31:21Z</time>
      </trkpt>
      <trkpt lat="43.3653" lon="6.14367">
        <ele>411.60000610352</ele>
        <time>2017-05-24T13:31:31Z</time>
      </trkpt>
      <trkpt lat="43.3653" lon="6.14367">
        <ele>411.60000610352</ele>
        <time>2017-05-24T13:31:39Z</time>
      </trkpt>
      <trkpt lat="43.3653" lon="6.14366">
        <ele>411.60000610352</ele>
        <time>2017-05-24T13:31:47Z</time>
      </trkpt>
      <trkpt lat="43.3653" lon="6.14366">
        <ele>411.60000610352</ele>
        <time>2017-05-24T13:31:51Z</time>
      </trkpt>
      <trkpt lat="43.3653" lon="6.14366">
        <ele>411.60000610352</ele>
        <time>2017-05-24T13:32:05Z</time>
      </trkpt>
      <trkpt lat="43.3653" lon="6.14366">
        <ele>411.60000610352</ele>
        <time>2017-05-24T13:32:21Z</time>
      </trkpt>
      <trkpt lat="43.3653" lon="6.14366">
        <ele>411.60000610352</ele>
        <time>2017-05-24T13:32:31Z</time>
      </trkpt>
      <trkpt lat="43.3653" lon="6.14366">
        <ele>411.60000610352</ele>
        <time>2017-05-24T13:33:10Z</time>
      </trkpt>
      <trkpt lat="43.3653" lon="6.14366">
        <ele>411.60000610352</ele>
        <time>2017-05-24T13:33:31Z</time>
      </trkpt>
      <trkpt lat="43.3653" lon="6.14366">
        <ele>411.60000610352</ele>
        <time>2017-05-24T13:34:01Z</time>
      </trkpt>
      <trkpt lat="43.36529" lon="6.14366">
        <ele>411.60000610352</ele>
        <time>2017-05-24T13:34:11Z</time>
      </trkpt>
      <trkpt lat="43.36529" lon="6.14366">
        <ele>411.60000610352</ele>
        <time>2017-05-24T13:34:17Z</time>
      </trkpt>
      <trkpt lat="43.36529" lon="6.14365">
        <ele>411.60000610352</ele>
        <time>2017-05-24T13:34:41Z</time>
      </trkpt>
      <trkpt lat="43.36529" lon="6.14364">
        <ele>411.60000610352</ele>
        <time>2017-05-24T13:35:01Z</time>
      </trkpt>
      <trkpt lat="43.36529" lon="6.14364">
        <ele>411.60000610352</ele>
        <time>2017-05-24T13:35:11Z</time>
      </trkpt>
      <trkpt lat="43.36528" lon="6.14365">
        <ele>411.60000610352</ele>
        <time>2017-05-24T13:35:21Z</time>
      </trkpt>
      <trkpt lat="43.36528" lon="6.14365">
        <ele>411.60000610352</ele>
        <time>2017-05-24T13:35:31Z</time>
      </trkpt>
      <trkpt lat="43.36528" lon="6.14366">
        <ele>411.60000610352</ele>
        <time>2017-05-24T13:35:41Z</time>
      </trkpt>
      <trkpt lat="43.36528" lon="6.14366">
        <ele>411.60000610352</ele>
        <time>2017-05-24T13:35:51Z</time>
      </trkpt>
      <trkpt lat="43.36528" lon="6.14367">
        <ele>411.60000610352</ele>
        <time>2017-05-24T13:36:01Z</time>
      </trkpt>
      <trkpt lat="43.36528" lon="6.14367">
        <ele>411.60000610352</ele>
        <time>2017-05-24T13:36:15Z</time>
      </trkpt>
      <trkpt lat="43.36529" lon="6.14368">
        <ele>411.60000610352</ele>
        <time>2017-05-24T13:36:21Z</time>
      </trkpt>
      <trkpt lat="43.36529" lon="6.14368">
        <ele>411.60000610352</ele>
        <time>2017-05-24T13:36:27Z</time>
      </trkpt>
      <trkpt lat="43.3653" lon="6.14369">
        <ele>411.60000610352</ele>
        <time>2017-05-24T13:36:31Z</time>
      </trkpt>
      <trkpt lat="43.36533" lon="6.14375">
        <ele>411.60000610352</ele>
        <time>2017-05-24T13:36:36Z</time>
      </trkpt>
      <trkpt lat="43.36536" lon="6.14384">
        <ele>411.60000610352</ele>
        <time>2017-05-24T13:36:41Z</time>
      </trkpt>
      <trkpt lat="43.36538" lon="6.1439">
        <ele>412</ele>
        <time>2017-05-24T13:36:45Z</time>
      </trkpt>
      <trkpt lat="43.36542" lon="6.144">
        <ele>412.20001220703</ele>
        <time>2017-05-24T13:36:51Z</time>
      </trkpt>
      <trkpt lat="43.36546" lon="6.14416">
        <ele>412.60000610352</ele>
        <time>2017-05-24T13:36:57Z</time>
      </trkpt>
      <trkpt lat="43.36548" lon="6.14427">
        <ele>412.60000610352</ele>
        <time>2017-05-24T13:37:01Z</time>
      </trkpt>
      <trkpt lat="43.3655" lon="6.14456">
        <ele>412.60000610352</ele>
        <time>2017-05-24T13:37:11Z</time>
      </trkpt>
      <trkpt lat="43.36546" lon="6.14467">
        <ele>413.20001220703</ele>
        <time>2017-05-24T13:37:15Z</time>
      </trkpt>
      <trkpt lat="43.36541" lon="6.14483">
        <ele>413.60000610352</ele>
        <time>2017-05-24T13:37:21Z</time>
      </trkpt>
      <trkpt lat="43.36534" lon="6.14513">
        <ele>414.20001220703</ele>
        <time>2017-05-24T13:37:31Z</time>
      </trkpt>
      <trkpt lat="43.36535" lon="6.14522">
        <ele>414.20001220703</ele>
        <time>2017-05-24T13:37:34Z</time>
      </trkpt>
      <trkpt lat="43.36538" lon="6.14543">
        <ele>415.39999389648</ele>
        <time>2017-05-24T13:37:42Z</time>
      </trkpt>
      <trkpt lat="43.36537" lon="6.14556">
        <ele>416.60000610352</ele>
        <time>2017-05-24T13:37:47Z</time>
      </trkpt>
      <trkpt lat="43.36538" lon="6.14567">
        <ele>416.79998779297</ele>
        <time>2017-05-24T13:37:51Z</time>
      </trkpt>
      <trkpt lat="43.36537" lon="6.1459">
        <ele>417.79998779297</ele>
        <time>2017-05-24T13:37:59Z</time>
      </trkpt>
      <trkpt lat="43.36537" lon="6.14595">
        <ele>418</ele>
        <time>2017-05-24T13:38:01Z</time>
      </trkpt>
      <trkpt lat="43.36535" lon="6.14609">
        <ele>418.79998779297</ele>
        <time>2017-05-24T13:38:07Z</time>
      </trkpt>
      <trkpt lat="43.36535" lon="6.14616">
        <ele>419.60000610352</ele>
        <time>2017-05-24T13:38:10Z</time>
      </trkpt>
      <trkpt lat="43.36534" lon="6.14621">
        <ele>419.79998779297</ele>
        <time>2017-05-24T13:38:12Z</time>
      </trkpt>
      <trkpt lat="43.36533" lon="6.14636">
        <ele>420.79998779297</ele>
        <time>2017-05-24T13:38:20Z</time>
      </trkpt>
      <trkpt lat="43.36532" lon="6.14638">
        <ele>421</ele>
        <time>2017-05-24T13:38:21Z</time>
      </trkpt>
      <trkpt lat="43.36531" lon="6.14657">
        <ele>421.39999389648</ele>
        <time>2017-05-24T13:38:31Z</time>
      </trkpt>
      <trkpt lat="43.36531" lon="6.14669">
        <ele>422</ele>
        <time>2017-05-24T13:38:37Z</time>
      </trkpt>
      <trkpt lat="43.36532" lon="6.14677">
        <ele>422.60000610352</ele>
        <time>2017-05-24T13:38:41Z</time>
      </trkpt>
      <trkpt lat="43.36533" lon="6.14683">
        <ele>423</ele>
        <time>2017-05-24T13:38:44Z</time>
      </trkpt>
      <trkpt lat="43.36534" lon="6.14695">
        <ele>423.60000610352</ele>
        <time>2017-05-24T13:38:51Z</time>
      </trkpt>
      <trkpt lat="43.36535" lon="6.14705">
        <ele>424.39999389648</ele>
        <time>2017-05-24T13:38:56Z</time>
      </trkpt>
      <trkpt lat="43.36535" lon="6.14715">
        <ele>424.79998779297</ele>
        <time>2017-05-24T13:39:01Z</time>
      </trkpt>
      <trkpt lat="43.36536" lon="6.14737">
        <ele>425.39999389648</ele>
        <time>2017-05-24T13:39:11Z</time>
      </trkpt>
      <trkpt lat="43.36538" lon="6.14759">
        <ele>426.60000610352</ele>
        <time>2017-05-24T13:39:21Z</time>
      </trkpt>
      <trkpt lat="43.36539" lon="6.14775">
        <ele>427</ele>
        <time>2017-05-24T13:39:29Z</time>
      </trkpt>
      <trkpt lat="43.3654" lon="6.14782">
        <ele>427.79998779297</ele>
        <time>2017-05-24T13:39:33Z</time>
      </trkpt>
      <trkpt lat="43.36542" lon="6.14794">
        <ele>428.60000610352</ele>
        <time>2017-05-24T13:39:40Z</time>
      </trkpt>
      <trkpt lat="43.36543" lon="6.14798">
        <ele>428.79998779297</ele>
        <time>2017-05-24T13:39:42Z</time>
      </trkpt>
      <trkpt lat="43.36546" lon="6.14815">
        <ele>429.39999389648</ele>
        <time>2017-05-24T13:39:51Z</time>
      </trkpt>
      <trkpt lat="43.36548" lon="6.14822">
        <ele>429.79998779297</ele>
        <time>2017-05-24T13:39:55Z</time>
      </trkpt>
      <trkpt lat="43.36551" lon="6.14834">
        <ele>430.79998779297</ele>
        <time>2017-05-24T13:40:02Z</time>
      </trkpt>
      <trkpt lat="43.36553" lon="6.14851">
        <ele>431.60000610352</ele>
        <time>2017-05-24T13:40:11Z</time>
      </trkpt>
      <trkpt lat="43.36554" lon="6.14857">
        <ele>432</ele>
        <time>2017-05-24T13:40:14Z</time>
      </trkpt>
      <trkpt lat="43.36557" lon="6.14871">
        <ele>432.39999389648</ele>
        <time>2017-05-24T13:40:21Z</time>
      </trkpt>
      <trkpt lat="43.36559" lon="6.14878">
        <ele>433.20001220703</ele>
        <time>2017-05-24T13:40:25Z</time>
      </trkpt>
      <trkpt lat="43.36561" lon="6.14889">
        <ele>434.20001220703</ele>
        <time>2017-05-24T13:40:31Z</time>
      </trkpt>
      <trkpt lat="43.36562" lon="6.14902">
        <ele>434.60000610352</ele>
        <time>2017-05-24T13:40:37Z</time>
      </trkpt>
      <trkpt lat="43.36563" lon="6.14911">
        <ele>435</ele>
        <time>2017-05-24T13:40:41Z</time>
      </trkpt>
      <trkpt lat="43.36563" lon="6.14918">
        <ele>435.20001220703</ele>
        <time>2017-05-24T13:40:45Z</time>
      </trkpt>
      <trkpt lat="43.36565" lon="6.14927">
        <ele>435.39999389648</ele>
        <time>2017-05-24T13:40:49Z</time>
      </trkpt>
      <trkpt lat="43.36565" lon="6.14931">
        <ele>435.39999389648</ele>
        <time>2017-05-24T13:40:51Z</time>
      </trkpt>
      <trkpt lat="43.36569" lon="6.14954">
        <ele>435.60000610352</ele>
        <time>2017-05-24T13:41:01Z</time>
      </trkpt>
      <trkpt lat="43.3657" lon="6.14977">
        <ele>436.39999389648</ele>
        <time>2017-05-24T13:41:11Z</time>
      </trkpt>
      <trkpt lat="43.3657" lon="6.14989">
        <ele>436.39999389648</ele>
        <time>2017-05-24T13:41:15Z</time>
      </trkpt>
      <trkpt lat="43.36569" lon="6.15005">
        <ele>436.60000610352</ele>
        <time>2017-05-24T13:41:21Z</time>
      </trkpt>
      <trkpt lat="43.36568" lon="6.15029">
        <ele>437.39999389648</ele>
        <time>2017-05-24T13:41:30Z</time>
      </trkpt>
      <trkpt lat="43.36569" lon="6.15032">
        <ele>437.39999389648</ele>
        <time>2017-05-24T13:41:31Z</time>
      </trkpt>
      <trkpt lat="43.3657" lon="6.15057">
        <ele>438</ele>
        <time>2017-05-24T13:41:41Z</time>
      </trkpt>
      <trkpt lat="43.3657" lon="6.15085">
        <ele>438.60000610352</ele>
        <time>2017-05-24T13:41:51Z</time>
      </trkpt>
      <trkpt lat="43.3657" lon="6.15102">
        <ele>439.39999389648</ele>
        <time>2017-05-24T13:41:58Z</time>
      </trkpt>
      <trkpt lat="43.3657" lon="6.1511">
        <ele>440</ele>
        <time>2017-05-24T13:42:01Z</time>
      </trkpt>
      <trkpt lat="43.3657" lon="6.15126">
        <ele>440.60000610352</ele>
        <time>2017-05-24T13:42:07Z</time>
      </trkpt>
      <trkpt lat="43.36569" lon="6.15142">
        <ele>441.60000610352</ele>
        <time>2017-05-24T13:42:13Z</time>
      </trkpt>
      <trkpt lat="43.36569" lon="6.1515">
        <ele>441.79998779297</ele>
        <time>2017-05-24T13:42:16Z</time>
      </trkpt>
      <trkpt lat="43.36569" lon="6.15163">
        <ele>442.60000610352</ele>
        <time>2017-05-24T13:42:21Z</time>
      </trkpt>
      <trkpt lat="43.36569" lon="6.15178">
        <ele>443.39999389648</ele>
        <time>2017-05-24T13:42:29Z</time>
      </trkpt>
      <trkpt lat="43.36568" lon="6.15182">
        <ele>443.39999389648</ele>
        <time>2017-05-24T13:42:31Z</time>
      </trkpt>
      <trkpt lat="43.36565" lon="6.15191">
        <ele>444</ele>
        <time>2017-05-24T13:42:37Z</time>
      </trkpt>
      <trkpt lat="43.36563" lon="6.15198">
        <ele>444.20001220703</ele>
        <time>2017-05-24T13:42:41Z</time>
      </trkpt>
      <trkpt lat="43.36559" lon="6.15206">
        <ele>444.79998779297</ele>
        <time>2017-05-24T13:42:46Z</time>
      </trkpt>
      <trkpt lat="43.36552" lon="6.15214">
        <ele>445.60000610352</ele>
        <time>2017-05-24T13:42:51Z</time>
      </trkpt>
      <trkpt lat="43.36551" lon="6.15215">
        <ele>446</ele>
        <time>2017-05-24T13:42:52Z</time>
      </trkpt>
      <trkpt lat="43.36541" lon="6.15226">
        <ele>446.79998779297</ele>
        <time>2017-05-24T13:43:00Z</time>
      </trkpt>
      <trkpt lat="43.36538" lon="6.15228">
        <ele>447.39999389648</ele>
        <time>2017-05-24T13:43:02Z</time>
      </trkpt>
      <trkpt lat="43.36534" lon="6.15231">
        <ele>448.20001220703</ele>
        <time>2017-05-24T13:43:06Z</time>
      </trkpt>
      <trkpt lat="43.36527" lon="6.15236">
        <ele>448.79998779297</ele>
        <time>2017-05-24T13:43:11Z</time>
      </trkpt>
      <trkpt lat="43.3652" lon="6.15242">
        <ele>449.39999389648</ele>
        <time>2017-05-24T13:43:16Z</time>
      </trkpt>
      <trkpt lat="43.36513" lon="6.15247">
        <ele>449.79998779297</ele>
        <time>2017-05-24T13:43:21Z</time>
      </trkpt>
      <trkpt lat="43.36506" lon="6.15257">
        <ele>450.39999389648</ele>
        <time>2017-05-24T13:43:28Z</time>
      </trkpt>
      <trkpt lat="43.36503" lon="6.15262">
        <ele>451</ele>
        <time>2017-05-24T13:43:31Z</time>
      </trkpt>
      <trkpt lat="43.36495" lon="6.15278">
        <ele>451.20001220703</ele>
        <time>2017-05-24T13:43:38Z</time>
      </trkpt>
      <trkpt lat="43.36491" lon="6.15287">
        <ele>451</ele>
        <time>2017-05-24T13:43:41Z</time>
      </trkpt>
      <trkpt lat="43.36485" lon="6.15311">
        <ele>451.79998779297</ele>
        <time>2017-05-24T13:43:51Z</time>
      </trkpt>
      <trkpt lat="43.36482" lon="6.15324">
        <ele>452.60000610352</ele>
        <time>2017-05-24T13:43:57Z</time>
      </trkpt>
      <trkpt lat="43.36484" lon="6.15332">
        <ele>453</ele>
        <time>2017-05-24T13:44:01Z</time>
      </trkpt>
      <trkpt lat="43.36486" lon="6.15335">
        <ele>453.20001220703</ele>
        <time>2017-05-24T13:44:06Z</time>
      </trkpt>
      <trkpt lat="43.36486" lon="6.15335">
        <ele>453.39999389648</ele>
        <time>2017-05-24T13:44:11Z</time>
      </trkpt>
      <trkpt lat="43.36487" lon="6.15334">
        <ele>453.60000610352</ele>
        <time>2017-05-24T13:44:31Z</time>
      </trkpt>
      <trkpt lat="43.36487" lon="6.15334">
        <ele>453.39999389648</ele>
        <time>2017-05-24T13:44:47Z</time>
      </trkpt>
      <trkpt lat="43.36487" lon="6.15333">
        <ele>453</ele>
        <time>2017-05-24T13:45:01Z</time>
      </trkpt>
      <trkpt lat="43.36487" lon="6.15333">
        <ele>452.79998779297</ele>
        <time>2017-05-24T13:45:11Z</time>
      </trkpt>
      <trkpt lat="43.36487" lon="6.15333">
        <ele>452.79998779297</ele>
        <time>2017-05-24T13:45:15Z</time>
      </trkpt>
      <trkpt lat="43.36487" lon="6.15333">
        <ele>452.60000610352</ele>
        <time>2017-05-24T13:45:22Z</time>
      </trkpt>
      <trkpt lat="43.36491" lon="6.15338">
        <ele>452.60000610352</ele>
        <time>2017-05-24T13:45:26Z</time>
      </trkpt>
      <trkpt lat="43.36501" lon="6.1536">
        <ele>452</ele>
        <time>2017-05-24T13:45:31Z</time>
      </trkpt>
      <trkpt lat="43.36503" lon="6.15366">
        <ele>451.60000610352</ele>
        <time>2017-05-24T13:45:32Z</time>
      </trkpt>
      <trkpt lat="43.36508" lon="6.15381">
        <ele>450.79998779297</ele>
        <time>2017-05-24T13:45:35Z</time>
      </trkpt>
      <trkpt lat="43.3651" lon="6.15391">
        <ele>450.39999389648</ele>
        <time>2017-05-24T13:45:37Z</time>
      </trkpt>
      <trkpt lat="43.36511" lon="6.15396">
        <ele>450.20001220703</ele>
        <time>2017-05-24T13:45:38Z</time>
      </trkpt>
      <trkpt lat="43.36519" lon="6.15432">
        <ele>449.60000610352</ele>
        <time>2017-05-24T13:45:45Z</time>
      </trkpt>
      <trkpt lat="43.36522" lon="6.15449">
        <ele>449.60000610352</ele>
        <time>2017-05-24T13:45:48Z</time>
      </trkpt>
      <trkpt lat="43.36525" lon="6.15461">
        <ele>449.79998779297</ele>
        <time>2017-05-24T13:45:50Z</time>
      </trkpt>
      <trkpt lat="43.36526" lon="6.15468">
        <ele>450</ele>
        <time>2017-05-24T13:45:51Z</time>
      </trkpt>
      <trkpt lat="43.36529" lon="6.15481">
        <ele>450.20001220703</ele>
        <time>2017-05-24T13:45:53Z</time>
      </trkpt>
      <trkpt lat="43.36532" lon="6.15493">
        <ele>450.39999389648</ele>
        <time>2017-05-24T13:45:55Z</time>
      </trkpt>
      <trkpt lat="43.36536" lon="6.1551">
        <ele>451.79998779297</ele>
        <time>2017-05-24T13:45:58Z</time>
      </trkpt>
      <trkpt lat="43.36538" lon="6.15522">
        <ele>452.60000610352</ele>
        <time>2017-05-24T13:46:00Z</time>
      </trkpt>
      <trkpt lat="43.36543" lon="6.1555">
        <ele>453.79998779297</ele>
        <time>2017-05-24T13:46:05Z</time>
      </trkpt>
      <trkpt lat="43.36544" lon="6.15555">
        <ele>454</ele>
        <time>2017-05-24T13:46:06Z</time>
      </trkpt>
      <trkpt lat="43.36547" lon="6.1557">
        <ele>455</ele>
        <time>2017-05-24T13:46:09Z</time>
      </trkpt>
      <trkpt lat="43.36549" lon="6.15579">
        <ele>455.39999389648</ele>
        <time>2017-05-24T13:46:11Z</time>
      </trkpt>
      <trkpt lat="43.36554" lon="6.15594">
        <ele>456.20001220703</ele>
        <time>2017-05-24T13:46:16Z</time>
      </trkpt>
      <trkpt lat="43.36556" lon="6.15609">
        <ele>457</ele>
        <time>2017-05-24T13:46:21Z</time>
      </trkpt>
      <trkpt lat="43.36558" lon="6.15618">
        <ele>456.79998779297</ele>
        <time>2017-05-24T13:46:24Z</time>
      </trkpt>
      <trkpt lat="43.36561" lon="6.15644">
        <ele>456.79998779297</ele>
        <time>2017-05-24T13:46:30Z</time>
      </trkpt>
      <trkpt lat="43.36561" lon="6.15654">
        <ele>456.79998779297</ele>
        <time>2017-05-24T13:46:32Z</time>
      </trkpt>
      <trkpt lat="43.3656" lon="6.15667">
        <ele>456.39999389648</ele>
        <time>2017-05-24T13:46:34Z</time>
      </trkpt>
      <trkpt lat="43.36565" lon="6.15684">
        <ele>455.20001220703</ele>
        <time>2017-05-24T13:46:37Z</time>
      </trkpt>
      <trkpt lat="43.36573" lon="6.157">
        <ele>454.60000610352</ele>
        <time>2017-05-24T13:46:41Z</time>
      </trkpt>
      <trkpt lat="43.36582" lon="6.15714">
        <ele>455</ele>
        <time>2017-05-24T13:46:45Z</time>
      </trkpt>
      <trkpt lat="43.3659" lon="6.1572">
        <ele>455</ele>
        <time>2017-05-24T13:46:47Z</time>
      </trkpt>
      <trkpt lat="43.36602" lon="6.15728">
        <ele>454.20001220703</ele>
        <time>2017-05-24T13:46:50Z</time>
      </trkpt>
      <trkpt lat="43.36606" lon="6.15731">
        <ele>453.60000610352</ele>
        <time>2017-05-24T13:46:51Z</time>
      </trkpt>
      <trkpt lat="43.3661" lon="6.15735">
        <ele>453</ele>
        <time>2017-05-24T13:46:52Z</time>
      </trkpt>
      <trkpt lat="43.36619" lon="6.15744">
        <ele>451.60000610352</ele>
        <time>2017-05-24T13:46:54Z</time>
      </trkpt>
      <trkpt lat="43.36628" lon="6.15756">
        <ele>450.60000610352</ele>
        <time>2017-05-24T13:46:56Z</time>
      </trkpt>
      <trkpt lat="43.36633" lon="6.15762">
        <ele>450.20001220703</ele>
        <time>2017-05-24T13:46:57Z</time>
      </trkpt>
      <trkpt lat="43.36637" lon="6.15767">
        <ele>450</ele>
        <time>2017-05-24T13:46:58Z</time>
      </trkpt>
      <trkpt lat="43.36647" lon="6.15775">
        <ele>449.39999389648</ele>
        <time>2017-05-24T13:47:00Z</time>
      </trkpt>
      <trkpt lat="43.36651" lon="6.1578">
        <ele>449</ele>
        <time>2017-05-24T13:47:01Z</time>
      </trkpt>
      <trkpt lat="43.36661" lon="6.15793">
        <ele>447.60000610352</ele>
        <time>2017-05-24T13:47:03Z</time>
      </trkpt>
      <trkpt lat="43.36666" lon="6.15801">
        <ele>446.39999389648</ele>
        <time>2017-05-24T13:47:04Z</time>
      </trkpt>
      <trkpt lat="43.3667" lon="6.15809">
        <ele>445</ele>
        <time>2017-05-24T13:47:05Z</time>
      </trkpt>
      <trkpt lat="43.36677" lon="6.15826">
        <ele>443.60000610352</ele>
        <time>2017-05-24T13:47:07Z</time>
      </trkpt>
      <trkpt lat="43.36686" lon="6.15852">
        <ele>442.39999389648</ele>
        <time>2017-05-24T13:47:10Z</time>
      </trkpt>
      <trkpt lat="43.36688" lon="6.15858">
        <ele>442.20001220703</ele>
        <time>2017-05-24T13:47:11Z</time>
      </trkpt>
      <trkpt lat="43.36691" lon="6.15864">
        <ele>441.79998779297</ele>
        <time>2017-05-24T13:47:12Z</time>
      </trkpt>
      <trkpt lat="43.36694" lon="6.15868">
        <ele>441.60000610352</ele>
        <time>2017-05-24T13:47:13Z</time>
      </trkpt>
      <trkpt lat="43.36697" lon="6.15872">
        <ele>441.39999389648</ele>
        <time>2017-05-24T13:47:14Z</time>
      </trkpt>
      <trkpt lat="43.3671" lon="6.1588">
        <ele>441</ele>
        <time>2017-05-24T13:47:18Z</time>
      </trkpt>
      <trkpt lat="43.36713" lon="6.1588">
        <ele>440.39999389648</ele>
        <time>2017-05-24T13:47:19Z</time>
      </trkpt>
      <trkpt lat="43.36716" lon="6.15877">
        <ele>439.39999389648</ele>
        <time>2017-05-24T13:47:21Z</time>
      </trkpt>
      <trkpt lat="43.36716" lon="6.15876">
        <ele>439.20001220703</ele>
        <time>2017-05-24T13:47:22Z</time>
      </trkpt>
      <trkpt lat="43.36715" lon="6.15875">
        <ele>438.60000610352</ele>
        <time>2017-05-24T13:47:31Z</time>
      </trkpt>
      <trkpt lat="43.36715" lon="6.15875">
        <ele>438.79998779297</ele>
        <time>2017-05-24T13:47:41Z</time>
      </trkpt>
      <trkpt lat="43.36719" lon="6.1587">
        <ele>438.60000610352</ele>
        <time>2017-05-24T13:47:44Z</time>
      </trkpt>
      <trkpt lat="43.36736" lon="6.15844">
        <ele>438</ele>
        <time>2017-05-24T13:47:51Z</time>
      </trkpt>
      <trkpt lat="43.3675" lon="6.15823">
        <ele>437</ele>
        <time>2017-05-24T13:47:56Z</time>
      </trkpt>
      <trkpt lat="43.36765" lon="6.15798">
        <ele>436.79998779297</ele>
        <time>2017-05-24T13:48:01Z</time>
      </trkpt>
      <trkpt lat="43.36766" lon="6.15793">
        <ele>436.79998779297</ele>
        <time>2017-05-24T13:48:02Z</time>
      </trkpt>
      <trkpt lat="43.36771" lon="6.15783">
        <ele>436.79998779297</ele>
        <time>2017-05-24T13:48:04Z</time>
      </trkpt>
      <trkpt lat="43.36779" lon="6.15778">
        <ele>436.79998779297</ele>
        <time>2017-05-24T13:48:06Z</time>
      </trkpt>
      <trkpt lat="43.36785" lon="6.15782">
        <ele>436.60000610352</ele>
        <time>2017-05-24T13:48:08Z</time>
      </trkpt>
      <trkpt lat="43.3679" lon="6.15791">
        <ele>436.20001220703</ele>
        <time>2017-05-24T13:48:10Z</time>
      </trkpt>
      <trkpt lat="43.36792" lon="6.15796">
        <ele>436</ele>
        <time>2017-05-24T13:48:11Z</time>
      </trkpt>
      <trkpt lat="43.36798" lon="6.15807">
        <ele>435.60000610352</ele>
        <time>2017-05-24T13:48:13Z</time>
      </trkpt>
      <trkpt lat="43.36802" lon="6.15819">
        <ele>435.20001220703</ele>
        <time>2017-05-24T13:48:15Z</time>
      </trkpt>
      <trkpt lat="43.36808" lon="6.15846">
        <ele>434.60000610352</ele>
        <time>2017-05-24T13:48:19Z</time>
      </trkpt>
      <trkpt lat="43.36812" lon="6.15881">
        <ele>435.60000610352</ele>
        <time>2017-05-24T13:48:24Z</time>
      </trkpt>
      <trkpt lat="43.36816" lon="6.15929">
        <ele>435.20001220703</ele>
        <time>2017-05-24T13:48:31Z</time>
      </trkpt>
      <trkpt lat="43.36821" lon="6.15994">
        <ele>435.79998779297</ele>
        <time>2017-05-24T13:48:41Z</time>
      </trkpt>
      <trkpt lat="43.36823" lon="6.16041">
        <ele>435.20001220703</ele>
        <time>2017-05-24T13:48:48Z</time>
      </trkpt>
      <trkpt lat="43.36823" lon="6.16074">
        <ele>435</ele>
        <time>2017-05-24T13:48:53Z</time>
      </trkpt>
      <trkpt lat="43.36822" lon="6.16127">
        <ele>435.20001220703</ele>
        <time>2017-05-24T13:49:01Z</time>
      </trkpt>
      <trkpt lat="43.36825" lon="6.16151">
        <ele>435</ele>
        <time>2017-05-24T13:49:05Z</time>
      </trkpt>
      <trkpt lat="43.36832" lon="6.16172">
        <ele>435</ele>
        <time>2017-05-24T13:49:09Z</time>
      </trkpt>
      <trkpt lat="43.36837" lon="6.16182">
        <ele>434.60000610352</ele>
        <time>2017-05-24T13:49:11Z</time>
      </trkpt>
      <trkpt lat="43.36842" lon="6.16192">
        <ele>434.20001220703</ele>
        <time>2017-05-24T13:49:15Z</time>
      </trkpt>
      <trkpt lat="43.36843" lon="6.16193">
        <ele>433.60000610352</ele>
        <time>2017-05-24T13:49:21Z</time>
      </trkpt>
      <trkpt lat="43.36843" lon="6.16193">
        <ele>433.39999389648</ele>
        <time>2017-05-24T13:49:31Z</time>
      </trkpt>
      <trkpt lat="43.36843" lon="6.16193">
        <ele>432.60000610352</ele>
        <time>2017-05-24T13:51:21Z</time>
      </trkpt>
      <trkpt lat="43.36843" lon="6.16194">
        <ele>432.60000610352</ele>
        <time>2017-05-24T13:51:23Z</time>
      </trkpt>
      <trkpt lat="43.36849" lon="6.16203">
        <ele>432.20001220703</ele>
        <time>2017-05-24T13:51:26Z</time>
      </trkpt>
      <trkpt lat="43.36859" lon="6.16222">
        <ele>431.20001220703</ele>
        <time>2017-05-24T13:51:31Z</time>
      </trkpt>
      <trkpt lat="43.36859" lon="6.16274">
        <ele>430.79998779297</ele>
        <time>2017-05-24T13:51:41Z</time>
      </trkpt>
      <trkpt lat="43.36856" lon="6.16309">
        <ele>430.60000610352</ele>
        <time>2017-05-24T13:51:46Z</time>
      </trkpt>
      <trkpt lat="43.36854" lon="6.16347">
        <ele>430.39999389648</ele>
        <time>2017-05-24T13:51:51Z</time>
      </trkpt>
      <trkpt lat="43.36851" lon="6.16361">
        <ele>430.20001220703</ele>
        <time>2017-05-24T13:51:53Z</time>
      </trkpt>
      <trkpt lat="43.36839" lon="6.16403">
        <ele>430</ele>
        <time>2017-05-24T13:51:59Z</time>
      </trkpt>
      <trkpt lat="43.36835" lon="6.16418">
        <ele>429.79998779297</ele>
        <time>2017-05-24T13:52:01Z</time>
      </trkpt>
      <trkpt lat="43.36832" lon="6.16433">
        <ele>429.20001220703</ele>
        <time>2017-05-24T13:52:03Z</time>
      </trkpt>
      <trkpt lat="43.36831" lon="6.16456">
        <ele>429</ele>
        <time>2017-05-24T13:52:06Z</time>
      </trkpt>
      <trkpt lat="43.36831" lon="6.16471">
        <ele>429</ele>
        <time>2017-05-24T13:52:08Z</time>
      </trkpt>
      <trkpt lat="43.36835" lon="6.16486">
        <ele>429</ele>
        <time>2017-05-24T13:52:10Z</time>
      </trkpt>
      <trkpt lat="43.36843" lon="6.16496">
        <ele>429</ele>
        <time>2017-05-24T13:52:12Z</time>
      </trkpt>
      <trkpt lat="43.36853" lon="6.16502">
        <ele>429</ele>
        <time>2017-05-24T13:52:14Z</time>
      </trkpt>
      <trkpt lat="43.36883" lon="6.16516">
        <ele>428.60000610352</ele>
        <time>2017-05-24T13:52:20Z</time>
      </trkpt>
      <trkpt lat="43.36887" lon="6.1652">
        <ele>428.60000610352</ele>
        <time>2017-05-24T13:52:21Z</time>
      </trkpt>
      <trkpt lat="43.36896" lon="6.16536">
        <ele>428.60000610352</ele>
        <time>2017-05-24T13:52:24Z</time>
      </trkpt>
      <trkpt lat="43.36898" lon="6.16549">
        <ele>428.39999389648</ele>
        <time>2017-05-24T13:52:26Z</time>
      </trkpt>
      <trkpt lat="43.36892" lon="6.16659">
        <ele>427.79998779297</ele>
        <time>2017-05-24T13:52:41Z</time>
      </trkpt>
      <trkpt lat="43.36895" lon="6.16719">
        <ele>427.39999389648</ele>
        <time>2017-05-24T13:52:49Z</time>
      </trkpt>
      <trkpt lat="43.3689" lon="6.16734">
        <ele>427.20001220703</ele>
        <time>2017-05-24T13:52:51Z</time>
      </trkpt>
      <trkpt lat="43.36884" lon="6.16747">
        <ele>427</ele>
        <time>2017-05-24T13:52:53Z</time>
      </trkpt>
      <trkpt lat="43.36856" lon="6.16804">
        <ele>427.20001220703</ele>
        <time>2017-05-24T13:53:01Z</time>
      </trkpt>
      <trkpt lat="43.36833" lon="6.16871">
        <ele>426.60000610352</ele>
        <time>2017-05-24T13:53:09Z</time>
      </trkpt>
      <trkpt lat="43.36826" lon="6.16899">
        <ele>426</ele>
        <time>2017-05-24T13:53:12Z</time>
      </trkpt>
      <trkpt lat="43.36817" lon="6.16947">
        <ele>425.60000610352</ele>
        <time>2017-05-24T13:53:17Z</time>
      </trkpt>
      <trkpt lat="43.36812" lon="6.16985">
        <ele>424.79998779297</ele>
        <time>2017-05-24T13:53:21Z</time>
      </trkpt>
      <trkpt lat="43.3681" lon="6.17031">
        <ele>423.60000610352</ele>
        <time>2017-05-24T13:53:26Z</time>
      </trkpt>
      <trkpt lat="43.36811" lon="6.17077">
        <ele>424</ele>
        <time>2017-05-24T13:53:31Z</time>
      </trkpt>
      <trkpt lat="43.36813" lon="6.17092">
        <ele>423.79998779297</ele>
        <time>2017-05-24T13:53:33Z</time>
      </trkpt>
      <trkpt lat="43.3682" lon="6.17129">
        <ele>423.60000610352</ele>
        <time>2017-05-24T13:53:38Z</time>
      </trkpt>
      <trkpt lat="43.36824" lon="6.17143">
        <ele>423.60000610352</ele>
        <time>2017-05-24T13:53:40Z</time>
      </trkpt>
      <trkpt lat="43.36838" lon="6.1717">
        <ele>423.60000610352</ele>
        <time>2017-05-24T13:53:45Z</time>
      </trkpt>
      <trkpt lat="43.36844" lon="6.17178">
        <ele>423.60000610352</ele>
        <time>2017-05-24T13:53:47Z</time>
      </trkpt>
      <trkpt lat="43.36848" lon="6.17197">
        <ele>423.60000610352</ele>
        <time>2017-05-24T13:53:51Z</time>
      </trkpt>
      <trkpt lat="43.36847" lon="6.17207">
        <ele>423.60000610352</ele>
        <time>2017-05-24T13:53:56Z</time>
      </trkpt>
      <trkpt lat="43.36847" lon="6.17206">
        <ele>423.60000610352</ele>
        <time>2017-05-24T13:54:00Z</time>
      </trkpt>
      <trkpt lat="43.36847" lon="6.17206">
        <ele>423.39999389648</ele>
        <time>2017-05-24T13:54:04Z</time>
      </trkpt>
      <trkpt lat="43.36847" lon="6.17206">
        <ele>423</ele>
        <time>2017-05-24T13:54:14Z</time>
      </trkpt>
      <trkpt lat="43.36847" lon="6.17207">
        <ele>423</ele>
        <time>2017-05-24T13:54:18Z</time>
      </trkpt>
      <trkpt lat="43.36847" lon="6.17206">
        <ele>423</ele>
        <time>2017-05-24T13:54:21Z</time>
      </trkpt>
      <trkpt lat="43.36846" lon="6.17206">
        <ele>423.20001220703</ele>
        <time>2017-05-24T13:54:27Z</time>
      </trkpt>
      <trkpt lat="43.36846" lon="6.172">
        <ele>423.20001220703</ele>
        <time>2017-05-24T13:54:31Z</time>
      </trkpt>
      <trkpt lat="43.36847" lon="6.17197">
        <ele>423.20001220703</ele>
        <time>2017-05-24T13:54:32Z</time>
      </trkpt>
      <trkpt lat="43.36848" lon="6.17185">
        <ele>423.20001220703</ele>
        <time>2017-05-24T13:54:37Z</time>
      </trkpt>
      <trkpt lat="43.36845" lon="6.17183">
        <ele>423.60000610352</ele>
        <time>2017-05-24T13:54:40Z</time>
      </trkpt>
      <trkpt lat="43.36845" lon="6.17184">
        <ele>423.60000610352</ele>
        <time>2017-05-24T13:54:41Z</time>
      </trkpt>
      <trkpt lat="43.36844" lon="6.17185">
        <ele>423.60000610352</ele>
        <time>2017-05-24T13:54:42Z</time>
      </trkpt>
      <trkpt lat="43.36845" lon="6.17189">
        <ele>423.39999389648</ele>
        <time>2017-05-24T13:54:44Z</time>
      </trkpt>
      <trkpt lat="43.36846" lon="6.172">
        <ele>423.20001220703</ele>
        <time>2017-05-24T13:54:51Z</time>
      </trkpt>
      <trkpt lat="43.36847" lon="6.172">
        <ele>423</ele>
        <time>2017-05-24T13:55:01Z</time>
      </trkpt>
      <trkpt lat="43.36846" lon="6.17203">
        <ele>423</ele>
        <time>2017-05-24T13:55:11Z</time>
      </trkpt>
      <trkpt lat="43.36846" lon="6.17203">
        <ele>422.79998779297</ele>
        <time>2017-05-24T13:55:21Z</time>
      </trkpt>
      <trkpt lat="43.36846" lon="6.17203">
        <ele>422.60000610352</ele>
        <time>2017-05-24T13:55:22Z</time>
      </trkpt>
      <trkpt lat="43.36845" lon="6.17203">
        <ele>422.60000610352</ele>
        <time>2017-05-24T13:55:31Z</time>
      </trkpt>
      <trkpt lat="43.36845" lon="6.17204">
        <ele>423</ele>
        <time>2017-05-24T13:55:41Z</time>
      </trkpt>
      <trkpt lat="43.36845" lon="6.17205">
        <ele>423</ele>
        <time>2017-05-24T13:55:51Z</time>
      </trkpt>
      <trkpt lat="43.36847" lon="6.17206">
        <ele>423</ele>
        <time>2017-05-24T13:56:11Z</time>
      </trkpt>
      <trkpt lat="43.36847" lon="6.17206">
        <ele>422.79998779297</ele>
        <time>2017-05-24T13:56:29Z</time>
      </trkpt>
      <trkpt lat="43.36847" lon="6.17207">
        <ele>422.60000610352</ele>
        <time>2017-05-24T13:56:41Z</time>
      </trkpt>
      <trkpt lat="43.36847" lon="6.17206">
        <ele>422.79998779297</ele>
        <time>2017-05-24T13:57:01Z</time>
      </trkpt>
      <trkpt lat="43.36847" lon="6.17206">
        <ele>422.79998779297</ele>
        <time>2017-05-24T13:57:11Z</time>
      </trkpt>
      <trkpt lat="43.36847" lon="6.17206">
        <ele>422.79998779297</ele>
        <time>2017-05-24T13:57:20Z</time>
      </trkpt>
      <trkpt lat="43.36847" lon="6.17206">
        <ele>422.79998779297</ele>
        <time>2017-05-24T13:57:21Z</time>
      </trkpt>
      <trkpt lat="43.36847" lon="6.17205">
        <ele>422.79998779297</ele>
        <time>2017-05-24T13:57:31Z</time>
      </trkpt>
      <trkpt lat="43.36845" lon="6.17204">
        <ele>422.79998779297</ele>
        <time>2017-05-24T13:57:41Z</time>
      </trkpt>
      <trkpt lat="43.36845" lon="6.17205">
        <ele>422.79998779297</ele>
        <time>2017-05-24T13:57:47Z</time>
      </trkpt>
      <trkpt lat="43.36845" lon="6.17204">
        <ele>422.79998779297</ele>
        <time>2017-05-24T13:57:51Z</time>
      </trkpt>
      <trkpt lat="43.36844" lon="6.17203">
        <ele>422.79998779297</ele>
        <time>2017-05-24T13:58:01Z</time>
      </trkpt>
      <trkpt lat="43.36844" lon="6.17205">
        <ele>422.79998779297</ele>
        <time>2017-05-24T13:58:21Z</time>
      </trkpt>
      <trkpt lat="43.36843" lon="6.17205">
        <ele>422.79998779297</ele>
        <time>2017-05-24T13:58:31Z</time>
      </trkpt>
      <trkpt lat="43.36843" lon="6.17205">
        <ele>422.79998779297</ele>
        <time>2017-05-24T13:58:41Z</time>
      </trkpt>
      <trkpt lat="43.36843" lon="6.17205">
        <ele>422.79998779297</ele>
        <time>2017-05-24T13:58:46Z</time>
      </trkpt>
      <trkpt lat="43.36843" lon="6.17204">
        <ele>422.79998779297</ele>
        <time>2017-05-24T13:58:50Z</time>
      </trkpt>
      <trkpt lat="43.36843" lon="6.17204">
        <ele>422.79998779297</ele>
        <time>2017-05-24T13:58:57Z</time>
      </trkpt>
      <trkpt lat="43.36843" lon="6.17203">
        <ele>422.79998779297</ele>
        <time>2017-05-24T13:59:01Z</time>
      </trkpt>
      <trkpt lat="43.36843" lon="6.17198">
        <ele>422.79998779297</ele>
        <time>2017-05-24T13:59:11Z</time>
      </trkpt>
      <trkpt lat="43.36843" lon="6.17198">
        <ele>422.79998779297</ele>
        <time>2017-05-24T13:59:21Z</time>
      </trkpt>
      <trkpt lat="43.36845" lon="6.17198">
        <ele>422.79998779297</ele>
        <time>2017-05-24T13:59:31Z</time>
      </trkpt>
      <trkpt lat="43.36845" lon="6.17198">
        <ele>422.79998779297</ele>
        <time>2017-05-24T13:59:41Z</time>
      </trkpt>
      <trkpt lat="43.36845" lon="6.17199">
        <ele>422.79998779297</ele>
        <time>2017-05-24T13:59:46Z</time>
      </trkpt>
      <trkpt lat="43.36845" lon="6.17199">
        <ele>422.79998779297</ele>
        <time>2017-05-24T13:59:51Z</time>
      </trkpt>
      <trkpt lat="43.36846" lon="6.17202">
        <ele>422.79998779297</ele>
        <time>2017-05-24T13:59:59Z</time>
      </trkpt>
      <trkpt lat="43.36846" lon="6.17203">
        <ele>422.79998779297</ele>
        <time>2017-05-24T14:00:01Z</time>
      </trkpt>
      <trkpt lat="43.36846" lon="6.17203">
        <ele>422.79998779297</ele>
        <time>2017-05-24T14:00:11Z</time>
      </trkpt>
      <trkpt lat="43.36844" lon="6.17202">
        <ele>422.79998779297</ele>
        <time>2017-05-24T14:00:18Z</time>
      </trkpt>
      <trkpt lat="43.36844" lon="6.17203">
        <ele>422.79998779297</ele>
        <time>2017-05-24T14:00:21Z</time>
      </trkpt>
      <trkpt lat="43.36843" lon="6.17205">
        <ele>422.79998779297</ele>
        <time>2017-05-24T14:00:26Z</time>
      </trkpt>
      <trkpt lat="43.36843" lon="6.17206">
        <ele>422.79998779297</ele>
        <time>2017-05-24T14:00:28Z</time>
      </trkpt>
      <trkpt lat="43.36843" lon="6.17206">
        <ele>422.79998779297</ele>
        <time>2017-05-24T14:00:31Z</time>
      </trkpt>
      <trkpt lat="43.36842" lon="6.17209">
        <ele>422.79998779297</ele>
        <time>2017-05-24T14:00:38Z</time>
      </trkpt>
      <trkpt lat="43.36838" lon="6.17216">
        <ele>422.79998779297</ele>
        <time>2017-05-24T14:00:40Z</time>
      </trkpt>
      <trkpt lat="43.36836" lon="6.17221">
        <ele>423.20001220703</ele>
        <time>2017-05-24T14:00:41Z</time>
      </trkpt>
      <trkpt lat="43.36829" lon="6.17237">
        <ele>422.79998779297</ele>
        <time>2017-05-24T14:00:44Z</time>
      </trkpt>
      <trkpt lat="43.36805" lon="6.17279">
        <ele>422</ele>
        <time>2017-05-24T14:00:51Z</time>
      </trkpt>
      <trkpt lat="43.36802" lon="6.17285">
        <ele>421.60000610352</ele>
        <time>2017-05-24T14:00:52Z</time>
      </trkpt>
      <trkpt lat="43.36798" lon="6.17292">
        <ele>421.60000610352</ele>
        <time>2017-05-24T14:00:53Z</time>
      </trkpt>
      <trkpt lat="43.36788" lon="6.17309">
        <ele>421.20001220703</ele>
        <time>2017-05-24T14:00:56Z</time>
      </trkpt>
      <trkpt lat="43.36773" lon="6.17338">
        <ele>421.20001220703</ele>
        <time>2017-05-24T14:01:01Z</time>
      </trkpt>
      <trkpt lat="43.36759" lon="6.17368">
        <ele>421.20001220703</ele>
        <time>2017-05-24T14:01:06Z</time>
      </trkpt>
      <trkpt lat="43.36756" lon="6.17374">
        <ele>421.39999389648</ele>
        <time>2017-05-24T14:01:07Z</time>
      </trkpt>
      <trkpt lat="43.36752" lon="6.17391">
        <ele>421.60000610352</ele>
        <time>2017-05-24T14:01:10Z</time>
      </trkpt>
      <trkpt lat="43.36751" lon="6.17397">
        <ele>421.60000610352</ele>
        <time>2017-05-24T14:01:11Z</time>
      </trkpt>
      <trkpt lat="43.36755" lon="6.17429">
        <ele>421.79998779297</ele>
        <time>2017-05-24T14:01:20Z</time>
      </trkpt>
      <trkpt lat="43.36755" lon="6.17431">
        <ele>422</ele>
        <time>2017-05-24T14:01:21Z</time>
      </trkpt>
      <trkpt lat="43.36756" lon="6.17433">
        <ele>422</ele>
        <time>2017-05-24T14:01:22Z</time>
      </trkpt>
      <trkpt lat="43.36758" lon="6.17459">
        <ele>422</ele>
        <time>2017-05-24T14:01:31Z</time>
      </trkpt>
      <trkpt lat="43.36754" lon="6.1748">
        <ele>422.60000610352</ele>
        <time>2017-05-24T14:01:38Z</time>
      </trkpt>
      <trkpt lat="43.36752" lon="6.1749">
        <ele>422.60000610352</ele>
        <time>2017-05-24T14:01:41Z</time>
      </trkpt>
      <trkpt lat="43.36729" lon="6.17567">
        <ele>422.39999389648</ele>
        <time>2017-05-24T14:02:01Z</time>
      </trkpt>
      <trkpt lat="43.36735" lon="6.1761">
        <ele>422.20001220703</ele>
        <time>2017-05-24T14:02:11Z</time>
      </trkpt>
      <trkpt lat="43.36716" lon="6.17649">
        <ele>422.39999389648</ele>
        <time>2017-05-24T14:02:21Z</time>
      </trkpt>
      <trkpt lat="43.36687" lon="6.17682">
        <ele>422</ele>
        <time>2017-05-24T14:02:31Z</time>
      </trkpt>
      <trkpt lat="43.36649" lon="6.17693">
        <ele>421.60000610352</ele>
        <time>2017-05-24T14:02:41Z</time>
      </trkpt>
      <trkpt lat="43.36633" lon="6.177">
        <ele>421.60000610352</ele>
        <time>2017-05-24T14:02:45Z</time>
      </trkpt>
      <trkpt lat="43.36615" lon="6.17716">
        <ele>421.20001220703</ele>
        <time>2017-05-24T14:02:51Z</time>
      </trkpt>
      <trkpt lat="43.36603" lon="6.17764">
        <ele>420.79998779297</ele>
        <time>2017-05-24T14:03:01Z</time>
      </trkpt>
      <trkpt lat="43.36583" lon="6.17803">
        <ele>421.39999389648</ele>
        <time>2017-05-24T14:03:11Z</time>
      </trkpt>
      <trkpt lat="43.3657" lon="6.17814">
        <ele>421.79998779297</ele>
        <time>2017-05-24T14:03:15Z</time>
      </trkpt>
      <trkpt lat="43.36551" lon="6.1783">
        <ele>421.39999389648</ele>
        <time>2017-05-24T14:03:21Z</time>
      </trkpt>
      <trkpt lat="43.36529" lon="6.17864">
        <ele>421.60000610352</ele>
        <time>2017-05-24T14:03:31Z</time>
      </trkpt>
      <trkpt lat="43.36524" lon="6.17895">
        <ele>422</ele>
        <time>2017-05-24T14:03:41Z</time>
      </trkpt>
      <trkpt lat="43.36528" lon="6.17901">
        <ele>422</ele>
        <time>2017-05-24T14:03:51Z</time>
      </trkpt>
      <trkpt lat="43.36528" lon="6.17901">
        <ele>421.60000610352</ele>
        <time>2017-05-24T14:04:07Z</time>
      </trkpt>
      <trkpt lat="43.36528" lon="6.179">
        <ele>421</ele>
        <time>2017-05-24T14:04:49Z</time>
      </trkpt>
      <trkpt lat="43.36528" lon="6.179">
        <ele>421</ele>
        <time>2017-05-24T14:04:51Z</time>
      </trkpt>
      <trkpt lat="43.3653" lon="6.17898">
        <ele>421.20001220703</ele>
        <time>2017-05-24T14:04:55Z</time>
      </trkpt>
      <trkpt lat="43.36532" lon="6.17894">
        <ele>421.79998779297</ele>
        <time>2017-05-24T14:04:58Z</time>
      </trkpt>
      <trkpt lat="43.36533" lon="6.17893">
        <ele>422.20001220703</ele>
        <time>2017-05-24T14:05:00Z</time>
      </trkpt>
      <trkpt lat="43.36533" lon="6.17893">
        <ele>422.20001220703</ele>
        <time>2017-05-24T14:05:01Z</time>
      </trkpt>
      <trkpt lat="43.36532" lon="6.17894">
        <ele>422.39999389648</ele>
        <time>2017-05-24T14:05:04Z</time>
      </trkpt>
      <trkpt lat="43.3653" lon="6.17895">
        <ele>422.39999389648</ele>
        <time>2017-05-24T14:05:06Z</time>
      </trkpt>
      <trkpt lat="43.36527" lon="6.17897">
        <ele>422.39999389648</ele>
        <time>2017-05-24T14:05:09Z</time>
      </trkpt>
      <trkpt lat="43.36526" lon="6.17897">
        <ele>422</ele>
        <time>2017-05-24T14:05:11Z</time>
      </trkpt>
      <trkpt lat="43.36525" lon="6.17898">
        <ele>421</ele>
        <time>2017-05-24T14:05:21Z</time>
      </trkpt>
      <trkpt lat="43.36526" lon="6.17897">
        <ele>421.20001220703</ele>
        <time>2017-05-24T14:05:25Z</time>
      </trkpt>
      <trkpt lat="43.36528" lon="6.17893">
        <ele>421.39999389648</ele>
        <time>2017-05-24T14:05:28Z</time>
      </trkpt>
      <trkpt lat="43.36531" lon="6.17889">
        <ele>422</ele>
        <time>2017-05-24T14:05:31Z</time>
      </trkpt>
      <trkpt lat="43.36531" lon="6.17887">
        <ele>422.39999389648</ele>
        <time>2017-05-24T14:05:34Z</time>
      </trkpt>
      <trkpt lat="43.36531" lon="6.17887">
        <ele>422.60000610352</ele>
        <time>2017-05-24T14:05:35Z</time>
      </trkpt>
      <trkpt lat="43.36533" lon="6.17884">
        <ele>423.39999389648</ele>
        <time>2017-05-24T14:05:39Z</time>
      </trkpt>
      <trkpt lat="43.36534" lon="6.17882">
        <ele>423.79998779297</ele>
        <time>2017-05-24T14:05:41Z</time>
      </trkpt>
      <trkpt lat="43.36537" lon="6.17876">
        <ele>424.79998779297</ele>
        <time>2017-05-24T14:05:49Z</time>
      </trkpt>
      <trkpt lat="43.36538" lon="6.17875">
        <ele>425</ele>
        <time>2017-05-24T14:05:51Z</time>
      </trkpt>
      <trkpt lat="43.36541" lon="6.17871">
        <ele>425.60000610352</ele>
        <time>2017-05-24T14:06:01Z</time>
      </trkpt>
      <trkpt lat="43.36545" lon="6.17865">
        <ele>425.79998779297</ele>
        <time>2017-05-24T14:06:08Z</time>
      </trkpt>
      <trkpt lat="43.36549" lon="6.17861">
        <ele>426.39999389648</ele>
        <time>2017-05-24T14:06:11Z</time>
      </trkpt>
      <trkpt lat="43.36552" lon="6.17857">
        <ele>427</ele>
        <time>2017-05-24T14:06:14Z</time>
      </trkpt>
      <trkpt lat="43.36556" lon="6.17854">
        <ele>428</ele>
        <time>2017-05-24T14:06:18Z</time>
      </trkpt>
      <trkpt lat="43.36559" lon="6.17852">
        <ele>428.39999389648</ele>
        <time>2017-05-24T14:06:21Z</time>
      </trkpt>
      <trkpt lat="43.3656" lon="6.17852">
        <ele>428.60000610352</ele>
        <time>2017-05-24T14:06:22Z</time>
      </trkpt>
      <trkpt lat="43.36562" lon="6.17854">
        <ele>429.20001220703</ele>
        <time>2017-05-24T14:06:25Z</time>
      </trkpt>
      <trkpt lat="43.36564" lon="6.17856">
        <ele>429.60000610352</ele>
        <time>2017-05-24T14:06:27Z</time>
      </trkpt>
      <trkpt lat="43.36563" lon="6.17862">
        <ele>430</ele>
        <time>2017-05-24T14:06:31Z</time>
      </trkpt>
      <trkpt lat="43.36562" lon="6.17865">
        <ele>430.39999389648</ele>
        <time>2017-05-24T14:06:33Z</time>
      </trkpt>
      <trkpt lat="43.36561" lon="6.17868">
        <ele>430.79998779297</ele>
        <time>2017-05-24T14:06:35Z</time>
      </trkpt>
      <trkpt lat="43.36559" lon="6.17875">
        <ele>431.39999389648</ele>
        <time>2017-05-24T14:06:40Z</time>
      </trkpt>
      <trkpt lat="43.36558" lon="6.17876">
        <ele>431.60000610352</ele>
        <time>2017-05-24T14:06:41Z</time>
      </trkpt>
      <trkpt lat="43.36556" lon="6.17887">
        <ele>432.60000610352</ele>
        <time>2017-05-24T14:06:48Z</time>
      </trkpt>
      <trkpt lat="43.36557" lon="6.17891">
        <ele>432.79998779297</ele>
        <time>2017-05-24T14:06:51Z</time>
      </trkpt>
      <trkpt lat="43.36557" lon="6.17898">
        <ele>433.60000610352</ele>
        <time>2017-05-24T14:06:56Z</time>
      </trkpt>
      <trkpt lat="43.36559" lon="6.17903">
        <ele>434.20001220703</ele>
        <time>2017-05-24T14:06:59Z</time>
      </trkpt>
      <trkpt lat="43.3656" lon="6.17906">
        <ele>434.20001220703</ele>
        <time>2017-05-24T14:07:01Z</time>
      </trkpt>
      <trkpt lat="43.36562" lon="6.17913">
        <ele>434.60000610352</ele>
        <time>2017-05-24T14:07:06Z</time>
      </trkpt>
      <trkpt lat="43.36563" lon="6.17921">
        <ele>435.20001220703</ele>
        <time>2017-05-24T14:07:11Z</time>
      </trkpt>
      <trkpt lat="43.3657" lon="6.17934">
        <ele>436.20001220703</ele>
        <time>2017-05-24T14:07:21Z</time>
      </trkpt>
      <trkpt lat="43.36571" lon="6.17942">
        <ele>436.79998779297</ele>
        <time>2017-05-24T14:07:26Z</time>
      </trkpt>
      <trkpt lat="43.3657" lon="6.17949">
        <ele>437.79998779297</ele>
        <time>2017-05-24T14:07:31Z</time>
      </trkpt>
      <trkpt lat="43.36568" lon="6.17952">
        <ele>438</ele>
        <time>2017-05-24T14:07:33Z</time>
      </trkpt>
      <trkpt lat="43.36568" lon="6.17955">
        <ele>438.39999389648</ele>
        <time>2017-05-24T14:07:35Z</time>
      </trkpt>
      <trkpt lat="43.36566" lon="6.17964">
        <ele>439</ele>
        <time>2017-05-24T14:07:41Z</time>
      </trkpt>
      <trkpt lat="43.36563" lon="6.17975">
        <ele>440.20001220703</ele>
        <time>2017-05-24T14:07:49Z</time>
      </trkpt>
      <trkpt lat="43.3656" lon="6.17989">
        <ele>442</ele>
        <time>2017-05-24T14:08:00Z</time>
      </trkpt>
      <trkpt lat="43.36559" lon="6.17993">
        <ele>442.39999389648</ele>
        <time>2017-05-24T14:08:03Z</time>
      </trkpt>
      <trkpt lat="43.36558" lon="6.18005">
        <ele>443</ele>
        <time>2017-05-24T14:08:11Z</time>
      </trkpt>
      <trkpt lat="43.36558" lon="6.18009">
        <ele>443.39999389648</ele>
        <time>2017-05-24T14:08:14Z</time>
      </trkpt>
      <trkpt lat="43.36559" lon="6.1802">
        <ele>444</ele>
        <time>2017-05-24T14:08:21Z</time>
      </trkpt>
      <trkpt lat="43.36562" lon="6.1803">
        <ele>444.39999389648</ele>
        <time>2017-05-24T14:08:27Z</time>
      </trkpt>
      <trkpt lat="43.36563" lon="6.18035">
        <ele>445.20001220703</ele>
        <time>2017-05-24T14:08:30Z</time>
      </trkpt>
      <trkpt lat="43.36564" lon="6.18036">
        <ele>445.79998779297</ele>
        <time>2017-05-24T14:08:31Z</time>
      </trkpt>
      <trkpt lat="43.36566" lon="6.18041">
        <ele>447.39999389648</ele>
        <time>2017-05-24T14:08:35Z</time>
      </trkpt>
      <trkpt lat="43.36568" lon="6.18048">
        <ele>448.20001220703</ele>
        <time>2017-05-24T14:08:40Z</time>
      </trkpt>
      <trkpt lat="43.36568" lon="6.18049">
        <ele>448.39999389648</ele>
        <time>2017-05-24T14:08:41Z</time>
      </trkpt>
      <trkpt lat="43.36571" lon="6.18058">
        <ele>449.39999389648</ele>
        <time>2017-05-24T14:08:48Z</time>
      </trkpt>
      <trkpt lat="43.36572" lon="6.18062">
        <ele>449.60000610352</ele>
        <time>2017-05-24T14:08:51Z</time>
      </trkpt>
      <trkpt lat="43.36576" lon="6.18074">
        <ele>450.39999389648</ele>
        <time>2017-05-24T14:09:00Z</time>
      </trkpt>
      <trkpt lat="43.36577" lon="6.18075">
        <ele>450.39999389648</ele>
        <time>2017-05-24T14:09:01Z</time>
      </trkpt>
      <trkpt lat="43.36582" lon="6.18086">
        <ele>452</ele>
        <time>2017-05-24T14:09:11Z</time>
      </trkpt>
      <trkpt lat="43.36586" lon="6.18097">
        <ele>453.60000610352</ele>
        <time>2017-05-24T14:09:21Z</time>
      </trkpt>
      <trkpt lat="43.3659" lon="6.18107">
        <ele>454.60000610352</ele>
        <time>2017-05-24T14:09:28Z</time>
      </trkpt>
      <trkpt lat="43.36591" lon="6.18112">
        <ele>455.60000610352</ele>
        <time>2017-05-24T14:09:31Z</time>
      </trkpt>
      <trkpt lat="43.36594" lon="6.18118">
        <ele>456.60000610352</ele>
        <time>2017-05-24T14:09:35Z</time>
      </trkpt>
      <trkpt lat="43.366" lon="6.18136">
        <ele>459.20001220703</ele>
        <time>2017-05-24T14:09:47Z</time>
      </trkpt>
      <trkpt lat="43.36602" lon="6.18141">
        <ele>460.20001220703</ele>
        <time>2017-05-24T14:09:51Z</time>
      </trkpt>
      <trkpt lat="43.36603" lon="6.18146">
        <ele>460.60000610352</ele>
        <time>2017-05-24T14:09:56Z</time>
      </trkpt>
      <trkpt lat="43.36605" lon="6.1815">
        <ele>461</ele>
        <time>2017-05-24T14:10:01Z</time>
      </trkpt>
      <trkpt lat="43.36606" lon="6.18152">
        <ele>461.20001220703</ele>
        <time>2017-05-24T14:10:03Z</time>
      </trkpt>
      <trkpt lat="43.36608" lon="6.18156">
        <ele>461.39999389648</ele>
        <time>2017-05-24T14:10:07Z</time>
      </trkpt>
      <trkpt lat="43.36609" lon="6.18159">
        <ele>461.60000610352</ele>
        <time>2017-05-24T14:10:09Z</time>
      </trkpt>
      <trkpt lat="43.3661" lon="6.18161">
        <ele>461.79998779297</ele>
        <time>2017-05-24T14:10:11Z</time>
      </trkpt>
      <trkpt lat="43.36613" lon="6.18169">
        <ele>462.20001220703</ele>
        <time>2017-05-24T14:10:19Z</time>
      </trkpt>
      <trkpt lat="43.36613" lon="6.1817">
        <ele>462.20001220703</ele>
        <time>2017-05-24T14:10:20Z</time>
      </trkpt>
      <trkpt lat="43.36614" lon="6.18171">
        <ele>462.39999389648</ele>
        <time>2017-05-24T14:10:21Z</time>
      </trkpt>
      <trkpt lat="43.36618" lon="6.1818">
        <ele>463.39999389648</ele>
        <time>2017-05-24T14:10:30Z</time>
      </trkpt>
      <trkpt lat="43.3662" lon="6.18184">
        <ele>463.60000610352</ele>
        <time>2017-05-24T14:10:33Z</time>
      </trkpt>
      <trkpt lat="43.36622" lon="6.18188">
        <ele>464.39999389648</ele>
        <time>2017-05-24T14:10:37Z</time>
      </trkpt>
      <trkpt lat="43.36629" lon="6.182">
        <ele>465.60000610352</ele>
        <time>2017-05-24T14:10:48Z</time>
      </trkpt>
      <trkpt lat="43.36631" lon="6.18204">
        <ele>466</ele>
        <time>2017-05-24T14:10:51Z</time>
      </trkpt>
      <trkpt lat="43.36635" lon="6.18212">
        <ele>466.60000610352</ele>
        <time>2017-05-24T14:10:57Z</time>
      </trkpt>
      <trkpt lat="43.36637" lon="6.18218">
        <ele>467.39999389648</ele>
        <time>2017-05-24T14:11:01Z</time>
      </trkpt>
      <trkpt lat="43.3664" lon="6.18223">
        <ele>467.60000610352</ele>
        <time>2017-05-24T14:11:05Z</time>
      </trkpt>
      <trkpt lat="43.36646" lon="6.18228">
        <ele>468.60000610352</ele>
        <time>2017-05-24T14:11:11Z</time>
      </trkpt>
      <trkpt lat="43.36647" lon="6.18228">
        <ele>468.79998779297</ele>
        <time>2017-05-24T14:11:12Z</time>
      </trkpt>
      <trkpt lat="43.36649" lon="6.18229">
        <ele>469.39999389648</ele>
        <time>2017-05-24T14:11:14Z</time>
      </trkpt>
      <trkpt lat="43.3665" lon="6.1823">
        <ele>469.60000610352</ele>
        <time>2017-05-24T14:11:21Z</time>
      </trkpt>
      <trkpt lat="43.3665" lon="6.1823">
        <ele>469.60000610352</ele>
        <time>2017-05-24T14:11:27Z</time>
      </trkpt>
      <trkpt lat="43.3665" lon="6.1823">
        <ele>469.60000610352</ele>
        <time>2017-05-24T14:11:31Z</time>
      </trkpt>
      <trkpt lat="43.3665" lon="6.1823">
        <ele>470</ele>
        <time>2017-05-24T14:11:41Z</time>
      </trkpt>
      <trkpt lat="43.3665" lon="6.1823">
        <ele>469.60000610352</ele>
        <time>2017-05-24T14:11:50Z</time>
      </trkpt>
      <trkpt lat="43.3665" lon="6.18229">
        <ele>470.20001220703</ele>
        <time>2017-05-24T14:12:01Z</time>
      </trkpt>
      <trkpt lat="43.3665" lon="6.18229">
        <ele>470.79998779297</ele>
        <time>2017-05-24T14:12:13Z</time>
      </trkpt>
      <trkpt lat="43.3665" lon="6.18229">
        <ele>470.79998779297</ele>
        <time>2017-05-24T14:12:14Z</time>
      </trkpt>
      <trkpt lat="43.3665" lon="6.18229">
        <ele>470.79998779297</ele>
        <time>2017-05-24T14:12:21Z</time>
      </trkpt>
      <trkpt lat="43.3665" lon="6.18228">
        <ele>471.20001220703</ele>
        <time>2017-05-24T14:13:01Z</time>
      </trkpt>
      <trkpt lat="43.3665" lon="6.18228">
        <ele>471.20001220703</ele>
        <time>2017-05-24T14:13:11Z</time>
      </trkpt>
      <trkpt lat="43.3665" lon="6.18228">
        <ele>471</ele>
        <time>2017-05-24T14:13:17Z</time>
      </trkpt>
      <trkpt lat="43.3665" lon="6.18229">
        <ele>471</ele>
        <time>2017-05-24T14:13:21Z</time>
      </trkpt>
      <trkpt lat="43.3665" lon="6.18229">
        <ele>471</ele>
        <time>2017-05-24T14:13:24Z</time>
      </trkpt>
      <trkpt lat="43.3665" lon="6.18228">
        <ele>471</ele>
        <time>2017-05-24T14:13:31Z</time>
      </trkpt>
      <trkpt lat="43.3665" lon="6.18228">
        <ele>471</ele>
        <time>2017-05-24T14:13:41Z</time>
      </trkpt>
      <trkpt lat="43.3665" lon="6.18228">
        <ele>471</ele>
        <time>2017-05-24T14:13:51Z</time>
      </trkpt>
      <trkpt lat="43.3665" lon="6.18229">
        <ele>471</ele>
        <time>2017-05-24T14:14:21Z</time>
      </trkpt>
      <trkpt lat="43.3665" lon="6.18229">
        <ele>471</ele>
        <time>2017-05-24T14:14:31Z</time>
      </trkpt>
      <trkpt lat="43.36649" lon="6.18229">
        <ele>471</ele>
        <time>2017-05-24T14:14:41Z</time>
      </trkpt>
      <trkpt lat="43.36649" lon="6.1823">
        <ele>471</ele>
        <time>2017-05-24T14:15:01Z</time>
      </trkpt>
      <trkpt lat="43.36649" lon="6.1823">
        <ele>471</ele>
        <time>2017-05-24T14:15:11Z</time>
      </trkpt>
      <trkpt lat="43.36649" lon="6.18227">
        <ele>471</ele>
        <time>2017-05-24T14:15:18Z</time>
      </trkpt>
      <trkpt lat="43.36647" lon="6.18226">
        <ele>471</ele>
        <time>2017-05-24T14:15:21Z</time>
      </trkpt>
      <trkpt lat="43.3664" lon="6.18223">
        <ele>469.20001220703</ele>
        <time>2017-05-24T14:15:25Z</time>
      </trkpt>
      <trkpt lat="43.36629" lon="6.18205">
        <ele>468.39999389648</ele>
        <time>2017-05-24T14:15:31Z</time>
      </trkpt>
      <trkpt lat="43.36625" lon="6.18198">
        <ele>468</ele>
        <time>2017-05-24T14:15:33Z</time>
      </trkpt>
      <trkpt lat="43.36622" lon="6.1819">
        <ele>467</ele>
        <time>2017-05-24T14:15:35Z</time>
      </trkpt>
      <trkpt lat="43.36617" lon="6.18182">
        <ele>465.79998779297</ele>
        <time>2017-05-24T14:15:37Z</time>
      </trkpt>
      <trkpt lat="43.3661" lon="6.1817">
        <ele>464.79998779297</ele>
        <time>2017-05-24T14:15:41Z</time>
      </trkpt>
      <trkpt lat="43.3661" lon="6.18169">
        <ele>463.79998779297</ele>
        <time>2017-05-24T14:15:51Z</time>
      </trkpt>
      <trkpt lat="43.3661" lon="6.18169">
        <ele>463.60000610352</ele>
        <time>2017-05-24T14:16:01Z</time>
      </trkpt>
      <trkpt lat="43.3661" lon="6.18169">
        <ele>463.79998779297</ele>
        <time>2017-05-24T14:16:21Z</time>
      </trkpt>
      <trkpt lat="43.36611" lon="6.1817">
        <ele>463.79998779297</ele>
        <time>2017-05-24T14:16:31Z</time>
      </trkpt>
      <trkpt lat="43.36614" lon="6.18176">
        <ele>464.20001220703</ele>
        <time>2017-05-24T14:16:35Z</time>
      </trkpt>
      <trkpt lat="43.36618" lon="6.18186">
        <ele>464.79998779297</ele>
        <time>2017-05-24T14:16:40Z</time>
      </trkpt>
      <trkpt lat="43.3662" lon="6.18189">
        <ele>465.20001220703</ele>
        <time>2017-05-24T14:16:42Z</time>
      </trkpt>
      <trkpt lat="43.36623" lon="6.18195">
        <ele>465.79998779297</ele>
        <time>2017-05-24T14:16:46Z</time>
      </trkpt>
      <trkpt lat="43.36626" lon="6.182">
        <ele>466.60000610352</ele>
        <time>2017-05-24T14:16:49Z</time>
      </trkpt>
      <trkpt lat="43.36629" lon="6.18203">
        <ele>466.79998779297</ele>
        <time>2017-05-24T14:16:51Z</time>
      </trkpt>
      <trkpt lat="43.36632" lon="6.18208">
        <ele>467.20001220703</ele>
        <time>2017-05-24T14:16:54Z</time>
      </trkpt>
      <trkpt lat="43.36636" lon="6.18218">
        <ele>468</ele>
        <time>2017-05-24T14:16:59Z</time>
      </trkpt>
      <trkpt lat="43.36637" lon="6.18222">
        <ele>468.39999389648</ele>
        <time>2017-05-24T14:17:01Z</time>
      </trkpt>
      <trkpt lat="43.36641" lon="6.18226">
        <ele>469.20001220703</ele>
        <time>2017-05-24T14:17:04Z</time>
      </trkpt>
      <trkpt lat="43.36646" lon="6.18229">
        <ele>469.60000610352</ele>
        <time>2017-05-24T14:17:07Z</time>
      </trkpt>
      <trkpt lat="43.3665" lon="6.18228">
        <ele>469.60000610352</ele>
        <time>2017-05-24T14:17:10Z</time>
      </trkpt>
      <trkpt lat="43.36651" lon="6.18228">
        <ele>469.60000610352</ele>
        <time>2017-05-24T14:17:11Z</time>
      </trkpt>
      <trkpt lat="43.36655" lon="6.18226">
        <ele>470</ele>
        <time>2017-05-24T14:17:14Z</time>
      </trkpt>
      <trkpt lat="43.36657" lon="6.18223">
        <ele>470.20001220703</ele>
        <time>2017-05-24T14:17:16Z</time>
      </trkpt>
      <trkpt lat="43.36657" lon="6.18221">
        <ele>470.20001220703</ele>
        <time>2017-05-24T14:17:21Z</time>
      </trkpt>
      <trkpt lat="43.36657" lon="6.18221">
        <ele>470.20001220703</ele>
        <time>2017-05-24T14:17:25Z</time>
      </trkpt>
      <trkpt lat="43.36657" lon="6.18222">
        <ele>470.20001220703</ele>
        <time>2017-05-24T14:17:28Z</time>
      </trkpt>
      <trkpt lat="43.36657" lon="6.18221">
        <ele>470.39999389648</ele>
        <time>2017-05-24T14:17:31Z</time>
      </trkpt>
      <trkpt lat="43.36661" lon="6.18215">
        <ele>471.39999389648</ele>
        <time>2017-05-24T14:17:40Z</time>
      </trkpt>
      <trkpt lat="43.36662" lon="6.18214">
        <ele>471.60000610352</ele>
        <time>2017-05-24T14:17:41Z</time>
      </trkpt>
      <trkpt lat="43.36664" lon="6.1821">
        <ele>471.79998779297</ele>
        <time>2017-05-24T14:17:46Z</time>
      </trkpt>
      <trkpt lat="43.36665" lon="6.18208">
        <ele>472.20001220703</ele>
        <time>2017-05-24T14:17:51Z</time>
      </trkpt>
      <trkpt lat="43.36666" lon="6.18205">
        <ele>472.39999389648</ele>
        <time>2017-05-24T14:17:55Z</time>
      </trkpt>
      <trkpt lat="43.36668" lon="6.182">
        <ele>473</ele>
        <time>2017-05-24T14:18:01Z</time>
      </trkpt>
      <trkpt lat="43.36668" lon="6.18198">
        <ele>473.60000610352</ele>
        <time>2017-05-24T14:18:04Z</time>
      </trkpt>
      <trkpt lat="43.36668" lon="6.18198">
        <ele>473.60000610352</ele>
        <time>2017-05-24T14:18:08Z</time>
      </trkpt>
      <trkpt lat="43.36668" lon="6.18199">
        <ele>473.60000610352</ele>
        <time>2017-05-24T14:18:11Z</time>
      </trkpt>
      <trkpt lat="43.36669" lon="6.18195">
        <ele>474.20001220703</ele>
        <time>2017-05-24T14:18:31Z</time>
      </trkpt>
      <trkpt lat="43.3667" lon="6.18193">
        <ele>474.39999389648</ele>
        <time>2017-05-24T14:18:34Z</time>
      </trkpt>
      <trkpt lat="43.36671" lon="6.18192">
        <ele>474.60000610352</ele>
        <time>2017-05-24T14:18:36Z</time>
      </trkpt>
      <trkpt lat="43.36672" lon="6.1819">
        <ele>475</ele>
        <time>2017-05-24T14:18:39Z</time>
      </trkpt>
      <trkpt lat="43.36675" lon="6.18183">
        <ele>475.79998779297</ele>
        <time>2017-05-24T14:18:51Z</time>
      </trkpt>
      <trkpt lat="43.36676" lon="6.18181">
        <ele>475.79998779297</ele>
        <time>2017-05-24T14:19:01Z</time>
      </trkpt>
      <trkpt lat="43.36681" lon="6.18174">
        <ele>476.60000610352</ele>
        <time>2017-05-24T14:19:10Z</time>
      </trkpt>
      <trkpt lat="43.36682" lon="6.18173">
        <ele>476.60000610352</ele>
        <time>2017-05-24T14:19:11Z</time>
      </trkpt>
      <trkpt lat="43.36681" lon="6.18172">
        <ele>476.79998779297</ele>
        <time>2017-05-24T14:19:15Z</time>
      </trkpt>
      <trkpt lat="43.36681" lon="6.18172">
        <ele>476.79998779297</ele>
        <time>2017-05-24T14:19:16Z</time>
      </trkpt>
      <trkpt lat="43.36681" lon="6.18172">
        <ele>476.79998779297</ele>
        <time>2017-05-24T14:19:21Z</time>
      </trkpt>
      <trkpt lat="43.36681" lon="6.18172">
        <ele>477</ele>
        <time>2017-05-24T14:19:31Z</time>
      </trkpt>
      <trkpt lat="43.36682" lon="6.18169">
        <ele>476.79998779297</ele>
        <time>2017-05-24T14:20:11Z</time>
      </trkpt>
      <trkpt lat="43.36681" lon="6.18169">
        <ele>477.20001220703</ele>
        <time>2017-05-24T14:20:21Z</time>
      </trkpt>
      <trkpt lat="43.36681" lon="6.1817">
        <ele>477.20001220703</ele>
        <time>2017-05-24T14:20:31Z</time>
      </trkpt>
      <trkpt lat="43.36681" lon="6.1817">
        <ele>477.20001220703</ele>
        <time>2017-05-24T14:20:41Z</time>
      </trkpt>
      <trkpt lat="43.36681" lon="6.1817">
        <ele>477.20001220703</ele>
        <time>2017-05-24T14:20:48Z</time>
      </trkpt>
      <trkpt lat="43.36681" lon="6.18169">
        <ele>477.20001220703</ele>
        <time>2017-05-24T14:20:51Z</time>
      </trkpt>
      <trkpt lat="43.36681" lon="6.18166">
        <ele>477.20001220703</ele>
        <time>2017-05-24T14:20:55Z</time>
      </trkpt>
      <trkpt lat="43.36682" lon="6.18162">
        <ele>477.20001220703</ele>
        <time>2017-05-24T14:20:57Z</time>
      </trkpt>
      <trkpt lat="43.36684" lon="6.18155">
        <ele>477.79998779297</ele>
        <time>2017-05-24T14:21:00Z</time>
      </trkpt>
      <trkpt lat="43.36684" lon="6.18153">
        <ele>477.79998779297</ele>
        <time>2017-05-24T14:21:01Z</time>
      </trkpt>
      <trkpt lat="43.36688" lon="6.18132">
        <ele>478.60000610352</ele>
        <time>2017-05-24T14:21:11Z</time>
      </trkpt>
      <trkpt lat="43.36689" lon="6.18125">
        <ele>479</ele>
        <time>2017-05-24T14:21:14Z</time>
      </trkpt>
      <trkpt lat="43.36692" lon="6.18104">
        <ele>480.20001220703</ele>
        <time>2017-05-24T14:21:23Z</time>
      </trkpt>
      <trkpt lat="43.36692" lon="6.18093">
        <ele>480.39999389648</ele>
        <time>2017-05-24T14:21:27Z</time>
      </trkpt>
      <trkpt lat="43.36692" lon="6.18082">
        <ele>480.60000610352</ele>
        <time>2017-05-24T14:21:31Z</time>
      </trkpt>
      <trkpt lat="43.36693" lon="6.18046">
        <ele>480.79998779297</ele>
        <time>2017-05-24T14:21:41Z</time>
      </trkpt>
      <trkpt lat="43.36697" lon="6.17996">
        <ele>480.20001220703</ele>
        <time>2017-05-24T14:21:51Z</time>
      </trkpt>
      <trkpt lat="43.367" lon="6.17974">
        <ele>480</ele>
        <time>2017-05-24T14:21:55Z</time>
      </trkpt>
      <trkpt lat="43.36703" lon="6.17946">
        <ele>479</ele>
        <time>2017-05-24T14:22:00Z</time>
      </trkpt>
      <trkpt lat="43.36705" lon="6.17939">
        <ele>479</ele>
        <time>2017-05-24T14:22:01Z</time>
      </trkpt>
      <trkpt lat="43.36707" lon="6.17929">
        <ele>478.79998779297</ele>
        <time>2017-05-24T14:22:03Z</time>
      </trkpt>
      <trkpt lat="43.36708" lon="6.1791">
        <ele>478.79998779297</ele>
        <time>2017-05-24T14:22:07Z</time>
      </trkpt>
      <trkpt lat="43.36712" lon="6.17894">
        <ele>478.39999389648</ele>
        <time>2017-05-24T14:22:11Z</time>
      </trkpt>
      <trkpt lat="43.36713" lon="6.17887">
        <ele>478</ele>
        <time>2017-05-24T14:22:13Z</time>
      </trkpt>
      <trkpt lat="43.3672" lon="6.17874">
        <ele>477</ele>
        <time>2017-05-24T14:22:17Z</time>
      </trkpt>
      <trkpt lat="43.36723" lon="6.17867">
        <ele>476.39999389648</ele>
        <time>2017-05-24T14:22:21Z</time>
      </trkpt>
      <trkpt lat="43.36732" lon="6.17848">
        <ele>475.79998779297</ele>
        <time>2017-05-24T14:22:28Z</time>
      </trkpt>
      <trkpt lat="43.36739" lon="6.17837">
        <ele>475.20001220703</ele>
        <time>2017-05-24T14:22:31Z</time>
      </trkpt>
      <trkpt lat="43.36751" lon="6.17818">
        <ele>474.60000610352</ele>
        <time>2017-05-24T14:22:36Z</time>
      </trkpt>
      <trkpt lat="43.36762" lon="6.178">
        <ele>473.39999389648</ele>
        <time>2017-05-24T14:22:40Z</time>
      </trkpt>
      <trkpt lat="43.36765" lon="6.17796">
        <ele>473</ele>
        <time>2017-05-24T14:22:41Z</time>
      </trkpt>
      <trkpt lat="43.36768" lon="6.17791">
        <ele>472.20001220703</ele>
        <time>2017-05-24T14:22:42Z</time>
      </trkpt>
      <trkpt lat="43.36775" lon="6.1778">
        <ele>470.60000610352</ele>
        <time>2017-05-24T14:22:45Z</time>
      </trkpt>
      <trkpt lat="43.36789" lon="6.17757">
        <ele>469.60000610352</ele>
        <time>2017-05-24T14:22:51Z</time>
      </trkpt>
      <trkpt lat="43.36798" lon="6.17741">
        <ele>468.39999389648</ele>
        <time>2017-05-24T14:22:55Z</time>
      </trkpt>
      <trkpt lat="43.36806" lon="6.17727">
        <ele>467.39999389648</ele>
        <time>2017-05-24T14:22:58Z</time>
      </trkpt>
      <trkpt lat="43.36814" lon="6.17712">
        <ele>466.39999389648</ele>
        <time>2017-05-24T14:23:01Z</time>
      </trkpt>
      <trkpt lat="43.36816" lon="6.17707">
        <ele>466.39999389648</ele>
        <time>2017-05-24T14:23:02Z</time>
      </trkpt>
      <trkpt lat="43.36834" lon="6.17671">
        <ele>465.20001220703</ele>
        <time>2017-05-24T14:23:09Z</time>
      </trkpt>
      <trkpt lat="43.36839" lon="6.17662">
        <ele>465</ele>
        <time>2017-05-24T14:23:11Z</time>
      </trkpt>
      <trkpt lat="43.36849" lon="6.17648">
        <ele>465.79998779297</ele>
        <time>2017-05-24T14:23:16Z</time>
      </trkpt>
      <trkpt lat="43.36851" lon="6.17644">
        <ele>466.39999389648</ele>
        <time>2017-05-24T14:23:18Z</time>
      </trkpt>
      <trkpt lat="43.36854" lon="6.17638">
        <ele>467</ele>
        <time>2017-05-24T14:23:21Z</time>
      </trkpt>
      <trkpt lat="43.36856" lon="6.17634">
        <ele>467.39999389648</ele>
        <time>2017-05-24T14:23:23Z</time>
      </trkpt>
      <trkpt lat="43.3686" lon="6.1763">
        <ele>468</ele>
        <time>2017-05-24T14:23:26Z</time>
      </trkpt>
      <trkpt lat="43.36862" lon="6.17629">
        <ele>468.60000610352</ele>
        <time>2017-05-24T14:23:28Z</time>
      </trkpt>
      <trkpt lat="43.36865" lon="6.17625">
        <ele>468.79998779297</ele>
        <time>2017-05-24T14:23:31Z</time>
      </trkpt>
      <trkpt lat="43.36868" lon="6.1762">
        <ele>469.79998779297</ele>
        <time>2017-05-24T14:23:34Z</time>
      </trkpt>
      <trkpt lat="43.36873" lon="6.17612">
        <ele>470.20001220703</ele>
        <time>2017-05-24T14:23:41Z</time>
      </trkpt>
      <trkpt lat="43.36874" lon="6.17611">
        <ele>470</ele>
        <time>2017-05-24T14:23:42Z</time>
      </trkpt>
      <trkpt lat="43.36876" lon="6.17608">
        <ele>470.79998779297</ele>
        <time>2017-05-24T14:23:47Z</time>
      </trkpt>
      <trkpt lat="43.36876" lon="6.17608">
        <ele>471</ele>
        <time>2017-05-24T14:23:51Z</time>
      </trkpt>
      <trkpt lat="43.36876" lon="6.17608">
        <ele>471.20001220703</ele>
        <time>2017-05-24T14:24:11Z</time>
      </trkpt>
      <trkpt lat="43.36876" lon="6.17608">
        <ele>471</ele>
        <time>2017-05-24T14:25:11Z</time>
      </trkpt>
      <trkpt lat="43.36877" lon="6.17606">
        <ele>471</ele>
        <time>2017-05-24T14:25:17Z</time>
      </trkpt>
      <trkpt lat="43.36879" lon="6.17603">
        <ele>471</ele>
        <time>2017-05-24T14:25:19Z</time>
      </trkpt>
      <trkpt lat="43.36882" lon="6.17599">
        <ele>471.20001220703</ele>
        <time>2017-05-24T14:25:21Z</time>
      </trkpt>
      <trkpt lat="43.36884" lon="6.17595">
        <ele>472</ele>
        <time>2017-05-24T14:25:23Z</time>
      </trkpt>
      <trkpt lat="43.36891" lon="6.17586">
        <ele>472.20001220703</ele>
        <time>2017-05-24T14:25:28Z</time>
      </trkpt>
      <trkpt lat="43.36894" lon="6.17581">
        <ele>472.60000610352</ele>
        <time>2017-05-24T14:25:31Z</time>
      </trkpt>
      <trkpt lat="43.36898" lon="6.17576">
        <ele>473.20001220703</ele>
        <time>2017-05-24T14:25:34Z</time>
      </trkpt>
      <trkpt lat="43.36906" lon="6.17563">
        <ele>474</ele>
        <time>2017-05-24T14:25:41Z</time>
      </trkpt>
      <trkpt lat="43.36911" lon="6.17556">
        <ele>474.20001220703</ele>
        <time>2017-05-24T14:25:45Z</time>
      </trkpt>
      <trkpt lat="43.36918" lon="6.17547">
        <ele>475.20001220703</ele>
        <time>2017-05-24T14:25:51Z</time>
      </trkpt>
      <trkpt lat="43.36919" lon="6.17546">
        <ele>475.39999389648</ele>
        <time>2017-05-24T14:25:52Z</time>
      </trkpt>
      <trkpt lat="43.36924" lon="6.17539">
        <ele>476</ele>
        <time>2017-05-24T14:25:57Z</time>
      </trkpt>
      <trkpt lat="43.36926" lon="6.17536">
        <ele>476.60000610352</ele>
        <time>2017-05-24T14:25:59Z</time>
      </trkpt>
      <trkpt lat="43.36928" lon="6.17533">
        <ele>476.79998779297</ele>
        <time>2017-05-24T14:26:01Z</time>
      </trkpt>
      <trkpt lat="43.36933" lon="6.17524">
        <ele>477.60000610352</ele>
        <time>2017-05-24T14:26:07Z</time>
      </trkpt>
      <trkpt lat="43.36936" lon="6.17517">
        <ele>477.79998779297</ele>
        <time>2017-05-24T14:26:11Z</time>
      </trkpt>
      <trkpt lat="43.36944" lon="6.17504">
        <ele>478.39999389648</ele>
        <time>2017-05-24T14:26:21Z</time>
      </trkpt>
      <trkpt lat="43.36952" lon="6.1749">
        <ele>479.20001220703</ele>
        <time>2017-05-24T14:26:31Z</time>
      </trkpt>
      <trkpt lat="43.36955" lon="6.17484">
        <ele>479.60000610352</ele>
        <time>2017-05-24T14:26:35Z</time>
      </trkpt>
      <trkpt lat="43.36961" lon="6.17478">
        <ele>480</ele>
        <time>2017-05-24T14:26:41Z</time>
      </trkpt>
      <trkpt lat="43.36966" lon="6.17474">
        <ele>481</ele>
        <time>2017-05-24T14:26:45Z</time>
      </trkpt>
      <trkpt lat="43.36971" lon="6.17469">
        <ele>481.39999389648</ele>
        <time>2017-05-24T14:26:51Z</time>
      </trkpt>
      <trkpt lat="43.36976" lon="6.17468">
        <ele>482</ele>
        <time>2017-05-24T14:26:56Z</time>
      </trkpt>
      <trkpt lat="43.36982" lon="6.17466">
        <ele>482.60000610352</ele>
        <time>2017-05-24T14:27:01Z</time>
      </trkpt>
      <trkpt lat="43.36985" lon="6.17466">
        <ele>483</ele>
        <time>2017-05-24T14:27:04Z</time>
      </trkpt>
      <trkpt lat="43.36992" lon="6.17465">
        <ele>484</ele>
        <time>2017-05-24T14:27:11Z</time>
      </trkpt>
      <trkpt lat="43.36999" lon="6.17465">
        <ele>485.20001220703</ele>
        <time>2017-05-24T14:27:18Z</time>
      </trkpt>
      <trkpt lat="43.37001" lon="6.17465">
        <ele>485.39999389648</ele>
        <time>2017-05-24T14:27:21Z</time>
      </trkpt>
      <trkpt lat="43.37007" lon="6.17467">
        <ele>486.20001220703</ele>
        <time>2017-05-24T14:27:26Z</time>
      </trkpt>
      <trkpt lat="43.37013" lon="6.1747">
        <ele>486.60000610352</ele>
        <time>2017-05-24T14:27:31Z</time>
      </trkpt>
      <trkpt lat="43.37024" lon="6.17477">
        <ele>487</ele>
        <time>2017-05-24T14:27:41Z</time>
      </trkpt>
      <trkpt lat="43.37027" lon="6.1748">
        <ele>487.20001220703</ele>
        <time>2017-05-24T14:27:44Z</time>
      </trkpt>
      <trkpt lat="43.37035" lon="6.17488">
        <ele>487.39999389648</ele>
        <time>2017-05-24T14:27:51Z</time>
      </trkpt>
      <trkpt lat="43.37046" lon="6.17498">
        <ele>487.60000610352</ele>
        <time>2017-05-24T14:27:59Z</time>
      </trkpt>
      <trkpt lat="43.37053" lon="6.17505">
        <ele>487.79998779297</ele>
        <time>2017-05-24T14:28:05Z</time>
      </trkpt>
      <trkpt lat="43.37058" lon="6.1751">
        <ele>487.60000610352</ele>
        <time>2017-05-24T14:28:09Z</time>
      </trkpt>
      <trkpt lat="43.37061" lon="6.17512">
        <ele>487.20001220703</ele>
        <time>2017-05-24T14:28:11Z</time>
      </trkpt>
      <trkpt lat="43.37081" lon="6.17525">
        <ele>486.60000610352</ele>
        <time>2017-05-24T14:28:21Z</time>
      </trkpt>
      <trkpt lat="43.37086" lon="6.17527">
        <ele>486</ele>
        <time>2017-05-24T14:28:23Z</time>
      </trkpt>
      <trkpt lat="43.37094" lon="6.17534">
        <ele>485.79998779297</ele>
        <time>2017-05-24T14:28:30Z</time>
      </trkpt>
      <trkpt lat="43.37095" lon="6.17535">
        <ele>485.79998779297</ele>
        <time>2017-05-24T14:28:31Z</time>
      </trkpt>
      <trkpt lat="43.37098" lon="6.17534">
        <ele>486</ele>
        <time>2017-05-24T14:28:36Z</time>
      </trkpt>
      <trkpt lat="43.37097" lon="6.17534">
        <ele>485.79998779297</ele>
        <time>2017-05-24T14:28:41Z</time>
      </trkpt>
      <trkpt lat="43.37096" lon="6.17534">
        <ele>486.39999389648</ele>
        <time>2017-05-24T14:28:51Z</time>
      </trkpt>
      <trkpt lat="43.37096" lon="6.17532">
        <ele>485.60000610352</ele>
        <time>2017-05-24T14:29:01Z</time>
      </trkpt>
      <trkpt lat="43.37096" lon="6.17532">
        <ele>485.39999389648</ele>
        <time>2017-05-24T14:29:11Z</time>
      </trkpt>
      <trkpt lat="43.37096" lon="6.17534">
        <ele>486.39999389648</ele>
        <time>2017-05-24T14:29:21Z</time>
      </trkpt>
      <trkpt lat="43.37096" lon="6.17533">
        <ele>486.20001220703</ele>
        <time>2017-05-24T14:29:31Z</time>
      </trkpt>
      <trkpt lat="43.37096" lon="6.17534">
        <ele>485.79998779297</ele>
        <time>2017-05-24T14:29:51Z</time>
      </trkpt>
      <trkpt lat="43.37095" lon="6.17535">
        <ele>485.79998779297</ele>
        <time>2017-05-24T14:30:01Z</time>
      </trkpt>
      <trkpt lat="43.37096" lon="6.17535">
        <ele>485.79998779297</ele>
        <time>2017-05-24T14:30:11Z</time>
      </trkpt>
      <trkpt lat="43.37096" lon="6.17536">
        <ele>485.79998779297</ele>
        <time>2017-05-24T14:30:21Z</time>
      </trkpt>
      <trkpt lat="43.37096" lon="6.17535">
        <ele>485.79998779297</ele>
        <time>2017-05-24T14:30:31Z</time>
      </trkpt>
      <trkpt lat="43.37095" lon="6.17535">
        <ele>485.79998779297</ele>
        <time>2017-05-24T14:30:41Z</time>
      </trkpt>
      <trkpt lat="43.37095" lon="6.17535">
        <ele>485.79998779297</ele>
        <time>2017-05-24T14:30:51Z</time>
      </trkpt>
      <trkpt lat="43.37095" lon="6.17536">
        <ele>485.79998779297</ele>
        <time>2017-05-24T14:30:55Z</time>
      </trkpt>
      <trkpt lat="43.37095" lon="6.17536">
        <ele>485.79998779297</ele>
        <time>2017-05-24T14:31:01Z</time>
      </trkpt>
      <trkpt lat="43.37095" lon="6.17536">
        <ele>485.79998779297</ele>
        <time>2017-05-24T14:31:11Z</time>
      </trkpt>
      <trkpt lat="43.37095" lon="6.17536">
        <ele>485.79998779297</ele>
        <time>2017-05-24T14:31:21Z</time>
      </trkpt>
      <trkpt lat="43.37094" lon="6.17536">
        <ele>485.79998779297</ele>
        <time>2017-05-24T14:31:41Z</time>
      </trkpt>
      <trkpt lat="43.37094" lon="6.17536">
        <ele>485.79998779297</ele>
        <time>2017-05-24T14:31:51Z</time>
      </trkpt>
      <trkpt lat="43.37095" lon="6.17535">
        <ele>485.79998779297</ele>
        <time>2017-05-24T14:32:01Z</time>
      </trkpt>
      <trkpt lat="43.37094" lon="6.17535">
        <ele>485.79998779297</ele>
        <time>2017-05-24T14:32:11Z</time>
      </trkpt>
      <trkpt lat="43.37095" lon="6.17535">
        <ele>485.79998779297</ele>
        <time>2017-05-24T14:32:21Z</time>
      </trkpt>
      <trkpt lat="43.37093" lon="6.17536">
        <ele>485.79998779297</ele>
        <time>2017-05-24T14:32:31Z</time>
      </trkpt>
      <trkpt lat="43.37093" lon="6.17536">
        <ele>485.79998779297</ele>
        <time>2017-05-24T14:32:41Z</time>
      </trkpt>
      <trkpt lat="43.37093" lon="6.17536">
        <ele>485.79998779297</ele>
        <time>2017-05-24T14:32:45Z</time>
      </trkpt>
      <trkpt lat="43.37093" lon="6.17535">
        <ele>485.79998779297</ele>
        <time>2017-05-24T14:32:51Z</time>
      </trkpt>
      <trkpt lat="43.37093" lon="6.17535">
        <ele>485.79998779297</ele>
        <time>2017-05-24T14:33:01Z</time>
      </trkpt>
      <trkpt lat="43.37093" lon="6.17535">
        <ele>485.79998779297</ele>
        <time>2017-05-24T14:33:06Z</time>
      </trkpt>
      <trkpt lat="43.37094" lon="6.17536">
        <ele>485.79998779297</ele>
        <time>2017-05-24T14:33:11Z</time>
      </trkpt>
      <trkpt lat="43.37096" lon="6.17535">
        <ele>485.79998779297</ele>
        <time>2017-05-24T14:33:21Z</time>
      </trkpt>
      <trkpt lat="43.37096" lon="6.17535">
        <ele>485.79998779297</ele>
        <time>2017-05-24T14:33:31Z</time>
      </trkpt>
      <trkpt lat="43.37096" lon="6.17536">
        <ele>485.79998779297</ele>
        <time>2017-05-24T14:33:45Z</time>
      </trkpt>
      <trkpt lat="43.37096" lon="6.17536">
        <ele>485.79998779297</ele>
        <time>2017-05-24T14:33:51Z</time>
      </trkpt>
      <trkpt lat="43.37097" lon="6.17538">
        <ele>485.79998779297</ele>
        <time>2017-05-24T14:34:01Z</time>
      </trkpt>
      <trkpt lat="43.37099" lon="6.17543">
        <ele>485.79998779297</ele>
        <time>2017-05-24T14:34:05Z</time>
      </trkpt>
      <trkpt lat="43.37101" lon="6.17554">
        <ele>486.39999389648</ele>
        <time>2017-05-24T14:34:11Z</time>
      </trkpt>
      <trkpt lat="43.371" lon="6.17565">
        <ele>486.79998779297</ele>
        <time>2017-05-24T14:34:17Z</time>
      </trkpt>
      <trkpt lat="43.37099" lon="6.17571">
        <ele>487.39999389648</ele>
        <time>2017-05-24T14:34:21Z</time>
      </trkpt>
      <trkpt lat="43.37099" lon="6.17572">
        <ele>487.60000610352</ele>
        <time>2017-05-24T14:34:22Z</time>
      </trkpt>
      <trkpt lat="43.37099" lon="6.17581">
        <ele>488</ele>
        <time>2017-05-24T14:34:27Z</time>
      </trkpt>
      <trkpt lat="43.37101" lon="6.17584">
        <ele>488.20001220703</ele>
        <time>2017-05-24T14:34:29Z</time>
      </trkpt>
      <trkpt lat="43.37103" lon="6.17591">
        <ele>488.60000610352</ele>
        <time>2017-05-24T14:34:33Z</time>
      </trkpt>
      <trkpt lat="43.37105" lon="6.17598">
        <ele>489.20001220703</ele>
        <time>2017-05-24T14:34:37Z</time>
      </trkpt>
      <trkpt lat="43.37109" lon="6.17604">
        <ele>489.39999389648</ele>
        <time>2017-05-24T14:34:41Z</time>
      </trkpt>
      <trkpt lat="43.37117" lon="6.17618">
        <ele>490.20001220703</ele>
        <time>2017-05-24T14:34:51Z</time>
      </trkpt>
      <trkpt lat="43.3712" lon="6.17627">
        <ele>491.39999389648</ele>
        <time>2017-05-24T14:34:58Z</time>
      </trkpt>
      <trkpt lat="43.3712" lon="6.17634">
        <ele>492.60000610352</ele>
        <time>2017-05-24T14:35:02Z</time>
      </trkpt>
      <trkpt lat="43.37122" lon="6.17643">
        <ele>493.60000610352</ele>
        <time>2017-05-24T14:35:09Z</time>
      </trkpt>
      <trkpt lat="43.37123" lon="6.17645">
        <ele>494.20001220703</ele>
        <time>2017-05-24T14:35:11Z</time>
      </trkpt>
      <trkpt lat="43.37123" lon="6.17648">
        <ele>494.39999389648</ele>
        <time>2017-05-24T14:35:19Z</time>
      </trkpt>
      <trkpt lat="43.37123" lon="6.17649">
        <ele>494.79998779297</ele>
        <time>2017-05-24T14:35:21Z</time>
      </trkpt>
      <trkpt lat="43.37123" lon="6.17648">
        <ele>495</ele>
        <time>2017-05-24T14:35:27Z</time>
      </trkpt>
      <trkpt lat="43.37124" lon="6.1765">
        <ele>495</ele>
        <time>2017-05-24T14:35:31Z</time>
      </trkpt>
      <trkpt lat="43.37125" lon="6.17653">
        <ele>495.79998779297</ele>
        <time>2017-05-24T14:35:34Z</time>
      </trkpt>
      <trkpt lat="43.37127" lon="6.17655">
        <ele>496.39999389648</ele>
        <time>2017-05-24T14:35:41Z</time>
      </trkpt>
      <trkpt lat="43.37128" lon="6.17657">
        <ele>496.79998779297</ele>
        <time>2017-05-24T14:35:47Z</time>
      </trkpt>
      <trkpt lat="43.3713" lon="6.17659">
        <ele>497.20001220703</ele>
        <time>2017-05-24T14:35:51Z</time>
      </trkpt>
      <trkpt lat="43.37132" lon="6.17659">
        <ele>497.60000610352</ele>
        <time>2017-05-24T14:36:01Z</time>
      </trkpt>
      <trkpt lat="43.37132" lon="6.17659">
        <ele>497.79998779297</ele>
        <time>2017-05-24T14:36:08Z</time>
      </trkpt>
      <trkpt lat="43.37132" lon="6.17663">
        <ele>498</ele>
        <time>2017-05-24T14:36:11Z</time>
      </trkpt>
      <trkpt lat="43.37133" lon="6.17668">
        <ele>498.20001220703</ele>
        <time>2017-05-24T14:36:14Z</time>
      </trkpt>
      <trkpt lat="43.37136" lon="6.1767">
        <ele>498.60000610352</ele>
        <time>2017-05-24T14:36:17Z</time>
      </trkpt>
      <trkpt lat="43.37136" lon="6.17671">
        <ele>499</ele>
        <time>2017-05-24T14:36:18Z</time>
      </trkpt>
      <trkpt lat="43.37138" lon="6.17676">
        <ele>499.79998779297</ele>
        <time>2017-05-24T14:36:21Z</time>
      </trkpt>
      <trkpt lat="43.37139" lon="6.17678">
        <ele>500</ele>
        <time>2017-05-24T14:36:22Z</time>
      </trkpt>
      <trkpt lat="43.3714" lon="6.1768">
        <ele>500.79998779297</ele>
        <time>2017-05-24T14:36:28Z</time>
      </trkpt>
      <trkpt lat="43.37141" lon="6.17681">
        <ele>501</ele>
        <time>2017-05-24T14:36:31Z</time>
      </trkpt>
      <trkpt lat="43.37144" lon="6.17684">
        <ele>502</ele>
        <time>2017-05-24T14:36:39Z</time>
      </trkpt>
      <trkpt lat="43.37144" lon="6.17685">
        <ele>502.20001220703</ele>
        <time>2017-05-24T14:36:41Z</time>
      </trkpt>
      <trkpt lat="43.37144" lon="6.17686">
        <ele>502.39999389648</ele>
        <time>2017-05-24T14:36:44Z</time>
      </trkpt>
      <trkpt lat="43.37144" lon="6.17687">
        <ele>502.60000610352</ele>
        <time>2017-05-24T14:36:51Z</time>
      </trkpt>
      <trkpt lat="43.37144" lon="6.17688">
        <ele>503</ele>
        <time>2017-05-24T14:37:01Z</time>
      </trkpt>
      <trkpt lat="43.37144" lon="6.17688">
        <ele>503</ele>
        <time>2017-05-24T14:37:05Z</time>
      </trkpt>
      <trkpt lat="43.37145" lon="6.17689">
        <ele>503</ele>
        <time>2017-05-24T14:37:10Z</time>
      </trkpt>
      <trkpt lat="43.37146" lon="6.1769">
        <ele>503</ele>
        <time>2017-05-24T14:37:11Z</time>
      </trkpt>
      <trkpt lat="43.37146" lon="6.17691">
        <ele>503</ele>
        <time>2017-05-24T14:37:12Z</time>
      </trkpt>
      <trkpt lat="43.37152" lon="6.17697">
        <ele>503.79998779297</ele>
        <time>2017-05-24T14:37:17Z</time>
      </trkpt>
      <trkpt lat="43.37154" lon="6.17698">
        <ele>504.20001220703</ele>
        <time>2017-05-24T14:37:19Z</time>
      </trkpt>
      <trkpt lat="43.37157" lon="6.17698">
        <ele>504.60000610352</ele>
        <time>2017-05-24T14:37:21Z</time>
      </trkpt>
      <trkpt lat="43.37169" lon="6.17696">
        <ele>505.20001220703</ele>
        <time>2017-05-24T14:37:28Z</time>
      </trkpt>
      <trkpt lat="43.37173" lon="6.17697">
        <ele>506.39999389648</ele>
        <time>2017-05-24T14:37:31Z</time>
      </trkpt>
      <trkpt lat="43.37177" lon="6.17699">
        <ele>507.39999389648</ele>
        <time>2017-05-24T14:37:34Z</time>
      </trkpt>
      <trkpt lat="43.37182" lon="6.17701">
        <ele>508.60000610352</ele>
        <time>2017-05-24T14:37:38Z</time>
      </trkpt>
      <trkpt lat="43.37185" lon="6.17703">
        <ele>509.60000610352</ele>
        <time>2017-05-24T14:37:41Z</time>
      </trkpt>
      <trkpt lat="43.3719" lon="6.17704">
        <ele>510.79998779297</ele>
        <time>2017-05-24T14:37:46Z</time>
      </trkpt>
      <trkpt lat="43.37192" lon="6.17706">
        <ele>511.39999389648</ele>
        <time>2017-05-24T14:37:49Z</time>
      </trkpt>
      <trkpt lat="43.37193" lon="6.17708">
        <ele>511.79998779297</ele>
        <time>2017-05-24T14:37:51Z</time>
      </trkpt>
      <trkpt lat="43.37195" lon="6.17708">
        <ele>512</ele>
        <time>2017-05-24T14:37:53Z</time>
      </trkpt>
      <trkpt lat="43.372" lon="6.17709">
        <ele>512.79998779297</ele>
        <time>2017-05-24T14:37:58Z</time>
      </trkpt>
      <trkpt lat="43.37202" lon="6.17711">
        <ele>512.79998779297</ele>
        <time>2017-05-24T14:38:01Z</time>
      </trkpt>
      <trkpt lat="43.37203" lon="6.17711">
        <ele>513</ele>
        <time>2017-05-24T14:38:02Z</time>
      </trkpt>
      <trkpt lat="43.3721" lon="6.17715">
        <ele>514</ele>
        <time>2017-05-24T14:38:11Z</time>
      </trkpt>
      <trkpt lat="43.37209" lon="6.17714">
        <ele>514.79998779297</ele>
        <time>2017-05-24T14:38:17Z</time>
      </trkpt>
      <trkpt lat="43.3721" lon="6.17714">
        <ele>515</ele>
        <time>2017-05-24T14:38:21Z</time>
      </trkpt>
      <trkpt lat="43.37209" lon="6.17714">
        <ele>515.20001220703</ele>
        <time>2017-05-24T14:38:27Z</time>
      </trkpt>
      <trkpt lat="43.37209" lon="6.17713">
        <ele>515.20001220703</ele>
        <time>2017-05-24T14:38:31Z</time>
      </trkpt>
      <trkpt lat="43.37209" lon="6.17713">
        <ele>515.40002441406</ele>
        <time>2017-05-24T14:38:36Z</time>
      </trkpt>
      <trkpt lat="43.3721" lon="6.17713">
        <ele>515.40002441406</ele>
        <time>2017-05-24T14:38:38Z</time>
      </trkpt>
      <trkpt lat="43.3721" lon="6.17713">
        <ele>515.59997558594</ele>
        <time>2017-05-24T14:38:40Z</time>
      </trkpt>
      <trkpt lat="43.37209" lon="6.17713">
        <ele>515.40002441406</ele>
        <time>2017-05-24T14:38:48Z</time>
      </trkpt>
      <trkpt lat="43.37209" lon="6.17713">
        <ele>515</ele>
        <time>2017-05-24T14:38:51Z</time>
      </trkpt>
      <trkpt lat="43.37209" lon="6.17713">
        <ele>515</ele>
        <time>2017-05-24T14:39:01Z</time>
      </trkpt>
      <trkpt lat="43.37209" lon="6.17713">
        <ele>515.59997558594</ele>
        <time>2017-05-24T14:39:20Z</time>
      </trkpt>
      <trkpt lat="43.37209" lon="6.17714">
        <ele>515.40002441406</ele>
        <time>2017-05-24T14:39:31Z</time>
      </trkpt>
      <trkpt lat="43.37209" lon="6.17714">
        <ele>515.59997558594</ele>
        <time>2017-05-24T14:39:35Z</time>
      </trkpt>
      <trkpt lat="43.3721" lon="6.17715">
        <ele>515.59997558594</ele>
        <time>2017-05-24T14:39:38Z</time>
      </trkpt>
      <trkpt lat="43.3721" lon="6.17715">
        <ele>515.59997558594</ele>
        <time>2017-05-24T14:39:41Z</time>
      </trkpt>
      <trkpt lat="43.37209" lon="6.17715">
        <ele>516</ele>
        <time>2017-05-24T14:39:53Z</time>
      </trkpt>
      <trkpt lat="43.37209" lon="6.17715">
        <ele>516</ele>
        <time>2017-05-24T14:39:58Z</time>
      </trkpt>
      <trkpt lat="43.37209" lon="6.17715">
        <ele>515.79998779297</ele>
        <time>2017-05-24T14:40:21Z</time>
      </trkpt>
      <trkpt lat="43.3721" lon="6.17716">
        <ele>515.79998779297</ele>
        <time>2017-05-24T14:40:31Z</time>
      </trkpt>
      <trkpt lat="43.37212" lon="6.17718">
        <ele>515.79998779297</ele>
        <time>2017-05-24T14:40:36Z</time>
      </trkpt>
      <trkpt lat="43.37214" lon="6.17721">
        <ele>516.40002441406</ele>
        <time>2017-05-24T14:40:38Z</time>
      </trkpt>
      <trkpt lat="43.37215" lon="6.17723">
        <ele>517.59997558594</ele>
        <time>2017-05-24T14:40:40Z</time>
      </trkpt>
      <trkpt lat="43.37217" lon="6.17724">
        <ele>517.40002441406</ele>
        <time>2017-05-24T14:40:41Z</time>
      </trkpt>
      <trkpt lat="43.37219" lon="6.17728">
        <ele>518.40002441406</ele>
        <time>2017-05-24T14:40:44Z</time>
      </trkpt>
      <trkpt lat="43.37222" lon="6.17732">
        <ele>518.79998779297</ele>
        <time>2017-05-24T14:40:47Z</time>
      </trkpt>
      <trkpt lat="43.37225" lon="6.17738">
        <ele>519.59997558594</ele>
        <time>2017-05-24T14:40:51Z</time>
      </trkpt>
      <trkpt lat="43.37226" lon="6.17739">
        <ele>520</ele>
        <time>2017-05-24T14:40:52Z</time>
      </trkpt>
      <trkpt lat="43.37227" lon="6.17744">
        <ele>521</ele>
        <time>2017-05-24T14:40:55Z</time>
      </trkpt>
      <trkpt lat="43.37228" lon="6.17749">
        <ele>521.59997558594</ele>
        <time>2017-05-24T14:40:58Z</time>
      </trkpt>
      <trkpt lat="43.37228" lon="6.17752">
        <ele>522.20001220703</ele>
        <time>2017-05-24T14:41:00Z</time>
      </trkpt>
      <trkpt lat="43.37228" lon="6.17754">
        <ele>522.59997558594</ele>
        <time>2017-05-24T14:41:01Z</time>
      </trkpt>
      <trkpt lat="43.37228" lon="6.17757">
        <ele>523.20001220703</ele>
        <time>2017-05-24T14:41:04Z</time>
      </trkpt>
      <trkpt lat="43.37228" lon="6.17767">
        <ele>524.20001220703</ele>
        <time>2017-05-24T14:41:13Z</time>
      </trkpt>
      <trkpt lat="43.37227" lon="6.17777">
        <ele>525.20001220703</ele>
        <time>2017-05-24T14:41:21Z</time>
      </trkpt>
      <trkpt lat="43.37226" lon="6.17779">
        <ele>525.40002441406</ele>
        <time>2017-05-24T14:41:22Z</time>
      </trkpt>
      <trkpt lat="43.37225" lon="6.17786">
        <ele>526.40002441406</ele>
        <time>2017-05-24T14:41:27Z</time>
      </trkpt>
      <trkpt lat="43.37224" lon="6.17787">
        <ele>526.59997558594</ele>
        <time>2017-05-24T14:41:28Z</time>
      </trkpt>
      <trkpt lat="43.37223" lon="6.1779">
        <ele>527</ele>
        <time>2017-05-24T14:41:31Z</time>
      </trkpt>
      <trkpt lat="43.37223" lon="6.17789">
        <ele>527</ele>
        <time>2017-05-24T14:41:38Z</time>
      </trkpt>
      <trkpt lat="43.37223" lon="6.17789">
        <ele>526.79998779297</ele>
        <time>2017-05-24T14:41:41Z</time>
      </trkpt>
      <trkpt lat="43.37222" lon="6.1779">
        <ele>527.40002441406</ele>
        <time>2017-05-24T14:41:47Z</time>
      </trkpt>
      <trkpt lat="43.37222" lon="6.17793">
        <ele>527.79998779297</ele>
        <time>2017-05-24T14:41:51Z</time>
      </trkpt>
      <trkpt lat="43.3722" lon="6.17795">
        <ele>528</ele>
        <time>2017-05-24T14:41:55Z</time>
      </trkpt>
      <trkpt lat="43.3722" lon="6.17798">
        <ele>528.40002441406</ele>
        <time>2017-05-24T14:41:59Z</time>
      </trkpt>
      <trkpt lat="43.37219" lon="6.17798">
        <ele>528.59997558594</ele>
        <time>2017-05-24T14:42:00Z</time>
      </trkpt>
      <trkpt lat="43.37219" lon="6.17799">
        <ele>528.59997558594</ele>
        <time>2017-05-24T14:42:01Z</time>
      </trkpt>
      <trkpt lat="43.37219" lon="6.17799">
        <ele>529</ele>
        <time>2017-05-24T14:42:04Z</time>
      </trkpt>
      <trkpt lat="43.37219" lon="6.17799">
        <ele>529.20001220703</ele>
        <time>2017-05-24T14:42:07Z</time>
      </trkpt>
      <trkpt lat="43.37218" lon="6.17802">
        <ele>529.40002441406</ele>
        <time>2017-05-24T14:42:11Z</time>
      </trkpt>
      <trkpt lat="43.37217" lon="6.17803">
        <ele>529.59997558594</ele>
        <time>2017-05-24T14:42:12Z</time>
      </trkpt>
      <trkpt lat="43.37214" lon="6.1781">
        <ele>530.59997558594</ele>
        <time>2017-05-24T14:42:22Z</time>
      </trkpt>
      <trkpt lat="43.37207" lon="6.17818">
        <ele>532.59997558594</ele>
        <time>2017-05-24T14:42:41Z</time>
      </trkpt>
      <trkpt lat="43.37206" lon="6.1782">
        <ele>532.79998779297</ele>
        <time>2017-05-24T14:42:44Z</time>
      </trkpt>
      <trkpt lat="43.37203" lon="6.17823">
        <ele>533.79998779297</ele>
        <time>2017-05-24T14:42:51Z</time>
      </trkpt>
      <trkpt lat="43.372" lon="6.17824">
        <ele>535</ele>
        <time>2017-05-24T14:42:58Z</time>
      </trkpt>
      <trkpt lat="43.37199" lon="6.17826">
        <ele>535.40002441406</ele>
        <time>2017-05-24T14:43:01Z</time>
      </trkpt>
      <trkpt lat="43.37198" lon="6.17827">
        <ele>535.59997558594</ele>
        <time>2017-05-24T14:43:11Z</time>
      </trkpt>
      <trkpt lat="43.37198" lon="6.17827">
        <ele>535.59997558594</ele>
        <time>2017-05-24T14:43:21Z</time>
      </trkpt>
      <trkpt lat="43.37198" lon="6.17827">
        <ele>535.79998779297</ele>
        <time>2017-05-24T14:43:28Z</time>
      </trkpt>
      <trkpt lat="43.37198" lon="6.17827">
        <ele>535.40002441406</ele>
        <time>2017-05-24T14:43:31Z</time>
      </trkpt>
      <trkpt lat="43.37199" lon="6.17828">
        <ele>534.79998779297</ele>
        <time>2017-05-24T14:43:44Z</time>
      </trkpt>
      <trkpt lat="43.37199" lon="6.17828">
        <ele>534.79998779297</ele>
        <time>2017-05-24T14:43:51Z</time>
      </trkpt>
      <trkpt lat="43.37199" lon="6.17828">
        <ele>534.79998779297</ele>
        <time>2017-05-24T14:44:01Z</time>
      </trkpt>
      <trkpt lat="43.37199" lon="6.17828">
        <ele>534.20001220703</ele>
        <time>2017-05-24T14:44:11Z</time>
      </trkpt>
      <trkpt lat="43.37199" lon="6.17828">
        <ele>534.40002441406</ele>
        <time>2017-05-24T14:44:26Z</time>
      </trkpt>
      <trkpt lat="43.37199" lon="6.17828">
        <ele>534.40002441406</ele>
        <time>2017-05-24T14:44:31Z</time>
      </trkpt>
      <trkpt lat="43.37199" lon="6.17828">
        <ele>534.40002441406</ele>
        <time>2017-05-24T14:44:34Z</time>
      </trkpt>
      <trkpt lat="43.37198" lon="6.17827">
        <ele>534.59997558594</ele>
        <time>2017-05-24T14:44:38Z</time>
      </trkpt>
      <trkpt lat="43.37198" lon="6.17827">
        <ele>535.20001220703</ele>
        <time>2017-05-24T14:44:41Z</time>
      </trkpt>
      <trkpt lat="43.37197" lon="6.17828">
        <ele>535.20001220703</ele>
        <time>2017-05-24T14:44:51Z</time>
      </trkpt>
      <trkpt lat="43.37197" lon="6.17828">
        <ele>535.20001220703</ele>
        <time>2017-05-24T14:45:11Z</time>
      </trkpt>
      <trkpt lat="43.37197" lon="6.17829">
        <ele>535.20001220703</ele>
        <time>2017-05-24T14:45:51Z</time>
      </trkpt>
      <trkpt lat="43.37197" lon="6.17829">
        <ele>535.20001220703</ele>
        <time>2017-05-24T14:46:01Z</time>
      </trkpt>
      <trkpt lat="43.37197" lon="6.17829">
        <ele>535.20001220703</ele>
        <time>2017-05-24T14:46:11Z</time>
      </trkpt>
      <trkpt lat="43.37197" lon="6.17829">
        <ele>535.20001220703</ele>
        <time>2017-05-24T14:46:21Z</time>
      </trkpt>
      <trkpt lat="43.37196" lon="6.17829">
        <ele>535.20001220703</ele>
        <time>2017-05-24T14:46:26Z</time>
      </trkpt>
      <trkpt lat="43.37196" lon="6.17829">
        <ele>535.20001220703</ele>
        <time>2017-05-24T14:46:31Z</time>
      </trkpt>
      <trkpt lat="43.37196" lon="6.1783">
        <ele>535.20001220703</ele>
        <time>2017-05-24T14:46:39Z</time>
      </trkpt>
      <trkpt lat="43.37196" lon="6.1783">
        <ele>535.20001220703</ele>
        <time>2017-05-24T14:46:41Z</time>
      </trkpt>
      <trkpt lat="43.37196" lon="6.17828">
        <ele>535.20001220703</ele>
        <time>2017-05-24T14:46:49Z</time>
      </trkpt>
      <trkpt lat="43.37196" lon="6.17828">
        <ele>535.20001220703</ele>
        <time>2017-05-24T14:46:55Z</time>
      </trkpt>
      <trkpt lat="43.37196" lon="6.17828">
        <ele>535.20001220703</ele>
        <time>2017-05-24T14:47:01Z</time>
      </trkpt>
      <trkpt lat="43.37196" lon="6.17828">
        <ele>535.20001220703</ele>
        <time>2017-05-24T14:47:11Z</time>
      </trkpt>
      <trkpt lat="43.37195" lon="6.17828">
        <ele>535.20001220703</ele>
        <time>2017-05-24T14:47:21Z</time>
      </trkpt>
      <trkpt lat="43.37196" lon="6.17828">
        <ele>535.20001220703</ele>
        <time>2017-05-24T14:47:28Z</time>
      </trkpt>
      <trkpt lat="43.37196" lon="6.17828">
        <ele>535.20001220703</ele>
        <time>2017-05-24T14:47:31Z</time>
      </trkpt>
      <trkpt lat="43.37196" lon="6.17828">
        <ele>535.20001220703</ele>
        <time>2017-05-24T14:47:39Z</time>
      </trkpt>
      <trkpt lat="43.37195" lon="6.17828">
        <ele>535.20001220703</ele>
        <time>2017-05-24T14:47:51Z</time>
      </trkpt>
      <trkpt lat="43.37196" lon="6.17827">
        <ele>535.20001220703</ele>
        <time>2017-05-24T14:48:01Z</time>
      </trkpt>
      <trkpt lat="43.37196" lon="6.17826">
        <ele>535.20001220703</ele>
        <time>2017-05-24T14:48:11Z</time>
      </trkpt>
      <trkpt lat="43.37195" lon="6.17826">
        <ele>535.20001220703</ele>
        <time>2017-05-24T14:48:21Z</time>
      </trkpt>
      <trkpt lat="43.37195" lon="6.17824">
        <ele>535.20001220703</ele>
        <time>2017-05-24T14:48:26Z</time>
      </trkpt>
      <trkpt lat="43.37196" lon="6.17819">
        <ele>535.20001220703</ele>
        <time>2017-05-24T14:48:28Z</time>
      </trkpt>
      <trkpt lat="43.37196" lon="6.17814">
        <ele>536.59997558594</ele>
        <time>2017-05-24T14:48:30Z</time>
      </trkpt>
      <trkpt lat="43.37195" lon="6.17812">
        <ele>536.40002441406</ele>
        <time>2017-05-24T14:48:31Z</time>
      </trkpt>
      <trkpt lat="43.37193" lon="6.17809">
        <ele>537.40002441406</ele>
        <time>2017-05-24T14:48:33Z</time>
      </trkpt>
      <trkpt lat="43.37192" lon="6.17809">
        <ele>537.40002441406</ele>
        <time>2017-05-24T14:48:34Z</time>
      </trkpt>
      <trkpt lat="43.37192" lon="6.17808">
        <ele>537.20001220703</ele>
        <time>2017-05-24T14:48:36Z</time>
      </trkpt>
      <trkpt lat="43.37191" lon="6.17808">
        <ele>537.40002441406</ele>
        <time>2017-05-24T14:48:39Z</time>
      </trkpt>
      <trkpt lat="43.37192" lon="6.17808">
        <ele>537.20001220703</ele>
        <time>2017-05-24T14:48:41Z</time>
      </trkpt>
      <trkpt lat="43.37194" lon="6.17813">
        <ele>536.79998779297</ele>
        <time>2017-05-24T14:48:51Z</time>
      </trkpt>
      <trkpt lat="43.37196" lon="6.17819">
        <ele>536.40002441406</ele>
        <time>2017-05-24T14:48:53Z</time>
      </trkpt>
      <trkpt lat="43.37194" lon="6.17827">
        <ele>535.59997558594</ele>
        <time>2017-05-24T14:48:56Z</time>
      </trkpt>
      <trkpt lat="43.37194" lon="6.17828">
        <ele>535</ele>
        <time>2017-05-24T14:48:57Z</time>
      </trkpt>
      <trkpt lat="43.37194" lon="6.17831">
        <ele>534.59997558594</ele>
        <time>2017-05-24T14:49:00Z</time>
      </trkpt>
      <trkpt lat="43.37194" lon="6.17832">
        <ele>534.40002441406</ele>
        <time>2017-05-24T14:49:01Z</time>
      </trkpt>
      <trkpt lat="43.37194" lon="6.17832">
        <ele>534.40002441406</ele>
        <time>2017-05-24T14:49:11Z</time>
      </trkpt>
      <trkpt lat="43.37194" lon="6.17832">
        <ele>534</ele>
        <time>2017-05-24T14:49:21Z</time>
      </trkpt>
      <trkpt lat="43.37194" lon="6.17832">
        <ele>534.20001220703</ele>
        <time>2017-05-24T14:49:35Z</time>
      </trkpt>
      <trkpt lat="43.37194" lon="6.17832">
        <ele>534</ele>
        <time>2017-05-24T14:49:44Z</time>
      </trkpt>
      <trkpt lat="43.37194" lon="6.17832">
        <ele>534</ele>
        <time>2017-05-24T14:49:47Z</time>
      </trkpt>
      <trkpt lat="43.37194" lon="6.17832">
        <ele>534</ele>
        <time>2017-05-24T14:49:51Z</time>
      </trkpt>
      <trkpt lat="43.37194" lon="6.17832">
        <ele>534.20001220703</ele>
        <time>2017-05-24T14:49:54Z</time>
      </trkpt>
      <trkpt lat="43.37194" lon="6.17835">
        <ele>534.20001220703</ele>
        <time>2017-05-24T14:50:00Z</time>
      </trkpt>
      <trkpt lat="43.37192" lon="6.17839">
        <ele>534</ele>
        <time>2017-05-24T14:50:04Z</time>
      </trkpt>
      <trkpt lat="43.37191" lon="6.17847">
        <ele>533.40002441406</ele>
        <time>2017-05-24T14:50:09Z</time>
      </trkpt>
      <trkpt lat="43.3719" lon="6.17852">
        <ele>532.59997558594</ele>
        <time>2017-05-24T14:50:11Z</time>
      </trkpt>
      <trkpt lat="43.37189" lon="6.17854">
        <ele>531.79998779297</ele>
        <time>2017-05-24T14:50:12Z</time>
      </trkpt>
      <trkpt lat="43.37187" lon="6.17857">
        <ele>530</ele>
        <time>2017-05-24T14:50:14Z</time>
      </trkpt>
      <trkpt lat="43.37185" lon="6.17859">
        <ele>529</ele>
        <time>2017-05-24T14:50:16Z</time>
      </trkpt>
      <trkpt lat="43.37183" lon="6.17859">
        <ele>528</ele>
        <time>2017-05-24T14:50:21Z</time>
      </trkpt>
      <trkpt lat="43.37182" lon="6.1786">
        <ele>527.79998779297</ele>
        <time>2017-05-24T14:50:29Z</time>
      </trkpt>
      <trkpt lat="43.37182" lon="6.1786">
        <ele>527.79998779297</ele>
        <time>2017-05-24T14:50:31Z</time>
      </trkpt>
      <trkpt lat="43.37182" lon="6.1786">
        <ele>527.79998779297</ele>
        <time>2017-05-24T14:50:33Z</time>
      </trkpt>
      <trkpt lat="43.37182" lon="6.17861">
        <ele>527.79998779297</ele>
        <time>2017-05-24T14:50:36Z</time>
      </trkpt>
      <trkpt lat="43.37181" lon="6.17861">
        <ele>528.20001220703</ele>
        <time>2017-05-24T14:50:41Z</time>
      </trkpt>
      <trkpt lat="43.37181" lon="6.1786">
        <ele>528.40002441406</ele>
        <time>2017-05-24T14:50:51Z</time>
      </trkpt>
      <trkpt lat="43.37181" lon="6.1786">
        <ele>528</ele>
        <time>2017-05-24T14:51:01Z</time>
      </trkpt>
      <trkpt lat="43.37181" lon="6.17861">
        <ele>527.79998779297</ele>
        <time>2017-05-24T14:51:11Z</time>
      </trkpt>
      <trkpt lat="43.37181" lon="6.17861">
        <ele>527.59997558594</ele>
        <time>2017-05-24T14:51:21Z</time>
      </trkpt>
      <trkpt lat="43.37179" lon="6.17864">
        <ele>528.20001220703</ele>
        <time>2017-05-24T14:51:26Z</time>
      </trkpt>
      <trkpt lat="43.37176" lon="6.1787">
        <ele>528</ele>
        <time>2017-05-24T14:51:28Z</time>
      </trkpt>
      <trkpt lat="43.37172" lon="6.1788">
        <ele>526.20001220703</ele>
        <time>2017-05-24T14:51:30Z</time>
      </trkpt>
      <trkpt lat="43.3717" lon="6.17886">
        <ele>525</ele>
        <time>2017-05-24T14:51:31Z</time>
      </trkpt>
      <trkpt lat="43.37165" lon="6.17899">
        <ele>524.59997558594</ele>
        <time>2017-05-24T14:51:34Z</time>
      </trkpt>
      <trkpt lat="43.37162" lon="6.17905">
        <ele>524.20001220703</ele>
        <time>2017-05-24T14:51:39Z</time>
      </trkpt>
      <trkpt lat="43.37162" lon="6.17907">
        <ele>524.20001220703</ele>
        <time>2017-05-24T14:51:41Z</time>
      </trkpt>
      <trkpt lat="43.37161" lon="6.17909">
        <ele>524</ele>
        <time>2017-05-24T14:51:42Z</time>
      </trkpt>
      <trkpt lat="43.37163" lon="6.1792">
        <ele>523</ele>
        <time>2017-05-24T14:51:47Z</time>
      </trkpt>
      <trkpt lat="43.37163" lon="6.17923">
        <ele>521.79998779297</ele>
        <time>2017-05-24T14:51:49Z</time>
      </trkpt>
      <trkpt lat="43.37162" lon="6.17925">
        <ele>521.20001220703</ele>
        <time>2017-05-24T14:51:50Z</time>
      </trkpt>
      <trkpt lat="43.37161" lon="6.17927">
        <ele>520.79998779297</ele>
        <time>2017-05-24T14:51:51Z</time>
      </trkpt>
      <trkpt lat="43.37157" lon="6.17933">
        <ele>519.79998779297</ele>
        <time>2017-05-24T14:51:54Z</time>
      </trkpt>
      <trkpt lat="43.37153" lon="6.17939">
        <ele>518.59997558594</ele>
        <time>2017-05-24T14:51:56Z</time>
      </trkpt>
      <trkpt lat="43.37152" lon="6.17947">
        <ele>517.40002441406</ele>
        <time>2017-05-24T14:51:58Z</time>
      </trkpt>
      <trkpt lat="43.37153" lon="6.17951">
        <ele>517</ele>
        <time>2017-05-24T14:51:59Z</time>
      </trkpt>
      <trkpt lat="43.37153" lon="6.17955">
        <ele>516.59997558594</ele>
        <time>2017-05-24T14:52:01Z</time>
      </trkpt>
      <trkpt lat="43.37153" lon="6.17955">
        <ele>516.40002441406</ele>
        <time>2017-05-24T14:52:03Z</time>
      </trkpt>
      <trkpt lat="43.37155" lon="6.17961">
        <ele>515.59997558594</ele>
        <time>2017-05-24T14:52:10Z</time>
      </trkpt>
      <trkpt lat="43.37156" lon="6.17962">
        <ele>515.40002441406</ele>
        <time>2017-05-24T14:52:11Z</time>
      </trkpt>
      <trkpt lat="43.3716" lon="6.17966">
        <ele>514.20001220703</ele>
        <time>2017-05-24T14:52:15Z</time>
      </trkpt>
      <trkpt lat="43.37163" lon="6.17972">
        <ele>513.20001220703</ele>
        <time>2017-05-24T14:52:18Z</time>
      </trkpt>
      <trkpt lat="43.37164" lon="6.17975">
        <ele>512</ele>
        <time>2017-05-24T14:52:20Z</time>
      </trkpt>
      <trkpt lat="43.37164" lon="6.17976">
        <ele>511.39999389648</ele>
        <time>2017-05-24T14:52:21Z</time>
      </trkpt>
      <trkpt lat="43.37162" lon="6.1798">
        <ele>510.79998779297</ele>
        <time>2017-05-24T14:52:23Z</time>
      </trkpt>
      <trkpt lat="43.3716" lon="6.17986">
        <ele>510.20001220703</ele>
        <time>2017-05-24T14:52:26Z</time>
      </trkpt>
      <trkpt lat="43.3716" lon="6.1799">
        <ele>510.20001220703</ele>
        <time>2017-05-24T14:52:31Z</time>
      </trkpt>
      <trkpt lat="43.3716" lon="6.17993">
        <ele>510.20001220703</ele>
        <time>2017-05-24T14:52:35Z</time>
      </trkpt>
      <trkpt lat="43.37159" lon="6.18">
        <ele>509.79998779297</ele>
        <time>2017-05-24T14:52:38Z</time>
      </trkpt>
      <trkpt lat="43.37159" lon="6.18003">
        <ele>509.60000610352</ele>
        <time>2017-05-24T14:52:39Z</time>
      </trkpt>
      <trkpt lat="43.37159" lon="6.18012">
        <ele>509.39999389648</ele>
        <time>2017-05-24T14:52:41Z</time>
      </trkpt>
      <trkpt lat="43.37159" lon="6.18019">
        <ele>508.39999389648</ele>
        <time>2017-05-24T14:52:43Z</time>
      </trkpt>
      <trkpt lat="43.37158" lon="6.18026">
        <ele>507.20001220703</ele>
        <time>2017-05-24T14:52:47Z</time>
      </trkpt>
      <trkpt lat="43.37154" lon="6.18035">
        <ele>507</ele>
        <time>2017-05-24T14:52:51Z</time>
      </trkpt>
      <trkpt lat="43.37157" lon="6.18063">
        <ele>506.20001220703</ele>
        <time>2017-05-24T14:52:58Z</time>
      </trkpt>
      <trkpt lat="43.37157" lon="6.18077">
        <ele>504.79998779297</ele>
        <time>2017-05-24T14:53:03Z</time>
      </trkpt>
      <trkpt lat="43.37162" lon="6.18096">
        <ele>503.79998779297</ele>
        <time>2017-05-24T14:53:08Z</time>
      </trkpt>
      <trkpt lat="43.37167" lon="6.18108">
        <ele>503</ele>
        <time>2017-05-24T14:53:11Z</time>
      </trkpt>
      <trkpt lat="43.3717" lon="6.18121">
        <ele>500.79998779297</ele>
        <time>2017-05-24T14:53:15Z</time>
      </trkpt>
      <trkpt lat="43.3717" lon="6.18128">
        <ele>499.60000610352</ele>
        <time>2017-05-24T14:53:17Z</time>
      </trkpt>
      <trkpt lat="43.3717" lon="6.18137">
        <ele>499</ele>
        <time>2017-05-24T14:53:19Z</time>
      </trkpt>
      <trkpt lat="43.37169" lon="6.18146">
        <ele>498.39999389648</ele>
        <time>2017-05-24T14:53:21Z</time>
      </trkpt>
      <trkpt lat="43.37166" lon="6.18171">
        <ele>497.60000610352</ele>
        <time>2017-05-24T14:53:28Z</time>
      </trkpt>
      <trkpt lat="43.37165" lon="6.18179">
        <ele>497.20001220703</ele>
        <time>2017-05-24T14:53:30Z</time>
      </trkpt>
      <trkpt lat="43.37163" lon="6.18182">
        <ele>497</ele>
        <time>2017-05-24T14:53:31Z</time>
      </trkpt>
      <trkpt lat="43.37156" lon="6.18209">
        <ele>496.39999389648</ele>
        <time>2017-05-24T14:53:39Z</time>
      </trkpt>
      <trkpt lat="43.37156" lon="6.18213">
        <ele>496.20001220703</ele>
        <time>2017-05-24T14:53:40Z</time>
      </trkpt>
      <trkpt lat="43.37155" lon="6.18217">
        <ele>496</ele>
        <time>2017-05-24T14:53:41Z</time>
      </trkpt>
      <trkpt lat="43.37152" lon="6.18229">
        <ele>495.20001220703</ele>
        <time>2017-05-24T14:53:44Z</time>
      </trkpt>
      <trkpt lat="43.37149" lon="6.1824">
        <ele>493.79998779297</ele>
        <time>2017-05-24T14:53:47Z</time>
      </trkpt>
      <trkpt lat="43.37147" lon="6.18252">
        <ele>492.60000610352</ele>
        <time>2017-05-24T14:53:50Z</time>
      </trkpt>
      <trkpt lat="43.37147" lon="6.18255">
        <ele>492</ele>
        <time>2017-05-24T14:53:51Z</time>
      </trkpt>
      <trkpt lat="43.37147" lon="6.18258">
        <ele>491.39999389648</ele>
        <time>2017-05-24T14:53:52Z</time>
      </trkpt>
      <trkpt lat="43.37146" lon="6.18269">
        <ele>490</ele>
        <time>2017-05-24T14:53:55Z</time>
      </trkpt>
      <trkpt lat="43.37141" lon="6.18281">
        <ele>489</ele>
        <time>2017-05-24T14:53:58Z</time>
      </trkpt>
      <trkpt lat="43.37138" lon="6.18292">
        <ele>488.20001220703</ele>
        <time>2017-05-24T14:54:00Z</time>
      </trkpt>
      <trkpt lat="43.37139" lon="6.18296">
        <ele>487.79998779297</ele>
        <time>2017-05-24T14:54:01Z</time>
      </trkpt>
      <trkpt lat="43.37142" lon="6.18308">
        <ele>486.60000610352</ele>
        <time>2017-05-24T14:54:05Z</time>
      </trkpt>
      <trkpt lat="43.37145" lon="6.18326">
        <ele>484.39999389648</ele>
        <time>2017-05-24T14:54:10Z</time>
      </trkpt>
      <trkpt lat="43.37148" lon="6.18334">
        <ele>483</ele>
        <time>2017-05-24T14:54:13Z</time>
      </trkpt>
      <trkpt lat="43.37148" lon="6.18338">
        <ele>482.60000610352</ele>
        <time>2017-05-24T14:54:14Z</time>
      </trkpt>
      <trkpt lat="43.37149" lon="6.18351">
        <ele>480.39999389648</ele>
        <time>2017-05-24T14:54:18Z</time>
      </trkpt>
      <trkpt lat="43.3715" lon="6.18358">
        <ele>479.39999389648</ele>
        <time>2017-05-24T14:54:20Z</time>
      </trkpt>
      <trkpt lat="43.37149" lon="6.18362">
        <ele>479.20001220703</ele>
        <time>2017-05-24T14:54:21Z</time>
      </trkpt>
      <trkpt lat="43.3715" lon="6.18368">
        <ele>478</ele>
        <time>2017-05-24T14:54:23Z</time>
      </trkpt>
      <trkpt lat="43.37152" lon="6.18373">
        <ele>476.79998779297</ele>
        <time>2017-05-24T14:54:25Z</time>
      </trkpt>
      <trkpt lat="43.37152" lon="6.18385">
        <ele>475.39999389648</ele>
        <time>2017-05-24T14:54:28Z</time>
      </trkpt>
      <trkpt lat="43.37153" lon="6.18395">
        <ele>474</ele>
        <time>2017-05-24T14:54:31Z</time>
      </trkpt>
      <trkpt lat="43.37153" lon="6.18402">
        <ele>473</ele>
        <time>2017-05-24T14:54:33Z</time>
      </trkpt>
      <trkpt lat="43.37152" lon="6.18411">
        <ele>471.79998779297</ele>
        <time>2017-05-24T14:54:35Z</time>
      </trkpt>
      <trkpt lat="43.37152" lon="6.18417">
        <ele>470.60000610352</ele>
        <time>2017-05-24T14:54:37Z</time>
      </trkpt>
      <trkpt lat="43.37152" lon="6.18423">
        <ele>469.79998779297</ele>
        <time>2017-05-24T14:54:39Z</time>
      </trkpt>
      <trkpt lat="43.37152" lon="6.18426">
        <ele>469.39999389648</ele>
        <time>2017-05-24T14:54:40Z</time>
      </trkpt>
      <trkpt lat="43.37152" lon="6.18428">
        <ele>469.20001220703</ele>
        <time>2017-05-24T14:54:41Z</time>
      </trkpt>
      <trkpt lat="43.37152" lon="6.18442">
        <ele>468.20001220703</ele>
        <time>2017-05-24T14:54:45Z</time>
      </trkpt>
      <trkpt lat="43.37151" lon="6.18453">
        <ele>466.60000610352</ele>
        <time>2017-05-24T14:54:48Z</time>
      </trkpt>
      <trkpt lat="43.37149" lon="6.18461">
        <ele>465.39999389648</ele>
        <time>2017-05-24T14:54:50Z</time>
      </trkpt>
      <trkpt lat="43.37148" lon="6.18464">
        <ele>464.79998779297</ele>
        <time>2017-05-24T14:54:51Z</time>
      </trkpt>
      <trkpt lat="43.37147" lon="6.18471">
        <ele>464</ele>
        <time>2017-05-24T14:54:53Z</time>
      </trkpt>
      <trkpt lat="43.37147" lon="6.18474">
        <ele>463.60000610352</ele>
        <time>2017-05-24T14:54:54Z</time>
      </trkpt>
      <trkpt lat="43.37146" lon="6.18478">
        <ele>462.60000610352</ele>
        <time>2017-05-24T14:54:56Z</time>
      </trkpt>
      <trkpt lat="43.37146" lon="6.1848">
        <ele>461.60000610352</ele>
        <time>2017-05-24T14:54:58Z</time>
      </trkpt>
      <trkpt lat="43.37146" lon="6.18481">
        <ele>460.79998779297</ele>
        <time>2017-05-24T14:55:01Z</time>
      </trkpt>
      <trkpt lat="43.37146" lon="6.18481">
        <ele>460.39999389648</ele>
        <time>2017-05-24T14:55:03Z</time>
      </trkpt>
      <trkpt lat="43.37149" lon="6.18483">
        <ele>459.39999389648</ele>
        <time>2017-05-24T14:55:09Z</time>
      </trkpt>
      <trkpt lat="43.37149" lon="6.18483">
        <ele>458.79998779297</ele>
        <time>2017-05-24T14:55:11Z</time>
      </trkpt>
      <trkpt lat="43.37149" lon="6.18483">
        <ele>458.39999389648</ele>
        <time>2017-05-24T14:55:13Z</time>
      </trkpt>
      <trkpt lat="43.37152" lon="6.18485">
        <ele>457.79998779297</ele>
        <time>2017-05-24T14:55:21Z</time>
      </trkpt>
      <trkpt lat="43.37151" lon="6.18486">
        <ele>457.79998779297</ele>
        <time>2017-05-24T14:55:22Z</time>
      </trkpt>
      <trkpt lat="43.37147" lon="6.18486">
        <ele>459.39999389648</ele>
        <time>2017-05-24T14:55:31Z</time>
      </trkpt>
      <trkpt lat="43.37147" lon="6.18487">
        <ele>459</ele>
        <time>2017-05-24T14:55:40Z</time>
      </trkpt>
      <trkpt lat="43.37148" lon="6.18486">
        <ele>459.20001220703</ele>
        <time>2017-05-24T14:55:45Z</time>
      </trkpt>
      <trkpt lat="43.37148" lon="6.18486">
        <ele>459</ele>
        <time>2017-05-24T14:55:51Z</time>
      </trkpt>
      <trkpt lat="43.37148" lon="6.18486">
        <ele>459</ele>
        <time>2017-05-24T14:56:01Z</time>
      </trkpt>
      <trkpt lat="43.37149" lon="6.18487">
        <ele>458.39999389648</ele>
        <time>2017-05-24T14:56:11Z</time>
      </trkpt>
      <trkpt lat="43.37146" lon="6.18485">
        <ele>459.20001220703</ele>
        <time>2017-05-24T14:56:18Z</time>
      </trkpt>
      <trkpt lat="43.37147" lon="6.18484">
        <ele>459.39999389648</ele>
        <time>2017-05-24T14:56:21Z</time>
      </trkpt>
      <trkpt lat="43.37147" lon="6.18484">
        <ele>459.39999389648</ele>
        <time>2017-05-24T14:56:28Z</time>
      </trkpt>
      <trkpt lat="43.37147" lon="6.18483">
        <ele>459.20001220703</ele>
        <time>2017-05-24T14:56:31Z</time>
      </trkpt>
      <trkpt lat="43.37147" lon="6.18482">
        <ele>459.20001220703</ele>
        <time>2017-05-24T14:56:35Z</time>
      </trkpt>
      <trkpt lat="43.37148" lon="6.18483">
        <ele>459.20001220703</ele>
        <time>2017-05-24T14:56:41Z</time>
      </trkpt>
      <trkpt lat="43.37148" lon="6.18485">
        <ele>459.20001220703</ele>
        <time>2017-05-24T14:56:47Z</time>
      </trkpt>
      <trkpt lat="43.37149" lon="6.18485">
        <ele>459.20001220703</ele>
        <time>2017-05-24T14:56:50Z</time>
      </trkpt>
      <trkpt lat="43.37149" lon="6.18486">
        <ele>459.20001220703</ele>
        <time>2017-05-24T14:56:51Z</time>
      </trkpt>
      <trkpt lat="43.37148" lon="6.18486">
        <ele>459.39999389648</ele>
        <time>2017-05-24T14:57:01Z</time>
      </trkpt>
      <trkpt lat="43.37148" lon="6.18488">
        <ele>459</ele>
        <time>2017-05-24T14:57:11Z</time>
      </trkpt>
      <trkpt lat="43.37148" lon="6.18488">
        <ele>459</ele>
        <time>2017-05-24T14:57:16Z</time>
      </trkpt>
      <trkpt lat="43.37148" lon="6.18488">
        <ele>459</ele>
        <time>2017-05-24T14:57:21Z</time>
      </trkpt>
      <trkpt lat="43.37148" lon="6.18488">
        <ele>459</ele>
        <time>2017-05-24T14:57:31Z</time>
      </trkpt>
      <trkpt lat="43.37148" lon="6.18488">
        <ele>459</ele>
        <time>2017-05-24T14:57:38Z</time>
      </trkpt>
      <trkpt lat="43.37149" lon="6.18488">
        <ele>459</ele>
        <time>2017-05-24T14:57:41Z</time>
      </trkpt>
      <trkpt lat="43.37152" lon="6.18485">
        <ele>459</ele>
        <time>2017-05-24T14:57:55Z</time>
      </trkpt>
      <trkpt lat="43.37151" lon="6.18484">
        <ele>459</ele>
        <time>2017-05-24T14:58:01Z</time>
      </trkpt>
      <trkpt lat="43.37157" lon="6.18479">
        <ele>459</ele>
        <time>2017-05-24T14:58:10Z</time>
      </trkpt>
      <trkpt lat="43.37159" lon="6.18478">
        <ele>459</ele>
        <time>2017-05-24T14:58:11Z</time>
      </trkpt>
      <trkpt lat="43.3716" lon="6.18477">
        <ele>458.39999389648</ele>
        <time>2017-05-24T14:58:12Z</time>
      </trkpt>
      <trkpt lat="43.37163" lon="6.18476">
        <ele>456.79998779297</ele>
        <time>2017-05-24T14:58:14Z</time>
      </trkpt>
      <trkpt lat="43.37168" lon="6.18472">
        <ele>455.60000610352</ele>
        <time>2017-05-24T14:58:17Z</time>
      </trkpt>
      <trkpt lat="43.37175" lon="6.18468">
        <ele>454</ele>
        <time>2017-05-24T14:58:22Z</time>
      </trkpt>
      <trkpt lat="43.37178" lon="6.18467">
        <ele>452.79998779297</ele>
        <time>2017-05-24T14:58:24Z</time>
      </trkpt>
      <trkpt lat="43.37182" lon="6.18466">
        <ele>451.60000610352</ele>
        <time>2017-05-24T14:58:26Z</time>
      </trkpt>
      <trkpt lat="43.37185" lon="6.18465">
        <ele>450.20001220703</ele>
        <time>2017-05-24T14:58:28Z</time>
      </trkpt>
      <trkpt lat="43.37187" lon="6.18466">
        <ele>449</ele>
        <time>2017-05-24T14:58:30Z</time>
      </trkpt>
      <trkpt lat="43.37188" lon="6.18467">
        <ele>448.60000610352</ele>
        <time>2017-05-24T14:58:31Z</time>
      </trkpt>
      <trkpt lat="43.37189" lon="6.18468">
        <ele>448</ele>
        <time>2017-05-24T14:58:36Z</time>
      </trkpt>
      <trkpt lat="43.37191" lon="6.18468">
        <ele>447.79998779297</ele>
        <time>2017-05-24T14:58:41Z</time>
      </trkpt>
      <trkpt lat="43.37194" lon="6.18469">
        <ele>447</ele>
        <time>2017-05-24T14:58:47Z</time>
      </trkpt>
      <trkpt lat="43.37197" lon="6.18469">
        <ele>446.39999389648</ele>
        <time>2017-05-24T14:58:51Z</time>
      </trkpt>
      <trkpt lat="43.372" lon="6.18468">
        <ele>445.79998779297</ele>
        <time>2017-05-24T14:58:55Z</time>
      </trkpt>
      <trkpt lat="43.37204" lon="6.18466">
        <ele>445.20001220703</ele>
        <time>2017-05-24T14:58:58Z</time>
      </trkpt>
      <trkpt lat="43.37206" lon="6.18466">
        <ele>444.60000610352</ele>
        <time>2017-05-24T14:58:59Z</time>
      </trkpt>
      <trkpt lat="43.37208" lon="6.18467">
        <ele>444</ele>
        <time>2017-05-24T14:59:00Z</time>
      </trkpt>
      <trkpt lat="43.3721" lon="6.18469">
        <ele>443.79998779297</ele>
        <time>2017-05-24T14:59:01Z</time>
      </trkpt>
      <trkpt lat="43.37211" lon="6.1847">
        <ele>443.39999389648</ele>
        <time>2017-05-24T14:59:02Z</time>
      </trkpt>
      <trkpt lat="43.37219" lon="6.18478">
        <ele>441</ele>
        <time>2017-05-24T14:59:06Z</time>
      </trkpt>
      <trkpt lat="43.37225" lon="6.18488">
        <ele>438.60000610352</ele>
        <time>2017-05-24T14:59:10Z</time>
      </trkpt>
      <trkpt lat="43.37228" lon="6.18492">
        <ele>437.20001220703</ele>
        <time>2017-05-24T14:59:12Z</time>
      </trkpt>
      <trkpt lat="43.37241" lon="6.18499">
        <ele>433.60000610352</ele>
        <time>2017-05-24T14:59:19Z</time>
      </trkpt>
      <trkpt lat="43.37245" lon="6.185">
        <ele>433</ele>
        <time>2017-05-24T14:59:21Z</time>
      </trkpt>
      <trkpt lat="43.37255" lon="6.18506">
        <ele>432.20001220703</ele>
        <time>2017-05-24T14:59:25Z</time>
      </trkpt>
      <trkpt lat="43.37259" lon="6.18509">
        <ele>431.39999389648</ele>
        <time>2017-05-24T14:59:27Z</time>
      </trkpt>
      <trkpt lat="43.37261" lon="6.18511">
        <ele>430.79998779297</ele>
        <time>2017-05-24T14:59:28Z</time>
      </trkpt>
      <trkpt lat="43.37263" lon="6.18518">
        <ele>429.39999389648</ele>
        <time>2017-05-24T14:59:30Z</time>
      </trkpt>
      <trkpt lat="43.37264" lon="6.18523">
        <ele>428.79998779297</ele>
        <time>2017-05-24T14:59:31Z</time>
      </trkpt>
      <trkpt lat="43.37266" lon="6.18527">
        <ele>428.20001220703</ele>
        <time>2017-05-24T14:59:32Z</time>
      </trkpt>
      <trkpt lat="43.37272" lon="6.18531">
        <ele>427.20001220703</ele>
        <time>2017-05-24T14:59:35Z</time>
      </trkpt>
      <trkpt lat="43.3728" lon="6.18533">
        <ele>426</ele>
        <time>2017-05-24T14:59:39Z</time>
      </trkpt>
      <trkpt lat="43.37284" lon="6.18535">
        <ele>424.79998779297</ele>
        <time>2017-05-24T14:59:41Z</time>
      </trkpt>
      <trkpt lat="43.37294" lon="6.18538">
        <ele>422.20001220703</ele>
        <time>2017-05-24T14:59:46Z</time>
      </trkpt>
      <trkpt lat="43.37299" lon="6.18541">
        <ele>419.39999389648</ele>
        <time>2017-05-24T14:59:49Z</time>
      </trkpt>
      <trkpt lat="43.37302" lon="6.18545">
        <ele>418</ele>
        <time>2017-05-24T14:59:51Z</time>
      </trkpt>
      <trkpt lat="43.37306" lon="6.18549">
        <ele>416.79998779297</ele>
        <time>2017-05-24T14:59:54Z</time>
      </trkpt>
      <trkpt lat="43.37309" lon="6.18552">
        <ele>415.20001220703</ele>
        <time>2017-05-24T14:59:56Z</time>
      </trkpt>
      <trkpt lat="43.37311" lon="6.18553">
        <ele>413.79998779297</ele>
        <time>2017-05-24T14:59:58Z</time>
      </trkpt>
      <trkpt lat="43.37313" lon="6.18553">
        <ele>413.20001220703</ele>
        <time>2017-05-24T14:59:59Z</time>
      </trkpt>
      <trkpt lat="43.37316" lon="6.18554">
        <ele>412.60000610352</ele>
        <time>2017-05-24T15:00:01Z</time>
      </trkpt>
      <trkpt lat="43.37318" lon="6.18554">
        <ele>411.60000610352</ele>
        <time>2017-05-24T15:00:03Z</time>
      </trkpt>
      <trkpt lat="43.37318" lon="6.18553">
        <ele>410.39999389648</ele>
        <time>2017-05-24T15:00:05Z</time>
      </trkpt>
      <trkpt lat="43.37319" lon="6.18554">
        <ele>409.79998779297</ele>
        <time>2017-05-24T15:00:11Z</time>
      </trkpt>
      <trkpt lat="43.37325" lon="6.18554">
        <ele>409.39999389648</ele>
        <time>2017-05-24T15:00:18Z</time>
      </trkpt>
      <trkpt lat="43.37326" lon="6.18554">
        <ele>409.20001220703</ele>
        <time>2017-05-24T15:00:19Z</time>
      </trkpt>
      <trkpt lat="43.37328" lon="6.18553">
        <ele>408.79998779297</ele>
        <time>2017-05-24T15:00:20Z</time>
      </trkpt>
      <trkpt lat="43.37329" lon="6.18553">
        <ele>408.20001220703</ele>
        <time>2017-05-24T15:00:21Z</time>
      </trkpt>
      <trkpt lat="43.37331" lon="6.18554">
        <ele>407.60000610352</ele>
        <time>2017-05-24T15:00:22Z</time>
      </trkpt>
      <trkpt lat="43.37333" lon="6.18558">
        <ele>406.60000610352</ele>
        <time>2017-05-24T15:00:24Z</time>
      </trkpt>
      <trkpt lat="43.37335" lon="6.1856">
        <ele>406</ele>
        <time>2017-05-24T15:00:25Z</time>
      </trkpt>
      <trkpt lat="43.37337" lon="6.18561">
        <ele>405.39999389648</ele>
        <time>2017-05-24T15:00:26Z</time>
      </trkpt>
      <trkpt lat="43.3734" lon="6.18562">
        <ele>404</ele>
        <time>2017-05-24T15:00:28Z</time>
      </trkpt>
      <trkpt lat="43.37343" lon="6.18566">
        <ele>402.79998779297</ele>
        <time>2017-05-24T15:00:30Z</time>
      </trkpt>
      <trkpt lat="43.37345" lon="6.18568">
        <ele>402.39999389648</ele>
        <time>2017-05-24T15:00:31Z</time>
      </trkpt>
      <trkpt lat="43.37346" lon="6.1857">
        <ele>401.79998779297</ele>
        <time>2017-05-24T15:00:32Z</time>
      </trkpt>
      <trkpt lat="43.3735" lon="6.18576">
        <ele>400.60000610352</ele>
        <time>2017-05-24T15:00:35Z</time>
      </trkpt>
      <trkpt lat="43.37354" lon="6.18581">
        <ele>399.39999389648</ele>
        <time>2017-05-24T15:00:38Z</time>
      </trkpt>
      <trkpt lat="43.3736" lon="6.18585">
        <ele>398.20001220703</ele>
        <time>2017-05-24T15:00:41Z</time>
      </trkpt>
      <trkpt lat="43.37363" lon="6.18586">
        <ele>396.60000610352</ele>
        <time>2017-05-24T15:00:43Z</time>
      </trkpt>
      <trkpt lat="43.37367" lon="6.18585">
        <ele>395.39999389648</ele>
        <time>2017-05-24T15:00:45Z</time>
      </trkpt>
      <trkpt lat="43.37372" lon="6.18586">
        <ele>395</ele>
        <time>2017-05-24T15:00:47Z</time>
      </trkpt>
      <trkpt lat="43.37376" lon="6.18591">
        <ele>394</ele>
        <time>2017-05-24T15:00:49Z</time>
      </trkpt>
      <trkpt lat="43.37382" lon="6.18598">
        <ele>392.79998779297</ele>
        <time>2017-05-24T15:00:51Z</time>
      </trkpt>
      <trkpt lat="43.37384" lon="6.18602">
        <ele>392</ele>
        <time>2017-05-24T15:00:52Z</time>
      </trkpt>
      <trkpt lat="43.37386" lon="6.18608">
        <ele>391.39999389648</ele>
        <time>2017-05-24T15:00:53Z</time>
      </trkpt>
      <trkpt lat="43.37389" lon="6.18619">
        <ele>390.39999389648</ele>
        <time>2017-05-24T15:00:55Z</time>
      </trkpt>
      <trkpt lat="43.3739" lon="6.18623">
        <ele>389.20001220703</ele>
        <time>2017-05-24T15:00:57Z</time>
      </trkpt>
      <trkpt lat="43.37389" lon="6.18622">
        <ele>388.20001220703</ele>
        <time>2017-05-24T15:01:00Z</time>
      </trkpt>
      <trkpt lat="43.37389" lon="6.18622">
        <ele>388</ele>
        <time>2017-05-24T15:01:01Z</time>
      </trkpt>
      <trkpt lat="43.37389" lon="6.18622">
        <ele>389</ele>
        <time>2017-05-24T15:01:31Z</time>
      </trkpt>
      <trkpt lat="43.37389" lon="6.18622">
        <ele>387.79998779297</ele>
        <time>2017-05-24T15:03:11Z</time>
      </trkpt>
      <trkpt lat="43.37389" lon="6.18623">
        <ele>387.79998779297</ele>
        <time>2017-05-24T15:03:15Z</time>
      </trkpt>
      <trkpt lat="43.37392" lon="6.18625">
        <ele>387.79998779297</ele>
        <time>2017-05-24T15:03:18Z</time>
      </trkpt>
      <trkpt lat="43.37392" lon="6.18625">
        <ele>387.39999389648</ele>
        <time>2017-05-24T15:03:21Z</time>
      </trkpt>
      <trkpt lat="43.37392" lon="6.18625">
        <ele>387.20001220703</ele>
        <time>2017-05-24T15:03:23Z</time>
      </trkpt>
      <trkpt lat="43.37394" lon="6.18626">
        <ele>387</ele>
        <time>2017-05-24T15:03:31Z</time>
      </trkpt>
      <trkpt lat="43.37394" lon="6.18626">
        <ele>387</ele>
        <time>2017-05-24T15:03:41Z</time>
      </trkpt>
      <trkpt lat="43.37394" lon="6.18626">
        <ele>386.60000610352</ele>
        <time>2017-05-24T15:03:51Z</time>
      </trkpt>
      <trkpt lat="43.37394" lon="6.18626">
        <ele>386.39999389648</ele>
        <time>2017-05-24T15:04:01Z</time>
      </trkpt>
      <trkpt lat="43.37394" lon="6.18626">
        <ele>386.20001220703</ele>
        <time>2017-05-24T15:04:09Z</time>
      </trkpt>
      <trkpt lat="43.37393" lon="6.18624">
        <ele>387.20001220703</ele>
        <time>2017-05-24T15:04:31Z</time>
      </trkpt>
      <trkpt lat="43.37393" lon="6.18624">
        <ele>387.20001220703</ele>
        <time>2017-05-24T15:04:41Z</time>
      </trkpt>
      <trkpt lat="43.37393" lon="6.18624">
        <ele>387.20001220703</ele>
        <time>2017-05-24T15:04:43Z</time>
      </trkpt>
      <trkpt lat="43.37394" lon="6.18622">
        <ele>387.20001220703</ele>
        <time>2017-05-24T15:04:51Z</time>
      </trkpt>
      <trkpt lat="43.37393" lon="6.18622">
        <ele>387.20001220703</ele>
        <time>2017-05-24T15:05:01Z</time>
      </trkpt>
      <trkpt lat="43.37395" lon="6.18618">
        <ele>387.20001220703</ele>
        <time>2017-05-24T15:05:06Z</time>
      </trkpt>
      <trkpt lat="43.37396" lon="6.18615">
        <ele>387</ele>
        <time>2017-05-24T15:05:07Z</time>
      </trkpt>
      <trkpt lat="43.37401" lon="6.186">
        <ele>385.60000610352</ele>
        <time>2017-05-24T15:05:11Z</time>
      </trkpt>
      <trkpt lat="43.37409" lon="6.1858">
        <ele>386.20001220703</ele>
        <time>2017-05-24T15:05:16Z</time>
      </trkpt>
      <trkpt lat="43.37412" lon="6.18574">
        <ele>386.60000610352</ele>
        <time>2017-05-24T15:05:18Z</time>
      </trkpt>
      <trkpt lat="43.37415" lon="6.18569">
        <ele>387.39999389648</ele>
        <time>2017-05-24T15:05:20Z</time>
      </trkpt>
      <trkpt lat="43.37416" lon="6.18567">
        <ele>387.79998779297</ele>
        <time>2017-05-24T15:05:21Z</time>
      </trkpt>
      <trkpt lat="43.37419" lon="6.18562">
        <ele>388.39999389648</ele>
        <time>2017-05-24T15:05:23Z</time>
      </trkpt>
      <trkpt lat="43.37427" lon="6.18548">
        <ele>389.79998779297</ele>
        <time>2017-05-24T15:05:29Z</time>
      </trkpt>
      <trkpt lat="43.37429" lon="6.18544">
        <ele>390.20001220703</ele>
        <time>2017-05-24T15:05:31Z</time>
      </trkpt>
      <trkpt lat="43.37431" lon="6.18539">
        <ele>390.79998779297</ele>
        <time>2017-05-24T15:05:33Z</time>
      </trkpt>
      <trkpt lat="43.37439" lon="6.18523">
        <ele>391.79998779297</ele>
        <time>2017-05-24T15:05:40Z</time>
      </trkpt>
      <trkpt lat="43.3744" lon="6.18518">
        <ele>392</ele>
        <time>2017-05-24T15:05:42Z</time>
      </trkpt>
      <trkpt lat="43.37445" lon="6.18493">
        <ele>392.60000610352</ele>
        <time>2017-05-24T15:05:51Z</time>
      </trkpt>
      <trkpt lat="43.37442" lon="6.1846">
        <ele>392</ele>
        <time>2017-05-24T15:06:01Z</time>
      </trkpt>
      <trkpt lat="43.37427" lon="6.18429">
        <ele>391.60000610352</ele>
        <time>2017-05-24T15:06:11Z</time>
      </trkpt>
      <trkpt lat="43.37415" lon="6.1841">
        <ele>392</ele>
        <time>2017-05-24T15:06:19Z</time>
      </trkpt>
      <trkpt lat="43.37412" lon="6.18406">
        <ele>392.20001220703</ele>
        <time>2017-05-24T15:06:21Z</time>
      </trkpt>
      <trkpt lat="43.37411" lon="6.18396">
        <ele>392.20001220703</ele>
        <time>2017-05-24T15:06:24Z</time>
      </trkpt>
      <trkpt lat="43.37416" lon="6.18386">
        <ele>391.79998779297</ele>
        <time>2017-05-24T15:06:27Z</time>
      </trkpt>
      <trkpt lat="43.37424" lon="6.18377">
        <ele>392</ele>
        <time>2017-05-24T15:06:31Z</time>
      </trkpt>
      <trkpt lat="43.37435" lon="6.18355">
        <ele>393</ele>
        <time>2017-05-24T15:06:38Z</time>
      </trkpt>
      <trkpt lat="43.37436" lon="6.18345">
        <ele>393</ele>
        <time>2017-05-24T15:06:41Z</time>
      </trkpt>
      <trkpt lat="43.37442" lon="6.18312">
        <ele>393.79998779297</ele>
        <time>2017-05-24T15:06:51Z</time>
      </trkpt>
      <trkpt lat="43.37444" lon="6.18305">
        <ele>394.20001220703</ele>
        <time>2017-05-24T15:06:54Z</time>
      </trkpt>
      <trkpt lat="43.37448" lon="6.1829">
        <ele>395.39999389648</ele>
        <time>2017-05-24T15:07:00Z</time>
      </trkpt>
      <trkpt lat="43.37453" lon="6.18273">
        <ele>396.39999389648</ele>
        <time>2017-05-24T15:07:07Z</time>
      </trkpt>
      <trkpt lat="43.37456" lon="6.18264">
        <ele>397</ele>
        <time>2017-05-24T15:07:11Z</time>
      </trkpt>
      <trkpt lat="43.37458" lon="6.18258">
        <ele>397.39999389648</ele>
        <time>2017-05-24T15:07:14Z</time>
      </trkpt>
      <trkpt lat="43.37461" lon="6.18244">
        <ele>398</ele>
        <time>2017-05-24T15:07:21Z</time>
      </trkpt>
      <trkpt lat="43.37463" lon="6.18237">
        <ele>398.60000610352</ele>
        <time>2017-05-24T15:07:25Z</time>
      </trkpt>
      <trkpt lat="43.37466" lon="6.18226">
        <ele>399.79998779297</ele>
        <time>2017-05-24T15:07:31Z</time>
      </trkpt>
      <trkpt lat="43.37468" lon="6.18217">
        <ele>400.60000610352</ele>
        <time>2017-05-24T15:07:36Z</time>
      </trkpt>
      <trkpt lat="43.37471" lon="6.18207">
        <ele>401.60000610352</ele>
        <time>2017-05-24T15:07:42Z</time>
      </trkpt>
      <trkpt lat="43.37473" lon="6.18195">
        <ele>402.39999389648</ele>
        <time>2017-05-24T15:07:50Z</time>
      </trkpt>
      <trkpt lat="43.37473" lon="6.1818">
        <ele>402.79998779297</ele>
        <time>2017-05-24T15:07:58Z</time>
      </trkpt>
      <trkpt lat="43.37471" lon="6.18175">
        <ele>402.79998779297</ele>
        <time>2017-05-24T15:08:01Z</time>
      </trkpt>
      <trkpt lat="43.37469" lon="6.18165">
        <ele>402.39999389648</ele>
        <time>2017-05-24T15:08:05Z</time>
      </trkpt>
      <trkpt lat="43.37465" lon="6.18151">
        <ele>401.60000610352</ele>
        <time>2017-05-24T15:08:09Z</time>
      </trkpt>
      <trkpt lat="43.37463" lon="6.18141">
        <ele>401</ele>
        <time>2017-05-24T15:08:11Z</time>
      </trkpt>
      <trkpt lat="43.37463" lon="6.18135">
        <ele>400.79998779297</ele>
        <time>2017-05-24T15:08:12Z</time>
      </trkpt>
      <trkpt lat="43.37465" lon="6.18123">
        <ele>400.20001220703</ele>
        <time>2017-05-24T15:08:14Z</time>
      </trkpt>
      <trkpt lat="43.37481" lon="6.18107">
        <ele>400</ele>
        <time>2017-05-24T15:08:21Z</time>
      </trkpt>
      <trkpt lat="43.3749" lon="6.18095">
        <ele>401.20001220703</ele>
        <time>2017-05-24T15:08:27Z</time>
      </trkpt>
      <trkpt lat="43.37495" lon="6.18088">
        <ele>402</ele>
        <time>2017-05-24T15:08:31Z</time>
      </trkpt>
      <trkpt lat="43.37497" lon="6.18084">
        <ele>402.39999389648</ele>
        <time>2017-05-24T15:08:33Z</time>
      </trkpt>
      <trkpt lat="43.37502" lon="6.18066">
        <ele>403.39999389648</ele>
        <time>2017-05-24T15:08:41Z</time>
      </trkpt>
      <trkpt lat="43.37502" lon="6.18062">
        <ele>403.39999389648</ele>
        <time>2017-05-24T15:08:43Z</time>
      </trkpt>
      <trkpt lat="43.37505" lon="6.18052">
        <ele>404.60000610352</ele>
        <time>2017-05-24T15:08:49Z</time>
      </trkpt>
      <trkpt lat="43.37505" lon="6.1805">
        <ele>404.60000610352</ele>
        <time>2017-05-24T15:08:51Z</time>
      </trkpt>
      <trkpt lat="43.37508" lon="6.18038">
        <ele>405.60000610352</ele>
        <time>2017-05-24T15:08:59Z</time>
      </trkpt>
      <trkpt lat="43.37508" lon="6.18035">
        <ele>405.79998779297</ele>
        <time>2017-05-24T15:09:01Z</time>
      </trkpt>
      <trkpt lat="43.37512" lon="6.18019">
        <ele>406.79998779297</ele>
        <time>2017-05-24T15:09:11Z</time>
      </trkpt>
      <trkpt lat="43.37514" lon="6.18009">
        <ele>407.60000610352</ele>
        <time>2017-05-24T15:09:18Z</time>
      </trkpt>
      <trkpt lat="43.37515" lon="6.18006">
        <ele>407.79998779297</ele>
        <time>2017-05-24T15:09:20Z</time>
      </trkpt>
      <trkpt lat="43.37515" lon="6.18004">
        <ele>408</ele>
        <time>2017-05-24T15:09:21Z</time>
      </trkpt>
      <trkpt lat="43.37516" lon="6.17996">
        <ele>408.79998779297</ele>
        <time>2017-05-24T15:09:26Z</time>
      </trkpt>
      <trkpt lat="43.37516" lon="6.17985">
        <ele>409.79998779297</ele>
        <time>2017-05-24T15:09:31Z</time>
      </trkpt>
      <trkpt lat="43.37517" lon="6.17983">
        <ele>410</ele>
        <time>2017-05-24T15:09:32Z</time>
      </trkpt>
      <trkpt lat="43.37519" lon="6.17979">
        <ele>410.20001220703</ele>
        <time>2017-05-24T15:09:35Z</time>
      </trkpt>
      <trkpt lat="43.37521" lon="6.17976">
        <ele>411</ele>
        <time>2017-05-24T15:09:37Z</time>
      </trkpt>
      <trkpt lat="43.37524" lon="6.17972">
        <ele>412.39999389648</ele>
        <time>2017-05-24T15:09:41Z</time>
      </trkpt>
      <trkpt lat="43.37527" lon="6.17962">
        <ele>413.79998779297</ele>
        <time>2017-05-24T15:09:48Z</time>
      </trkpt>
      <trkpt lat="43.37534" lon="6.17946">
        <ele>415.79998779297</ele>
        <time>2017-05-24T15:10:01Z</time>
      </trkpt>
      <trkpt lat="43.37538" lon="6.17931">
        <ele>417.20001220703</ele>
        <time>2017-05-24T15:10:12Z</time>
      </trkpt>
      <trkpt lat="43.3754" lon="6.17923">
        <ele>418.20001220703</ele>
        <time>2017-05-24T15:10:19Z</time>
      </trkpt>
      <trkpt lat="43.37542" lon="6.17921">
        <ele>418.60000610352</ele>
        <time>2017-05-24T15:10:21Z</time>
      </trkpt>
      <trkpt lat="43.37546" lon="6.17911">
        <ele>419.39999389648</ele>
        <time>2017-05-24T15:10:31Z</time>
      </trkpt>
      <trkpt lat="43.37546" lon="6.17908">
        <ele>419.79998779297</ele>
        <time>2017-05-24T15:10:38Z</time>
      </trkpt>
      <trkpt lat="43.37546" lon="6.17908">
        <ele>419.79998779297</ele>
        <time>2017-05-24T15:10:44Z</time>
      </trkpt>
      <trkpt lat="43.37546" lon="6.17909">
        <ele>420.60000610352</ele>
        <time>2017-05-24T15:12:41Z</time>
      </trkpt>
      <trkpt lat="43.37546" lon="6.17909">
        <ele>420.60000610352</ele>
        <time>2017-05-24T15:12:51Z</time>
      </trkpt>
      <trkpt lat="43.37546" lon="6.17909">
        <ele>420.60000610352</ele>
        <time>2017-05-24T15:13:11Z</time>
      </trkpt>
      <trkpt lat="43.37546" lon="6.17909">
        <ele>420.60000610352</ele>
        <time>2017-05-24T15:13:20Z</time>
      </trkpt>
      <trkpt lat="43.37546" lon="6.1791">
        <ele>420.60000610352</ele>
        <time>2017-05-24T15:13:21Z</time>
      </trkpt>
      <trkpt lat="43.37545" lon="6.17907">
        <ele>420.60000610352</ele>
        <time>2017-05-24T15:13:24Z</time>
      </trkpt>
      <trkpt lat="43.37545" lon="6.17902">
        <ele>420.79998779297</ele>
        <time>2017-05-24T15:13:27Z</time>
      </trkpt>
      <trkpt lat="43.37545" lon="6.17897">
        <ele>420.79998779297</ele>
        <time>2017-05-24T15:13:31Z</time>
      </trkpt>
      <trkpt lat="43.37545" lon="6.17895">
        <ele>420.79998779297</ele>
        <time>2017-05-24T15:13:33Z</time>
      </trkpt>
      <trkpt lat="43.37547" lon="6.17892">
        <ele>420.79998779297</ele>
        <time>2017-05-24T15:13:36Z</time>
      </trkpt>
      <trkpt lat="43.37548" lon="6.17891">
        <ele>421.20001220703</ele>
        <time>2017-05-24T15:13:41Z</time>
      </trkpt>
      <trkpt lat="43.37548" lon="6.1789">
        <ele>420.79998779297</ele>
        <time>2017-05-24T15:13:51Z</time>
      </trkpt>
      <trkpt lat="43.37548" lon="6.1789">
        <ele>420.79998779297</ele>
        <time>2017-05-24T15:14:01Z</time>
      </trkpt>
      <trkpt lat="43.37549" lon="6.17889">
        <ele>421</ele>
        <time>2017-05-24T15:14:10Z</time>
      </trkpt>
      <trkpt lat="43.37551" lon="6.17887">
        <ele>421</ele>
        <time>2017-05-24T15:14:14Z</time>
      </trkpt>
      <trkpt lat="43.37554" lon="6.17884">
        <ele>421</ele>
        <time>2017-05-24T15:14:17Z</time>
      </trkpt>
      <trkpt lat="43.37556" lon="6.17879">
        <ele>421.39999389648</ele>
        <time>2017-05-24T15:14:20Z</time>
      </trkpt>
      <trkpt lat="43.37557" lon="6.17876">
        <ele>421.39999389648</ele>
        <time>2017-05-24T15:14:22Z</time>
      </trkpt>
      <trkpt lat="43.37561" lon="6.17855">
        <ele>421.39999389648</ele>
        <time>2017-05-24T15:14:32Z</time>
      </trkpt>
      <trkpt lat="43.37569" lon="6.17818">
        <ele>421.20001220703</ele>
        <time>2017-05-24T15:14:42Z</time>
      </trkpt>
      <trkpt lat="43.37574" lon="6.17796">
        <ele>420.20001220703</ele>
        <time>2017-05-24T15:14:46Z</time>
      </trkpt>
      <trkpt lat="43.37579" lon="6.17782">
        <ele>419.39999389648</ele>
        <time>2017-05-24T15:14:48Z</time>
      </trkpt>
      <trkpt lat="43.37587" lon="6.17761">
        <ele>418.20001220703</ele>
        <time>2017-05-24T15:14:51Z</time>
      </trkpt>
      <trkpt lat="43.37591" lon="6.17754">
        <ele>418</ele>
        <time>2017-05-24T15:14:52Z</time>
      </trkpt>
      <trkpt lat="43.37598" lon="6.17741">
        <ele>417.60000610352</ele>
        <time>2017-05-24T15:14:54Z</time>
      </trkpt>
      <trkpt lat="43.37601" lon="6.17734">
        <ele>417.20001220703</ele>
        <time>2017-05-24T15:14:55Z</time>
      </trkpt>
      <trkpt lat="43.37613" lon="6.17702">
        <ele>416.20001220703</ele>
        <time>2017-05-24T15:15:00Z</time>
      </trkpt>
      <trkpt lat="43.37617" lon="6.17697">
        <ele>416</ele>
        <time>2017-05-24T15:15:01Z</time>
      </trkpt>
      <trkpt lat="43.37626" lon="6.17693">
        <ele>414.60000610352</ele>
        <time>2017-05-24T15:15:03Z</time>
      </trkpt>
      <trkpt lat="43.3763" lon="6.1769">
        <ele>413.79998779297</ele>
        <time>2017-05-24T15:15:04Z</time>
      </trkpt>
      <trkpt lat="43.37634" lon="6.17686">
        <ele>413</ele>
        <time>2017-05-24T15:15:05Z</time>
      </trkpt>
      <trkpt lat="43.37637" lon="6.17681">
        <ele>412.60000610352</ele>
        <time>2017-05-24T15:15:06Z</time>
      </trkpt>
      <trkpt lat="43.37646" lon="6.17666">
        <ele>412.39999389648</ele>
        <time>2017-05-24T15:15:09Z</time>
      </trkpt>
      <trkpt lat="43.37652" lon="6.17655">
        <ele>411.79998779297</ele>
        <time>2017-05-24T15:15:11Z</time>
      </trkpt>
      <trkpt lat="43.37654" lon="6.17648">
        <ele>411.39999389648</ele>
        <time>2017-05-24T15:15:12Z</time>
      </trkpt>
      <trkpt lat="43.37659" lon="6.17635">
        <ele>410.60000610352</ele>
        <time>2017-05-24T15:15:14Z</time>
      </trkpt>
      <trkpt lat="43.37663" lon="6.17624">
        <ele>409.39999389648</ele>
        <time>2017-05-24T15:15:16Z</time>
      </trkpt>
      <trkpt lat="43.37662" lon="6.17614">
        <ele>409</ele>
        <time>2017-05-24T15:15:18Z</time>
      </trkpt>
      <trkpt lat="43.37656" lon="6.17594">
        <ele>408.39999389648</ele>
        <time>2017-05-24T15:15:22Z</time>
      </trkpt>
      <trkpt lat="43.37657" lon="6.17589">
        <ele>408</ele>
        <time>2017-05-24T15:15:23Z</time>
      </trkpt>
      <trkpt lat="43.3766" lon="6.17579">
        <ele>407.20001220703</ele>
        <time>2017-05-24T15:15:25Z</time>
      </trkpt>
      <trkpt lat="43.37661" lon="6.17549">
        <ele>406.79998779297</ele>
        <time>2017-05-24T15:15:32Z</time>
      </trkpt>
      <trkpt lat="43.37663" lon="6.17536">
        <ele>406.79998779297</ele>
        <time>2017-05-24T15:15:35Z</time>
      </trkpt>
      <trkpt lat="43.37668" lon="6.175">
        <ele>405.79998779297</ele>
        <time>2017-05-24T15:15:41Z</time>
      </trkpt>
      <trkpt lat="43.37669" lon="6.17493">
        <ele>405.60000610352</ele>
        <time>2017-05-24T15:15:42Z</time>
      </trkpt>
      <trkpt lat="43.37671" lon="6.17487">
        <ele>405.39999389648</ele>
        <time>2017-05-24T15:15:43Z</time>
      </trkpt>
      <trkpt lat="43.37677" lon="6.17478">
        <ele>404.79998779297</ele>
        <time>2017-05-24T15:15:45Z</time>
      </trkpt>
      <trkpt lat="43.37684" lon="6.1747">
        <ele>404.39999389648</ele>
        <time>2017-05-24T15:15:47Z</time>
      </trkpt>
      <trkpt lat="43.37688" lon="6.17456">
        <ele>403.39999389648</ele>
        <time>2017-05-24T15:15:50Z</time>
      </trkpt>
      <trkpt lat="43.3769" lon="6.17453">
        <ele>403.20001220703</ele>
        <time>2017-05-24T15:15:51Z</time>
      </trkpt>
      <trkpt lat="43.37692" lon="6.1745">
        <ele>402.79998779297</ele>
        <time>2017-05-24T15:15:52Z</time>
      </trkpt>
      <trkpt lat="43.37698" lon="6.17444">
        <ele>402.39999389648</ele>
        <time>2017-05-24T15:15:54Z</time>
      </trkpt>
      <trkpt lat="43.37704" lon="6.17431">
        <ele>401.79998779297</ele>
        <time>2017-05-24T15:15:57Z</time>
      </trkpt>
      <trkpt lat="43.37705" lon="6.17425">
        <ele>401.39999389648</ele>
        <time>2017-05-24T15:15:58Z</time>
      </trkpt>
      <trkpt lat="43.37706" lon="6.17414">
        <ele>399.79998779297</ele>
        <time>2017-05-24T15:16:00Z</time>
      </trkpt>
      <trkpt lat="43.37706" lon="6.17405">
        <ele>398.79998779297</ele>
        <time>2017-05-24T15:16:02Z</time>
      </trkpt>
      <trkpt lat="43.37712" lon="6.17371">
        <ele>398.20001220703</ele>
        <time>2017-05-24T15:16:12Z</time>
      </trkpt>
      <trkpt lat="43.37715" lon="6.17357">
        <ele>397.79998779297</ele>
        <time>2017-05-24T15:16:16Z</time>
      </trkpt>
      <trkpt lat="43.37719" lon="6.17333">
        <ele>396.79998779297</ele>
        <time>2017-05-24T15:16:22Z</time>
      </trkpt>
      <trkpt lat="43.37733" lon="6.173">
        <ele>395.39999389648</ele>
        <time>2017-05-24T15:16:30Z</time>
      </trkpt>
      <trkpt lat="43.37736" lon="6.1729">
        <ele>394.79998779297</ele>
        <time>2017-05-24T15:16:32Z</time>
      </trkpt>
      <trkpt lat="43.3774" lon="6.17281">
        <ele>394.20001220703</ele>
        <time>2017-05-24T15:16:34Z</time>
      </trkpt>
      <trkpt lat="43.37748" lon="6.17265">
        <ele>393</ele>
        <time>2017-05-24T15:16:38Z</time>
      </trkpt>
      <trkpt lat="43.3775" lon="6.17257">
        <ele>392</ele>
        <time>2017-05-24T15:16:41Z</time>
      </trkpt>
      <trkpt lat="43.37751" lon="6.17256">
        <ele>392</ele>
        <time>2017-05-24T15:16:42Z</time>
      </trkpt>
      <trkpt lat="43.37751" lon="6.17253">
        <ele>391.79998779297</ele>
        <time>2017-05-24T15:16:44Z</time>
      </trkpt>
      <trkpt lat="43.37754" lon="6.17244">
        <ele>392</ele>
        <time>2017-05-24T15:16:47Z</time>
      </trkpt>
      <trkpt lat="43.37755" lon="6.17232">
        <ele>391.79998779297</ele>
        <time>2017-05-24T15:16:52Z</time>
      </trkpt>
      <trkpt lat="43.37754" lon="6.1723">
        <ele>391.60000610352</ele>
        <time>2017-05-24T15:16:53Z</time>
      </trkpt>
      <trkpt lat="43.37761" lon="6.172">
        <ele>391.60000610352</ele>
        <time>2017-05-24T15:17:02Z</time>
      </trkpt>
      <trkpt lat="43.37767" lon="6.17186">
        <ele>391</ele>
        <time>2017-05-24T15:17:07Z</time>
      </trkpt>
      <trkpt lat="43.37767" lon="6.17182">
        <ele>391</ele>
        <time>2017-05-24T15:17:12Z</time>
      </trkpt>
      <trkpt lat="43.37767" lon="6.17182">
        <ele>391.39999389648</ele>
        <time>2017-05-24T15:17:32Z</time>
      </trkpt>
      <trkpt lat="43.37767" lon="6.17181">
        <ele>391.20001220703</ele>
        <time>2017-05-24T15:18:12Z</time>
      </trkpt>
      <trkpt lat="43.37759" lon="6.17177">
        <ele>390.79998779297</ele>
        <time>2017-05-24T15:18:20Z</time>
      </trkpt>
      <trkpt lat="43.37755" lon="6.17175">
        <ele>390.60000610352</ele>
        <time>2017-05-24T15:18:22Z</time>
      </trkpt>
      <trkpt lat="43.3773" lon="6.17159">
        <ele>391</ele>
        <time>2017-05-24T15:18:32Z</time>
      </trkpt>
      <trkpt lat="43.37718" lon="6.17155">
        <ele>391.39999389648</ele>
        <time>2017-05-24T15:18:36Z</time>
      </trkpt>
      <trkpt lat="43.37698" lon="6.17147">
        <ele>391.39999389648</ele>
        <time>2017-05-24T15:18:42Z</time>
      </trkpt>
      <trkpt lat="43.37669" lon="6.17146">
        <ele>391.20001220703</ele>
        <time>2017-05-24T15:18:52Z</time>
      </trkpt>
      <trkpt lat="43.37656" lon="6.17145">
        <ele>391.20001220703</ele>
        <time>2017-05-24T15:18:56Z</time>
      </trkpt>
      <trkpt lat="43.37639" lon="6.17136">
        <ele>389.60000610352</ele>
        <time>2017-05-24T15:19:00Z</time>
      </trkpt>
      <trkpt lat="43.37634" lon="6.1713">
        <ele>388.79998779297</ele>
        <time>2017-05-24T15:19:02Z</time>
      </trkpt>
      <trkpt lat="43.37621" lon="6.17099">
        <ele>389.79998779297</ele>
        <time>2017-05-24T15:19:12Z</time>
      </trkpt>
      <trkpt lat="43.37619" lon="6.17084">
        <ele>389.79998779297</ele>
        <time>2017-05-24T15:19:18Z</time>
      </trkpt>
      <trkpt lat="43.37619" lon="6.17071">
        <ele>389.20001220703</ele>
        <time>2017-05-24T15:19:22Z</time>
      </trkpt>
      <trkpt lat="43.37619" lon="6.17061">
        <ele>389</ele>
        <time>2017-05-24T15:19:24Z</time>
      </trkpt>
      <trkpt lat="43.37618" lon="6.17049">
        <ele>388.60000610352</ele>
        <time>2017-05-24T15:19:26Z</time>
      </trkpt>
      <trkpt lat="43.37617" lon="6.17042">
        <ele>388.20001220703</ele>
        <time>2017-05-24T15:19:27Z</time>
      </trkpt>
      <trkpt lat="43.37613" lon="6.17021">
        <ele>387</ele>
        <time>2017-05-24T15:19:30Z</time>
      </trkpt>
      <trkpt lat="43.37613" lon="6.17014">
        <ele>386.60000610352</ele>
        <time>2017-05-24T15:19:31Z</time>
      </trkpt>
      <trkpt lat="43.37614" lon="6.17002">
        <ele>386</ele>
        <time>2017-05-24T15:19:33Z</time>
      </trkpt>
      <trkpt lat="43.37617" lon="6.16996">
        <ele>386</ele>
        <time>2017-05-24T15:19:34Z</time>
      </trkpt>
      <trkpt lat="43.37629" lon="6.16973">
        <ele>385.60000610352</ele>
        <time>2017-05-24T15:19:38Z</time>
      </trkpt>
      <trkpt lat="43.37636" lon="6.16953">
        <ele>385</ele>
        <time>2017-05-24T15:19:41Z</time>
      </trkpt>
      <trkpt lat="43.37639" lon="6.16946">
        <ele>384.60000610352</ele>
        <time>2017-05-24T15:19:42Z</time>
      </trkpt>
      <trkpt lat="43.37648" lon="6.16924">
        <ele>383.60000610352</ele>
        <time>2017-05-24T15:19:45Z</time>
      </trkpt>
      <trkpt lat="43.37661" lon="6.16884">
        <ele>382.39999389648</ele>
        <time>2017-05-24T15:19:50Z</time>
      </trkpt>
      <trkpt lat="43.37664" lon="6.16875">
        <ele>382.39999389648</ele>
        <time>2017-05-24T15:19:51Z</time>
      </trkpt>
      <trkpt lat="43.37667" lon="6.16867">
        <ele>382.20001220703</ele>
        <time>2017-05-24T15:19:52Z</time>
      </trkpt>
      <trkpt lat="43.3767" lon="6.16859">
        <ele>382</ele>
        <time>2017-05-24T15:19:53Z</time>
      </trkpt>
      <trkpt lat="43.37675" lon="6.16842">
        <ele>381.39999389648</ele>
        <time>2017-05-24T15:19:55Z</time>
      </trkpt>
      <trkpt lat="43.37678" lon="6.16834">
        <ele>381</ele>
        <time>2017-05-24T15:19:56Z</time>
      </trkpt>
      <trkpt lat="43.3769" lon="6.16809">
        <ele>380.20001220703</ele>
        <time>2017-05-24T15:19:59Z</time>
      </trkpt>
      <trkpt lat="43.377" lon="6.16787">
        <ele>379.20001220703</ele>
        <time>2017-05-24T15:20:02Z</time>
      </trkpt>
      <trkpt lat="43.37704" lon="6.16782">
        <ele>378.79998779297</ele>
        <time>2017-05-24T15:20:03Z</time>
      </trkpt>
      <trkpt lat="43.37713" lon="6.16773">
        <ele>378</ele>
        <time>2017-05-24T15:20:05Z</time>
      </trkpt>
      <trkpt lat="43.37719" lon="6.16758">
        <ele>377.20001220703</ele>
        <time>2017-05-24T15:20:07Z</time>
      </trkpt>
      <trkpt lat="43.3772" lon="6.1675">
        <ele>376.79998779297</ele>
        <time>2017-05-24T15:20:08Z</time>
      </trkpt>
      <trkpt lat="43.37724" lon="6.16726">
        <ele>375.60000610352</ele>
        <time>2017-05-24T15:20:11Z</time>
      </trkpt>
      <trkpt lat="43.37725" lon="6.16718">
        <ele>375.39999389648</ele>
        <time>2017-05-24T15:20:12Z</time>
      </trkpt>
      <trkpt lat="43.37735" lon="6.1668">
        <ele>374.60000610352</ele>
        <time>2017-05-24T15:20:17Z</time>
      </trkpt>
      <trkpt lat="43.37747" lon="6.16643">
        <ele>373.79998779297</ele>
        <time>2017-05-24T15:20:22Z</time>
      </trkpt>
      <trkpt lat="43.37753" lon="6.1663">
        <ele>373.39999389648</ele>
        <time>2017-05-24T15:20:24Z</time>
      </trkpt>
      <trkpt lat="43.37777" lon="6.16593">
        <ele>372.39999389648</ele>
        <time>2017-05-24T15:20:30Z</time>
      </trkpt>
      <trkpt lat="43.37796" lon="6.16561">
        <ele>371.20001220703</ele>
        <time>2017-05-24T15:20:35Z</time>
      </trkpt>
      <trkpt lat="43.37818" lon="6.16543">
        <ele>370.39999389648</ele>
        <time>2017-05-24T15:20:39Z</time>
      </trkpt>
      <trkpt lat="43.37823" lon="6.16538">
        <ele>369.79998779297</ele>
        <time>2017-05-24T15:20:40Z</time>
      </trkpt>
      <trkpt lat="43.37833" lon="6.16524">
        <ele>369.20001220703</ele>
        <time>2017-05-24T15:20:42Z</time>
      </trkpt>
      <trkpt lat="43.37855" lon="6.16482">
        <ele>367.60000610352</ele>
        <time>2017-05-24T15:20:47Z</time>
      </trkpt>
      <trkpt lat="43.37872" lon="6.16459">
        <ele>366.20001220703</ele>
        <time>2017-05-24T15:20:50Z</time>
      </trkpt>
      <trkpt lat="43.37881" lon="6.16441">
        <ele>365.60000610352</ele>
        <time>2017-05-24T15:20:52Z</time>
      </trkpt>
      <trkpt lat="43.37898" lon="6.16404">
        <ele>365</ele>
        <time>2017-05-24T15:20:56Z</time>
      </trkpt>
      <trkpt lat="43.37911" lon="6.16378">
        <ele>363.79998779297</ele>
        <time>2017-05-24T15:20:59Z</time>
      </trkpt>
      <trkpt lat="43.37932" lon="6.16335">
        <ele>362.79998779297</ele>
        <time>2017-05-24T15:21:04Z</time>
      </trkpt>
      <trkpt lat="43.37949" lon="6.16302">
        <ele>361.39999389648</ele>
        <time>2017-05-24T15:21:08Z</time>
      </trkpt>
      <trkpt lat="43.3796" lon="6.16279">
        <ele>360.60000610352</ele>
        <time>2017-05-24T15:21:12Z</time>
      </trkpt>
      <trkpt lat="43.37962" lon="6.16277">
        <ele>360.39999389648</ele>
        <time>2017-05-24T15:21:13Z</time>
      </trkpt>
      <trkpt lat="43.37964" lon="6.16277">
        <ele>360.60000610352</ele>
        <time>2017-05-24T15:21:22Z</time>
      </trkpt>
      <trkpt lat="43.37964" lon="6.16277">
        <ele>360.79998779297</ele>
        <time>2017-05-24T15:21:37Z</time>
      </trkpt>
      <trkpt lat="43.37965" lon="6.16276">
        <ele>360.39999389648</ele>
        <time>2017-05-24T15:22:31Z</time>
      </trkpt>
      <trkpt lat="43.37966" lon="6.16277">
        <ele>360.39999389648</ele>
        <time>2017-05-24T15:22:32Z</time>
      </trkpt>
      <trkpt lat="43.37969" lon="6.16281">
        <ele>360.39999389648</ele>
        <time>2017-05-24T15:22:34Z</time>
      </trkpt>
      <trkpt lat="43.37981" lon="6.16294">
        <ele>359.79998779297</ele>
        <time>2017-05-24T15:22:38Z</time>
      </trkpt>
      <trkpt lat="43.37988" lon="6.163">
        <ele>359.60000610352</ele>
        <time>2017-05-24T15:22:40Z</time>
      </trkpt>
      <trkpt lat="43.37996" lon="6.16305">
        <ele>359.60000610352</ele>
        <time>2017-05-24T15:22:42Z</time>
      </trkpt>
      <trkpt lat="43.38007" lon="6.16309">
        <ele>359.20001220703</ele>
        <time>2017-05-24T15:22:44Z</time>
      </trkpt>
      <trkpt lat="43.38018" lon="6.16308">
        <ele>358.20001220703</ele>
        <time>2017-05-24T15:22:46Z</time>
      </trkpt>
      <trkpt lat="43.38023" lon="6.16306">
        <ele>357.79998779297</ele>
        <time>2017-05-24T15:22:47Z</time>
      </trkpt>
      <trkpt lat="43.38029" lon="6.16303">
        <ele>357.39999389648</ele>
        <time>2017-05-24T15:22:48Z</time>
      </trkpt>
      <trkpt lat="43.38039" lon="6.16291">
        <ele>356.79998779297</ele>
        <time>2017-05-24T15:22:50Z</time>
      </trkpt>
      <trkpt lat="43.38049" lon="6.16276">
        <ele>356</ele>
        <time>2017-05-24T15:22:52Z</time>
      </trkpt>
      <trkpt lat="43.38054" lon="6.16268">
        <ele>355.60000610352</ele>
        <time>2017-05-24T15:22:53Z</time>
      </trkpt>
      <trkpt lat="43.38072" lon="6.16239">
        <ele>354.20001220703</ele>
        <time>2017-05-24T15:22:57Z</time>
      </trkpt>
      <trkpt lat="43.38086" lon="6.16217">
        <ele>353</ele>
        <time>2017-05-24T15:23:00Z</time>
      </trkpt>
      <trkpt lat="43.38095" lon="6.16202">
        <ele>352.20001220703</ele>
        <time>2017-05-24T15:23:02Z</time>
      </trkpt>
      <trkpt lat="43.38105" lon="6.16186">
        <ele>351.79998779297</ele>
        <time>2017-05-24T15:23:04Z</time>
      </trkpt>
      <trkpt lat="43.3812" lon="6.16162">
        <ele>350.79998779297</ele>
        <time>2017-05-24T15:23:07Z</time>
      </trkpt>
      <trkpt lat="43.38129" lon="6.16144">
        <ele>349.60000610352</ele>
        <time>2017-05-24T15:23:09Z</time>
      </trkpt>
      <trkpt lat="43.38144" lon="6.16119">
        <ele>348.79998779297</ele>
        <time>2017-05-24T15:23:12Z</time>
      </trkpt>
      <trkpt lat="43.38154" lon="6.16103">
        <ele>348.39999389648</ele>
        <time>2017-05-24T15:23:14Z</time>
      </trkpt>
      <trkpt lat="43.38169" lon="6.1608">
        <ele>347.39999389648</ele>
        <time>2017-05-24T15:23:17Z</time>
      </trkpt>
      <trkpt lat="43.3819" lon="6.16048">
        <ele>346.20001220703</ele>
        <time>2017-05-24T15:23:22Z</time>
      </trkpt>
      <trkpt lat="43.38192" lon="6.16039">
        <ele>346</ele>
        <time>2017-05-24T15:23:24Z</time>
      </trkpt>
      <trkpt lat="43.38186" lon="6.16022">
        <ele>346.60000610352</ele>
        <time>2017-05-24T15:23:29Z</time>
      </trkpt>
      <trkpt lat="43.38183" lon="6.16017">
        <ele>346.79998779297</ele>
        <time>2017-05-24T15:23:31Z</time>
      </trkpt>
      <trkpt lat="43.38175" lon="6.16008">
        <ele>347</ele>
        <time>2017-05-24T15:23:35Z</time>
      </trkpt>
      <trkpt lat="43.38169" lon="6.16002">
        <ele>347.39999389648</ele>
        <time>2017-05-24T15:23:38Z</time>
      </trkpt>
      <trkpt lat="43.38168" lon="6.16">
        <ele>347.39999389648</ele>
        <time>2017-05-24T15:23:39Z</time>
      </trkpt>
      <trkpt lat="43.38164" lon="6.15993">
        <ele>347.20001220703</ele>
        <time>2017-05-24T15:23:42Z</time>
      </trkpt>
      <trkpt lat="43.38148" lon="6.15982">
        <ele>346.60000610352</ele>
        <time>2017-05-24T15:23:52Z</time>
      </trkpt>
      <trkpt lat="43.38144" lon="6.1598">
        <ele>346.39999389648</ele>
        <time>2017-05-24T15:23:56Z</time>
      </trkpt>
      <trkpt lat="43.38144" lon="6.1598">
        <ele>346.20001220703</ele>
        <time>2017-05-24T15:24:02Z</time>
      </trkpt>
      <trkpt lat="43.38144" lon="6.1598">
        <ele>346</ele>
        <time>2017-05-24T15:24:19Z</time>
      </trkpt>
      <trkpt lat="43.38144" lon="6.1598">
        <ele>346.60000610352</ele>
        <time>2017-05-24T15:26:02Z</time>
      </trkpt>
      <trkpt lat="43.38142" lon="6.15979">
        <ele>346.60000610352</ele>
        <time>2017-05-24T15:26:10Z</time>
      </trkpt>
      <trkpt lat="43.38139" lon="6.15975">
        <ele>346.60000610352</ele>
        <time>2017-05-24T15:26:12Z</time>
      </trkpt>
      <trkpt lat="43.38125" lon="6.15965">
        <ele>345.60000610352</ele>
        <time>2017-05-24T15:26:16Z</time>
      </trkpt>
      <trkpt lat="43.38121" lon="6.1596">
        <ele>345.20001220703</ele>
        <time>2017-05-24T15:26:17Z</time>
      </trkpt>
      <trkpt lat="43.38105" lon="6.15943">
        <ele>344.60000610352</ele>
        <time>2017-05-24T15:26:21Z</time>
      </trkpt>
      <trkpt lat="43.38101" lon="6.1594">
        <ele>344.39999389648</ele>
        <time>2017-05-24T15:26:22Z</time>
      </trkpt>
      <trkpt lat="43.38097" lon="6.15937">
        <ele>344.20001220703</ele>
        <time>2017-05-24T15:26:23Z</time>
      </trkpt>
      <trkpt lat="43.38087" lon="6.15926">
        <ele>344.20001220703</ele>
        <time>2017-05-24T15:26:27Z</time>
      </trkpt>
      <trkpt lat="43.38086" lon="6.15924">
        <ele>344.60000610352</ele>
        <time>2017-05-24T15:26:28Z</time>
      </trkpt>
      <trkpt lat="43.38085" lon="6.15921">
        <ele>345.20001220703</ele>
        <time>2017-05-24T15:26:29Z</time>
      </trkpt>
      <trkpt lat="43.38084" lon="6.15918">
        <ele>345.79998779297</ele>
        <time>2017-05-24T15:26:30Z</time>
      </trkpt>
      <trkpt lat="43.38079" lon="6.15914">
        <ele>346.39999389648</ele>
        <time>2017-05-24T15:26:32Z</time>
      </trkpt>
      <trkpt lat="43.38074" lon="6.15912">
        <ele>346.79998779297</ele>
        <time>2017-05-24T15:26:34Z</time>
      </trkpt>
      <trkpt lat="43.38067" lon="6.15913">
        <ele>347</ele>
        <time>2017-05-24T15:26:37Z</time>
      </trkpt>
      <trkpt lat="43.3806" lon="6.15913">
        <ele>347.39999389648</ele>
        <time>2017-05-24T15:26:40Z</time>
      </trkpt>
      <trkpt lat="43.38054" lon="6.15912">
        <ele>347.79998779297</ele>
        <time>2017-05-24T15:26:42Z</time>
      </trkpt>
      <trkpt lat="43.38042" lon="6.15907">
        <ele>348.60000610352</ele>
        <time>2017-05-24T15:26:47Z</time>
      </trkpt>
      <trkpt lat="43.38039" lon="6.15908">
        <ele>349</ele>
        <time>2017-05-24T15:26:52Z</time>
      </trkpt>
      <trkpt lat="43.38039" lon="6.15908">
        <ele>349</ele>
        <time>2017-05-24T15:26:56Z</time>
      </trkpt>
      <trkpt lat="43.38039" lon="6.15908">
        <ele>349.20001220703</ele>
        <time>2017-05-24T15:27:11Z</time>
      </trkpt>
      <trkpt lat="43.38039" lon="6.15908">
        <ele>349.39999389648</ele>
        <time>2017-05-24T15:27:17Z</time>
      </trkpt>
      <trkpt lat="43.3804" lon="6.15909">
        <ele>349</ele>
        <time>2017-05-24T15:27:21Z</time>
      </trkpt>
      <trkpt lat="43.3804" lon="6.15909">
        <ele>349</ele>
        <time>2017-05-24T15:27:28Z</time>
      </trkpt>
      <trkpt lat="43.3804" lon="6.15909">
        <ele>349.20001220703</ele>
        <time>2017-05-24T15:27:35Z</time>
      </trkpt>
      <trkpt lat="43.38034" lon="6.15906">
        <ele>349.20001220703</ele>
        <time>2017-05-24T15:27:39Z</time>
      </trkpt>
      <trkpt lat="43.38033" lon="6.15912">
        <ele>349.20001220703</ele>
        <time>2017-05-24T15:27:42Z</time>
      </trkpt>
      <trkpt lat="43.38034" lon="6.15912">
        <ele>349.20001220703</ele>
        <time>2017-05-24T15:27:44Z</time>
      </trkpt>
      <trkpt lat="43.38036" lon="6.1591">
        <ele>349.20001220703</ele>
        <time>2017-05-24T15:27:46Z</time>
      </trkpt>
      <trkpt lat="43.38036" lon="6.15909">
        <ele>349.39999389648</ele>
        <time>2017-05-24T15:27:47Z</time>
      </trkpt>
      <trkpt lat="43.38044" lon="6.1591">
        <ele>349</ele>
        <time>2017-05-24T15:27:52Z</time>
      </trkpt>
      <trkpt lat="43.38067" lon="6.15914">
        <ele>348.20001220703</ele>
        <time>2017-05-24T15:27:59Z</time>
      </trkpt>
      <trkpt lat="43.38075" lon="6.15913">
        <ele>347.60000610352</ele>
        <time>2017-05-24T15:28:01Z</time>
      </trkpt>
      <trkpt lat="43.38079" lon="6.15913">
        <ele>347.39999389648</ele>
        <time>2017-05-24T15:28:02Z</time>
      </trkpt>
      <trkpt lat="43.38083" lon="6.15915">
        <ele>347.20001220703</ele>
        <time>2017-05-24T15:28:03Z</time>
      </trkpt>
      <trkpt lat="43.38093" lon="6.15928">
        <ele>346.20001220703</ele>
        <time>2017-05-24T15:28:07Z</time>
      </trkpt>
      <trkpt lat="43.38097" lon="6.15934">
        <ele>345.20001220703</ele>
        <time>2017-05-24T15:28:10Z</time>
      </trkpt>
      <trkpt lat="43.38097" lon="6.15934">
        <ele>344.79998779297</ele>
        <time>2017-05-24T15:28:12Z</time>
      </trkpt>
      <trkpt lat="43.38097" lon="6.15935">
        <ele>344.20001220703</ele>
        <time>2017-05-24T15:28:20Z</time>
      </trkpt>
      <trkpt lat="43.38097" lon="6.15935">
        <ele>344.20001220703</ele>
        <time>2017-05-24T15:28:22Z</time>
      </trkpt>
      <trkpt lat="43.38097" lon="6.15934">
        <ele>344.39999389648</ele>
        <time>2017-05-24T15:28:36Z</time>
      </trkpt>
      <trkpt lat="43.38097" lon="6.15934">
        <ele>344.60000610352</ele>
        <time>2017-05-24T15:28:42Z</time>
      </trkpt>
      <trkpt lat="43.38097" lon="6.15934">
        <ele>344.79998779297</ele>
        <time>2017-05-24T15:28:47Z</time>
      </trkpt>
      <trkpt lat="43.38095" lon="6.15931">
        <ele>344.79998779297</ele>
        <time>2017-05-24T15:28:52Z</time>
      </trkpt>
      <trkpt lat="43.3809" lon="6.15926">
        <ele>345</ele>
        <time>2017-05-24T15:28:55Z</time>
      </trkpt>
      <trkpt lat="43.38087" lon="6.15922">
        <ele>345.20001220703</ele>
        <time>2017-05-24T15:28:57Z</time>
      </trkpt>
      <trkpt lat="43.3808" lon="6.15914">
        <ele>346.20001220703</ele>
        <time>2017-05-24T15:29:02Z</time>
      </trkpt>
      <trkpt lat="43.38079" lon="6.15912">
        <ele>346.20001220703</ele>
        <time>2017-05-24T15:29:03Z</time>
      </trkpt>
      <trkpt lat="43.38076" lon="6.1591">
        <ele>346.79998779297</ele>
        <time>2017-05-24T15:29:05Z</time>
      </trkpt>
      <trkpt lat="43.38067" lon="6.15913">
        <ele>347.39999389648</ele>
        <time>2017-05-24T15:29:09Z</time>
      </trkpt>
      <trkpt lat="43.3806" lon="6.15914">
        <ele>347.79998779297</ele>
        <time>2017-05-24T15:29:12Z</time>
      </trkpt>
      <trkpt lat="43.38044" lon="6.15908">
        <ele>348.39999389648</ele>
        <time>2017-05-24T15:29:20Z</time>
      </trkpt>
      <trkpt lat="43.3804" lon="6.15907">
        <ele>348.39999389648</ele>
        <time>2017-05-24T15:29:22Z</time>
      </trkpt>
      <trkpt lat="43.38033" lon="6.15906">
        <ele>348.60000610352</ele>
        <time>2017-05-24T15:29:26Z</time>
      </trkpt>
      <trkpt lat="43.38031" lon="6.15905">
        <ele>348.60000610352</ele>
        <time>2017-05-24T15:29:32Z</time>
      </trkpt>
      <trkpt lat="43.38031" lon="6.15906">
        <ele>348.60000610352</ele>
        <time>2017-05-24T15:29:40Z</time>
      </trkpt>
      <trkpt lat="43.38031" lon="6.15906">
        <ele>348.60000610352</ele>
        <time>2017-05-24T15:29:42Z</time>
      </trkpt>
      <trkpt lat="43.38031" lon="6.15906">
        <ele>348.60000610352</ele>
        <time>2017-05-24T15:29:52Z</time>
      </trkpt>
      <trkpt lat="43.38031" lon="6.15906">
        <ele>348.60000610352</ele>
        <time>2017-05-24T15:29:57Z</time>
      </trkpt>
      <trkpt lat="43.3803" lon="6.15905">
        <ele>348.60000610352</ele>
        <time>2017-05-24T15:30:02Z</time>
      </trkpt>
      <trkpt lat="43.38028" lon="6.15903">
        <ele>348.60000610352</ele>
        <time>2017-05-24T15:30:04Z</time>
      </trkpt>
      <trkpt lat="43.38028" lon="6.15903">
        <ele>348.39999389648</ele>
        <time>2017-05-24T15:30:08Z</time>
      </trkpt>
      <trkpt lat="43.38028" lon="6.15903">
        <ele>348.20001220703</ele>
        <time>2017-05-24T15:30:12Z</time>
      </trkpt>
      <trkpt lat="43.38028" lon="6.15904">
        <ele>348.20001220703</ele>
        <time>2017-05-24T15:30:18Z</time>
      </trkpt>
      <trkpt lat="43.38027" lon="6.15905">
        <ele>348</ele>
        <time>2017-05-24T15:30:27Z</time>
      </trkpt>
      <trkpt lat="43.38028" lon="6.15906">
        <ele>348</ele>
        <time>2017-05-24T15:30:29Z</time>
      </trkpt>
      <trkpt lat="43.38031" lon="6.15907">
        <ele>348.20001220703</ele>
        <time>2017-05-24T15:30:31Z</time>
      </trkpt>
      <trkpt lat="43.38033" lon="6.15908">
        <ele>348.39999389648</ele>
        <time>2017-05-24T15:30:32Z</time>
      </trkpt>
      <trkpt lat="43.38047" lon="6.1591">
        <ele>348.79998779297</ele>
        <time>2017-05-24T15:30:40Z</time>
      </trkpt>
      <trkpt lat="43.38047" lon="6.1591">
        <ele>348.79998779297</ele>
        <time>2017-05-24T15:30:42Z</time>
      </trkpt>
      <trkpt lat="43.38046" lon="6.1591">
        <ele>348.39999389648</ele>
        <time>2017-05-24T15:30:52Z</time>
      </trkpt>
      <trkpt lat="43.38038" lon="6.15907">
        <ele>348.60000610352</ele>
        <time>2017-05-24T15:31:01Z</time>
      </trkpt>
      <trkpt lat="43.38036" lon="6.15907">
        <ele>348.39999389648</ele>
        <time>2017-05-24T15:31:02Z</time>
      </trkpt>
      <trkpt lat="43.38009" lon="6.15895">
        <ele>347.60000610352</ele>
        <time>2017-05-24T15:31:11Z</time>
      </trkpt>
      <trkpt lat="43.38005" lon="6.15895">
        <ele>347.39999389648</ele>
        <time>2017-05-24T15:31:12Z</time>
      </trkpt>
      <trkpt lat="43.38001" lon="6.15896">
        <ele>347.20001220703</ele>
        <time>2017-05-24T15:31:13Z</time>
      </trkpt>
      <trkpt lat="43.37983" lon="6.15895">
        <ele>346.79998779297</ele>
        <time>2017-05-24T15:31:19Z</time>
      </trkpt>
      <trkpt lat="43.37976" lon="6.15886">
        <ele>347.20001220703</ele>
        <time>2017-05-24T15:31:22Z</time>
      </trkpt>
      <trkpt lat="43.3797" lon="6.1588">
        <ele>347.79998779297</ele>
        <time>2017-05-24T15:31:25Z</time>
      </trkpt>
      <trkpt lat="43.37967" lon="6.15878">
        <ele>348.39999389648</ele>
        <time>2017-05-24T15:31:26Z</time>
      </trkpt>
      <trkpt lat="43.37961" lon="6.15874">
        <ele>349.39999389648</ele>
        <time>2017-05-24T15:31:29Z</time>
      </trkpt>
      <trkpt lat="43.3796" lon="6.15871">
        <ele>349.60000610352</ele>
        <time>2017-05-24T15:31:30Z</time>
      </trkpt>
      <trkpt lat="43.3796" lon="6.15866">
        <ele>349.79998779297</ele>
        <time>2017-05-24T15:31:32Z</time>
      </trkpt>
      <trkpt lat="43.37961" lon="6.15864">
        <ele>349.79998779297</ele>
        <time>2017-05-24T15:31:33Z</time>
      </trkpt>
      <trkpt lat="43.37982" lon="6.15854">
        <ele>349.39999389648</ele>
        <time>2017-05-24T15:31:41Z</time>
      </trkpt>
      <trkpt lat="43.37987" lon="6.15852">
        <ele>349.20001220703</ele>
        <time>2017-05-24T15:31:42Z</time>
      </trkpt>
      <trkpt lat="43.38007" lon="6.15846">
        <ele>348.20001220703</ele>
        <time>2017-05-24T15:31:46Z</time>
      </trkpt>
      <trkpt lat="43.38035" lon="6.15837">
        <ele>347</ele>
        <time>2017-05-24T15:31:51Z</time>
      </trkpt>
      <trkpt lat="43.38041" lon="6.15835">
        <ele>346.79998779297</ele>
        <time>2017-05-24T15:31:52Z</time>
      </trkpt>
      <trkpt lat="43.38071" lon="6.15825">
        <ele>345.79998779297</ele>
        <time>2017-05-24T15:31:57Z</time>
      </trkpt>
      <trkpt lat="43.38102" lon="6.15816">
        <ele>345</ele>
        <time>2017-05-24T15:32:02Z</time>
      </trkpt>
      <trkpt lat="43.38121" lon="6.15812">
        <ele>344.60000610352</ele>
        <time>2017-05-24T15:32:05Z</time>
      </trkpt>
      <trkpt lat="43.38139" lon="6.15809">
        <ele>344.20001220703</ele>
        <time>2017-05-24T15:32:08Z</time>
      </trkpt>
      <trkpt lat="43.38161" lon="6.15806">
        <ele>344</ele>
        <time>2017-05-24T15:32:12Z</time>
      </trkpt>
      <trkpt lat="43.38198" lon="6.15801">
        <ele>343.60000610352</ele>
        <time>2017-05-24T15:32:19Z</time>
      </trkpt>
      <trkpt lat="43.38215" lon="6.15798">
        <ele>343.39999389648</ele>
        <time>2017-05-24T15:32:22Z</time>
      </trkpt>
      <trkpt lat="43.38267" lon="6.15785">
        <ele>342.39999389648</ele>
        <time>2017-05-24T15:32:31Z</time>
      </trkpt>
      <trkpt lat="43.38273" lon="6.15784">
        <ele>342.39999389648</ele>
        <time>2017-05-24T15:32:32Z</time>
      </trkpt>
      <trkpt lat="43.38304" lon="6.15775">
        <ele>341.39999389648</ele>
        <time>2017-05-24T15:32:37Z</time>
      </trkpt>
      <trkpt lat="43.38331" lon="6.15757">
        <ele>340.79998779297</ele>
        <time>2017-05-24T15:32:42Z</time>
      </trkpt>
      <trkpt lat="43.38352" lon="6.15741">
        <ele>340.20001220703</ele>
        <time>2017-05-24T15:32:46Z</time>
      </trkpt>
      <trkpt lat="43.38379" lon="6.15713">
        <ele>339.60000610352</ele>
        <time>2017-05-24T15:32:52Z</time>
      </trkpt>
      <trkpt lat="43.38382" lon="6.15708">
        <ele>339.20001220703</ele>
        <time>2017-05-24T15:32:53Z</time>
      </trkpt>
      <trkpt lat="43.38384" lon="6.15701">
        <ele>338.79998779297</ele>
        <time>2017-05-24T15:32:54Z</time>
      </trkpt>
      <trkpt lat="43.38385" lon="6.15682">
        <ele>338.20001220703</ele>
        <time>2017-05-24T15:32:57Z</time>
      </trkpt>
      <trkpt lat="43.3838" lon="6.15666">
        <ele>338.20001220703</ele>
        <time>2017-05-24T15:33:01Z</time>
      </trkpt>
      <trkpt lat="43.38378" lon="6.15662">
        <ele>338.39999389648</ele>
        <time>2017-05-24T15:33:02Z</time>
      </trkpt>
      <trkpt lat="43.38372" lon="6.15653">
        <ele>339.20001220703</ele>
        <time>2017-05-24T15:33:06Z</time>
      </trkpt>
      <trkpt lat="43.38366" lon="6.15641">
        <ele>340.39999389648</ele>
        <time>2017-05-24T15:33:11Z</time>
      </trkpt>
      <trkpt lat="43.38365" lon="6.15639">
        <ele>340.60000610352</ele>
        <time>2017-05-24T15:33:12Z</time>
      </trkpt>
      <trkpt lat="43.3836" lon="6.15627">
        <ele>341.20001220703</ele>
        <time>2017-05-24T15:33:17Z</time>
      </trkpt>
      <trkpt lat="43.38355" lon="6.15616">
        <ele>341.79998779297</ele>
        <time>2017-05-24T15:33:22Z</time>
      </trkpt>
      <trkpt lat="43.38353" lon="6.15609">
        <ele>342.20001220703</ele>
        <time>2017-05-24T15:33:25Z</time>
      </trkpt>
      <trkpt lat="43.38351" lon="6.15604">
        <ele>342.60000610352</ele>
        <time>2017-05-24T15:33:27Z</time>
      </trkpt>
      <trkpt lat="43.38348" lon="6.15597">
        <ele>343.20001220703</ele>
        <time>2017-05-24T15:33:30Z</time>
      </trkpt>
      <trkpt lat="43.38346" lon="6.15593">
        <ele>343.79998779297</ele>
        <time>2017-05-24T15:33:32Z</time>
      </trkpt>
      <trkpt lat="43.38336" lon="6.15573">
        <ele>344.60000610352</ele>
        <time>2017-05-24T15:33:42Z</time>
      </trkpt>
      <trkpt lat="43.38331" lon="6.15569">
        <ele>344.79998779297</ele>
        <time>2017-05-24T15:33:45Z</time>
      </trkpt>
      <trkpt lat="43.38321" lon="6.1556">
        <ele>345.20001220703</ele>
        <time>2017-05-24T15:33:52Z</time>
      </trkpt>
      <trkpt lat="43.38311" lon="6.15531">
        <ele>344.79998779297</ele>
        <time>2017-05-24T15:34:02Z</time>
      </trkpt>
      <trkpt lat="43.38301" lon="6.15491">
        <ele>345</ele>
        <time>2017-05-24T15:34:12Z</time>
      </trkpt>
      <trkpt lat="43.38298" lon="6.15472">
        <ele>343.79998779297</ele>
        <time>2017-05-24T15:34:16Z</time>
      </trkpt>
      <trkpt lat="43.38295" lon="6.15459">
        <ele>343.39999389648</ele>
        <time>2017-05-24T15:34:19Z</time>
      </trkpt>
      <trkpt lat="43.38292" lon="6.15445">
        <ele>343.60000610352</ele>
        <time>2017-05-24T15:34:22Z</time>
      </trkpt>
      <trkpt lat="43.38285" lon="6.15398">
        <ele>343</ele>
        <time>2017-05-24T15:34:32Z</time>
      </trkpt>
      <trkpt lat="43.38282" lon="6.15368">
        <ele>342.60000610352</ele>
        <time>2017-05-24T15:34:38Z</time>
      </trkpt>
      <trkpt lat="43.38281" lon="6.15347">
        <ele>342.20001220703</ele>
        <time>2017-05-24T15:34:42Z</time>
      </trkpt>
      <trkpt lat="43.3828" lon="6.15305">
        <ele>342</ele>
        <time>2017-05-24T15:34:50Z</time>
      </trkpt>
      <trkpt lat="43.38279" lon="6.1529">
        <ele>341.39999389648</ele>
        <time>2017-05-24T15:34:53Z</time>
      </trkpt>
      <trkpt lat="43.38279" lon="6.15269">
        <ele>341.20001220703</ele>
        <time>2017-05-24T15:34:57Z</time>
      </trkpt>
      <trkpt lat="43.3828" lon="6.15242">
        <ele>341.20001220703</ele>
        <time>2017-05-24T15:35:02Z</time>
      </trkpt>
      <trkpt lat="43.38282" lon="6.15191">
        <ele>340.20001220703</ele>
        <time>2017-05-24T15:35:11Z</time>
      </trkpt>
      <trkpt lat="43.38285" lon="6.15136">
        <ele>340.20001220703</ele>
        <time>2017-05-24T15:35:21Z</time>
      </trkpt>
      <trkpt lat="43.38288" lon="6.15082">
        <ele>339.39999389648</ele>
        <time>2017-05-24T15:35:32Z</time>
      </trkpt>
      <trkpt lat="43.3829" lon="6.15062">
        <ele>339.20001220703</ele>
        <time>2017-05-24T15:35:36Z</time>
      </trkpt>
      <trkpt lat="43.38292" lon="6.15033">
        <ele>339</ele>
        <time>2017-05-24T15:35:41Z</time>
      </trkpt>
      <trkpt lat="43.38293" lon="6.15011">
        <ele>338.60000610352</ele>
        <time>2017-05-24T15:35:45Z</time>
      </trkpt>
      <trkpt lat="43.38293" lon="6.14994">
        <ele>338.39999389648</ele>
        <time>2017-05-24T15:35:48Z</time>
      </trkpt>
      <trkpt lat="43.38294" lon="6.1497">
        <ele>338</ele>
        <time>2017-05-24T15:35:52Z</time>
      </trkpt>
      <trkpt lat="43.38287" lon="6.14919">
        <ele>337</ele>
        <time>2017-05-24T15:36:00Z</time>
      </trkpt>
      <trkpt lat="43.38285" lon="6.14906">
        <ele>337</ele>
        <time>2017-05-24T15:36:02Z</time>
      </trkpt>
      <trkpt lat="43.38282" lon="6.14886">
        <ele>336.79998779297</ele>
        <time>2017-05-24T15:36:05Z</time>
      </trkpt>
      <trkpt lat="43.38274" lon="6.14857">
        <ele>337.20001220703</ele>
        <time>2017-05-24T15:36:10Z</time>
      </trkpt>
      <trkpt lat="43.3827" lon="6.14846">
        <ele>337.39999389648</ele>
        <time>2017-05-24T15:36:12Z</time>
      </trkpt>
      <trkpt lat="43.38252" lon="6.14815">
        <ele>337</ele>
        <time>2017-05-24T15:36:19Z</time>
      </trkpt>
      <trkpt lat="43.38245" lon="6.14798">
        <ele>336.79998779297</ele>
        <time>2017-05-24T15:36:22Z</time>
      </trkpt>
      <trkpt lat="43.38231" lon="6.14755">
        <ele>337.20001220703</ele>
        <time>2017-05-24T15:36:30Z</time>
      </trkpt>
      <trkpt lat="43.38232" lon="6.14744">
        <ele>337.39999389648</ele>
        <time>2017-05-24T15:36:32Z</time>
      </trkpt>
      <trkpt lat="43.38239" lon="6.14717">
        <ele>338.20001220703</ele>
        <time>2017-05-24T15:36:37Z</time>
      </trkpt>
      <trkpt lat="43.38256" lon="6.14637">
        <ele>338</ele>
        <time>2017-05-24T15:36:50Z</time>
      </trkpt>
      <trkpt lat="43.38259" lon="6.14625">
        <ele>337.79998779297</ele>
        <time>2017-05-24T15:36:52Z</time>
      </trkpt>
      <trkpt lat="43.38268" lon="6.14563">
        <ele>338</ele>
        <time>2017-05-24T15:37:02Z</time>
      </trkpt>
      <trkpt lat="43.38276" lon="6.145">
        <ele>338.20001220703</ele>
        <time>2017-05-24T15:37:12Z</time>
      </trkpt>
      <trkpt lat="43.3828" lon="6.14474">
        <ele>338.20001220703</ele>
        <time>2017-05-24T15:37:16Z</time>
      </trkpt>
      <trkpt lat="43.38287" lon="6.14439">
        <ele>338.60000610352</ele>
        <time>2017-05-24T15:37:22Z</time>
      </trkpt>
      <trkpt lat="43.38289" lon="6.14423">
        <ele>339.20001220703</ele>
        <time>2017-05-24T15:37:25Z</time>
      </trkpt>
      <trkpt lat="43.38293" lon="6.14382">
        <ele>339.39999389648</ele>
        <time>2017-05-24T15:37:32Z</time>
      </trkpt>
      <trkpt lat="43.383" lon="6.1432">
        <ele>339</ele>
        <time>2017-05-24T15:37:42Z</time>
      </trkpt>
      <trkpt lat="43.38307" lon="6.1426">
        <ele>339.20001220703</ele>
        <time>2017-05-24T15:37:52Z</time>
      </trkpt>
      <trkpt lat="43.38309" lon="6.14234">
        <ele>339.39999389648</ele>
        <time>2017-05-24T15:37:57Z</time>
      </trkpt>
      <trkpt lat="43.38312" lon="6.14213">
        <ele>339.39999389648</ele>
        <time>2017-05-24T15:38:02Z</time>
      </trkpt>
      <trkpt lat="43.38318" lon="6.14189">
        <ele>339.60000610352</ele>
        <time>2017-05-24T15:38:10Z</time>
      </trkpt>
      <trkpt lat="43.38328" lon="6.14152">
        <ele>340.20001220703</ele>
        <time>2017-05-24T15:38:21Z</time>
      </trkpt>
      <trkpt lat="43.38332" lon="6.1414">
        <ele>340.39999389648</ele>
        <time>2017-05-24T15:38:25Z</time>
      </trkpt>
      <trkpt lat="43.38338" lon="6.14117">
        <ele>340.79998779297</ele>
        <time>2017-05-24T15:38:32Z</time>
      </trkpt>
      <trkpt lat="43.38342" lon="6.14101">
        <ele>341.39999389648</ele>
        <time>2017-05-24T15:38:37Z</time>
      </trkpt>
      <trkpt lat="43.38348" lon="6.14081">
        <ele>341.20001220703</ele>
        <time>2017-05-24T15:38:42Z</time>
      </trkpt>
      <trkpt lat="43.38363" lon="6.14034">
        <ele>341</ele>
        <time>2017-05-24T15:38:52Z</time>
      </trkpt>
      <trkpt lat="43.38377" lon="6.13987">
        <ele>340.60000610352</ele>
        <time>2017-05-24T15:39:02Z</time>
      </trkpt>
      <trkpt lat="43.38393" lon="6.13942">
        <ele>340.79998779297</ele>
        <time>2017-05-24T15:39:12Z</time>
      </trkpt>
      <trkpt lat="43.38402" lon="6.13901">
        <ele>341.60000610352</ele>
        <time>2017-05-24T15:39:22Z</time>
      </trkpt>
      <trkpt lat="43.38405" lon="6.13859">
        <ele>341</ele>
        <time>2017-05-24T15:39:30Z</time>
      </trkpt>
      <trkpt lat="43.38406" lon="6.13847">
        <ele>341</ele>
        <time>2017-05-24T15:39:32Z</time>
      </trkpt>
      <trkpt lat="43.38414" lon="6.13787">
        <ele>340.39999389648</ele>
        <time>2017-05-24T15:39:42Z</time>
      </trkpt>
      <trkpt lat="43.38417" lon="6.13755">
        <ele>340.39999389648</ele>
        <time>2017-05-24T15:39:47Z</time>
      </trkpt>
      <trkpt lat="43.38422" lon="6.13723">
        <ele>340</ele>
        <time>2017-05-24T15:39:52Z</time>
      </trkpt>
      <trkpt lat="43.38432" lon="6.13671">
        <ele>339.39999389648</ele>
        <time>2017-05-24T15:40:00Z</time>
      </trkpt>
      <trkpt lat="43.38436" lon="6.13659">
        <ele>339</ele>
        <time>2017-05-24T15:40:02Z</time>
      </trkpt>
      <trkpt lat="43.38437" lon="6.13652">
        <ele>339</ele>
        <time>2017-05-24T15:40:03Z</time>
      </trkpt>
      <trkpt lat="43.38442" lon="6.13609">
        <ele>338</ele>
        <time>2017-05-24T15:40:09Z</time>
      </trkpt>
      <trkpt lat="43.38447" lon="6.13586">
        <ele>337.20001220703</ele>
        <time>2017-05-24T15:40:12Z</time>
      </trkpt>
      <trkpt lat="43.38449" lon="6.13579">
        <ele>336.79998779297</ele>
        <time>2017-05-24T15:40:13Z</time>
      </trkpt>
      <trkpt lat="43.38458" lon="6.13534">
        <ele>335.79998779297</ele>
        <time>2017-05-24T15:40:19Z</time>
      </trkpt>
      <trkpt lat="43.38463" lon="6.13509">
        <ele>335</ele>
        <time>2017-05-24T15:40:22Z</time>
      </trkpt>
      <trkpt lat="43.38469" lon="6.13473">
        <ele>333.79998779297</ele>
        <time>2017-05-24T15:40:26Z</time>
      </trkpt>
      <trkpt lat="43.3847" lon="6.13462">
        <ele>333.60000610352</ele>
        <time>2017-05-24T15:40:27Z</time>
      </trkpt>
      <trkpt lat="43.38473" lon="6.13432">
        <ele>332.39999389648</ele>
        <time>2017-05-24T15:40:30Z</time>
      </trkpt>
      <trkpt lat="43.38475" lon="6.13411">
        <ele>331.79998779297</ele>
        <time>2017-05-24T15:40:32Z</time>
      </trkpt>
      <trkpt lat="43.38476" lon="6.1339">
        <ele>331.20001220703</ele>
        <time>2017-05-24T15:40:34Z</time>
      </trkpt>
      <trkpt lat="43.38478" lon="6.13338">
        <ele>330.20001220703</ele>
        <time>2017-05-24T15:40:39Z</time>
      </trkpt>
      <trkpt lat="43.38479" lon="6.1331">
        <ele>329.60000610352</ele>
        <time>2017-05-24T15:40:42Z</time>
      </trkpt>
      <trkpt lat="43.3848" lon="6.13234">
        <ele>329.79998779297</ele>
        <time>2017-05-24T15:40:51Z</time>
      </trkpt>
      <trkpt lat="43.3848" lon="6.13226">
        <ele>329.79998779297</ele>
        <time>2017-05-24T15:40:52Z</time>
      </trkpt>
      <trkpt lat="43.38488" lon="6.13149">
        <ele>329</ele>
        <time>2017-05-24T15:41:02Z</time>
      </trkpt>
      <trkpt lat="43.38491" lon="6.13117">
        <ele>328</ele>
        <time>2017-05-24T15:41:06Z</time>
      </trkpt>
      <trkpt lat="43.38494" lon="6.13076">
        <ele>327.39999389648</ele>
        <time>2017-05-24T15:41:11Z</time>
      </trkpt>
      <trkpt lat="43.38494" lon="6.13069">
        <ele>327.39999389648</ele>
        <time>2017-05-24T15:41:12Z</time>
      </trkpt>
      <trkpt lat="43.38497" lon="6.13046">
        <ele>327.20001220703</ele>
        <time>2017-05-24T15:41:15Z</time>
      </trkpt>
      <trkpt lat="43.385" lon="6.13025">
        <ele>327.20001220703</ele>
        <time>2017-05-24T15:41:18Z</time>
      </trkpt>
      <trkpt lat="43.38503" lon="6.13003">
        <ele>327.39999389648</ele>
        <time>2017-05-24T15:41:21Z</time>
      </trkpt>
      <trkpt lat="43.38505" lon="6.12997">
        <ele>327.39999389648</ele>
        <time>2017-05-24T15:41:22Z</time>
      </trkpt>
      <trkpt lat="43.38522" lon="6.12927">
        <ele>327.60000610352</ele>
        <time>2017-05-24T15:41:32Z</time>
      </trkpt>
      <trkpt lat="43.38533" lon="6.12861">
        <ele>327.39999389648</ele>
        <time>2017-05-24T15:41:42Z</time>
      </trkpt>
      <trkpt lat="43.38535" lon="6.1285">
        <ele>327.60000610352</ele>
        <time>2017-05-24T15:41:44Z</time>
      </trkpt>
      <trkpt lat="43.38542" lon="6.12804">
        <ele>328</ele>
        <time>2017-05-24T15:41:52Z</time>
      </trkpt>
      <trkpt lat="43.38552" lon="6.12747">
        <ele>327.60000610352</ele>
        <time>2017-05-24T15:42:01Z</time>
      </trkpt>
      <trkpt lat="43.38554" lon="6.1274">
        <ele>327.60000610352</ele>
        <time>2017-05-24T15:42:02Z</time>
      </trkpt>
      <trkpt lat="43.38561" lon="6.12698">
        <ele>327.20001220703</ele>
        <time>2017-05-24T15:42:08Z</time>
      </trkpt>
      <trkpt lat="43.38564" lon="6.12683">
        <ele>327</ele>
        <time>2017-05-24T15:42:10Z</time>
      </trkpt>
      <trkpt lat="43.38565" lon="6.12669">
        <ele>326.79998779297</ele>
        <time>2017-05-24T15:42:12Z</time>
      </trkpt>
      <trkpt lat="43.38578" lon="6.12597">
        <ele>327</ele>
        <time>2017-05-24T15:42:22Z</time>
      </trkpt>
      <trkpt lat="43.38585" lon="6.12567">
        <ele>327.39999389648</ele>
        <time>2017-05-24T15:42:27Z</time>
      </trkpt>
      <trkpt lat="43.3859" lon="6.12542">
        <ele>327.79998779297</ele>
        <time>2017-05-24T15:42:32Z</time>
      </trkpt>
      <trkpt lat="43.38591" lon="6.12536">
        <ele>328</ele>
        <time>2017-05-24T15:42:33Z</time>
      </trkpt>
      <trkpt lat="43.386" lon="6.12496">
        <ele>327.79998779297</ele>
        <time>2017-05-24T15:42:40Z</time>
      </trkpt>
      <trkpt lat="43.38603" lon="6.12476">
        <ele>326.79998779297</ele>
        <time>2017-05-24T15:42:43Z</time>
      </trkpt>
      <trkpt lat="43.3861" lon="6.12436">
        <ele>326.20001220703</ele>
        <time>2017-05-24T15:42:49Z</time>
      </trkpt>
      <trkpt lat="43.38612" lon="6.12417">
        <ele>326.20001220703</ele>
        <time>2017-05-24T15:42:52Z</time>
      </trkpt>
      <trkpt lat="43.38614" lon="6.12378">
        <ele>325.79998779297</ele>
        <time>2017-05-24T15:42:58Z</time>
      </trkpt>
      <trkpt lat="43.38614" lon="6.12355">
        <ele>326</ele>
        <time>2017-05-24T15:43:02Z</time>
      </trkpt>
      <trkpt lat="43.38614" lon="6.12321">
        <ele>325.60000610352</ele>
        <time>2017-05-24T15:43:07Z</time>
      </trkpt>
      <trkpt lat="43.38618" lon="6.12281">
        <ele>324.60000610352</ele>
        <time>2017-05-24T15:43:12Z</time>
      </trkpt>
      <trkpt lat="43.38624" lon="6.12243">
        <ele>323.20001220703</ele>
        <time>2017-05-24T15:43:16Z</time>
      </trkpt>
      <trkpt lat="43.38628" lon="6.12212">
        <ele>322.20001220703</ele>
        <time>2017-05-24T15:43:19Z</time>
      </trkpt>
      <trkpt lat="43.38633" lon="6.12183">
        <ele>321.39999389648</ele>
        <time>2017-05-24T15:43:22Z</time>
      </trkpt>
      <trkpt lat="43.3865" lon="6.12097">
        <ele>321</ele>
        <time>2017-05-24T15:43:32Z</time>
      </trkpt>
      <trkpt lat="43.38655" lon="6.12052">
        <ele>321</ele>
        <time>2017-05-24T15:43:38Z</time>
      </trkpt>
      <trkpt lat="43.38657" lon="6.12023">
        <ele>320.60000610352</ele>
        <time>2017-05-24T15:43:42Z</time>
      </trkpt>
      <trkpt lat="43.38662" lon="6.11955">
        <ele>320.60000610352</ele>
        <time>2017-05-24T15:43:52Z</time>
      </trkpt>
      <trkpt lat="43.38663" lon="6.11914">
        <ele>321</ele>
        <time>2017-05-24T15:43:58Z</time>
      </trkpt>
      <trkpt lat="43.38665" lon="6.11887">
        <ele>321.20001220703</ele>
        <time>2017-05-24T15:44:02Z</time>
      </trkpt>
      <trkpt lat="43.3867" lon="6.11848">
        <ele>321.39999389648</ele>
        <time>2017-05-24T15:44:08Z</time>
      </trkpt>
      <trkpt lat="43.38673" lon="6.11823">
        <ele>321.39999389648</ele>
        <time>2017-05-24T15:44:12Z</time>
      </trkpt>
      <trkpt lat="43.38676" lon="6.11793">
        <ele>321.79998779297</ele>
        <time>2017-05-24T15:44:17Z</time>
      </trkpt>
      <trkpt lat="43.38681" lon="6.11761">
        <ele>321.39999389648</ele>
        <time>2017-05-24T15:44:22Z</time>
      </trkpt>
      <trkpt lat="43.38682" lon="6.11743">
        <ele>321.39999389648</ele>
        <time>2017-05-24T15:44:25Z</time>
      </trkpt>
      <trkpt lat="43.38688" lon="6.11706">
        <ele>322</ele>
        <time>2017-05-24T15:44:31Z</time>
      </trkpt>
      <trkpt lat="43.38695" lon="6.11643">
        <ele>321</ele>
        <time>2017-05-24T15:44:40Z</time>
      </trkpt>
      <trkpt lat="43.38696" lon="6.11627">
        <ele>320.60000610352</ele>
        <time>2017-05-24T15:44:42Z</time>
      </trkpt>
      <trkpt lat="43.38688" lon="6.11561">
        <ele>320</ele>
        <time>2017-05-24T15:44:51Z</time>
      </trkpt>
      <trkpt lat="43.38687" lon="6.11555">
        <ele>320</ele>
        <time>2017-05-24T15:44:52Z</time>
      </trkpt>
      <trkpt lat="43.38685" lon="6.11533">
        <ele>320</ele>
        <time>2017-05-24T15:44:55Z</time>
      </trkpt>
      <trkpt lat="43.38684" lon="6.1152">
        <ele>319.79998779297</ele>
        <time>2017-05-24T15:44:57Z</time>
      </trkpt>
      <trkpt lat="43.38685" lon="6.11507">
        <ele>319.79998779297</ele>
        <time>2017-05-24T15:44:59Z</time>
      </trkpt>
      <trkpt lat="43.38686" lon="6.11489">
        <ele>320</ele>
        <time>2017-05-24T15:45:02Z</time>
      </trkpt>
      <trkpt lat="43.38689" lon="6.11424">
        <ele>320</ele>
        <time>2017-05-24T15:45:12Z</time>
      </trkpt>
      <trkpt lat="43.3869" lon="6.11411">
        <ele>320</ele>
        <time>2017-05-24T15:45:14Z</time>
      </trkpt>
      <trkpt lat="43.38694" lon="6.11362">
        <ele>320.20001220703</ele>
        <time>2017-05-24T15:45:22Z</time>
      </trkpt>
      <trkpt lat="43.38697" lon="6.11318">
        <ele>320</ele>
        <time>2017-05-24T15:45:29Z</time>
      </trkpt>
      <trkpt lat="43.38698" lon="6.113">
        <ele>320.20001220703</ele>
        <time>2017-05-24T15:45:32Z</time>
      </trkpt>
      <trkpt lat="43.387" lon="6.1126">
        <ele>320.60000610352</ele>
        <time>2017-05-24T15:45:39Z</time>
      </trkpt>
      <trkpt lat="43.38702" lon="6.11239">
        <ele>320.60000610352</ele>
        <time>2017-05-24T15:45:42Z</time>
      </trkpt>
      <trkpt lat="43.38706" lon="6.11182">
        <ele>320.39999389648</ele>
        <time>2017-05-24T15:45:50Z</time>
      </trkpt>
      <trkpt lat="43.38707" lon="6.11168">
        <ele>320.20001220703</ele>
        <time>2017-05-24T15:45:52Z</time>
      </trkpt>
      <trkpt lat="43.3871" lon="6.11095">
        <ele>319.60000610352</ele>
        <time>2017-05-24T15:46:02Z</time>
      </trkpt>
      <trkpt lat="43.38711" lon="6.11026">
        <ele>319.79998779297</ele>
        <time>2017-05-24T15:46:12Z</time>
      </trkpt>
      <trkpt lat="43.3872" lon="6.10956">
        <ele>319.20001220703</ele>
        <time>2017-05-24T15:46:22Z</time>
      </trkpt>
      <trkpt lat="43.38722" lon="6.10929">
        <ele>319</ele>
        <time>2017-05-24T15:46:26Z</time>
      </trkpt>
      <trkpt lat="43.38728" lon="6.10888">
        <ele>318.79998779297</ele>
        <time>2017-05-24T15:46:32Z</time>
      </trkpt>
      <trkpt lat="43.38745" lon="6.10825">
        <ele>318.79998779297</ele>
        <time>2017-05-24T15:46:42Z</time>
      </trkpt>
      <trkpt lat="43.38749" lon="6.10813">
        <ele>319</ele>
        <time>2017-05-24T15:46:44Z</time>
      </trkpt>
      <trkpt lat="43.38766" lon="6.10772">
        <ele>319.20001220703</ele>
        <time>2017-05-24T15:46:52Z</time>
      </trkpt>
      <trkpt lat="43.38776" lon="6.10758">
        <ele>319</ele>
        <time>2017-05-24T15:47:02Z</time>
      </trkpt>
      <trkpt lat="43.38779" lon="6.10757">
        <ele>318.79998779297</ele>
        <time>2017-05-24T15:47:12Z</time>
      </trkpt>
      <trkpt lat="43.38782" lon="6.10757">
        <ele>318.60000610352</ele>
        <time>2017-05-24T15:47:13Z</time>
      </trkpt>
      <trkpt lat="43.38796" lon="6.10757">
        <ele>317.79998779297</ele>
        <time>2017-05-24T15:47:17Z</time>
      </trkpt>
      <trkpt lat="43.38818" lon="6.10755">
        <ele>316.79998779297</ele>
        <time>2017-05-24T15:47:21Z</time>
      </trkpt>
      <trkpt lat="43.38824" lon="6.10754">
        <ele>316.60000610352</ele>
        <time>2017-05-24T15:47:22Z</time>
      </trkpt>
      <trkpt lat="43.38852" lon="6.10755">
        <ele>315.79998779297</ele>
        <time>2017-05-24T15:47:27Z</time>
      </trkpt>
      <trkpt lat="43.38863" lon="6.10753">
        <ele>315.60000610352</ele>
        <time>2017-05-24T15:47:29Z</time>
      </trkpt>
      <trkpt lat="43.3888" lon="6.10755">
        <ele>315.39999389648</ele>
        <time>2017-05-24T15:47:32Z</time>
      </trkpt>
      <trkpt lat="43.38892" lon="6.10756">
        <ele>315.20001220703</ele>
        <time>2017-05-24T15:47:34Z</time>
      </trkpt>
      <trkpt lat="43.38903" lon="6.10762">
        <ele>314.60000610352</ele>
        <time>2017-05-24T15:47:36Z</time>
      </trkpt>
      <trkpt lat="43.38912" lon="6.10773">
        <ele>313.79998779297</ele>
        <time>2017-05-24T15:47:38Z</time>
      </trkpt>
      <trkpt lat="43.38917" lon="6.10786">
        <ele>313.79998779297</ele>
        <time>2017-05-24T15:47:40Z</time>
      </trkpt>
      <trkpt lat="43.38923" lon="6.10806">
        <ele>313.20001220703</ele>
        <time>2017-05-24T15:47:43Z</time>
      </trkpt>
      <trkpt lat="43.38928" lon="6.10818">
        <ele>313.20001220703</ele>
        <time>2017-05-24T15:47:45Z</time>
      </trkpt>
      <trkpt lat="43.38936" lon="6.10825">
        <ele>313.20001220703</ele>
        <time>2017-05-24T15:47:47Z</time>
      </trkpt>
      <trkpt lat="43.3896" lon="6.10836">
        <ele>313.20001220703</ele>
        <time>2017-05-24T15:47:52Z</time>
      </trkpt>
      <trkpt lat="43.38985" lon="6.10846">
        <ele>313</ele>
        <time>2017-05-24T15:47:57Z</time>
      </trkpt>
      <trkpt lat="43.38995" lon="6.10845">
        <ele>312.79998779297</ele>
        <time>2017-05-24T15:47:59Z</time>
      </trkpt>
      <trkpt lat="43.39009" lon="6.10839">
        <ele>312.79998779297</ele>
        <time>2017-05-24T15:48:02Z</time>
      </trkpt>
      <trkpt lat="43.39019" lon="6.10834">
        <ele>312.39999389648</ele>
        <time>2017-05-24T15:48:04Z</time>
      </trkpt>
      <trkpt lat="43.3903" lon="6.1083">
        <ele>312.20001220703</ele>
        <time>2017-05-24T15:48:06Z</time>
      </trkpt>
      <trkpt lat="43.39057" lon="6.1082">
        <ele>311.20001220703</ele>
        <time>2017-05-24T15:48:11Z</time>
      </trkpt>
      <trkpt lat="43.39062" lon="6.10817">
        <ele>311.20001220703</ele>
        <time>2017-05-24T15:48:12Z</time>
      </trkpt>
      <trkpt lat="43.39074" lon="6.1081">
        <ele>311.79998779297</ele>
        <time>2017-05-24T15:48:15Z</time>
      </trkpt>
      <trkpt lat="43.39082" lon="6.10802">
        <ele>312</ele>
        <time>2017-05-24T15:48:17Z</time>
      </trkpt>
      <trkpt lat="43.39096" lon="6.10787">
        <ele>311.79998779297</ele>
        <time>2017-05-24T15:48:21Z</time>
      </trkpt>
      <trkpt lat="43.391" lon="6.10784">
        <ele>311.79998779297</ele>
        <time>2017-05-24T15:48:22Z</time>
      </trkpt>
      <trkpt lat="43.39127" lon="6.10766">
        <ele>310.79998779297</ele>
        <time>2017-05-24T15:48:27Z</time>
      </trkpt>
      <trkpt lat="43.39138" lon="6.1076">
        <ele>310.20001220703</ele>
        <time>2017-05-24T15:48:29Z</time>
      </trkpt>
      <trkpt lat="43.3915" lon="6.1075">
        <ele>309.39999389648</ele>
        <time>2017-05-24T15:48:31Z</time>
      </trkpt>
      <trkpt lat="43.39155" lon="6.10745">
        <ele>309.20001220703</ele>
        <time>2017-05-24T15:48:32Z</time>
      </trkpt>
      <trkpt lat="43.39159" lon="6.10738">
        <ele>308.79998779297</ele>
        <time>2017-05-24T15:48:33Z</time>
      </trkpt>
      <trkpt lat="43.39167" lon="6.10721">
        <ele>308.39999389648</ele>
        <time>2017-05-24T15:48:35Z</time>
      </trkpt>
      <trkpt lat="43.39174" lon="6.10691">
        <ele>307.60000610352</ele>
        <time>2017-05-24T15:48:38Z</time>
      </trkpt>
      <trkpt lat="43.39182" lon="6.10664">
        <ele>307</ele>
        <time>2017-05-24T15:48:41Z</time>
      </trkpt>
      <trkpt lat="43.39185" lon="6.10657">
        <ele>307</ele>
        <time>2017-05-24T15:48:42Z</time>
      </trkpt>
      <trkpt lat="43.39189" lon="6.10651">
        <ele>306.79998779297</ele>
        <time>2017-05-24T15:48:43Z</time>
      </trkpt>
      <trkpt lat="43.39198" lon="6.10642">
        <ele>306.60000610352</ele>
        <time>2017-05-24T15:48:45Z</time>
      </trkpt>
      <trkpt lat="43.3921" lon="6.10636">
        <ele>306.79998779297</ele>
        <time>2017-05-24T15:48:48Z</time>
      </trkpt>
      <trkpt lat="43.3922" lon="6.10625">
        <ele>307.20001220703</ele>
        <time>2017-05-24T15:48:52Z</time>
      </trkpt>
      <trkpt lat="43.39221" lon="6.10622">
        <ele>307.60000610352</ele>
        <time>2017-05-24T15:49:02Z</time>
      </trkpt>
      <trkpt lat="43.39221" lon="6.10622">
        <ele>307.60000610352</ele>
        <time>2017-05-24T15:49:03Z</time>
      </trkpt>
      <trkpt lat="43.39221" lon="6.10622">
        <ele>307.79998779297</ele>
        <time>2017-05-24T15:49:08Z</time>
      </trkpt>
      <trkpt lat="43.39224" lon="6.10619">
        <ele>307.79998779297</ele>
        <time>2017-05-24T15:49:11Z</time>
      </trkpt>
      <trkpt lat="43.39226" lon="6.10617">
        <ele>307.79998779297</ele>
        <time>2017-05-24T15:49:12Z</time>
      </trkpt>
      <trkpt lat="43.39228" lon="6.10614">
        <ele>307.79998779297</ele>
        <time>2017-05-24T15:49:13Z</time>
      </trkpt>
      <trkpt lat="43.39242" lon="6.10601">
        <ele>308</ele>
        <time>2017-05-24T15:49:19Z</time>
      </trkpt>
      <trkpt lat="43.39245" lon="6.106">
        <ele>308.20001220703</ele>
        <time>2017-05-24T15:49:20Z</time>
      </trkpt>
      <trkpt lat="43.39248" lon="6.10597">
        <ele>308.39999389648</ele>
        <time>2017-05-24T15:49:21Z</time>
      </trkpt>
      <trkpt lat="43.39251" lon="6.10594">
        <ele>308.39999389648</ele>
        <time>2017-05-24T15:49:22Z</time>
      </trkpt>
      <trkpt lat="43.39258" lon="6.10586">
        <ele>308.20001220703</ele>
        <time>2017-05-24T15:49:24Z</time>
      </trkpt>
      <trkpt lat="43.39263" lon="6.10576">
        <ele>308</ele>
        <time>2017-05-24T15:49:26Z</time>
      </trkpt>
      <trkpt lat="43.39275" lon="6.10538">
        <ele>307.60000610352</ele>
        <time>2017-05-24T15:49:32Z</time>
      </trkpt>
      <trkpt lat="43.39278" lon="6.10532">
        <ele>307.60000610352</ele>
        <time>2017-05-24T15:49:33Z</time>
      </trkpt>
      <trkpt lat="43.39287" lon="6.10514">
        <ele>307</ele>
        <time>2017-05-24T15:49:36Z</time>
      </trkpt>
      <trkpt lat="43.39294" lon="6.10491">
        <ele>306.39999389648</ele>
        <time>2017-05-24T15:49:39Z</time>
      </trkpt>
      <trkpt lat="43.39298" lon="6.10483">
        <ele>306.20001220703</ele>
        <time>2017-05-24T15:49:40Z</time>
      </trkpt>
      <trkpt lat="43.39306" lon="6.10469">
        <ele>305.60000610352</ele>
        <time>2017-05-24T15:49:42Z</time>
      </trkpt>
      <trkpt lat="43.3931" lon="6.10461">
        <ele>305.20001220703</ele>
        <time>2017-05-24T15:49:43Z</time>
      </trkpt>
      <trkpt lat="43.39325" lon="6.10439">
        <ele>304.20001220703</ele>
        <time>2017-05-24T15:49:46Z</time>
      </trkpt>
      <trkpt lat="43.39335" lon="6.10426">
        <ele>303.39999389648</ele>
        <time>2017-05-24T15:49:48Z</time>
      </trkpt>
      <trkpt lat="43.39339" lon="6.10421">
        <ele>303</ele>
        <time>2017-05-24T15:49:49Z</time>
      </trkpt>
      <trkpt lat="43.39355" lon="6.10418">
        <ele>302.60000610352</ele>
        <time>2017-05-24T15:49:52Z</time>
      </trkpt>
      <trkpt lat="43.39363" lon="6.10413">
        <ele>302.20001220703</ele>
        <time>2017-05-24T15:49:54Z</time>
      </trkpt>
      <trkpt lat="43.39367" lon="6.10408">
        <ele>302</ele>
        <time>2017-05-24T15:49:55Z</time>
      </trkpt>
      <trkpt lat="43.39368" lon="6.10402">
        <ele>301.60000610352</ele>
        <time>2017-05-24T15:49:56Z</time>
      </trkpt>
      <trkpt lat="43.3937" lon="6.1039">
        <ele>301.20001220703</ele>
        <time>2017-05-24T15:49:58Z</time>
      </trkpt>
      <trkpt lat="43.39376" lon="6.10379">
        <ele>300.79998779297</ele>
        <time>2017-05-24T15:50:00Z</time>
      </trkpt>
      <trkpt lat="43.39382" lon="6.10369">
        <ele>300.79998779297</ele>
        <time>2017-05-24T15:50:02Z</time>
      </trkpt>
      <trkpt lat="43.39394" lon="6.10345">
        <ele>300</ele>
        <time>2017-05-24T15:50:06Z</time>
      </trkpt>
      <trkpt lat="43.39399" lon="6.10332">
        <ele>299.60000610352</ele>
        <time>2017-05-24T15:50:08Z</time>
      </trkpt>
      <trkpt lat="43.39405" lon="6.10321">
        <ele>299.39999389648</ele>
        <time>2017-05-24T15:50:10Z</time>
      </trkpt>
      <trkpt lat="43.39413" lon="6.10312">
        <ele>299.39999389648</ele>
        <time>2017-05-24T15:50:12Z</time>
      </trkpt>
      <trkpt lat="43.39438" lon="6.1029">
        <ele>299.60000610352</ele>
        <time>2017-05-24T15:50:18Z</time>
      </trkpt>
      <trkpt lat="43.39452" lon="6.1028">
        <ele>299.20001220703</ele>
        <time>2017-05-24T15:50:22Z</time>
      </trkpt>
      <trkpt lat="43.39459" lon="6.10273">
        <ele>298.60000610352</ele>
        <time>2017-05-24T15:50:24Z</time>
      </trkpt>
      <trkpt lat="43.39467" lon="6.10266">
        <ele>298.39999389648</ele>
        <time>2017-05-24T15:50:26Z</time>
      </trkpt>
      <trkpt lat="43.39478" lon="6.10253">
        <ele>298</ele>
        <time>2017-05-24T15:50:29Z</time>
      </trkpt>
      <trkpt lat="43.39489" lon="6.10236">
        <ele>297</ele>
        <time>2017-05-24T15:50:32Z</time>
      </trkpt>
      <trkpt lat="43.39495" lon="6.10222">
        <ele>296.20001220703</ele>
        <time>2017-05-24T15:50:34Z</time>
      </trkpt>
      <trkpt lat="43.39502" lon="6.10199">
        <ele>295</ele>
        <time>2017-05-24T15:50:37Z</time>
      </trkpt>
      <trkpt lat="43.39511" lon="6.10163">
        <ele>294.79998779297</ele>
        <time>2017-05-24T15:50:42Z</time>
      </trkpt>
      <trkpt lat="43.39524" lon="6.10116">
        <ele>294</ele>
        <time>2017-05-24T15:50:52Z</time>
      </trkpt>
      <trkpt lat="43.3953" lon="6.10101">
        <ele>294</ele>
        <time>2017-05-24T15:50:55Z</time>
      </trkpt>
      <trkpt lat="43.3954" lon="6.1008">
        <ele>293.60000610352</ele>
        <time>2017-05-24T15:50:59Z</time>
      </trkpt>
      <trkpt lat="43.39545" lon="6.10067">
        <ele>292.60000610352</ele>
        <time>2017-05-24T15:51:01Z</time>
      </trkpt>
      <trkpt lat="43.39547" lon="6.1006">
        <ele>292.20001220703</ele>
        <time>2017-05-24T15:51:02Z</time>
      </trkpt>
      <trkpt lat="43.39551" lon="6.10046">
        <ele>291.39999389648</ele>
        <time>2017-05-24T15:51:04Z</time>
      </trkpt>
      <trkpt lat="43.39554" lon="6.10032">
        <ele>291</ele>
        <time>2017-05-24T15:51:06Z</time>
      </trkpt>
      <trkpt lat="43.39553" lon="6.10014">
        <ele>290.39999389648</ele>
        <time>2017-05-24T15:51:09Z</time>
      </trkpt>
      <trkpt lat="43.39552" lon="6.10003">
        <ele>290.39999389648</ele>
        <time>2017-05-24T15:51:12Z</time>
      </trkpt>
      <trkpt lat="43.39552" lon="6.09983">
        <ele>291.20001220703</ele>
        <time>2017-05-24T15:51:17Z</time>
      </trkpt>
      <trkpt lat="43.39552" lon="6.09973">
        <ele>291.39999389648</ele>
        <time>2017-05-24T15:51:19Z</time>
      </trkpt>
      <trkpt lat="43.39552" lon="6.0996">
        <ele>291.79998779297</ele>
        <time>2017-05-24T15:51:22Z</time>
      </trkpt>
      <trkpt lat="43.39552" lon="6.09947">
        <ele>292.39999389648</ele>
        <time>2017-05-24T15:51:25Z</time>
      </trkpt>
      <trkpt lat="43.3955" lon="6.09939">
        <ele>292.60000610352</ele>
        <time>2017-05-24T15:51:27Z</time>
      </trkpt>
      <trkpt lat="43.39548" lon="6.09931">
        <ele>293.39999389648</ele>
        <time>2017-05-24T15:51:30Z</time>
      </trkpt>
      <trkpt lat="43.39546" lon="6.09927">
        <ele>293.60000610352</ele>
        <time>2017-05-24T15:51:32Z</time>
      </trkpt>
      <trkpt lat="43.39544" lon="6.09921">
        <ele>294.20001220703</ele>
        <time>2017-05-24T15:51:34Z</time>
      </trkpt>
      <trkpt lat="43.39542" lon="6.09915">
        <ele>294.79998779297</ele>
        <time>2017-05-24T15:51:36Z</time>
      </trkpt>
      <trkpt lat="43.39548" lon="6.09895">
        <ele>296</ele>
        <time>2017-05-24T15:51:42Z</time>
      </trkpt>
      <trkpt lat="43.39558" lon="6.09852">
        <ele>296.20001220703</ele>
        <time>2017-05-24T15:51:52Z</time>
      </trkpt>
      <trkpt lat="43.39567" lon="6.09802">
        <ele>296.20001220703</ele>
        <time>2017-05-24T15:52:02Z</time>
      </trkpt>
      <trkpt lat="43.39577" lon="6.09751">
        <ele>296</ele>
        <time>2017-05-24T15:52:12Z</time>
      </trkpt>
      <trkpt lat="43.39592" lon="6.09697">
        <ele>296</ele>
        <time>2017-05-24T15:52:22Z</time>
      </trkpt>
      <trkpt lat="43.396" lon="6.09663">
        <ele>296</ele>
        <time>2017-05-24T15:52:28Z</time>
      </trkpt>
      <trkpt lat="43.39605" lon="6.09643">
        <ele>295.79998779297</ele>
        <time>2017-05-24T15:52:32Z</time>
      </trkpt>
      <trkpt lat="43.39616" lon="6.09592">
        <ele>295.60000610352</ele>
        <time>2017-05-24T15:52:42Z</time>
      </trkpt>
      <trkpt lat="43.39623" lon="6.09572">
        <ele>295.60000610352</ele>
        <time>2017-05-24T15:52:46Z</time>
      </trkpt>
      <trkpt lat="43.39631" lon="6.09551">
        <ele>295.20001220703</ele>
        <time>2017-05-24T15:52:49Z</time>
      </trkpt>
      <trkpt lat="43.39634" lon="6.09544">
        <ele>295</ele>
        <time>2017-05-24T15:52:50Z</time>
      </trkpt>
      <trkpt lat="43.39642" lon="6.09533">
        <ele>294.60000610352</ele>
        <time>2017-05-24T15:52:52Z</time>
      </trkpt>
      <trkpt lat="43.39651" lon="6.09522">
        <ele>293.60000610352</ele>
        <time>2017-05-24T15:52:54Z</time>
      </trkpt>
      <trkpt lat="43.39655" lon="6.09515">
        <ele>293.20001220703</ele>
        <time>2017-05-24T15:52:55Z</time>
      </trkpt>
      <trkpt lat="43.39661" lon="6.095">
        <ele>292.60000610352</ele>
        <time>2017-05-24T15:52:57Z</time>
      </trkpt>
      <trkpt lat="43.39666" lon="6.09487">
        <ele>291.39999389648</ele>
        <time>2017-05-24T15:52:59Z</time>
      </trkpt>
      <trkpt lat="43.39669" lon="6.09477">
        <ele>289.79998779297</ele>
        <time>2017-05-24T15:53:01Z</time>
      </trkpt>
      <trkpt lat="43.39672" lon="6.09462">
        <ele>287.60000610352</ele>
        <time>2017-05-24T15:53:05Z</time>
      </trkpt>
      <trkpt lat="43.39682" lon="6.09461">
        <ele>286.79998779297</ele>
        <time>2017-05-24T15:53:11Z</time>
      </trkpt>
      <trkpt lat="43.39687" lon="6.09463">
        <ele>286.60000610352</ele>
        <time>2017-05-24T15:53:12Z</time>
      </trkpt>
      <trkpt lat="43.39692" lon="6.09462">
        <ele>286</ele>
        <time>2017-05-24T15:53:13Z</time>
      </trkpt>
      <trkpt lat="43.39696" lon="6.0946">
        <ele>285.20001220703</ele>
        <time>2017-05-24T15:53:14Z</time>
      </trkpt>
      <trkpt lat="43.39698" lon="6.09457">
        <ele>284</ele>
        <time>2017-05-24T15:53:15Z</time>
      </trkpt>
      <trkpt lat="43.39701" lon="6.09451">
        <ele>282.39999389648</ele>
        <time>2017-05-24T15:53:17Z</time>
      </trkpt>
      <trkpt lat="43.39703" lon="6.09444">
        <ele>281.39999389648</ele>
        <time>2017-05-24T15:53:19Z</time>
      </trkpt>
      <trkpt lat="43.39705" lon="6.09434">
        <ele>281.20001220703</ele>
        <time>2017-05-24T15:53:22Z</time>
      </trkpt>
      <trkpt lat="43.39709" lon="6.09419">
        <ele>281</ele>
        <time>2017-05-24T15:53:32Z</time>
      </trkpt>
      <trkpt lat="43.39714" lon="6.09417">
        <ele>281</ele>
        <time>2017-05-24T15:53:40Z</time>
      </trkpt>
      <trkpt lat="43.39719" lon="6.09412">
        <ele>281</ele>
        <time>2017-05-24T15:53:42Z</time>
      </trkpt>
      <trkpt lat="43.39731" lon="6.09393">
        <ele>280.20001220703</ele>
        <time>2017-05-24T15:53:47Z</time>
      </trkpt>
      <trkpt lat="43.39741" lon="6.09377">
        <ele>279.79998779297</ele>
        <time>2017-05-24T15:53:51Z</time>
      </trkpt>
      <trkpt lat="43.39742" lon="6.09373">
        <ele>279.79998779297</ele>
        <time>2017-05-24T15:53:52Z</time>
      </trkpt>
      <trkpt lat="43.39751" lon="6.09358">
        <ele>279.79998779297</ele>
        <time>2017-05-24T15:53:57Z</time>
      </trkpt>
      <trkpt lat="43.3976" lon="6.09341">
        <ele>280</ele>
        <time>2017-05-24T15:54:02Z</time>
      </trkpt>
      <trkpt lat="43.39768" lon="6.09325">
        <ele>279.79998779297</ele>
        <time>2017-05-24T15:54:06Z</time>
      </trkpt>
      <trkpt lat="43.3978" lon="6.093">
        <ele>279.39999389648</ele>
        <time>2017-05-24T15:54:12Z</time>
      </trkpt>
      <trkpt lat="43.39791" lon="6.0925">
        <ele>280</ele>
        <time>2017-05-24T15:54:22Z</time>
      </trkpt>
      <trkpt lat="43.39797" lon="6.09199">
        <ele>280.39999389648</ele>
        <time>2017-05-24T15:54:32Z</time>
      </trkpt>
      <trkpt lat="43.39798" lon="6.09159">
        <ele>281.39999389648</ele>
        <time>2017-05-24T15:54:41Z</time>
      </trkpt>
      <trkpt lat="43.39798" lon="6.09155">
        <ele>281.60000610352</ele>
        <time>2017-05-24T15:54:42Z</time>
      </trkpt>
      <trkpt lat="43.39804" lon="6.09112">
        <ele>282.20001220703</ele>
        <time>2017-05-24T15:54:52Z</time>
      </trkpt>
      <trkpt lat="43.39805" lon="6.09108">
        <ele>282.39999389648</ele>
        <time>2017-05-24T15:54:53Z</time>
      </trkpt>
      <trkpt lat="43.39816" lon="6.09072">
        <ele>283</ele>
        <time>2017-05-24T15:55:02Z</time>
      </trkpt>
      <trkpt lat="43.39822" lon="6.09052">
        <ele>283</ele>
        <time>2017-05-24T15:55:07Z</time>
      </trkpt>
      <trkpt lat="43.3983" lon="6.0904">
        <ele>282.79998779297</ele>
        <time>2017-05-24T15:55:10Z</time>
      </trkpt>
      <trkpt lat="43.39838" lon="6.09033">
        <ele>282.20001220703</ele>
        <time>2017-05-24T15:55:12Z</time>
      </trkpt>
      <trkpt lat="43.39842" lon="6.0903">
        <ele>282.20001220703</ele>
        <time>2017-05-24T15:55:13Z</time>
      </trkpt>
      <trkpt lat="43.39854" lon="6.09016">
        <ele>281.20001220703</ele>
        <time>2017-05-24T15:55:16Z</time>
      </trkpt>
      <trkpt lat="43.39859" lon="6.09011">
        <ele>281</ele>
        <time>2017-05-24T15:55:17Z</time>
      </trkpt>
      <trkpt lat="43.39872" lon="6.08996">
        <ele>280.39999389648</ele>
        <time>2017-05-24T15:55:20Z</time>
      </trkpt>
      <trkpt lat="43.39882" lon="6.08989">
        <ele>280.20001220703</ele>
        <time>2017-05-24T15:55:22Z</time>
      </trkpt>
      <trkpt lat="43.39888" lon="6.08987">
        <ele>280</ele>
        <time>2017-05-24T15:55:23Z</time>
      </trkpt>
      <trkpt lat="43.39916" lon="6.08982">
        <ele>279.20001220703</ele>
        <time>2017-05-24T15:55:28Z</time>
      </trkpt>
      <trkpt lat="43.39922" lon="6.08981">
        <ele>278.79998779297</ele>
        <time>2017-05-24T15:55:29Z</time>
      </trkpt>
      <trkpt lat="43.39936" lon="6.0898">
        <ele>277.39999389648</ele>
        <time>2017-05-24T15:55:31Z</time>
      </trkpt>
      <trkpt lat="43.39942" lon="6.08978">
        <ele>276.79998779297</ele>
        <time>2017-05-24T15:55:32Z</time>
      </trkpt>
      <trkpt lat="43.39949" lon="6.08976">
        <ele>276</ele>
        <time>2017-05-24T15:55:33Z</time>
      </trkpt>
      <trkpt lat="43.39967" lon="6.08973">
        <ele>274.79998779297</ele>
        <time>2017-05-24T15:55:36Z</time>
      </trkpt>
      <trkpt lat="43.39974" lon="6.08972">
        <ele>274.79998779297</ele>
        <time>2017-05-24T15:55:37Z</time>
      </trkpt>
      <trkpt lat="43.39997" lon="6.08965">
        <ele>275</ele>
        <time>2017-05-24T15:55:41Z</time>
      </trkpt>
      <trkpt lat="43.40003" lon="6.08962">
        <ele>274.79998779297</ele>
        <time>2017-05-24T15:55:42Z</time>
      </trkpt>
      <trkpt lat="43.40016" lon="6.08958">
        <ele>274.79998779297</ele>
        <time>2017-05-24T15:55:44Z</time>
      </trkpt>
      <trkpt lat="43.40026" lon="6.08951">
        <ele>274.79998779297</ele>
        <time>2017-05-24T15:55:46Z</time>
      </trkpt>
      <trkpt lat="43.40031" lon="6.08939">
        <ele>274.79998779297</ele>
        <time>2017-05-24T15:55:48Z</time>
      </trkpt>
      <trkpt lat="43.40036" lon="6.08915">
        <ele>274.79998779297</ele>
        <time>2017-05-24T15:55:52Z</time>
      </trkpt>
      <trkpt lat="43.40039" lon="6.08898">
        <ele>274.79998779297</ele>
        <time>2017-05-24T15:55:55Z</time>
      </trkpt>
      <trkpt lat="43.40057" lon="6.08842">
        <ele>275.20001220703</ele>
        <time>2017-05-24T15:56:06Z</time>
      </trkpt>
      <trkpt lat="43.40068" lon="6.08813">
        <ele>275.39999389648</ele>
        <time>2017-05-24T15:56:12Z</time>
      </trkpt>
      <trkpt lat="43.40083" lon="6.08776">
        <ele>275.20001220703</ele>
        <time>2017-05-24T15:56:20Z</time>
      </trkpt>
      <trkpt lat="43.40086" lon="6.08766">
        <ele>275.39999389648</ele>
        <time>2017-05-24T15:56:22Z</time>
      </trkpt>
      <trkpt lat="43.40099" lon="6.08714">
        <ele>275.20001220703</ele>
        <time>2017-05-24T15:56:32Z</time>
      </trkpt>
      <trkpt lat="43.40099" lon="6.08709">
        <ele>275</ele>
        <time>2017-05-24T15:56:33Z</time>
      </trkpt>
      <trkpt lat="43.40101" lon="6.0868">
        <ele>274.79998779297</ele>
        <time>2017-05-24T15:56:38Z</time>
      </trkpt>
      <trkpt lat="43.40096" lon="6.08657">
        <ele>274.20001220703</ele>
        <time>2017-05-24T15:56:42Z</time>
      </trkpt>
      <trkpt lat="43.40096" lon="6.08651">
        <ele>274</ele>
        <time>2017-05-24T15:56:43Z</time>
      </trkpt>
      <trkpt lat="43.40098" lon="6.08639">
        <ele>273.39999389648</ele>
        <time>2017-05-24T15:56:45Z</time>
      </trkpt>
      <trkpt lat="43.40105" lon="6.0863">
        <ele>272.60000610352</ele>
        <time>2017-05-24T15:56:47Z</time>
      </trkpt>
      <trkpt lat="43.40125" lon="6.08609">
        <ele>272</ele>
        <time>2017-05-24T15:56:52Z</time>
      </trkpt>
      <trkpt lat="43.40133" lon="6.08601">
        <ele>271.39999389648</ele>
        <time>2017-05-24T15:56:54Z</time>
      </trkpt>
      <trkpt lat="43.40137" lon="6.08598">
        <ele>271.20001220703</ele>
        <time>2017-05-24T15:56:55Z</time>
      </trkpt>
      <trkpt lat="43.40145" lon="6.08591">
        <ele>271</ele>
        <time>2017-05-24T15:56:57Z</time>
      </trkpt>
      <trkpt lat="43.40163" lon="6.08578">
        <ele>270.79998779297</ele>
        <time>2017-05-24T15:57:02Z</time>
      </trkpt>
      <trkpt lat="43.40166" lon="6.08552">
        <ele>271.60000610352</ele>
        <time>2017-05-24T15:57:09Z</time>
      </trkpt>
      <trkpt lat="43.40167" lon="6.08539">
        <ele>272.20001220703</ele>
        <time>2017-05-24T15:57:12Z</time>
      </trkpt>
      <trkpt lat="43.4017" lon="6.08511">
        <ele>272.60000610352</ele>
        <time>2017-05-24T15:57:19Z</time>
      </trkpt>
      <trkpt lat="43.40171" lon="6.08498">
        <ele>272.60000610352</ele>
        <time>2017-05-24T15:57:22Z</time>
      </trkpt>
      <trkpt lat="43.40174" lon="6.08464">
        <ele>273.20001220703</ele>
        <time>2017-05-24T15:57:30Z</time>
      </trkpt>
      <trkpt lat="43.40176" lon="6.08455">
        <ele>273.20001220703</ele>
        <time>2017-05-24T15:57:32Z</time>
      </trkpt>
      <trkpt lat="43.40179" lon="6.0841">
        <ele>273.39999389648</ele>
        <time>2017-05-24T15:57:42Z</time>
      </trkpt>
      <trkpt lat="43.40181" lon="6.08354">
        <ele>273</ele>
        <time>2017-05-24T15:57:52Z</time>
      </trkpt>
      <trkpt lat="43.40184" lon="6.08302">
        <ele>272.39999389648</ele>
        <time>2017-05-24T15:58:02Z</time>
      </trkpt>
      <trkpt lat="43.40187" lon="6.08276">
        <ele>272.39999389648</ele>
        <time>2017-05-24T15:58:08Z</time>
      </trkpt>
      <trkpt lat="43.40185" lon="6.08273">
        <ele>272.39999389648</ele>
        <time>2017-05-24T15:58:12Z</time>
      </trkpt>
      <trkpt lat="43.40185" lon="6.08273">
        <ele>272.39999389648</ele>
        <time>2017-05-24T15:58:22Z</time>
      </trkpt>
      <trkpt lat="43.40185" lon="6.08273">
        <ele>272.39999389648</ele>
        <time>2017-05-24T15:58:32Z</time>
      </trkpt>
      <trkpt lat="43.40183" lon="6.08256">
        <ele>272.79998779297</ele>
        <time>2017-05-24T15:58:40Z</time>
      </trkpt>
      <trkpt lat="43.40182" lon="6.0825">
        <ele>272.79998779297</ele>
        <time>2017-05-24T15:58:41Z</time>
      </trkpt>
      <trkpt lat="43.40182" lon="6.08245">
        <ele>272.79998779297</ele>
        <time>2017-05-24T15:58:42Z</time>
      </trkpt>
      <trkpt lat="43.40181" lon="6.08231">
        <ele>272.20001220703</ele>
        <time>2017-05-24T15:58:45Z</time>
      </trkpt>
      <trkpt lat="43.40182" lon="6.08227">
        <ele>272</ele>
        <time>2017-05-24T15:58:46Z</time>
      </trkpt>
      <trkpt lat="43.40184" lon="6.08218">
        <ele>272</ele>
        <time>2017-05-24T15:58:48Z</time>
      </trkpt>
      <trkpt lat="43.40188" lon="6.08209">
        <ele>272</ele>
        <time>2017-05-24T15:58:50Z</time>
      </trkpt>
      <trkpt lat="43.40191" lon="6.082">
        <ele>272</ele>
        <time>2017-05-24T15:58:52Z</time>
      </trkpt>
      <trkpt lat="43.40194" lon="6.08183">
        <ele>271.79998779297</ele>
        <time>2017-05-24T15:58:56Z</time>
      </trkpt>
      <trkpt lat="43.40197" lon="6.08169">
        <ele>271.39999389648</ele>
        <time>2017-05-24T15:58:59Z</time>
      </trkpt>
      <trkpt lat="43.40197" lon="6.08151">
        <ele>271.20001220703</ele>
        <time>2017-05-24T15:59:02Z</time>
      </trkpt>
      <trkpt lat="43.40197" lon="6.08128">
        <ele>270.39999389648</ele>
        <time>2017-05-24T15:59:06Z</time>
      </trkpt>
      <trkpt lat="43.40193" lon="6.08098">
        <ele>269.39999389648</ele>
        <time>2017-05-24T15:59:12Z</time>
      </trkpt>
      <trkpt lat="43.40195" lon="6.08085">
        <ele>269.39999389648</ele>
        <time>2017-05-24T15:59:14Z</time>
      </trkpt>
      <trkpt lat="43.40197" lon="6.08079">
        <ele>269.20001220703</ele>
        <time>2017-05-24T15:59:15Z</time>
      </trkpt>
      <trkpt lat="43.40202" lon="6.08067">
        <ele>268.79998779297</ele>
        <time>2017-05-24T15:59:17Z</time>
      </trkpt>
      <trkpt lat="43.40213" lon="6.08051">
        <ele>268</ele>
        <time>2017-05-24T15:59:20Z</time>
      </trkpt>
      <trkpt lat="43.40221" lon="6.08041">
        <ele>267.60000610352</ele>
        <time>2017-05-24T15:59:22Z</time>
      </trkpt>
      <trkpt lat="43.40233" lon="6.08025">
        <ele>267</ele>
        <time>2017-05-24T15:59:25Z</time>
      </trkpt>
      <trkpt lat="43.4025" lon="6.08003">
        <ele>266.20001220703</ele>
        <time>2017-05-24T15:59:29Z</time>
      </trkpt>
      <trkpt lat="43.40259" lon="6.07992">
        <ele>265.79998779297</ele>
        <time>2017-05-24T15:59:31Z</time>
      </trkpt>
      <trkpt lat="43.40263" lon="6.07985">
        <ele>265.60000610352</ele>
        <time>2017-05-24T15:59:32Z</time>
      </trkpt>
      <trkpt lat="43.40279" lon="6.07959">
        <ele>264.79998779297</ele>
        <time>2017-05-24T15:59:36Z</time>
      </trkpt>
      <trkpt lat="43.40282" lon="6.07953">
        <ele>264.79998779297</ele>
        <time>2017-05-24T15:59:37Z</time>
      </trkpt>
      <trkpt lat="43.40291" lon="6.07914">
        <ele>264</ele>
        <time>2017-05-24T15:59:42Z</time>
      </trkpt>
      <trkpt lat="43.40294" lon="6.07898">
        <ele>263.60000610352</ele>
        <time>2017-05-24T15:59:44Z</time>
      </trkpt>
      <trkpt lat="43.40299" lon="6.07855">
        <ele>262.60000610352</ele>
        <time>2017-05-24T15:59:49Z</time>
      </trkpt>
      <trkpt lat="43.40303" lon="6.07825">
        <ele>261.60000610352</ele>
        <time>2017-05-24T15:59:53Z</time>
      </trkpt>
      <trkpt lat="43.4031" lon="6.07762">
        <ele>261.20001220703</ele>
        <time>2017-05-24T16:00:02Z</time>
      </trkpt>
      <trkpt lat="43.40314" lon="6.07732">
        <ele>260.39999389648</ele>
        <time>2017-05-24T16:00:06Z</time>
      </trkpt>
      <trkpt lat="43.40316" lon="6.07723">
        <ele>260.20001220703</ele>
        <time>2017-05-24T16:00:07Z</time>
      </trkpt>
      <trkpt lat="43.40322" lon="6.07707">
        <ele>260</ele>
        <time>2017-05-24T16:00:09Z</time>
      </trkpt>
      <trkpt lat="43.40335" lon="6.07687">
        <ele>259.20001220703</ele>
        <time>2017-05-24T16:00:12Z</time>
      </trkpt>
      <trkpt lat="43.40359" lon="6.0766">
        <ele>258.60000610352</ele>
        <time>2017-05-24T16:00:17Z</time>
      </trkpt>
      <trkpt lat="43.40366" lon="6.07648">
        <ele>258.39999389648</ele>
        <time>2017-05-24T16:00:19Z</time>
      </trkpt>
      <trkpt lat="43.40369" lon="6.0764">
        <ele>258.20001220703</ele>
        <time>2017-05-24T16:00:20Z</time>
      </trkpt>
      <trkpt lat="43.40371" lon="6.07626">
        <ele>258.39999389648</ele>
        <time>2017-05-24T16:00:22Z</time>
      </trkpt>
      <trkpt lat="43.40374" lon="6.07605">
        <ele>258.20001220703</ele>
        <time>2017-05-24T16:00:25Z</time>
      </trkpt>
      <trkpt lat="43.40375" lon="6.07582">
        <ele>258.39999389648</ele>
        <time>2017-05-24T16:00:28Z</time>
      </trkpt>
      <trkpt lat="43.40374" lon="6.07551">
        <ele>259</ele>
        <time>2017-05-24T16:00:32Z</time>
      </trkpt>
      <trkpt lat="43.40375" lon="6.07537">
        <ele>259.20001220703</ele>
        <time>2017-05-24T16:00:34Z</time>
      </trkpt>
      <trkpt lat="43.40378" lon="6.07502">
        <ele>259.79998779297</ele>
        <time>2017-05-24T16:00:39Z</time>
      </trkpt>
      <trkpt lat="43.40382" lon="6.07481">
        <ele>259.60000610352</ele>
        <time>2017-05-24T16:00:42Z</time>
      </trkpt>
      <trkpt lat="43.40386" lon="6.07462">
        <ele>259.60000610352</ele>
        <time>2017-05-24T16:00:45Z</time>
      </trkpt>
      <trkpt lat="43.40388" lon="6.07443">
        <ele>259.39999389648</ele>
        <time>2017-05-24T16:00:48Z</time>
      </trkpt>
      <trkpt lat="43.4039" lon="6.07425">
        <ele>259.20001220703</ele>
        <time>2017-05-24T16:00:51Z</time>
      </trkpt>
      <trkpt lat="43.40391" lon="6.07419">
        <ele>259.20001220703</ele>
        <time>2017-05-24T16:00:52Z</time>
      </trkpt>
      <trkpt lat="43.40392" lon="6.07388">
        <ele>259.20001220703</ele>
        <time>2017-05-24T16:00:59Z</time>
      </trkpt>
      <trkpt lat="43.4039" lon="6.0737">
        <ele>259.20001220703</ele>
        <time>2017-05-24T16:01:02Z</time>
      </trkpt>
      <trkpt lat="43.40381" lon="6.07308">
        <ele>258.39999389648</ele>
        <time>2017-05-24T16:01:11Z</time>
      </trkpt>
      <trkpt lat="43.40383" lon="6.07295">
        <ele>257.79998779297</ele>
        <time>2017-05-24T16:01:13Z</time>
      </trkpt>
      <trkpt lat="43.40391" lon="6.07286">
        <ele>257.39999389648</ele>
        <time>2017-05-24T16:01:15Z</time>
      </trkpt>
      <trkpt lat="43.40401" lon="6.07282">
        <ele>257</ele>
        <time>2017-05-24T16:01:17Z</time>
      </trkpt>
      <trkpt lat="43.40414" lon="6.07284">
        <ele>256.39999389648</ele>
        <time>2017-05-24T16:01:19Z</time>
      </trkpt>
      <trkpt lat="43.40428" lon="6.07282">
        <ele>255.80000305176</ele>
        <time>2017-05-24T16:01:21Z</time>
      </trkpt>
      <trkpt lat="43.40435" lon="6.07282">
        <ele>255.60000610352</ele>
        <time>2017-05-24T16:01:22Z</time>
      </trkpt>
      <trkpt lat="43.40456" lon="6.07282">
        <ele>254.60000610352</ele>
        <time>2017-05-24T16:01:25Z</time>
      </trkpt>
      <trkpt lat="43.40485" lon="6.0728">
        <ele>253.19999694824</ele>
        <time>2017-05-24T16:01:29Z</time>
      </trkpt>
      <trkpt lat="43.40491" lon="6.0728">
        <ele>252.80000305176</ele>
        <time>2017-05-24T16:01:30Z</time>
      </trkpt>
      <trkpt lat="43.40504" lon="6.07282">
        <ele>252.39999389648</ele>
        <time>2017-05-24T16:01:32Z</time>
      </trkpt>
      <trkpt lat="43.40519" lon="6.07299">
        <ele>251.80000305176</ele>
        <time>2017-05-24T16:01:36Z</time>
      </trkpt>
      <trkpt lat="43.40528" lon="6.07299">
        <ele>252</ele>
        <time>2017-05-24T16:01:38Z</time>
      </trkpt>
      <trkpt lat="43.40544" lon="6.07298">
        <ele>251.80000305176</ele>
        <time>2017-05-24T16:01:42Z</time>
      </trkpt>
      <trkpt lat="43.4056" lon="6.073">
        <ele>251.19999694824</ele>
        <time>2017-05-24T16:01:48Z</time>
      </trkpt>
      <trkpt lat="43.40561" lon="6.073">
        <ele>251.60000610352</ele>
        <time>2017-05-24T16:01:52Z</time>
      </trkpt>
      <trkpt lat="43.40561" lon="6.073">
        <ele>251.60000610352</ele>
        <time>2017-05-24T16:02:11Z</time>
      </trkpt>
      <trkpt lat="43.40561" lon="6.073">
        <ele>251.39999389648</ele>
        <time>2017-05-24T16:03:12Z</time>
      </trkpt>
      <trkpt lat="43.40567" lon="6.07301">
        <ele>251.39999389648</ele>
        <time>2017-05-24T16:03:19Z</time>
      </trkpt>
      <trkpt lat="43.40573" lon="6.073">
        <ele>251</ele>
        <time>2017-05-24T16:03:21Z</time>
      </trkpt>
      <trkpt lat="43.40577" lon="6.07299">
        <ele>251</ele>
        <time>2017-05-24T16:03:22Z</time>
      </trkpt>
      <trkpt lat="43.40598" lon="6.07297">
        <ele>250.60000610352</ele>
        <time>2017-05-24T16:03:28Z</time>
      </trkpt>
      <trkpt lat="43.40609" lon="6.07309">
        <ele>250.39999389648</ele>
        <time>2017-05-24T16:03:31Z</time>
      </trkpt>
      <trkpt lat="43.40613" lon="6.07313">
        <ele>250.19999694824</ele>
        <time>2017-05-24T16:03:32Z</time>
      </trkpt>
      <trkpt lat="43.40616" lon="6.07319">
        <ele>250.19999694824</ele>
        <time>2017-05-24T16:03:33Z</time>
      </trkpt>
      <trkpt lat="43.40622" lon="6.0733">
        <ele>250</ele>
        <time>2017-05-24T16:03:35Z</time>
      </trkpt>
      <trkpt lat="43.40627" lon="6.07339">
        <ele>249.80000305176</ele>
        <time>2017-05-24T16:03:37Z</time>
      </trkpt>
      <trkpt lat="43.40634" lon="6.0734">
        <ele>249.80000305176</ele>
        <time>2017-05-24T16:03:39Z</time>
      </trkpt>
      <trkpt lat="43.40641" lon="6.07332">
        <ele>249.60000610352</ele>
        <time>2017-05-24T16:03:41Z</time>
      </trkpt>
      <trkpt lat="43.40647" lon="6.07322">
        <ele>249.60000610352</ele>
        <time>2017-05-24T16:03:43Z</time>
      </trkpt>
      <trkpt lat="43.40662" lon="6.07313">
        <ele>249</ele>
        <time>2017-05-24T16:03:46Z</time>
      </trkpt>
      <trkpt lat="43.40679" lon="6.07303">
        <ele>247.80000305176</ele>
        <time>2017-05-24T16:03:49Z</time>
      </trkpt>
      <trkpt lat="43.40694" lon="6.07293">
        <ele>247</ele>
        <time>2017-05-24T16:03:52Z</time>
      </trkpt>
      <trkpt lat="43.4071" lon="6.07284">
        <ele>246.80000305176</ele>
        <time>2017-05-24T16:03:55Z</time>
      </trkpt>
      <trkpt lat="43.4075" lon="6.07262">
        <ele>246</ele>
        <time>2017-05-24T16:04:02Z</time>
      </trkpt>
      <trkpt lat="43.40787" lon="6.07238">
        <ele>245.80000305176</ele>
        <time>2017-05-24T16:04:09Z</time>
      </trkpt>
      <trkpt lat="43.408" lon="6.07225">
        <ele>245.39999389648</ele>
        <time>2017-05-24T16:04:12Z</time>
      </trkpt>
      <trkpt lat="43.40829" lon="6.07181">
        <ele>245.39999389648</ele>
        <time>2017-05-24T16:04:20Z</time>
      </trkpt>
      <trkpt lat="43.40834" lon="6.07168">
        <ele>245.39999389648</ele>
        <time>2017-05-24T16:04:22Z</time>
      </trkpt>
      <trkpt lat="43.4085" lon="6.07101">
        <ele>244.80000305176</ele>
        <time>2017-05-24T16:04:32Z</time>
      </trkpt>
      <trkpt lat="43.40849" lon="6.07046">
        <ele>244.80000305176</ele>
        <time>2017-05-24T16:04:40Z</time>
      </trkpt>
      <trkpt lat="43.40847" lon="6.07034">
        <ele>244.80000305176</ele>
        <time>2017-05-24T16:04:42Z</time>
      </trkpt>
      <trkpt lat="43.40846" lon="6.07028">
        <ele>244.80000305176</ele>
        <time>2017-05-24T16:04:43Z</time>
      </trkpt>
      <trkpt lat="43.40845" lon="6.07016">
        <ele>245.19999694824</ele>
        <time>2017-05-24T16:04:45Z</time>
      </trkpt>
      <trkpt lat="43.40852" lon="6.0701">
        <ele>245.19999694824</ele>
        <time>2017-05-24T16:04:47Z</time>
      </trkpt>
      <trkpt lat="43.40872" lon="6.07007">
        <ele>244.60000610352</ele>
        <time>2017-05-24T16:04:52Z</time>
      </trkpt>
      <trkpt lat="43.40895" lon="6.07">
        <ele>244.80000305176</ele>
        <time>2017-05-24T16:04:58Z</time>
      </trkpt>
      <trkpt lat="43.40904" lon="6.06996">
        <ele>245</ele>
        <time>2017-05-24T16:05:00Z</time>
      </trkpt>
      <trkpt lat="43.40909" lon="6.06987">
        <ele>245</ele>
        <time>2017-05-24T16:05:02Z</time>
      </trkpt>
      <trkpt lat="43.4091" lon="6.06975">
        <ele>244.80000305176</ele>
        <time>2017-05-24T16:05:04Z</time>
      </trkpt>
      <trkpt lat="43.40919" lon="6.06953">
        <ele>245.19999694824</ele>
        <time>2017-05-24T16:05:09Z</time>
      </trkpt>
      <trkpt lat="43.40932" lon="6.0695">
        <ele>245.19999694824</ele>
        <time>2017-05-24T16:05:12Z</time>
      </trkpt>
      <trkpt lat="43.40942" lon="6.06949">
        <ele>244.80000305176</ele>
        <time>2017-05-24T16:05:14Z</time>
      </trkpt>
      <trkpt lat="43.40977" lon="6.06939">
        <ele>245</ele>
        <time>2017-05-24T16:05:22Z</time>
      </trkpt>
      <trkpt lat="43.41018" lon="6.06916">
        <ele>245</ele>
        <time>2017-05-24T16:05:32Z</time>
      </trkpt>
      <trkpt lat="43.41021" lon="6.06909">
        <ele>245.19999694824</ele>
        <time>2017-05-24T16:05:34Z</time>
      </trkpt>
      <trkpt lat="43.41021" lon="6.06897">
        <ele>245.19999694824</ele>
        <time>2017-05-24T16:05:37Z</time>
      </trkpt>
      <trkpt lat="43.41034" lon="6.06884">
        <ele>245.39999389648</ele>
        <time>2017-05-24T16:05:42Z</time>
      </trkpt>
      <trkpt lat="43.41048" lon="6.06877">
        <ele>245.80000305176</ele>
        <time>2017-05-24T16:05:47Z</time>
      </trkpt>
      <trkpt lat="43.41061" lon="6.06871">
        <ele>246.39999389648</ele>
        <time>2017-05-24T16:05:52Z</time>
      </trkpt>
      <trkpt lat="43.41064" lon="6.06868">
        <ele>246.60000610352</ele>
        <time>2017-05-24T16:05:54Z</time>
      </trkpt>
      <trkpt lat="43.41069" lon="6.06846">
        <ele>245.80000305176</ele>
        <time>2017-05-24T16:05:59Z</time>
      </trkpt>
      <trkpt lat="43.41072" lon="6.06836">
        <ele>245.19999694824</ele>
        <time>2017-05-24T16:06:02Z</time>
      </trkpt>
      <trkpt lat="43.41075" lon="6.0683">
        <ele>245.39999389648</ele>
        <time>2017-05-24T16:06:12Z</time>
      </trkpt>
      <trkpt lat="43.41075" lon="6.0683">
        <ele>245.60000610352</ele>
        <time>2017-05-24T16:06:24Z</time>
      </trkpt>
      <trkpt lat="43.41075" lon="6.0683">
        <ele>245.60000610352</ele>
        <time>2017-05-24T16:06:39Z</time>
      </trkpt>
      <trkpt lat="43.41077" lon="6.06828">
        <ele>245.60000610352</ele>
        <time>2017-05-24T16:06:42Z</time>
      </trkpt>
      <trkpt lat="43.4108" lon="6.06823">
        <ele>245.39999389648</ele>
        <time>2017-05-24T16:06:44Z</time>
      </trkpt>
      <trkpt lat="43.41082" lon="6.06819">
        <ele>245.39999389648</ele>
        <time>2017-05-24T16:06:45Z</time>
      </trkpt>
      <trkpt lat="43.41084" lon="6.0681">
        <ele>245.19999694824</ele>
        <time>2017-05-24T16:06:47Z</time>
      </trkpt>
      <trkpt lat="43.41084" lon="6.06805">
        <ele>245.19999694824</ele>
        <time>2017-05-24T16:06:48Z</time>
      </trkpt>
      <trkpt lat="43.41085" lon="6.06794">
        <ele>245</ele>
        <time>2017-05-24T16:06:50Z</time>
      </trkpt>
      <trkpt lat="43.41086" lon="6.06783">
        <ele>245</ele>
        <time>2017-05-24T16:06:52Z</time>
      </trkpt>
      <trkpt lat="43.41087" lon="6.06773">
        <ele>245</ele>
        <time>2017-05-24T16:06:54Z</time>
      </trkpt>
      <trkpt lat="43.41088" lon="6.06759">
        <ele>245</ele>
        <time>2017-05-24T16:06:57Z</time>
      </trkpt>
      <trkpt lat="43.41101" lon="6.06742">
        <ele>245.39999389648</ele>
        <time>2017-05-24T16:07:02Z</time>
      </trkpt>
      <trkpt lat="43.41116" lon="6.06729">
        <ele>245.39999389648</ele>
        <time>2017-05-24T16:07:07Z</time>
      </trkpt>
      <trkpt lat="43.41135" lon="6.06721">
        <ele>245.19999694824</ele>
        <time>2017-05-24T16:07:12Z</time>
      </trkpt>
      <trkpt lat="43.41171" lon="6.06715">
        <ele>246</ele>
        <time>2017-05-24T16:07:22Z</time>
      </trkpt>
      <trkpt lat="43.41187" lon="6.06715">
        <ele>246.19999694824</ele>
        <time>2017-05-24T16:07:26Z</time>
      </trkpt>
      <trkpt lat="43.41208" lon="6.06713">
        <ele>246.19999694824</ele>
        <time>2017-05-24T16:07:32Z</time>
      </trkpt>
      <trkpt lat="43.41233" lon="6.06711">
        <ele>246.60000610352</ele>
        <time>2017-05-24T16:07:39Z</time>
      </trkpt>
      <trkpt lat="43.41236" lon="6.0671">
        <ele>247</ele>
        <time>2017-05-24T16:07:40Z</time>
      </trkpt>
      <trkpt lat="43.41242" lon="6.06711">
        <ele>247.39999389648</ele>
        <time>2017-05-24T16:07:42Z</time>
      </trkpt>
      <trkpt lat="43.41246" lon="6.06711">
        <ele>248</ele>
        <time>2017-05-24T16:07:45Z</time>
      </trkpt>
      <trkpt lat="43.41247" lon="6.06711">
        <ele>248.60000610352</ele>
        <time>2017-05-24T16:07:52Z</time>
      </trkpt>
      <trkpt lat="43.41248" lon="6.06711">
        <ele>248.60000610352</ele>
        <time>2017-05-24T16:07:59Z</time>
      </trkpt>
      <trkpt lat="43.41248" lon="6.06711">
        <ele>248.60000610352</ele>
        <time>2017-05-24T16:08:02Z</time>
      </trkpt>
      <trkpt lat="43.41248" lon="6.06711">
        <ele>248</ele>
        <time>2017-05-24T16:08:22Z</time>
      </trkpt>
      <trkpt lat="43.41248" lon="6.06711">
        <ele>247.60000610352</ele>
        <time>2017-05-24T16:09:12Z</time>
      </trkpt>
      <trkpt lat="43.41251" lon="6.06713">
        <ele>247.80000305176</ele>
        <time>2017-05-24T16:09:18Z</time>
      </trkpt>
      <trkpt lat="43.41255" lon="6.06718">
        <ele>247.80000305176</ele>
        <time>2017-05-24T16:09:20Z</time>
      </trkpt>
      <trkpt lat="43.4126" lon="6.06724">
        <ele>248</ele>
        <time>2017-05-24T16:09:22Z</time>
      </trkpt>
      <trkpt lat="43.41273" lon="6.06753">
        <ele>248.19999694824</ele>
        <time>2017-05-24T16:09:28Z</time>
      </trkpt>
      <trkpt lat="43.41284" lon="6.06772">
        <ele>248.60000610352</ele>
        <time>2017-05-24T16:09:32Z</time>
      </trkpt>
      <trkpt lat="43.41286" lon="6.06776">
        <ele>248.80000305176</ele>
        <time>2017-05-24T16:09:33Z</time>
      </trkpt>
      <trkpt lat="43.41296" lon="6.06788">
        <ele>249.19999694824</ele>
        <time>2017-05-24T16:09:36Z</time>
      </trkpt>
      <trkpt lat="43.41314" lon="6.06802">
        <ele>250</ele>
        <time>2017-05-24T16:09:41Z</time>
      </trkpt>
      <trkpt lat="43.41317" lon="6.06805">
        <ele>250.19999694824</ele>
        <time>2017-05-24T16:09:42Z</time>
      </trkpt>
      <trkpt lat="43.41324" lon="6.06809">
        <ele>250.19999694824</ele>
        <time>2017-05-24T16:09:44Z</time>
      </trkpt>
      <trkpt lat="43.41341" lon="6.06818">
        <ele>250.80000305176</ele>
        <time>2017-05-24T16:09:49Z</time>
      </trkpt>
      <trkpt lat="43.4135" lon="6.06823">
        <ele>250.80000305176</ele>
        <time>2017-05-24T16:09:52Z</time>
      </trkpt>
      <trkpt lat="43.41381" lon="6.06839">
        <ele>251.19999694824</ele>
        <time>2017-05-24T16:10:02Z</time>
      </trkpt>
      <trkpt lat="43.41395" lon="6.0685">
        <ele>251</ele>
        <time>2017-05-24T16:10:08Z</time>
      </trkpt>
      <trkpt lat="43.41399" lon="6.06856">
        <ele>251</ele>
        <time>2017-05-24T16:10:12Z</time>
      </trkpt>
      <trkpt lat="43.41415" lon="6.06879">
        <ele>250.19999694824</ele>
        <time>2017-05-24T16:10:21Z</time>
      </trkpt>
      <trkpt lat="43.41415" lon="6.06882">
        <ele>250.39999389648</ele>
        <time>2017-05-24T16:10:22Z</time>
      </trkpt>
      <trkpt lat="43.41418" lon="6.06903">
        <ele>251</ele>
        <time>2017-05-24T16:10:26Z</time>
      </trkpt>
      <trkpt lat="43.41425" lon="6.06913">
        <ele>251</ele>
        <time>2017-05-24T16:10:28Z</time>
      </trkpt>
      <trkpt lat="43.41434" lon="6.06921">
        <ele>251</ele>
        <time>2017-05-24T16:10:30Z</time>
      </trkpt>
      <trkpt lat="43.41444" lon="6.06923">
        <ele>250.80000305176</ele>
        <time>2017-05-24T16:10:32Z</time>
      </trkpt>
      <trkpt lat="43.41455" lon="6.06925">
        <ele>250.60000610352</ele>
        <time>2017-05-24T16:10:34Z</time>
      </trkpt>
      <trkpt lat="43.41463" lon="6.06931">
        <ele>250.19999694824</ele>
        <time>2017-05-24T16:10:36Z</time>
      </trkpt>
      <trkpt lat="43.41474" lon="6.06948">
        <ele>250</ele>
        <time>2017-05-24T16:10:39Z</time>
      </trkpt>
      <trkpt lat="43.41484" lon="6.06964">
        <ele>249.39999389648</ele>
        <time>2017-05-24T16:10:42Z</time>
      </trkpt>
      <trkpt lat="43.41488" lon="6.06969">
        <ele>249.19999694824</ele>
        <time>2017-05-24T16:10:43Z</time>
      </trkpt>
      <trkpt lat="43.41491" lon="6.0697">
        <ele>249.19999694824</ele>
        <time>2017-05-24T16:10:44Z</time>
      </trkpt>
      <trkpt lat="43.41499" lon="6.06965">
        <ele>249.39999389648</ele>
        <time>2017-05-24T16:10:47Z</time>
      </trkpt>
      <trkpt lat="43.4151" lon="6.0697">
        <ele>250.19999694824</ele>
        <time>2017-05-24T16:10:52Z</time>
      </trkpt>
      <trkpt lat="43.41518" lon="6.06971">
        <ele>250.19999694824</ele>
        <time>2017-05-24T16:10:55Z</time>
      </trkpt>
      <trkpt lat="43.41541" lon="6.0697">
        <ele>250.19999694824</ele>
        <time>2017-05-24T16:11:02Z</time>
      </trkpt>
      <trkpt lat="43.41566" lon="6.06965">
        <ele>250.80000305176</ele>
        <time>2017-05-24T16:11:12Z</time>
      </trkpt>
      <trkpt lat="43.41567" lon="6.06965">
        <ele>251.19999694824</ele>
        <time>2017-05-24T16:11:22Z</time>
      </trkpt>
      <trkpt lat="43.41567" lon="6.06965">
        <ele>251</ele>
        <time>2017-05-24T16:11:32Z</time>
      </trkpt>
      <trkpt lat="43.41567" lon="6.06965">
        <ele>251.39999389648</ele>
        <time>2017-05-24T16:11:52Z</time>
      </trkpt>
      <trkpt lat="43.41568" lon="6.06964">
        <ele>251.19999694824</ele>
        <time>2017-05-24T16:11:58Z</time>
      </trkpt>
      <trkpt lat="43.41571" lon="6.06965">
        <ele>251.19999694824</ele>
        <time>2017-05-24T16:12:00Z</time>
      </trkpt>
      <trkpt lat="43.41573" lon="6.06965">
        <ele>251.19999694824</ele>
        <time>2017-05-24T16:12:01Z</time>
      </trkpt>
      <trkpt lat="43.41574" lon="6.06965">
        <ele>251.39999389648</ele>
        <time>2017-05-24T16:12:02Z</time>
      </trkpt>
      <trkpt lat="43.41579" lon="6.06965">
        <ele>251.60000610352</ele>
        <time>2017-05-24T16:12:04Z</time>
      </trkpt>
      <trkpt lat="43.41587" lon="6.06969">
        <ele>251.80000305176</ele>
        <time>2017-05-24T16:12:08Z</time>
      </trkpt>
      <trkpt lat="43.41589" lon="6.06982">
        <ele>252</ele>
        <time>2017-05-24T16:12:12Z</time>
      </trkpt>
      <trkpt lat="43.41591" lon="6.06991">
        <ele>252.39999389648</ele>
        <time>2017-05-24T16:12:15Z</time>
      </trkpt>
      <trkpt lat="43.41596" lon="6.07006">
        <ele>252.80000305176</ele>
        <time>2017-05-24T16:12:20Z</time>
      </trkpt>
      <trkpt lat="43.416" lon="6.07008">
        <ele>253</ele>
        <time>2017-05-24T16:12:22Z</time>
      </trkpt>
      <trkpt lat="43.4161" lon="6.07008">
        <ele>253.39999389648</ele>
        <time>2017-05-24T16:12:26Z</time>
      </trkpt>
      <trkpt lat="43.41624" lon="6.07005">
        <ele>254</ele>
        <time>2017-05-24T16:12:32Z</time>
      </trkpt>
      <trkpt lat="43.4163" lon="6.06996">
        <ele>254.60000610352</ele>
        <time>2017-05-24T16:12:37Z</time>
      </trkpt>
      <trkpt lat="43.41629" lon="6.06978">
        <ele>254.60000610352</ele>
        <time>2017-05-24T16:12:42Z</time>
      </trkpt>
      <trkpt lat="43.41633" lon="6.06965">
        <ele>255</ele>
        <time>2017-05-24T16:12:52Z</time>
      </trkpt>
      <trkpt lat="43.41633" lon="6.06965">
        <ele>255.39999389648</ele>
        <time>2017-05-24T16:13:02Z</time>
      </trkpt>
      <trkpt lat="43.41634" lon="6.06965">
        <ele>255</ele>
        <time>2017-05-24T16:13:09Z</time>
      </trkpt>
      <trkpt lat="43.41634" lon="6.06966">
        <ele>255</ele>
        <time>2017-05-24T16:13:12Z</time>
      </trkpt>
      <trkpt lat="43.41634" lon="6.06966">
        <ele>255</ele>
        <time>2017-05-24T16:13:22Z</time>
      </trkpt>
      <trkpt lat="43.41634" lon="6.06966">
        <ele>254.80000305176</ele>
        <time>2017-05-24T16:13:32Z</time>
      </trkpt>
      <trkpt lat="43.41634" lon="6.06965">
        <ele>254.60000610352</ele>
        <time>2017-05-24T16:13:52Z</time>
      </trkpt>
      <trkpt lat="43.41634" lon="6.06965">
        <ele>254.39999389648</ele>
        <time>2017-05-24T16:14:02Z</time>
      </trkpt>
      <trkpt lat="43.41634" lon="6.06965">
        <ele>254.39999389648</ele>
        <time>2017-05-24T16:14:12Z</time>
      </trkpt>
      <trkpt lat="43.41634" lon="6.06965">
        <ele>254.39999389648</ele>
        <time>2017-05-24T16:14:26Z</time>
      </trkpt>
    </trkseg>
  </trk>
</gpx>